<?xml version="1.0" encoding="UTF-8" standalone="no" ?>
<gpx xmlns="http://www.topografix.com/GPX/1/1" xmlns:xsi="http://www.w3.org/2001/XMLSchema-instance" xsi:schemaLocation="http://www.topografix.com/GPX/1/1 http://www.topografix.com/GPX/1/1/gpx.xsd" version="1.1" creator="VisuGPX - https://www.visugpx.com">
  <metadata>
    <name>2015-05-12 Portail de Chorolant - Pas de l\'Aronde</name>
    <desc><![CDATA[Départ du parking de la cascade de la Pissotte]]></desc>
  </metadata>
  <trk>
    <name><![CDATA[g]]></name>
    <trkseg>
      <trkpt lat="45.35112" lon="5.67814">
        <ele>511</ele>
        <time>2015-05-12T14:40:39Z</time>
      </trkpt>
      <trkpt lat="45.35113" lon="5.67813">
        <ele>511</ele>
        <time>2015-05-12T14:40:44Z</time>
      </trkpt>
      <trkpt lat="45.35114" lon="5.67815">
        <ele>511</ele>
        <time>2015-05-12T14:40:49Z</time>
      </trkpt>
      <trkpt lat="45.35118" lon="5.67824">
        <ele>514.046987947</ele>
        <time>2015-05-12T14:40:55Z</time>
      </trkpt>
      <trkpt lat="45.35121" lon="5.6783">
        <ele>514.046987947</ele>
        <time>2015-05-12T14:40:59Z</time>
      </trkpt>
      <trkpt lat="45.35117" lon="5.6784">
        <ele>515.152763792</ele>
        <time>2015-05-12T14:41:04Z</time>
      </trkpt>
      <trkpt lat="45.35118" lon="5.67849">
        <ele>515.152763792</ele>
        <time>2015-05-12T14:41:09Z</time>
      </trkpt>
      <trkpt lat="45.35118" lon="5.67858">
        <ele>516.892946734</ele>
        <time>2015-05-12T14:41:14Z</time>
      </trkpt>
      <trkpt lat="45.35118" lon="5.67868">
        <ele>516.892946734</ele>
        <time>2015-05-12T14:41:19Z</time>
      </trkpt>
      <trkpt lat="45.35118" lon="5.67878">
        <ele>518.983323549</ele>
        <time>2015-05-12T14:41:24Z</time>
      </trkpt>
      <trkpt lat="45.35116" lon="5.67885">
        <ele>518.983323549</ele>
        <time>2015-05-12T14:41:29Z</time>
      </trkpt>
      <trkpt lat="45.35113" lon="5.67895">
        <ele>521.110072326</ele>
        <time>2015-05-12T14:41:34Z</time>
      </trkpt>
      <trkpt lat="45.35109" lon="5.67902">
        <ele>521.110072326</ele>
        <time>2015-05-12T14:41:39Z</time>
      </trkpt>
      <trkpt lat="45.35108" lon="5.67909">
        <ele>523.11457735</ele>
        <time>2015-05-12T14:41:44Z</time>
      </trkpt>
      <trkpt lat="45.35103" lon="5.67917">
        <ele>523.11457735</ele>
        <time>2015-05-12T14:41:49Z</time>
      </trkpt>
      <trkpt lat="45.35099" lon="5.67922">
        <ele>525.779710828</ele>
        <time>2015-05-12T14:41:54Z</time>
      </trkpt>
      <trkpt lat="45.35091" lon="5.6793">
        <ele>527.996764468</ele>
        <time>2015-05-12T14:41:59Z</time>
      </trkpt>
      <trkpt lat="45.3509" lon="5.67934">
        <ele>527.996764468</ele>
        <time>2015-05-12T14:42:04Z</time>
      </trkpt>
      <trkpt lat="45.35084" lon="5.67939">
        <ele>530.434984755</ele>
        <time>2015-05-12T14:42:09Z</time>
      </trkpt>
      <trkpt lat="45.35077" lon="5.6794">
        <ele>530.434984755</ele>
        <time>2015-05-12T14:42:14Z</time>
      </trkpt>
      <trkpt lat="45.35076" lon="5.67946">
        <ele>532.528361436</ele>
        <time>2015-05-12T14:42:20Z</time>
      </trkpt>
      <trkpt lat="45.35074" lon="5.67947">
        <ele>532.528361436</ele>
        <time>2015-05-12T14:42:24Z</time>
      </trkpt>
      <trkpt lat="45.35065" lon="5.67951">
        <ele>534.12887156</ele>
        <time>2015-05-12T14:42:29Z</time>
      </trkpt>
      <trkpt lat="45.35061" lon="5.6795">
        <ele>534.12887156</ele>
        <time>2015-05-12T14:42:34Z</time>
      </trkpt>
      <trkpt lat="45.35053" lon="5.67952">
        <ele>535.616409172</ele>
        <time>2015-05-12T14:42:39Z</time>
      </trkpt>
      <trkpt lat="45.35046" lon="5.67955">
        <ele>535.616409172</ele>
        <time>2015-05-12T14:42:44Z</time>
      </trkpt>
      <trkpt lat="45.35039" lon="5.67952">
        <ele>537.852396766</ele>
        <time>2015-05-12T14:42:50Z</time>
      </trkpt>
      <trkpt lat="45.35032" lon="5.67956">
        <ele>537.852396766</ele>
        <time>2015-05-12T14:42:55Z</time>
      </trkpt>
      <trkpt lat="45.35027" lon="5.67961">
        <ele>539.955861785</ele>
        <time>2015-05-12T14:43:00Z</time>
      </trkpt>
      <trkpt lat="45.35022" lon="5.67958">
        <ele>539.955861785</ele>
        <time>2015-05-12T14:43:05Z</time>
      </trkpt>
      <trkpt lat="45.35021" lon="5.67953">
        <ele>542.452545613</ele>
        <time>2015-05-12T14:43:10Z</time>
      </trkpt>
      <trkpt lat="45.35024" lon="5.67945">
        <ele>542.452545613</ele>
        <time>2015-05-12T14:43:14Z</time>
      </trkpt>
      <trkpt lat="45.3502" lon="5.67942">
        <ele>546.469505749</ele>
        <time>2015-05-12T14:43:20Z</time>
      </trkpt>
      <trkpt lat="45.35013" lon="5.67939">
        <ele>546.469505749</ele>
        <time>2015-05-12T14:43:25Z</time>
      </trkpt>
      <trkpt lat="45.35008" lon="5.67929">
        <ele>549.397718666</ele>
        <time>2015-05-12T14:43:30Z</time>
      </trkpt>
      <trkpt lat="45.34998" lon="5.67927">
        <ele>552.164736426</ele>
        <time>2015-05-12T14:43:35Z</time>
      </trkpt>
      <trkpt lat="45.34994" lon="5.67924">
        <ele>552.164736426</ele>
        <time>2015-05-12T14:43:40Z</time>
      </trkpt>
      <trkpt lat="45.34984" lon="5.67904">
        <ele>554.474875927</ele>
        <time>2015-05-12T14:43:45Z</time>
      </trkpt>
      <trkpt lat="45.3497" lon="5.67911">
        <ele>556.386316409</ele>
        <time>2015-05-12T14:43:50Z</time>
      </trkpt>
      <trkpt lat="45.34974" lon="5.67909">
        <ele>556.386316409</ele>
        <time>2015-05-12T14:43:55Z</time>
      </trkpt>
      <trkpt lat="45.34972" lon="5.67911">
        <ele>556.386316409</ele>
        <time>2015-05-12T14:44:00Z</time>
      </trkpt>
      <trkpt lat="45.3497" lon="5.67911">
        <ele>556.386316409</ele>
        <time>2015-05-12T14:44:05Z</time>
      </trkpt>
      <trkpt lat="45.34969" lon="5.67911">
        <ele>557.951391588</ele>
        <time>2015-05-12T14:44:10Z</time>
      </trkpt>
      <trkpt lat="45.34968" lon="5.67911">
        <ele>557.951391588</ele>
        <time>2015-05-12T14:44:15Z</time>
      </trkpt>
      <trkpt lat="45.34967" lon="5.67914">
        <ele>557.951391588</ele>
        <time>2015-05-12T14:44:20Z</time>
      </trkpt>
      <trkpt lat="45.34958" lon="5.67921">
        <ele>559.824370053</ele>
        <time>2015-05-12T14:44:25Z</time>
      </trkpt>
      <trkpt lat="45.34954" lon="5.67922">
        <ele>559.824370053</ele>
        <time>2015-05-12T14:44:29Z</time>
      </trkpt>
      <trkpt lat="45.34947" lon="5.67937">
        <ele>561.973469021</ele>
        <time>2015-05-12T14:44:35Z</time>
      </trkpt>
      <trkpt lat="45.3494" lon="5.67943">
        <ele>561.973469021</ele>
        <time>2015-05-12T14:44:40Z</time>
      </trkpt>
      <trkpt lat="45.34937" lon="5.67947">
        <ele>564.22143971</ele>
        <time>2015-05-12T14:44:45Z</time>
      </trkpt>
      <trkpt lat="45.34935" lon="5.67949">
        <ele>564.22143971</ele>
        <time>2015-05-12T14:44:50Z</time>
      </trkpt>
      <trkpt lat="45.3493" lon="5.67948">
        <ele>564.22143971</ele>
        <time>2015-05-12T14:44:55Z</time>
      </trkpt>
      <trkpt lat="45.34924" lon="5.6795">
        <ele>566.266302105</ele>
        <time>2015-05-12T14:45:00Z</time>
      </trkpt>
      <trkpt lat="45.34914" lon="5.67958">
        <ele>568.417072213</ele>
        <time>2015-05-12T14:45:05Z</time>
      </trkpt>
      <trkpt lat="45.34915" lon="5.67964">
        <ele>568.417072213</ele>
        <time>2015-05-12T14:45:10Z</time>
      </trkpt>
      <trkpt lat="45.34918" lon="5.67962">
        <ele>568.417072213</ele>
        <time>2015-05-12T14:45:15Z</time>
      </trkpt>
      <trkpt lat="45.34922" lon="5.67962">
        <ele>570.519686395</ele>
        <time>2015-05-12T14:45:20Z</time>
      </trkpt>
      <trkpt lat="45.34925" lon="5.67965">
        <ele>570.519686395</ele>
        <time>2015-05-12T14:45:25Z</time>
      </trkpt>
      <trkpt lat="45.34925" lon="5.6797">
        <ele>570.519686395</ele>
        <time>2015-05-12T14:45:30Z</time>
      </trkpt>
      <trkpt lat="45.34928" lon="5.67975">
        <ele>572.577490397</ele>
        <time>2015-05-12T14:45:34Z</time>
      </trkpt>
      <trkpt lat="45.3493" lon="5.67982">
        <ele>572.577490397</ele>
        <time>2015-05-12T14:45:39Z</time>
      </trkpt>
      <trkpt lat="45.34926" lon="5.67992">
        <ele>574.593026797</ele>
        <time>2015-05-12T14:45:44Z</time>
      </trkpt>
      <trkpt lat="45.34922" lon="5.68005">
        <ele>576.568273364</ele>
        <time>2015-05-12T14:45:50Z</time>
      </trkpt>
      <trkpt lat="45.3492" lon="5.68011">
        <ele>576.568273364</ele>
        <time>2015-05-12T14:45:54Z</time>
      </trkpt>
      <trkpt lat="45.34918" lon="5.6802">
        <ele>578.643831953</ele>
        <time>2015-05-12T14:46:00Z</time>
      </trkpt>
      <trkpt lat="45.34913" lon="5.68026">
        <ele>578.643831953</ele>
        <time>2015-05-12T14:46:05Z</time>
      </trkpt>
      <trkpt lat="45.34911" lon="5.68033">
        <ele>580.810432566</ele>
        <time>2015-05-12T14:46:10Z</time>
      </trkpt>
      <trkpt lat="45.34912" lon="5.6804">
        <ele>580.810432566</ele>
        <time>2015-05-12T14:46:15Z</time>
      </trkpt>
      <trkpt lat="45.34908" lon="5.68047">
        <ele>583.060168961</ele>
        <time>2015-05-12T14:46:20Z</time>
      </trkpt>
      <trkpt lat="45.34906" lon="5.68059">
        <ele>583.060168961</ele>
        <time>2015-05-12T14:46:25Z</time>
      </trkpt>
      <trkpt lat="45.34904" lon="5.68073">
        <ele>585.664426267</ele>
        <time>2015-05-12T14:46:30Z</time>
      </trkpt>
      <trkpt lat="45.34902" lon="5.68082">
        <ele>585.664426267</ele>
        <time>2015-05-12T14:46:35Z</time>
      </trkpt>
      <trkpt lat="45.34897" lon="5.68085">
        <ele>588.319998655</ele>
        <time>2015-05-12T14:46:40Z</time>
      </trkpt>
      <trkpt lat="45.34892" lon="5.68093">
        <ele>588.319998655</ele>
        <time>2015-05-12T14:46:45Z</time>
      </trkpt>
      <trkpt lat="45.34891" lon="5.68095">
        <ele>588.319998655</ele>
        <time>2015-05-12T14:46:50Z</time>
      </trkpt>
      <trkpt lat="45.34888" lon="5.68101">
        <ele>591.863613545</ele>
        <time>2015-05-12T14:46:55Z</time>
      </trkpt>
      <trkpt lat="45.34889" lon="5.68104">
        <ele>591.863613545</ele>
        <time>2015-05-12T14:47:00Z</time>
      </trkpt>
      <trkpt lat="45.3489" lon="5.68105">
        <ele>591.863613545</ele>
        <time>2015-05-12T14:47:05Z</time>
      </trkpt>
      <trkpt lat="45.34889" lon="5.68104">
        <ele>591.863613545</ele>
        <time>2015-05-12T14:47:10Z</time>
      </trkpt>
      <trkpt lat="45.34889" lon="5.68104">
        <ele>591.863613545</ele>
        <time>2015-05-12T14:47:15Z</time>
      </trkpt>
      <trkpt lat="45.34889" lon="5.68104">
        <ele>591.863613545</ele>
        <time>2015-05-12T14:47:20Z</time>
      </trkpt>
      <trkpt lat="45.34889" lon="5.68104">
        <ele>591.863613545</ele>
        <time>2015-05-12T14:47:24Z</time>
      </trkpt>
      <trkpt lat="45.34889" lon="5.68104">
        <ele>591.863613545</ele>
        <time>2015-05-12T14:47:29Z</time>
      </trkpt>
      <trkpt lat="45.3489" lon="5.68107">
        <ele>591.863613545</ele>
        <time>2015-05-12T14:47:34Z</time>
      </trkpt>
      <trkpt lat="45.3489" lon="5.68108">
        <ele>596.380671497</ele>
        <time>2015-05-12T14:47:40Z</time>
      </trkpt>
      <trkpt lat="45.34885" lon="5.68119">
        <ele>596.380671497</ele>
        <time>2015-05-12T14:47:45Z</time>
      </trkpt>
      <trkpt lat="45.34877" lon="5.68127">
        <ele>601.100643526</ele>
        <time>2015-05-12T14:47:50Z</time>
      </trkpt>
      <trkpt lat="45.34884" lon="5.68125">
        <ele>601.100643526</ele>
        <time>2015-05-12T14:47:55Z</time>
      </trkpt>
      <trkpt lat="45.34883" lon="5.68127">
        <ele>605.577150674</ele>
        <time>2015-05-12T14:48:00Z</time>
      </trkpt>
      <trkpt lat="45.3488" lon="5.68129">
        <ele>605.577150674</ele>
        <time>2015-05-12T14:48:05Z</time>
      </trkpt>
      <trkpt lat="45.3488" lon="5.68129">
        <ele>605.577150674</ele>
        <time>2015-05-12T14:48:10Z</time>
      </trkpt>
      <trkpt lat="45.3488" lon="5.68129">
        <ele>605.577150674</ele>
        <time>2015-05-12T14:48:15Z</time>
      </trkpt>
      <trkpt lat="45.34879" lon="5.68129">
        <ele>605.577150674</ele>
        <time>2015-05-12T14:48:20Z</time>
      </trkpt>
      <trkpt lat="45.34879" lon="5.68129">
        <ele>605.577150674</ele>
        <time>2015-05-12T14:48:25Z</time>
      </trkpt>
      <trkpt lat="45.3487" lon="5.68125">
        <ele>609.529856172</ele>
        <time>2015-05-12T14:48:30Z</time>
      </trkpt>
      <trkpt lat="45.34866" lon="5.68113">
        <ele>614.285762409</ele>
        <time>2015-05-12T14:48:35Z</time>
      </trkpt>
      <trkpt lat="45.3486" lon="5.6811">
        <ele>614.285762409</ele>
        <time>2015-05-12T14:48:39Z</time>
      </trkpt>
      <trkpt lat="45.34848" lon="5.68115">
        <ele>618.916698489</ele>
        <time>2015-05-12T14:48:45Z</time>
      </trkpt>
      <trkpt lat="45.34842" lon="5.68115">
        <ele>618.916698489</ele>
        <time>2015-05-12T14:48:49Z</time>
      </trkpt>
      <trkpt lat="45.34832" lon="5.68111">
        <ele>624.301850793</ele>
        <time>2015-05-12T14:48:54Z</time>
      </trkpt>
      <trkpt lat="45.3483" lon="5.68116">
        <ele>624.301850793</ele>
        <time>2015-05-12T14:48:59Z</time>
      </trkpt>
      <trkpt lat="45.34829" lon="5.6811">
        <ele>624.301850793</ele>
        <time>2015-05-12T14:49:04Z</time>
      </trkpt>
      <trkpt lat="45.34825" lon="5.68101">
        <ele>629.942767689</ele>
        <time>2015-05-12T14:49:09Z</time>
      </trkpt>
      <trkpt lat="45.3482" lon="5.68093">
        <ele>629.942767689</ele>
        <time>2015-05-12T14:49:15Z</time>
      </trkpt>
      <trkpt lat="45.3481" lon="5.6811">
        <ele>635.218480817</ele>
        <time>2015-05-12T14:49:20Z</time>
      </trkpt>
      <trkpt lat="45.34804" lon="5.68103">
        <ele>635.218480817</ele>
        <time>2015-05-12T14:49:25Z</time>
      </trkpt>
      <trkpt lat="45.34799" lon="5.68105">
        <ele>639.84388327</ele>
        <time>2015-05-12T14:49:30Z</time>
      </trkpt>
      <trkpt lat="45.34798" lon="5.68107">
        <ele>639.84388327</ele>
        <time>2015-05-12T14:49:35Z</time>
      </trkpt>
      <trkpt lat="45.34794" lon="5.68108">
        <ele>639.84388327</ele>
        <time>2015-05-12T14:49:40Z</time>
      </trkpt>
      <trkpt lat="45.34794" lon="5.68105">
        <ele>639.84388327</ele>
        <time>2015-05-12T14:49:45Z</time>
      </trkpt>
      <trkpt lat="45.34794" lon="5.68103">
        <ele>645.350347937</ele>
        <time>2015-05-12T14:49:50Z</time>
      </trkpt>
      <trkpt lat="45.34795" lon="5.68101">
        <ele>645.350347937</ele>
        <time>2015-05-12T14:49:55Z</time>
      </trkpt>
      <trkpt lat="45.34804" lon="5.68101">
        <ele>650.468047135</ele>
        <time>2015-05-12T14:50:00Z</time>
      </trkpt>
      <trkpt lat="45.34815" lon="5.68098">
        <ele>655.516750544</ele>
        <time>2015-05-12T14:50:05Z</time>
      </trkpt>
      <trkpt lat="45.34817" lon="5.6811">
        <ele>655.516750544</ele>
        <time>2015-05-12T14:50:10Z</time>
      </trkpt>
      <trkpt lat="45.34815" lon="5.68119">
        <ele>659.589964475</ele>
        <time>2015-05-12T14:50:15Z</time>
      </trkpt>
      <trkpt lat="45.34814" lon="5.68126">
        <ele>659.589964475</ele>
        <time>2015-05-12T14:50:20Z</time>
      </trkpt>
      <trkpt lat="45.3481" lon="5.68133">
        <ele>663.510809979</ele>
        <time>2015-05-12T14:50:26Z</time>
      </trkpt>
      <trkpt lat="45.34811" lon="5.68138">
        <ele>663.510809979</ele>
        <time>2015-05-12T14:50:29Z</time>
      </trkpt>
      <trkpt lat="45.34811" lon="5.6815">
        <ele>667.591110724</ele>
        <time>2015-05-12T14:50:35Z</time>
      </trkpt>
      <trkpt lat="45.34809" lon="5.68158">
        <ele>667.591110724</ele>
        <time>2015-05-12T14:50:40Z</time>
      </trkpt>
      <trkpt lat="45.34808" lon="5.68166">
        <ele>671.363890014</ele>
        <time>2015-05-12T14:50:45Z</time>
      </trkpt>
      <trkpt lat="45.34808" lon="5.68179">
        <ele>674.399709573</ele>
        <time>2015-05-12T14:50:50Z</time>
      </trkpt>
      <trkpt lat="45.34813" lon="5.68185">
        <ele>674.399709573</ele>
        <time>2015-05-12T14:50:55Z</time>
      </trkpt>
      <trkpt lat="45.34808" lon="5.6819">
        <ele>677.512384428</ele>
        <time>2015-05-12T14:51:00Z</time>
      </trkpt>
      <trkpt lat="45.34807" lon="5.68194">
        <ele>677.512384428</ele>
        <time>2015-05-12T14:51:05Z</time>
      </trkpt>
      <trkpt lat="45.34809" lon="5.682">
        <ele>677.512384428</ele>
        <time>2015-05-12T14:51:10Z</time>
      </trkpt>
      <trkpt lat="45.34807" lon="5.68206">
        <ele>679.794529738</ele>
        <time>2015-05-12T14:51:15Z</time>
      </trkpt>
      <trkpt lat="45.34809" lon="5.68209">
        <ele>679.794529738</ele>
        <time>2015-05-12T14:51:20Z</time>
      </trkpt>
      <trkpt lat="45.34806" lon="5.68211">
        <ele>679.794529738</ele>
        <time>2015-05-12T14:51:25Z</time>
      </trkpt>
      <trkpt lat="45.34804" lon="5.68211">
        <ele>679.794529738</ele>
        <time>2015-05-12T14:51:30Z</time>
      </trkpt>
      <trkpt lat="45.34804" lon="5.68211">
        <ele>679.794529738</ele>
        <time>2015-05-12T14:51:35Z</time>
      </trkpt>
      <trkpt lat="45.34803" lon="5.68211">
        <ele>679.794529738</ele>
        <time>2015-05-12T14:51:40Z</time>
      </trkpt>
      <trkpt lat="45.34803" lon="5.68211">
        <ele>679.794529738</ele>
        <time>2015-05-12T14:51:45Z</time>
      </trkpt>
      <trkpt lat="45.34803" lon="5.68211">
        <ele>679.794529738</ele>
        <time>2015-05-12T14:51:50Z</time>
      </trkpt>
      <trkpt lat="45.34803" lon="5.68211">
        <ele>679.794529738</ele>
        <time>2015-05-12T14:51:55Z</time>
      </trkpt>
      <trkpt lat="45.34803" lon="5.68211">
        <ele>679.794529738</ele>
        <time>2015-05-12T14:52:00Z</time>
      </trkpt>
      <trkpt lat="45.34803" lon="5.68211">
        <ele>679.794529738</ele>
        <time>2015-05-12T14:52:04Z</time>
      </trkpt>
      <trkpt lat="45.34803" lon="5.6821">
        <ele>681.467787232</ele>
        <time>2015-05-12T14:52:10Z</time>
      </trkpt>
      <trkpt lat="45.34803" lon="5.6821">
        <ele>681.467787232</ele>
        <time>2015-05-12T14:52:15Z</time>
      </trkpt>
      <trkpt lat="45.34806" lon="5.68226">
        <ele>682.437910967</ele>
        <time>2015-05-12T14:52:20Z</time>
      </trkpt>
      <trkpt lat="45.34812" lon="5.68231">
        <ele>682.437910967</ele>
        <time>2015-05-12T14:52:25Z</time>
      </trkpt>
      <trkpt lat="45.34815" lon="5.68239">
        <ele>683.818035471</ele>
        <time>2015-05-12T14:52:30Z</time>
      </trkpt>
      <trkpt lat="45.34817" lon="5.68253">
        <ele>684.834850964</ele>
        <time>2015-05-12T14:52:35Z</time>
      </trkpt>
      <trkpt lat="45.34823" lon="5.68263">
        <ele>685.376618034</ele>
        <time>2015-05-12T14:52:40Z</time>
      </trkpt>
      <trkpt lat="45.34825" lon="5.68272">
        <ele>685.376618034</ele>
        <time>2015-05-12T14:52:45Z</time>
      </trkpt>
      <trkpt lat="45.34826" lon="5.68278">
        <ele>686.233591149</ele>
        <time>2015-05-12T14:52:50Z</time>
      </trkpt>
      <trkpt lat="45.34828" lon="5.68287">
        <ele>686.233591149</ele>
        <time>2015-05-12T14:52:54Z</time>
      </trkpt>
      <trkpt lat="45.34825" lon="5.68303">
        <ele>686.794512984</ele>
        <time>2015-05-12T14:53:00Z</time>
      </trkpt>
      <trkpt lat="45.34825" lon="5.68314">
        <ele>686.794512984</ele>
        <time>2015-05-12T14:53:05Z</time>
      </trkpt>
      <trkpt lat="45.34823" lon="5.68322">
        <ele>686.204464842</ele>
        <time>2015-05-12T14:53:10Z</time>
      </trkpt>
      <trkpt lat="45.34825" lon="5.68334">
        <ele>686.204464842</ele>
        <time>2015-05-12T14:53:15Z</time>
      </trkpt>
      <trkpt lat="45.34822" lon="5.68351">
        <ele>685.895008727</ele>
        <time>2015-05-12T14:53:20Z</time>
      </trkpt>
      <trkpt lat="45.34821" lon="5.68359">
        <ele>685.895008727</ele>
        <time>2015-05-12T14:53:25Z</time>
      </trkpt>
      <trkpt lat="45.34821" lon="5.68362">
        <ele>685.895008727</ele>
        <time>2015-05-12T14:53:30Z</time>
      </trkpt>
      <trkpt lat="45.34823" lon="5.68363">
        <ele>686.882905675</ele>
        <time>2015-05-12T14:53:35Z</time>
      </trkpt>
      <trkpt lat="45.34825" lon="5.68361">
        <ele>686.882905675</ele>
        <time>2015-05-12T14:53:40Z</time>
      </trkpt>
      <trkpt lat="45.34825" lon="5.68361">
        <ele>686.882905675</ele>
        <time>2015-05-12T14:53:45Z</time>
      </trkpt>
      <trkpt lat="45.34826" lon="5.68361">
        <ele>686.882905675</ele>
        <time>2015-05-12T14:53:50Z</time>
      </trkpt>
      <trkpt lat="45.34827" lon="5.68361">
        <ele>686.882905675</ele>
        <time>2015-05-12T14:53:55Z</time>
      </trkpt>
      <trkpt lat="45.34827" lon="5.68361">
        <ele>686.882905675</ele>
        <time>2015-05-12T14:54:00Z</time>
      </trkpt>
      <trkpt lat="45.34837" lon="5.68363">
        <ele>688.629262682</ele>
        <time>2015-05-12T14:54:05Z</time>
      </trkpt>
      <trkpt lat="45.34849" lon="5.68362">
        <ele>690.930820904</ele>
        <time>2015-05-12T14:54:10Z</time>
      </trkpt>
      <trkpt lat="45.34857" lon="5.68366">
        <ele>690.930820904</ele>
        <time>2015-05-12T14:54:15Z</time>
      </trkpt>
      <trkpt lat="45.34866" lon="5.68363">
        <ele>692.722626169</ele>
        <time>2015-05-12T14:54:20Z</time>
      </trkpt>
      <trkpt lat="45.34872" lon="5.6837">
        <ele>692.722626169</ele>
        <time>2015-05-12T14:54:25Z</time>
      </trkpt>
      <trkpt lat="45.34875" lon="5.68374">
        <ele>694.048870131</ele>
        <time>2015-05-12T14:54:30Z</time>
      </trkpt>
      <trkpt lat="45.34879" lon="5.68379">
        <ele>694.048870131</ele>
        <time>2015-05-12T14:54:34Z</time>
      </trkpt>
      <trkpt lat="45.34884" lon="5.68374">
        <ele>694.659750485</ele>
        <time>2015-05-12T14:54:39Z</time>
      </trkpt>
      <trkpt lat="45.34888" lon="5.68367">
        <ele>694.659750485</ele>
        <time>2015-05-12T14:54:44Z</time>
      </trkpt>
      <trkpt lat="45.3489" lon="5.68363">
        <ele>695.781169572</ele>
        <time>2015-05-12T14:54:50Z</time>
      </trkpt>
      <trkpt lat="45.3489" lon="5.68359">
        <ele>695.781169572</ele>
        <time>2015-05-12T14:54:54Z</time>
      </trkpt>
      <trkpt lat="45.34895" lon="5.6836">
        <ele>695.781169572</ele>
        <time>2015-05-12T14:54:59Z</time>
      </trkpt>
      <trkpt lat="45.34899" lon="5.68358">
        <ele>696.797610491</ele>
        <time>2015-05-12T14:55:04Z</time>
      </trkpt>
      <trkpt lat="45.34904" lon="5.68362">
        <ele>696.797610491</ele>
        <time>2015-05-12T14:55:09Z</time>
      </trkpt>
      <trkpt lat="45.34907" lon="5.68367">
        <ele>698.157568695</ele>
        <time>2015-05-12T14:55:14Z</time>
      </trkpt>
      <trkpt lat="45.34912" lon="5.68365">
        <ele>698.157568695</ele>
        <time>2015-05-12T14:55:19Z</time>
      </trkpt>
      <trkpt lat="45.3492" lon="5.68376">
        <ele>699.838926464</ele>
        <time>2015-05-12T14:55:25Z</time>
      </trkpt>
      <trkpt lat="45.34922" lon="5.68383">
        <ele>699.838926464</ele>
        <time>2015-05-12T14:55:29Z</time>
      </trkpt>
      <trkpt lat="45.34923" lon="5.6839">
        <ele>701.241545544</ele>
        <time>2015-05-12T14:55:34Z</time>
      </trkpt>
      <trkpt lat="45.34918" lon="5.68395">
        <ele>701.241545544</ele>
        <time>2015-05-12T14:55:39Z</time>
      </trkpt>
      <trkpt lat="45.34916" lon="5.68399">
        <ele>702.824420475</ele>
        <time>2015-05-12T14:55:44Z</time>
      </trkpt>
      <trkpt lat="45.34899" lon="5.68404">
        <ele>703.854717519</ele>
        <time>2015-05-12T14:55:49Z</time>
      </trkpt>
      <trkpt lat="45.34899" lon="5.68405">
        <ele>703.854717519</ele>
        <time>2015-05-12T14:55:54Z</time>
      </trkpt>
      <trkpt lat="45.34901" lon="5.6841">
        <ele>703.854717519</ele>
        <time>2015-05-12T14:55:59Z</time>
      </trkpt>
      <trkpt lat="45.34902" lon="5.68409">
        <ele>703.854717519</ele>
        <time>2015-05-12T14:56:04Z</time>
      </trkpt>
      <trkpt lat="45.34903" lon="5.6841">
        <ele>703.854717519</ele>
        <time>2015-05-12T14:56:09Z</time>
      </trkpt>
      <trkpt lat="45.34903" lon="5.6841">
        <ele>703.854717519</ele>
        <time>2015-05-12T14:56:14Z</time>
      </trkpt>
      <trkpt lat="45.34911" lon="5.68412">
        <ele>705.822974872</ele>
        <time>2015-05-12T14:56:19Z</time>
      </trkpt>
      <trkpt lat="45.34912" lon="5.68421">
        <ele>705.822974872</ele>
        <time>2015-05-12T14:56:24Z</time>
      </trkpt>
      <trkpt lat="45.34917" lon="5.68419">
        <ele>707.21737935</ele>
        <time>2015-05-12T14:56:29Z</time>
      </trkpt>
      <trkpt lat="45.34918" lon="5.68422">
        <ele>707.21737935</ele>
        <time>2015-05-12T14:56:34Z</time>
      </trkpt>
      <trkpt lat="45.34919" lon="5.68422">
        <ele>707.21737935</ele>
        <time>2015-05-12T14:56:39Z</time>
      </trkpt>
      <trkpt lat="45.34921" lon="5.6842">
        <ele>707.21737935</ele>
        <time>2015-05-12T14:56:45Z</time>
      </trkpt>
      <trkpt lat="45.34922" lon="5.6842">
        <ele>707.21737935</ele>
        <time>2015-05-12T14:56:50Z</time>
      </trkpt>
      <trkpt lat="45.34929" lon="5.68419">
        <ele>708.084245892</ele>
        <time>2015-05-12T14:56:55Z</time>
      </trkpt>
      <trkpt lat="45.34936" lon="5.68426">
        <ele>708.084245892</ele>
        <time>2015-05-12T14:57:00Z</time>
      </trkpt>
      <trkpt lat="45.34941" lon="5.68427">
        <ele>708.756066002</ele>
        <time>2015-05-12T14:57:05Z</time>
      </trkpt>
      <trkpt lat="45.34948" lon="5.68427">
        <ele>708.756066002</ele>
        <time>2015-05-12T14:57:09Z</time>
      </trkpt>
      <trkpt lat="45.34957" lon="5.68415">
        <ele>709.685089401</ele>
        <time>2015-05-12T14:57:15Z</time>
      </trkpt>
      <trkpt lat="45.34962" lon="5.68407">
        <ele>709.685089401</ele>
        <time>2015-05-12T14:57:20Z</time>
      </trkpt>
      <trkpt lat="45.34969" lon="5.68399">
        <ele>711.144959213</ele>
        <time>2015-05-12T14:57:25Z</time>
      </trkpt>
      <trkpt lat="45.34972" lon="5.68395">
        <ele>711.144959213</ele>
        <time>2015-05-12T14:57:30Z</time>
      </trkpt>
      <trkpt lat="45.34976" lon="5.68391">
        <ele>711.144959213</ele>
        <time>2015-05-12T14:57:35Z</time>
      </trkpt>
      <trkpt lat="45.3498" lon="5.68388">
        <ele>711.080539609</ele>
        <time>2015-05-12T14:57:40Z</time>
      </trkpt>
      <trkpt lat="45.34983" lon="5.68381">
        <ele>711.080539609</ele>
        <time>2015-05-12T14:57:45Z</time>
      </trkpt>
      <trkpt lat="45.34986" lon="5.68371">
        <ele>711.052695892</ele>
        <time>2015-05-12T14:57:50Z</time>
      </trkpt>
      <trkpt lat="45.34991" lon="5.68362">
        <ele>711.052695892</ele>
        <time>2015-05-12T14:57:55Z</time>
      </trkpt>
      <trkpt lat="45.34996" lon="5.68354">
        <ele>710.921021838</ele>
        <time>2015-05-12T14:58:00Z</time>
      </trkpt>
      <trkpt lat="45.34997" lon="5.68352">
        <ele>710.921021838</ele>
        <time>2015-05-12T14:58:04Z</time>
      </trkpt>
      <trkpt lat="45.34998" lon="5.68349">
        <ele>710.921021838</ele>
        <time>2015-05-12T14:58:09Z</time>
      </trkpt>
      <trkpt lat="45.34999" lon="5.68348">
        <ele>710.921021838</ele>
        <time>2015-05-12T14:58:14Z</time>
      </trkpt>
      <trkpt lat="45.34996" lon="5.68351">
        <ele>710.921021838</ele>
        <time>2015-05-12T14:58:19Z</time>
      </trkpt>
      <trkpt lat="45.34995" lon="5.68369">
        <ele>710.84393035</ele>
        <time>2015-05-12T14:58:25Z</time>
      </trkpt>
      <trkpt lat="45.34992" lon="5.68372">
        <ele>710.84393035</ele>
        <time>2015-05-12T14:58:29Z</time>
      </trkpt>
      <trkpt lat="45.34992" lon="5.68379">
        <ele>710.84393035</ele>
        <time>2015-05-12T14:58:34Z</time>
      </trkpt>
      <trkpt lat="45.34992" lon="5.68379">
        <ele>710.84393035</ele>
        <time>2015-05-12T14:58:39Z</time>
      </trkpt>
      <trkpt lat="45.34991" lon="5.6838">
        <ele>710.84393035</ele>
        <time>2015-05-12T14:58:44Z</time>
      </trkpt>
      <trkpt lat="45.34992" lon="5.6838">
        <ele>710.84393035</ele>
        <time>2015-05-12T14:58:49Z</time>
      </trkpt>
      <trkpt lat="45.34992" lon="5.6838">
        <ele>710.84393035</ele>
        <time>2015-05-12T14:58:54Z</time>
      </trkpt>
      <trkpt lat="45.34988" lon="5.68389">
        <ele>710.391162187</ele>
        <time>2015-05-12T14:58:59Z</time>
      </trkpt>
      <trkpt lat="45.34985" lon="5.68404">
        <ele>709.5974665</ele>
        <time>2015-05-12T14:59:05Z</time>
      </trkpt>
      <trkpt lat="45.3498" lon="5.68417">
        <ele>708.639999676</ele>
        <time>2015-05-12T14:59:10Z</time>
      </trkpt>
      <trkpt lat="45.34978" lon="5.68416">
        <ele>708.639999676</ele>
        <time>2015-05-12T14:59:14Z</time>
      </trkpt>
      <trkpt lat="45.34974" lon="5.68423">
        <ele>708.639999676</ele>
        <time>2015-05-12T14:59:19Z</time>
      </trkpt>
      <trkpt lat="45.3497" lon="5.6842">
        <ele>707.97159807</ele>
        <time>2015-05-12T14:59:24Z</time>
      </trkpt>
      <trkpt lat="45.34962" lon="5.68413">
        <ele>708.587730221</ele>
        <time>2015-05-12T14:59:30Z</time>
      </trkpt>
      <trkpt lat="45.34954" lon="5.68418">
        <ele>708.666893718</ele>
        <time>2015-05-12T14:59:34Z</time>
      </trkpt>
      <trkpt lat="45.34939" lon="5.68408">
        <ele>708.685842076</ele>
        <time>2015-05-12T14:59:40Z</time>
      </trkpt>
      <trkpt lat="45.34937" lon="5.68413">
        <ele>708.685842076</ele>
        <time>2015-05-12T14:59:44Z</time>
      </trkpt>
      <trkpt lat="45.34936" lon="5.68412">
        <ele>708.685842076</ele>
        <time>2015-05-12T14:59:50Z</time>
      </trkpt>
      <trkpt lat="45.34936" lon="5.68415">
        <ele>708.685842076</ele>
        <time>2015-05-12T14:59:55Z</time>
      </trkpt>
      <trkpt lat="45.34934" lon="5.68415">
        <ele>709.374787514</ele>
        <time>2015-05-12T14:59:59Z</time>
      </trkpt>
      <trkpt lat="45.34934" lon="5.68416">
        <ele>709.374787514</ele>
        <time>2015-05-12T15:00:04Z</time>
      </trkpt>
      <trkpt lat="45.34928" lon="5.68429">
        <ele>709.965881449</ele>
        <time>2015-05-12T15:00:10Z</time>
      </trkpt>
      <trkpt lat="45.34921" lon="5.68435">
        <ele>709.965881449</ele>
        <time>2015-05-12T15:00:14Z</time>
      </trkpt>
      <trkpt lat="45.34919" lon="5.68438">
        <ele>710.901640115</ele>
        <time>2015-05-12T15:00:19Z</time>
      </trkpt>
      <trkpt lat="45.34918" lon="5.6844">
        <ele>710.901640115</ele>
        <time>2015-05-12T15:00:25Z</time>
      </trkpt>
      <trkpt lat="45.34918" lon="5.6844">
        <ele>710.901640115</ele>
        <time>2015-05-12T15:00:30Z</time>
      </trkpt>
      <trkpt lat="45.34918" lon="5.6844">
        <ele>710.901640115</ele>
        <time>2015-05-12T15:00:35Z</time>
      </trkpt>
      <trkpt lat="45.34918" lon="5.6844">
        <ele>710.901640115</ele>
        <time>2015-05-12T15:00:40Z</time>
      </trkpt>
      <trkpt lat="45.34922" lon="5.68444">
        <ele>710.901640115</ele>
        <time>2015-05-12T15:00:45Z</time>
      </trkpt>
      <trkpt lat="45.34924" lon="5.68449">
        <ele>711.725451722</ele>
        <time>2015-05-12T15:00:50Z</time>
      </trkpt>
      <trkpt lat="45.34925" lon="5.68458">
        <ele>711.725451722</ele>
        <time>2015-05-12T15:00:55Z</time>
      </trkpt>
      <trkpt lat="45.3492" lon="5.68464">
        <ele>713.168340106</ele>
        <time>2015-05-12T15:01:00Z</time>
      </trkpt>
      <trkpt lat="45.34919" lon="5.68469">
        <ele>713.168340106</ele>
        <time>2015-05-12T15:01:05Z</time>
      </trkpt>
      <trkpt lat="45.34923" lon="5.68472">
        <ele>713.168340106</ele>
        <time>2015-05-12T15:01:10Z</time>
      </trkpt>
      <trkpt lat="45.3493" lon="5.68475">
        <ele>716.19415455</ele>
        <time>2015-05-12T15:01:15Z</time>
      </trkpt>
      <trkpt lat="45.34932" lon="5.68479">
        <ele>716.19415455</ele>
        <time>2015-05-12T15:01:20Z</time>
      </trkpt>
      <trkpt lat="45.34934" lon="5.68491">
        <ele>718.950624449</ele>
        <time>2015-05-12T15:01:25Z</time>
      </trkpt>
      <trkpt lat="45.34935" lon="5.68502">
        <ele>718.950624449</ele>
        <time>2015-05-12T15:01:30Z</time>
      </trkpt>
      <trkpt lat="45.34934" lon="5.6851">
        <ele>721.020524766</ele>
        <time>2015-05-12T15:01:35Z</time>
      </trkpt>
      <trkpt lat="45.34931" lon="5.68518">
        <ele>721.020524766</ele>
        <time>2015-05-12T15:01:40Z</time>
      </trkpt>
      <trkpt lat="45.3493" lon="5.68524">
        <ele>723.749993584</ele>
        <time>2015-05-12T15:01:45Z</time>
      </trkpt>
      <trkpt lat="45.34928" lon="5.68532">
        <ele>723.749993584</ele>
        <time>2015-05-12T15:01:50Z</time>
      </trkpt>
      <trkpt lat="45.34926" lon="5.68535">
        <ele>723.749993584</ele>
        <time>2015-05-12T15:01:54Z</time>
      </trkpt>
      <trkpt lat="45.34923" lon="5.68547">
        <ele>727.086056773</ele>
        <time>2015-05-12T15:01:59Z</time>
      </trkpt>
      <trkpt lat="45.34921" lon="5.68555">
        <ele>727.086056773</ele>
        <time>2015-05-12T15:02:04Z</time>
      </trkpt>
      <trkpt lat="45.34925" lon="5.68557">
        <ele>730.689415374</ele>
        <time>2015-05-12T15:02:09Z</time>
      </trkpt>
      <trkpt lat="45.34926" lon="5.68566">
        <ele>730.689415374</ele>
        <time>2015-05-12T15:02:15Z</time>
      </trkpt>
      <trkpt lat="45.34925" lon="5.68572">
        <ele>733.956531791</ele>
        <time>2015-05-12T15:02:20Z</time>
      </trkpt>
      <trkpt lat="45.34925" lon="5.68587">
        <ele>737.627150393</ele>
        <time>2015-05-12T15:02:24Z</time>
      </trkpt>
      <trkpt lat="45.34927" lon="5.68589">
        <ele>737.627150393</ele>
        <time>2015-05-12T15:02:29Z</time>
      </trkpt>
      <trkpt lat="45.34931" lon="5.68591">
        <ele>737.627150393</ele>
        <time>2015-05-12T15:02:35Z</time>
      </trkpt>
      <trkpt lat="45.34935" lon="5.68594">
        <ele>742.096981111</ele>
        <time>2015-05-12T15:02:40Z</time>
      </trkpt>
      <trkpt lat="45.34935" lon="5.68592">
        <ele>742.096981111</ele>
        <time>2015-05-12T15:02:45Z</time>
      </trkpt>
      <trkpt lat="45.34939" lon="5.686">
        <ele>742.096981111</ele>
        <time>2015-05-12T15:02:50Z</time>
      </trkpt>
      <trkpt lat="45.3494" lon="5.68608">
        <ele>747.874558929</ele>
        <time>2015-05-12T15:02:55Z</time>
      </trkpt>
      <trkpt lat="45.34932" lon="5.6861">
        <ele>747.874558929</ele>
        <time>2015-05-12T15:03:00Z</time>
      </trkpt>
      <trkpt lat="45.34926" lon="5.6861">
        <ele>752.831951803</ele>
        <time>2015-05-12T15:03:05Z</time>
      </trkpt>
      <trkpt lat="45.3492" lon="5.68613">
        <ele>752.831951803</ele>
        <time>2015-05-12T15:03:10Z</time>
      </trkpt>
      <trkpt lat="45.34916" lon="5.68614">
        <ele>757.307279218</ele>
        <time>2015-05-12T15:03:15Z</time>
      </trkpt>
      <trkpt lat="45.34909" lon="5.6862">
        <ele>757.307279218</ele>
        <time>2015-05-12T15:03:20Z</time>
      </trkpt>
      <trkpt lat="45.34899" lon="5.68625">
        <ele>760.461818104</ele>
        <time>2015-05-12T15:03:25Z</time>
      </trkpt>
      <trkpt lat="45.34889" lon="5.68627">
        <ele>762.964109401</ele>
        <time>2015-05-12T15:03:30Z</time>
      </trkpt>
      <trkpt lat="45.34879" lon="5.6864">
        <ele>764.714603726</ele>
        <time>2015-05-12T15:03:35Z</time>
      </trkpt>
      <trkpt lat="45.34874" lon="5.68642">
        <ele>764.714603726</ele>
        <time>2015-05-12T15:03:40Z</time>
      </trkpt>
      <trkpt lat="45.34871" lon="5.68645">
        <ele>764.714603726</ele>
        <time>2015-05-12T15:03:45Z</time>
      </trkpt>
      <trkpt lat="45.34859" lon="5.6866">
        <ele>765.767464089</ele>
        <time>2015-05-12T15:03:50Z</time>
      </trkpt>
      <trkpt lat="45.34855" lon="5.68666">
        <ele>765.767464089</ele>
        <time>2015-05-12T15:03:55Z</time>
      </trkpt>
      <trkpt lat="45.34848" lon="5.68674">
        <ele>767.039822628</ele>
        <time>2015-05-12T15:04:00Z</time>
      </trkpt>
      <trkpt lat="45.34843" lon="5.68677">
        <ele>767.039822628</ele>
        <time>2015-05-12T15:04:05Z</time>
      </trkpt>
      <trkpt lat="45.34836" lon="5.68686">
        <ele>768.371798063</ele>
        <time>2015-05-12T15:04:10Z</time>
      </trkpt>
      <trkpt lat="45.34826" lon="5.68688">
        <ele>770.047630065</ele>
        <time>2015-05-12T15:04:15Z</time>
      </trkpt>
      <trkpt lat="45.34823" lon="5.68692">
        <ele>770.047630065</ele>
        <time>2015-05-12T15:04:19Z</time>
      </trkpt>
      <trkpt lat="45.34819" lon="5.68701">
        <ele>772.04151325</ele>
        <time>2015-05-12T15:04:25Z</time>
      </trkpt>
      <trkpt lat="45.34817" lon="5.68708">
        <ele>772.04151325</ele>
        <time>2015-05-12T15:04:29Z</time>
      </trkpt>
      <trkpt lat="45.34809" lon="5.68713">
        <ele>773.608098287</ele>
        <time>2015-05-12T15:04:35Z</time>
      </trkpt>
      <trkpt lat="45.34801" lon="5.68718">
        <ele>774.634647486</ele>
        <time>2015-05-12T15:04:40Z</time>
      </trkpt>
      <trkpt lat="45.34794" lon="5.68725">
        <ele>774.634647486</ele>
        <time>2015-05-12T15:04:45Z</time>
      </trkpt>
      <trkpt lat="45.34797" lon="5.68736">
        <ele>776.459531665</ele>
        <time>2015-05-12T15:04:49Z</time>
      </trkpt>
      <trkpt lat="45.34795" lon="5.68734">
        <ele>776.459531665</ele>
        <time>2015-05-12T15:04:55Z</time>
      </trkpt>
      <trkpt lat="45.34798" lon="5.68744">
        <ele>778.302857753</ele>
        <time>2015-05-12T15:05:00Z</time>
      </trkpt>
      <trkpt lat="45.34786" lon="5.68751">
        <ele>780.162684024</ele>
        <time>2015-05-12T15:05:05Z</time>
      </trkpt>
      <trkpt lat="45.34776" lon="5.68758">
        <ele>781.748994576</ele>
        <time>2015-05-12T15:05:09Z</time>
      </trkpt>
      <trkpt lat="45.34775" lon="5.68762">
        <ele>781.748994576</ele>
        <time>2015-05-12T15:05:14Z</time>
      </trkpt>
      <trkpt lat="45.34763" lon="5.68773">
        <ele>781.929219389</ele>
        <time>2015-05-12T15:05:20Z</time>
      </trkpt>
      <trkpt lat="45.34752" lon="5.68785">
        <ele>781.387377899</ele>
        <time>2015-05-12T15:05:25Z</time>
      </trkpt>
      <trkpt lat="45.34745" lon="5.68785">
        <ele>781.387377899</ele>
        <time>2015-05-12T15:05:30Z</time>
      </trkpt>
      <trkpt lat="45.34741" lon="5.68788">
        <ele>781.191617252</ele>
        <time>2015-05-12T15:05:35Z</time>
      </trkpt>
      <trkpt lat="45.34733" lon="5.6879">
        <ele>781.191617252</ele>
        <time>2015-05-12T15:05:40Z</time>
      </trkpt>
      <trkpt lat="45.34722" lon="5.68787">
        <ele>781.1777428</ele>
        <time>2015-05-12T15:05:44Z</time>
      </trkpt>
      <trkpt lat="45.34721" lon="5.68784">
        <ele>781.1777428</ele>
        <time>2015-05-12T15:05:49Z</time>
      </trkpt>
      <trkpt lat="45.34723" lon="5.68782">
        <ele>781.1777428</ele>
        <time>2015-05-12T15:05:54Z</time>
      </trkpt>
      <trkpt lat="45.34722" lon="5.68781">
        <ele>781.1777428</ele>
        <time>2015-05-12T15:05:59Z</time>
      </trkpt>
      <trkpt lat="45.34718" lon="5.68779">
        <ele>782.490133523</ele>
        <time>2015-05-12T15:06:05Z</time>
      </trkpt>
      <trkpt lat="45.34716" lon="5.68778">
        <ele>782.490133523</ele>
        <time>2015-05-12T15:06:09Z</time>
      </trkpt>
      <trkpt lat="45.34708" lon="5.68781">
        <ele>784.456020224</ele>
        <time>2015-05-12T15:06:14Z</time>
      </trkpt>
      <trkpt lat="45.34703" lon="5.68781">
        <ele>784.456020224</ele>
        <time>2015-05-12T15:06:19Z</time>
      </trkpt>
      <trkpt lat="45.34697" lon="5.68786">
        <ele>787.026666307</ele>
        <time>2015-05-12T15:06:24Z</time>
      </trkpt>
      <trkpt lat="45.34686" lon="5.68786">
        <ele>789.866984681</ele>
        <time>2015-05-12T15:06:29Z</time>
      </trkpt>
      <trkpt lat="45.34676" lon="5.68785">
        <ele>792.66574239</ele>
        <time>2015-05-12T15:06:34Z</time>
      </trkpt>
      <trkpt lat="45.34659" lon="5.68787">
        <ele>794.558234852</ele>
        <time>2015-05-12T15:06:40Z</time>
      </trkpt>
      <trkpt lat="45.34657" lon="5.68791">
        <ele>794.558234852</ele>
        <time>2015-05-12T15:06:44Z</time>
      </trkpt>
      <trkpt lat="45.34651" lon="5.68791">
        <ele>794.558234852</ele>
        <time>2015-05-12T15:06:49Z</time>
      </trkpt>
      <trkpt lat="45.34653" lon="5.68794">
        <ele>797.195749815</ele>
        <time>2015-05-12T15:06:54Z</time>
      </trkpt>
      <trkpt lat="45.34656" lon="5.68796">
        <ele>797.195749815</ele>
        <time>2015-05-12T15:06:59Z</time>
      </trkpt>
      <trkpt lat="45.34658" lon="5.68803">
        <ele>797.195749815</ele>
        <time>2015-05-12T15:07:04Z</time>
      </trkpt>
      <trkpt lat="45.34662" lon="5.68808">
        <ele>799.800390194</ele>
        <time>2015-05-12T15:07:09Z</time>
      </trkpt>
      <trkpt lat="45.34665" lon="5.68818">
        <ele>799.800390194</ele>
        <time>2015-05-12T15:07:14Z</time>
      </trkpt>
      <trkpt lat="45.34669" lon="5.68826">
        <ele>801.939738503</ele>
        <time>2015-05-12T15:07:19Z</time>
      </trkpt>
      <trkpt lat="45.34674" lon="5.68823">
        <ele>801.939738503</ele>
        <time>2015-05-12T15:07:24Z</time>
      </trkpt>
      <trkpt lat="45.34683" lon="5.68831">
        <ele>804.511495928</ele>
        <time>2015-05-12T15:07:29Z</time>
      </trkpt>
      <trkpt lat="45.34692" lon="5.68835">
        <ele>807.049210873</ele>
        <time>2015-05-12T15:07:34Z</time>
      </trkpt>
      <trkpt lat="45.34697" lon="5.68842">
        <ele>807.049210873</ele>
        <time>2015-05-12T15:07:39Z</time>
      </trkpt>
      <trkpt lat="45.34705" lon="5.68848">
        <ele>810.273740029</ele>
        <time>2015-05-12T15:07:44Z</time>
      </trkpt>
      <trkpt lat="45.34706" lon="5.6885">
        <ele>810.273740029</ele>
        <time>2015-05-12T15:07:49Z</time>
      </trkpt>
      <trkpt lat="45.34707" lon="5.68854">
        <ele>810.273740029</ele>
        <time>2015-05-12T15:07:54Z</time>
      </trkpt>
      <trkpt lat="45.34711" lon="5.68863">
        <ele>813.40995517</ele>
        <time>2015-05-12T15:08:00Z</time>
      </trkpt>
      <trkpt lat="45.34719" lon="5.6887">
        <ele>817.036994307</ele>
        <time>2015-05-12T15:08:04Z</time>
      </trkpt>
      <trkpt lat="45.34728" lon="5.68875">
        <ele>820.96955844</ele>
        <time>2015-05-12T15:08:09Z</time>
      </trkpt>
      <trkpt lat="45.34733" lon="5.68892">
        <ele>823.738134869</ele>
        <time>2015-05-12T15:08:14Z</time>
      </trkpt>
      <trkpt lat="45.34736" lon="5.68891">
        <ele>823.738134869</ele>
        <time>2015-05-12T15:08:19Z</time>
      </trkpt>
      <trkpt lat="45.34741" lon="5.68896">
        <ele>823.738134869</ele>
        <time>2015-05-12T15:08:24Z</time>
      </trkpt>
      <trkpt lat="45.3475" lon="5.68901">
        <ele>826.866798653</ele>
        <time>2015-05-12T15:08:29Z</time>
      </trkpt>
      <trkpt lat="45.34755" lon="5.68906">
        <ele>826.866798653</ele>
        <time>2015-05-12T15:08:34Z</time>
      </trkpt>
      <trkpt lat="45.34756" lon="5.68914">
        <ele>829.749127058</ele>
        <time>2015-05-12T15:08:39Z</time>
      </trkpt>
      <trkpt lat="45.34758" lon="5.68919">
        <ele>829.749127058</ele>
        <time>2015-05-12T15:08:44Z</time>
      </trkpt>
      <trkpt lat="45.34756" lon="5.6893">
        <ele>832.112250358</ele>
        <time>2015-05-12T15:08:49Z</time>
      </trkpt>
      <trkpt lat="45.34752" lon="5.68938">
        <ele>832.112250358</ele>
        <time>2015-05-12T15:08:55Z</time>
      </trkpt>
      <trkpt lat="45.34752" lon="5.6894">
        <ele>833.272539543</ele>
        <time>2015-05-12T15:08:59Z</time>
      </trkpt>
      <trkpt lat="45.34743" lon="5.68944">
        <ele>834.18529948</ele>
        <time>2015-05-12T15:09:04Z</time>
      </trkpt>
      <trkpt lat="45.34729" lon="5.68958">
        <ele>833.862928529</ele>
        <time>2015-05-12T15:09:09Z</time>
      </trkpt>
      <trkpt lat="45.34733" lon="5.68963">
        <ele>833.862928529</ele>
        <time>2015-05-12T15:09:14Z</time>
      </trkpt>
      <trkpt lat="45.34724" lon="5.6897">
        <ele>834.13206573</ele>
        <time>2015-05-12T15:09:19Z</time>
      </trkpt>
      <trkpt lat="45.34734" lon="5.68972">
        <ele>834.810049356</ele>
        <time>2015-05-12T15:09:24Z</time>
      </trkpt>
      <trkpt lat="45.34726" lon="5.68974">
        <ele>834.810049356</ele>
        <time>2015-05-12T15:09:29Z</time>
      </trkpt>
      <trkpt lat="45.34717" lon="5.68974">
        <ele>835.870622677</ele>
        <time>2015-05-12T15:09:34Z</time>
      </trkpt>
      <trkpt lat="45.34713" lon="5.68971">
        <ele>835.870622677</ele>
        <time>2015-05-12T15:09:39Z</time>
      </trkpt>
      <trkpt lat="45.34709" lon="5.68967">
        <ele>837.288390337</ele>
        <time>2015-05-12T15:09:44Z</time>
      </trkpt>
      <trkpt lat="45.34701" lon="5.68969">
        <ele>837.288390337</ele>
        <time>2015-05-12T15:09:49Z</time>
      </trkpt>
      <trkpt lat="45.34694" lon="5.68968">
        <ele>838.894703935</ele>
        <time>2015-05-12T15:09:54Z</time>
      </trkpt>
      <trkpt lat="45.3469" lon="5.68969">
        <ele>838.894703935</ele>
        <time>2015-05-12T15:09:59Z</time>
      </trkpt>
      <trkpt lat="45.34687" lon="5.68976">
        <ele>840.965107128</ele>
        <time>2015-05-12T15:10:04Z</time>
      </trkpt>
      <trkpt lat="45.34684" lon="5.68979">
        <ele>840.965107128</ele>
        <time>2015-05-12T15:10:09Z</time>
      </trkpt>
      <trkpt lat="45.34688" lon="5.6898">
        <ele>840.965107128</ele>
        <time>2015-05-12T15:10:14Z</time>
      </trkpt>
      <trkpt lat="45.3469" lon="5.68983">
        <ele>844.330042048</ele>
        <time>2015-05-12T15:10:19Z</time>
      </trkpt>
      <trkpt lat="45.34693" lon="5.68987">
        <ele>844.330042048</ele>
        <time>2015-05-12T15:10:24Z</time>
      </trkpt>
      <trkpt lat="45.34697" lon="5.68996">
        <ele>847.737726233</ele>
        <time>2015-05-12T15:10:29Z</time>
      </trkpt>
      <trkpt lat="45.34704" lon="5.69003">
        <ele>847.737726233</ele>
        <time>2015-05-12T15:10:34Z</time>
      </trkpt>
      <trkpt lat="45.34705" lon="5.69004">
        <ele>851.469347846</ele>
        <time>2015-05-12T15:10:39Z</time>
      </trkpt>
      <trkpt lat="45.34706" lon="5.69003">
        <ele>851.469347846</ele>
        <time>2015-05-12T15:10:44Z</time>
      </trkpt>
      <trkpt lat="45.34716" lon="5.69016">
        <ele>854.775754096</ele>
        <time>2015-05-12T15:10:49Z</time>
      </trkpt>
      <trkpt lat="45.34724" lon="5.69021">
        <ele>854.775754096</ele>
        <time>2015-05-12T15:10:54Z</time>
      </trkpt>
      <trkpt lat="45.34729" lon="5.69019">
        <ele>858.549280051</ele>
        <time>2015-05-12T15:10:59Z</time>
      </trkpt>
      <trkpt lat="45.34732" lon="5.69023">
        <ele>858.549280051</ele>
        <time>2015-05-12T15:11:04Z</time>
      </trkpt>
      <trkpt lat="45.34738" lon="5.69034">
        <ele>861.597860585</ele>
        <time>2015-05-12T15:11:09Z</time>
      </trkpt>
      <trkpt lat="45.34736" lon="5.69033">
        <ele>861.597860585</ele>
        <time>2015-05-12T15:11:14Z</time>
      </trkpt>
      <trkpt lat="45.34735" lon="5.69034">
        <ele>861.597860585</ele>
        <time>2015-05-12T15:11:19Z</time>
      </trkpt>
      <trkpt lat="45.34735" lon="5.69034">
        <ele>861.597860585</ele>
        <time>2015-05-12T15:11:24Z</time>
      </trkpt>
      <trkpt lat="45.34735" lon="5.69034">
        <ele>861.597860585</ele>
        <time>2015-05-12T15:11:29Z</time>
      </trkpt>
      <trkpt lat="45.3474" lon="5.69037">
        <ele>861.597860585</ele>
        <time>2015-05-12T15:11:35Z</time>
      </trkpt>
      <trkpt lat="45.34755" lon="5.6903">
        <ele>864.260199615</ele>
        <time>2015-05-12T15:11:40Z</time>
      </trkpt>
      <trkpt lat="45.34768" lon="5.69025">
        <ele>866.851250165</ele>
        <time>2015-05-12T15:11:45Z</time>
      </trkpt>
      <trkpt lat="45.34777" lon="5.69026">
        <ele>866.851250165</ele>
        <time>2015-05-12T15:11:49Z</time>
      </trkpt>
      <trkpt lat="45.34784" lon="5.69028">
        <ele>868.942519735</ele>
        <time>2015-05-12T15:11:55Z</time>
      </trkpt>
      <trkpt lat="45.348" lon="5.69021">
        <ele>871.147227566</ele>
        <time>2015-05-12T15:12:00Z</time>
      </trkpt>
      <trkpt lat="45.34807" lon="5.6901">
        <ele>872.880381593</ele>
        <time>2015-05-12T15:12:05Z</time>
      </trkpt>
      <trkpt lat="45.3481" lon="5.69031">
        <ele>874.465999037</ele>
        <time>2015-05-12T15:12:10Z</time>
      </trkpt>
      <trkpt lat="45.34809" lon="5.69038">
        <ele>874.465999037</ele>
        <time>2015-05-12T15:12:15Z</time>
      </trkpt>
      <trkpt lat="45.34802" lon="5.69047">
        <ele>875.051852625</ele>
        <time>2015-05-12T15:12:20Z</time>
      </trkpt>
      <trkpt lat="45.348" lon="5.69058">
        <ele>875.051852625</ele>
        <time>2015-05-12T15:12:25Z</time>
      </trkpt>
      <trkpt lat="45.34798" lon="5.69064">
        <ele>875.148152463</ele>
        <time>2015-05-12T15:12:30Z</time>
      </trkpt>
      <trkpt lat="45.34795" lon="5.69072">
        <ele>875.148152463</ele>
        <time>2015-05-12T15:12:35Z</time>
      </trkpt>
      <trkpt lat="45.34791" lon="5.69078">
        <ele>875.229013401</ele>
        <time>2015-05-12T15:12:40Z</time>
      </trkpt>
      <trkpt lat="45.3479" lon="5.69083">
        <ele>875.229013401</ele>
        <time>2015-05-12T15:12:45Z</time>
      </trkpt>
      <trkpt lat="45.34782" lon="5.69083">
        <ele>875.589650519</ele>
        <time>2015-05-12T15:12:50Z</time>
      </trkpt>
      <trkpt lat="45.34776" lon="5.69087">
        <ele>875.589650519</ele>
        <time>2015-05-12T15:12:55Z</time>
      </trkpt>
      <trkpt lat="45.34775" lon="5.69103">
        <ele>875.34989752</ele>
        <time>2015-05-12T15:13:00Z</time>
      </trkpt>
      <trkpt lat="45.34767" lon="5.69099">
        <ele>875.34989752</ele>
        <time>2015-05-12T15:13:05Z</time>
      </trkpt>
      <trkpt lat="45.34766" lon="5.6911">
        <ele>876.145785525</ele>
        <time>2015-05-12T15:13:10Z</time>
      </trkpt>
      <trkpt lat="45.34754" lon="5.69111">
        <ele>876.463873889</ele>
        <time>2015-05-12T15:13:15Z</time>
      </trkpt>
      <trkpt lat="45.34747" lon="5.6911">
        <ele>876.463873889</ele>
        <time>2015-05-12T15:13:20Z</time>
      </trkpt>
      <trkpt lat="45.34739" lon="5.69118">
        <ele>875.911956055</ele>
        <time>2015-05-12T15:13:25Z</time>
      </trkpt>
      <trkpt lat="45.34738" lon="5.69119">
        <ele>875.911956055</ele>
        <time>2015-05-12T15:13:30Z</time>
      </trkpt>
      <trkpt lat="45.34735" lon="5.69127">
        <ele>875.911956055</ele>
        <time>2015-05-12T15:13:35Z</time>
      </trkpt>
      <trkpt lat="45.3473" lon="5.69132">
        <ele>877.155341061</ele>
        <time>2015-05-12T15:13:40Z</time>
      </trkpt>
      <trkpt lat="45.34723" lon="5.69144">
        <ele>878.335093743</ele>
        <time>2015-05-12T15:13:45Z</time>
      </trkpt>
      <trkpt lat="45.34724" lon="5.69143">
        <ele>878.335093743</ele>
        <time>2015-05-12T15:13:49Z</time>
      </trkpt>
      <trkpt lat="45.34725" lon="5.69145">
        <ele>878.335093743</ele>
        <time>2015-05-12T15:13:54Z</time>
      </trkpt>
      <trkpt lat="45.34724" lon="5.69143">
        <ele>878.335093743</ele>
        <time>2015-05-12T15:13:59Z</time>
      </trkpt>
      <trkpt lat="45.34724" lon="5.69142">
        <ele>878.335093743</ele>
        <time>2015-05-12T15:14:05Z</time>
      </trkpt>
      <trkpt lat="45.34724" lon="5.69141">
        <ele>878.335093743</ele>
        <time>2015-05-12T15:14:09Z</time>
      </trkpt>
      <trkpt lat="45.34724" lon="5.69141">
        <ele>878.335093743</ele>
        <time>2015-05-12T15:14:15Z</time>
      </trkpt>
      <trkpt lat="45.34724" lon="5.69141">
        <ele>878.335093743</ele>
        <time>2015-05-12T15:14:20Z</time>
      </trkpt>
      <trkpt lat="45.34724" lon="5.69141">
        <ele>878.335093743</ele>
        <time>2015-05-12T15:14:25Z</time>
      </trkpt>
      <trkpt lat="45.34724" lon="5.69141">
        <ele>878.335093743</ele>
        <time>2015-05-12T15:14:29Z</time>
      </trkpt>
      <trkpt lat="45.3473" lon="5.6914">
        <ele>880.611154461</ele>
        <time>2015-05-12T15:14:34Z</time>
      </trkpt>
      <trkpt lat="45.34745" lon="5.69137">
        <ele>883.325762712</ele>
        <time>2015-05-12T15:14:40Z</time>
      </trkpt>
      <trkpt lat="45.34749" lon="5.69136">
        <ele>883.325762712</ele>
        <time>2015-05-12T15:14:45Z</time>
      </trkpt>
      <trkpt lat="45.34753" lon="5.69136">
        <ele>883.325762712</ele>
        <time>2015-05-12T15:14:50Z</time>
      </trkpt>
      <trkpt lat="45.34753" lon="5.69137">
        <ele>883.325762712</ele>
        <time>2015-05-12T15:14:55Z</time>
      </trkpt>
      <trkpt lat="45.34767" lon="5.69136">
        <ele>886.444615978</ele>
        <time>2015-05-12T15:15:00Z</time>
      </trkpt>
      <trkpt lat="45.34775" lon="5.6914">
        <ele>886.444615978</ele>
        <time>2015-05-12T15:15:05Z</time>
      </trkpt>
      <trkpt lat="45.34785" lon="5.69142">
        <ele>889.358287353</ele>
        <time>2015-05-12T15:15:10Z</time>
      </trkpt>
      <trkpt lat="45.34796" lon="5.69146">
        <ele>891.934973723</ele>
        <time>2015-05-12T15:15:15Z</time>
      </trkpt>
      <trkpt lat="45.34803" lon="5.69153">
        <ele>891.934973723</ele>
        <time>2015-05-12T15:15:20Z</time>
      </trkpt>
      <trkpt lat="45.34807" lon="5.69154">
        <ele>894.485791142</ele>
        <time>2015-05-12T15:15:25Z</time>
      </trkpt>
      <trkpt lat="45.34803" lon="5.69154">
        <ele>894.485791142</ele>
        <time>2015-05-12T15:15:30Z</time>
      </trkpt>
      <trkpt lat="45.34798" lon="5.69158">
        <ele>897.587265433</ele>
        <time>2015-05-12T15:15:35Z</time>
      </trkpt>
      <trkpt lat="45.34797" lon="5.69168">
        <ele>897.587265433</ele>
        <time>2015-05-12T15:15:40Z</time>
      </trkpt>
      <trkpt lat="45.34794" lon="5.69181">
        <ele>900.475004034</ele>
        <time>2015-05-12T15:15:45Z</time>
      </trkpt>
      <trkpt lat="45.34786" lon="5.69187">
        <ele>900.475004034</ele>
        <time>2015-05-12T15:15:50Z</time>
      </trkpt>
      <trkpt lat="45.34784" lon="5.69189">
        <ele>902.87368685</ele>
        <time>2015-05-12T15:15:55Z</time>
      </trkpt>
      <trkpt lat="45.34783" lon="5.69195">
        <ele>902.87368685</ele>
        <time>2015-05-12T15:16:00Z</time>
      </trkpt>
      <trkpt lat="45.34779" lon="5.69197">
        <ele>905.538365096</ele>
        <time>2015-05-12T15:16:05Z</time>
      </trkpt>
      <trkpt lat="45.34764" lon="5.69203">
        <ele>907.294433345</ele>
        <time>2015-05-12T15:16:10Z</time>
      </trkpt>
      <trkpt lat="45.34762" lon="5.69212">
        <ele>907.294433345</ele>
        <time>2015-05-12T15:16:15Z</time>
      </trkpt>
      <trkpt lat="45.3476" lon="5.69225">
        <ele>908.785460587</ele>
        <time>2015-05-12T15:16:20Z</time>
      </trkpt>
      <trkpt lat="45.34756" lon="5.69226">
        <ele>908.785460587</ele>
        <time>2015-05-12T15:16:25Z</time>
      </trkpt>
      <trkpt lat="45.34748" lon="5.69238">
        <ele>910.176154074</ele>
        <time>2015-05-12T15:16:29Z</time>
      </trkpt>
      <trkpt lat="45.34738" lon="5.69236">
        <ele>911.763517591</ele>
        <time>2015-05-12T15:16:34Z</time>
      </trkpt>
      <trkpt lat="45.34737" lon="5.69241">
        <ele>911.763517591</ele>
        <time>2015-05-12T15:16:40Z</time>
      </trkpt>
      <trkpt lat="45.34728" lon="5.69241">
        <ele>912.669294084</ele>
        <time>2015-05-12T15:16:45Z</time>
      </trkpt>
      <trkpt lat="45.34723" lon="5.69238">
        <ele>912.669294084</ele>
        <time>2015-05-12T15:16:50Z</time>
      </trkpt>
      <trkpt lat="45.34721" lon="5.69238">
        <ele>912.669294084</ele>
        <time>2015-05-12T15:16:55Z</time>
      </trkpt>
      <trkpt lat="45.3472" lon="5.69239">
        <ele>913.955095523</ele>
        <time>2015-05-12T15:16:59Z</time>
      </trkpt>
      <trkpt lat="45.34722" lon="5.69238">
        <ele>913.955095523</ele>
        <time>2015-05-12T15:17:04Z</time>
      </trkpt>
      <trkpt lat="45.34721" lon="5.69238">
        <ele>913.955095523</ele>
        <time>2015-05-12T15:17:09Z</time>
      </trkpt>
      <trkpt lat="45.34716" lon="5.69232">
        <ele>916.459362675</ele>
        <time>2015-05-12T15:17:15Z</time>
      </trkpt>
      <trkpt lat="45.34714" lon="5.69225">
        <ele>916.459362675</ele>
        <time>2015-05-12T15:17:19Z</time>
      </trkpt>
      <trkpt lat="45.34709" lon="5.69229">
        <ele>920.090851668</ele>
        <time>2015-05-12T15:17:24Z</time>
      </trkpt>
      <trkpt lat="45.34707" lon="5.69228">
        <ele>920.090851668</ele>
        <time>2015-05-12T15:17:29Z</time>
      </trkpt>
      <trkpt lat="45.34707" lon="5.6923">
        <ele>920.090851668</ele>
        <time>2015-05-12T15:17:34Z</time>
      </trkpt>
      <trkpt lat="45.34707" lon="5.69229">
        <ele>920.090851668</ele>
        <time>2015-05-12T15:17:39Z</time>
      </trkpt>
      <trkpt lat="45.34707" lon="5.69229">
        <ele>920.090851668</ele>
        <time>2015-05-12T15:17:44Z</time>
      </trkpt>
      <trkpt lat="45.34707" lon="5.69229">
        <ele>920.090851668</ele>
        <time>2015-05-12T15:17:49Z</time>
      </trkpt>
      <trkpt lat="45.34707" lon="5.69229">
        <ele>920.090851668</ele>
        <time>2015-05-12T15:17:54Z</time>
      </trkpt>
      <trkpt lat="45.34706" lon="5.69229">
        <ele>920.090851668</ele>
        <time>2015-05-12T15:18:00Z</time>
      </trkpt>
      <trkpt lat="45.34698" lon="5.69232">
        <ele>923.753077682</ele>
        <time>2015-05-12T15:18:05Z</time>
      </trkpt>
      <trkpt lat="45.34689" lon="5.69236">
        <ele>923.753077682</ele>
        <time>2015-05-12T15:18:10Z</time>
      </trkpt>
      <trkpt lat="45.34678" lon="5.6924">
        <ele>926.862356707</ele>
        <time>2015-05-12T15:18:14Z</time>
      </trkpt>
      <trkpt lat="45.34668" lon="5.69246">
        <ele>929.600005939</ele>
        <time>2015-05-12T15:18:20Z</time>
      </trkpt>
      <trkpt lat="45.34669" lon="5.69246">
        <ele>929.600005939</ele>
        <time>2015-05-12T15:18:25Z</time>
      </trkpt>
      <trkpt lat="45.3466" lon="5.6925">
        <ele>931.846868679</ele>
        <time>2015-05-12T15:18:30Z</time>
      </trkpt>
      <trkpt lat="45.34661" lon="5.69257">
        <ele>931.846868679</ele>
        <time>2015-05-12T15:18:35Z</time>
      </trkpt>
      <trkpt lat="45.34647" lon="5.69262">
        <ele>933.061613906</ele>
        <time>2015-05-12T15:18:40Z</time>
      </trkpt>
      <trkpt lat="45.34637" lon="5.69262">
        <ele>934.474935907</ele>
        <time>2015-05-12T15:18:45Z</time>
      </trkpt>
      <trkpt lat="45.34638" lon="5.69266">
        <ele>934.474935907</ele>
        <time>2015-05-12T15:18:50Z</time>
      </trkpt>
      <trkpt lat="45.34637" lon="5.69264">
        <ele>934.474935907</ele>
        <time>2015-05-12T15:18:55Z</time>
      </trkpt>
      <trkpt lat="45.34637" lon="5.69264">
        <ele>934.474935907</ele>
        <time>2015-05-12T15:19:00Z</time>
      </trkpt>
      <trkpt lat="45.34646" lon="5.69268">
        <ele>936.361924919</ele>
        <time>2015-05-12T15:19:05Z</time>
      </trkpt>
      <trkpt lat="45.34651" lon="5.69271">
        <ele>936.361924919</ele>
        <time>2015-05-12T15:19:10Z</time>
      </trkpt>
      <trkpt lat="45.3466" lon="5.69277">
        <ele>938.255600699</ele>
        <time>2015-05-12T15:19:15Z</time>
      </trkpt>
      <trkpt lat="45.34665" lon="5.69288">
        <ele>939.579174595</ele>
        <time>2015-05-12T15:19:20Z</time>
      </trkpt>
      <trkpt lat="45.34672" lon="5.69285">
        <ele>939.579174595</ele>
        <time>2015-05-12T15:19:25Z</time>
      </trkpt>
      <trkpt lat="45.34672" lon="5.69284">
        <ele>939.579174595</ele>
        <time>2015-05-12T15:19:30Z</time>
      </trkpt>
      <trkpt lat="45.34683" lon="5.69288">
        <ele>941.240953712</ele>
        <time>2015-05-12T15:19:35Z</time>
      </trkpt>
      <trkpt lat="45.34688" lon="5.69294">
        <ele>941.240953712</ele>
        <time>2015-05-12T15:19:40Z</time>
      </trkpt>
      <trkpt lat="45.34692" lon="5.69296">
        <ele>943.937473507</ele>
        <time>2015-05-12T15:19:45Z</time>
      </trkpt>
      <trkpt lat="45.34698" lon="5.69292">
        <ele>943.937473507</ele>
        <time>2015-05-12T15:19:50Z</time>
      </trkpt>
      <trkpt lat="45.34706" lon="5.69296">
        <ele>946.870099551</ele>
        <time>2015-05-12T15:19:55Z</time>
      </trkpt>
      <trkpt lat="45.34714" lon="5.693">
        <ele>946.870099551</ele>
        <time>2015-05-12T15:20:00Z</time>
      </trkpt>
      <trkpt lat="45.34722" lon="5.69296">
        <ele>949.58643849</ele>
        <time>2015-05-12T15:20:05Z</time>
      </trkpt>
      <trkpt lat="45.34726" lon="5.69296">
        <ele>949.58643849</ele>
        <time>2015-05-12T15:20:10Z</time>
      </trkpt>
      <trkpt lat="45.34733" lon="5.69298">
        <ele>952.532621879</ele>
        <time>2015-05-12T15:20:15Z</time>
      </trkpt>
      <trkpt lat="45.34741" lon="5.69301">
        <ele>952.532621879</ele>
        <time>2015-05-12T15:20:20Z</time>
      </trkpt>
      <trkpt lat="45.34747" lon="5.69303">
        <ele>954.968498006</ele>
        <time>2015-05-12T15:20:25Z</time>
      </trkpt>
      <trkpt lat="45.34754" lon="5.69304">
        <ele>954.968498006</ele>
        <time>2015-05-12T15:20:30Z</time>
      </trkpt>
      <trkpt lat="45.34762" lon="5.69303">
        <ele>958.08319236</ele>
        <time>2015-05-12T15:20:35Z</time>
      </trkpt>
      <trkpt lat="45.34765" lon="5.69299">
        <ele>958.08319236</ele>
        <time>2015-05-12T15:20:40Z</time>
      </trkpt>
      <trkpt lat="45.34768" lon="5.69297">
        <ele>958.08319236</ele>
        <time>2015-05-12T15:20:45Z</time>
      </trkpt>
      <trkpt lat="45.34771" lon="5.69296">
        <ele>961.967830871</ele>
        <time>2015-05-12T15:20:49Z</time>
      </trkpt>
      <trkpt lat="45.34778" lon="5.69295">
        <ele>961.967830871</ele>
        <time>2015-05-12T15:20:56Z</time>
      </trkpt>
      <trkpt lat="45.34785" lon="5.69297">
        <ele>965.98417288</ele>
        <time>2015-05-12T15:20:59Z</time>
      </trkpt>
      <trkpt lat="45.3479" lon="5.69303">
        <ele>965.98417288</ele>
        <time>2015-05-12T15:21:05Z</time>
      </trkpt>
      <trkpt lat="45.34793" lon="5.69305">
        <ele>969.396433579</ele>
        <time>2015-05-12T15:21:10Z</time>
      </trkpt>
      <trkpt lat="45.34798" lon="5.69314">
        <ele>969.396433579</ele>
        <time>2015-05-12T15:21:15Z</time>
      </trkpt>
      <trkpt lat="45.34803" lon="5.69317">
        <ele>973.109857738</ele>
        <time>2015-05-12T15:21:20Z</time>
      </trkpt>
      <trkpt lat="45.34797" lon="5.69321">
        <ele>973.109857738</ele>
        <time>2015-05-12T15:21:25Z</time>
      </trkpt>
      <trkpt lat="45.34796" lon="5.69332">
        <ele>975.656636998</ele>
        <time>2015-05-12T15:21:30Z</time>
      </trkpt>
      <trkpt lat="45.34791" lon="5.69337">
        <ele>975.656636998</ele>
        <time>2015-05-12T15:21:35Z</time>
      </trkpt>
      <trkpt lat="45.34785" lon="5.69339">
        <ele>977.409466842</ele>
        <time>2015-05-12T15:21:40Z</time>
      </trkpt>
      <trkpt lat="45.34779" lon="5.69351">
        <ele>979.004185942</ele>
        <time>2015-05-12T15:21:45Z</time>
      </trkpt>
      <trkpt lat="45.34781" lon="5.69352">
        <ele>979.004185942</ele>
        <time>2015-05-12T15:21:50Z</time>
      </trkpt>
      <trkpt lat="45.34783" lon="5.69355">
        <ele>979.004185942</ele>
        <time>2015-05-12T15:21:55Z</time>
      </trkpt>
      <trkpt lat="45.3479" lon="5.69354">
        <ele>980.309878478</ele>
        <time>2015-05-12T15:22:00Z</time>
      </trkpt>
      <trkpt lat="45.34796" lon="5.69354">
        <ele>980.309878478</ele>
        <time>2015-05-12T15:22:05Z</time>
      </trkpt>
      <trkpt lat="45.34802" lon="5.69357">
        <ele>982.070781279</ele>
        <time>2015-05-12T15:22:09Z</time>
      </trkpt>
      <trkpt lat="45.34807" lon="5.69358">
        <ele>982.070781279</ele>
        <time>2015-05-12T15:22:15Z</time>
      </trkpt>
      <trkpt lat="45.34812" lon="5.69358">
        <ele>984.39878788</ele>
        <time>2015-05-12T15:22:20Z</time>
      </trkpt>
      <trkpt lat="45.34809" lon="5.69366">
        <ele>984.39878788</ele>
        <time>2015-05-12T15:22:25Z</time>
      </trkpt>
      <trkpt lat="45.34802" lon="5.69367">
        <ele>985.810799578</ele>
        <time>2015-05-12T15:22:30Z</time>
      </trkpt>
      <trkpt lat="45.34794" lon="5.69371">
        <ele>985.810799578</ele>
        <time>2015-05-12T15:22:35Z</time>
      </trkpt>
      <trkpt lat="45.34787" lon="5.69372">
        <ele>986.952824384</ele>
        <time>2015-05-12T15:22:40Z</time>
      </trkpt>
      <trkpt lat="45.34781" lon="5.69376">
        <ele>986.952824384</ele>
        <time>2015-05-12T15:22:45Z</time>
      </trkpt>
      <trkpt lat="45.34779" lon="5.69384">
        <ele>988.135975298</ele>
        <time>2015-05-12T15:22:50Z</time>
      </trkpt>
      <trkpt lat="45.34774" lon="5.69388">
        <ele>988.135975298</ele>
        <time>2015-05-12T15:22:54Z</time>
      </trkpt>
      <trkpt lat="45.34769" lon="5.69393">
        <ele>989.216078481</ele>
        <time>2015-05-12T15:22:59Z</time>
      </trkpt>
      <trkpt lat="45.34764" lon="5.69397">
        <ele>989.216078481</ele>
        <time>2015-05-12T15:23:05Z</time>
      </trkpt>
      <trkpt lat="45.34763" lon="5.69398">
        <ele>989.216078481</ele>
        <time>2015-05-12T15:23:10Z</time>
      </trkpt>
      <trkpt lat="45.34762" lon="5.69401">
        <ele>990.348068463</ele>
        <time>2015-05-12T15:23:15Z</time>
      </trkpt>
      <trkpt lat="45.34759" lon="5.69401">
        <ele>990.348068463</ele>
        <time>2015-05-12T15:23:20Z</time>
      </trkpt>
      <trkpt lat="45.34758" lon="5.69401">
        <ele>990.348068463</ele>
        <time>2015-05-12T15:23:25Z</time>
      </trkpt>
      <trkpt lat="45.34758" lon="5.69402">
        <ele>990.348068463</ele>
        <time>2015-05-12T15:23:30Z</time>
      </trkpt>
      <trkpt lat="45.34758" lon="5.69402">
        <ele>990.348068463</ele>
        <time>2015-05-12T15:23:35Z</time>
      </trkpt>
      <trkpt lat="45.34758" lon="5.69402">
        <ele>990.348068463</ele>
        <time>2015-05-12T15:23:40Z</time>
      </trkpt>
      <trkpt lat="45.34758" lon="5.69402">
        <ele>990.348068463</ele>
        <time>2015-05-12T15:23:45Z</time>
      </trkpt>
      <trkpt lat="45.34764" lon="5.69401">
        <ele>992.251794997</ele>
        <time>2015-05-12T15:23:49Z</time>
      </trkpt>
      <trkpt lat="45.34777" lon="5.69406">
        <ele>994.439164951</ele>
        <time>2015-05-12T15:23:55Z</time>
      </trkpt>
      <trkpt lat="45.34785" lon="5.6941">
        <ele>996.889465693</ele>
        <time>2015-05-12T15:23:59Z</time>
      </trkpt>
      <trkpt lat="45.34792" lon="5.69415">
        <ele>996.889465693</ele>
        <time>2015-05-12T15:24:05Z</time>
      </trkpt>
      <trkpt lat="45.34794" lon="5.69416">
        <ele>998.718087489</ele>
        <time>2015-05-12T15:24:10Z</time>
      </trkpt>
      <trkpt lat="45.34795" lon="5.69417">
        <ele>998.718087489</ele>
        <time>2015-05-12T15:24:15Z</time>
      </trkpt>
      <trkpt lat="45.34795" lon="5.69418">
        <ele>998.718087489</ele>
        <time>2015-05-12T15:24:20Z</time>
      </trkpt>
      <trkpt lat="45.34795" lon="5.6942">
        <ele>998.718087489</ele>
        <time>2015-05-12T15:24:25Z</time>
      </trkpt>
      <trkpt lat="45.34795" lon="5.6942">
        <ele>998.718087489</ele>
        <time>2015-05-12T15:24:30Z</time>
      </trkpt>
      <trkpt lat="45.34795" lon="5.6942">
        <ele>998.718087489</ele>
        <time>2015-05-12T15:24:35Z</time>
      </trkpt>
      <trkpt lat="45.34795" lon="5.6942">
        <ele>998.718087489</ele>
        <time>2015-05-12T15:24:40Z</time>
      </trkpt>
      <trkpt lat="45.34795" lon="5.6942">
        <ele>998.718087489</ele>
        <time>2015-05-12T15:24:45Z</time>
      </trkpt>
      <trkpt lat="45.34796" lon="5.69425">
        <ele>998.718087489</ele>
        <time>2015-05-12T15:24:50Z</time>
      </trkpt>
      <trkpt lat="45.34802" lon="5.69427">
        <ele>1001.412913465</ele>
        <time>2015-05-12T15:24:55Z</time>
      </trkpt>
      <trkpt lat="45.34808" lon="5.69432">
        <ele>1001.412913465</ele>
        <time>2015-05-12T15:25:00Z</time>
      </trkpt>
      <trkpt lat="45.34813" lon="5.69441">
        <ele>1003.900196831</ele>
        <time>2015-05-12T15:25:05Z</time>
      </trkpt>
      <trkpt lat="45.34815" lon="5.69446">
        <ele>1003.900196831</ele>
        <time>2015-05-12T15:25:10Z</time>
      </trkpt>
      <trkpt lat="45.34816" lon="5.69451">
        <ele>1003.900196831</ele>
        <time>2015-05-12T15:25:15Z</time>
      </trkpt>
      <trkpt lat="45.34816" lon="5.6945">
        <ele>1003.900196831</ele>
        <time>2015-05-12T15:25:19Z</time>
      </trkpt>
      <trkpt lat="45.34815" lon="5.69451">
        <ele>1003.900196831</ele>
        <time>2015-05-12T15:25:24Z</time>
      </trkpt>
      <trkpt lat="45.34815" lon="5.69452">
        <ele>1008.067867242</ele>
        <time>2015-05-12T15:25:29Z</time>
      </trkpt>
      <trkpt lat="45.34815" lon="5.69452">
        <ele>1008.067867242</ele>
        <time>2015-05-12T15:25:34Z</time>
      </trkpt>
      <trkpt lat="45.34815" lon="5.69451">
        <ele>1008.067867242</ele>
        <time>2015-05-12T15:25:39Z</time>
      </trkpt>
      <trkpt lat="45.34815" lon="5.69451">
        <ele>1008.067867242</ele>
        <time>2015-05-12T15:25:44Z</time>
      </trkpt>
      <trkpt lat="45.34815" lon="5.69451">
        <ele>1008.067867242</ele>
        <time>2015-05-12T15:25:49Z</time>
      </trkpt>
      <trkpt lat="45.34815" lon="5.69451">
        <ele>1008.067867242</ele>
        <time>2015-05-12T15:25:54Z</time>
      </trkpt>
      <trkpt lat="45.34815" lon="5.69453">
        <ele>1008.067867242</ele>
        <time>2015-05-12T15:26:00Z</time>
      </trkpt>
      <trkpt lat="45.34822" lon="5.69457">
        <ele>1008.067867242</ele>
        <time>2015-05-12T15:26:05Z</time>
      </trkpt>
      <trkpt lat="45.34829" lon="5.69453">
        <ele>1013.066456074</ele>
        <time>2015-05-12T15:26:10Z</time>
      </trkpt>
      <trkpt lat="45.34836" lon="5.69445">
        <ele>1013.066456074</ele>
        <time>2015-05-12T15:26:15Z</time>
      </trkpt>
      <trkpt lat="45.34845" lon="5.69439">
        <ele>1017.818358914</ele>
        <time>2015-05-12T15:26:20Z</time>
      </trkpt>
      <trkpt lat="45.34851" lon="5.69439">
        <ele>1017.818358914</ele>
        <time>2015-05-12T15:26:24Z</time>
      </trkpt>
      <trkpt lat="45.34861" lon="5.69443">
        <ele>1022.478745332</ele>
        <time>2015-05-12T15:26:30Z</time>
      </trkpt>
      <trkpt lat="45.34867" lon="5.6944">
        <ele>1022.478745332</ele>
        <time>2015-05-12T15:26:35Z</time>
      </trkpt>
      <trkpt lat="45.34875" lon="5.69446">
        <ele>1026.182913847</ele>
        <time>2015-05-12T15:26:40Z</time>
      </trkpt>
      <trkpt lat="45.34881" lon="5.6945">
        <ele>1026.182913847</ele>
        <time>2015-05-12T15:26:44Z</time>
      </trkpt>
      <trkpt lat="45.34889" lon="5.69444">
        <ele>1029.861763377</ele>
        <time>2015-05-12T15:26:49Z</time>
      </trkpt>
      <trkpt lat="45.34898" lon="5.6944">
        <ele>1033.080953238</ele>
        <time>2015-05-12T15:26:55Z</time>
      </trkpt>
      <trkpt lat="45.34905" lon="5.69434">
        <ele>1033.080953238</ele>
        <time>2015-05-12T15:26:59Z</time>
      </trkpt>
      <trkpt lat="45.3491" lon="5.69435">
        <ele>1036.159973517</ele>
        <time>2015-05-12T15:27:05Z</time>
      </trkpt>
      <trkpt lat="45.34919" lon="5.69435">
        <ele>1036.159973517</ele>
        <time>2015-05-12T15:27:10Z</time>
      </trkpt>
      <trkpt lat="45.34926" lon="5.69438">
        <ele>1039.107097101</ele>
        <time>2015-05-12T15:27:15Z</time>
      </trkpt>
      <trkpt lat="45.34934" lon="5.69439">
        <ele>1039.107097101</ele>
        <time>2015-05-12T15:27:20Z</time>
      </trkpt>
      <trkpt lat="45.34939" lon="5.69436">
        <ele>1042.36277529</ele>
        <time>2015-05-12T15:27:25Z</time>
      </trkpt>
      <trkpt lat="45.34946" lon="5.69429">
        <ele>1042.36277529</ele>
        <time>2015-05-12T15:27:30Z</time>
      </trkpt>
      <trkpt lat="45.34949" lon="5.69433">
        <ele>1045.325542461</ele>
        <time>2015-05-12T15:27:35Z</time>
      </trkpt>
      <trkpt lat="45.34947" lon="5.69444">
        <ele>1045.325542461</ele>
        <time>2015-05-12T15:27:40Z</time>
      </trkpt>
      <trkpt lat="45.34942" lon="5.69457">
        <ele>1047.150794943</ele>
        <time>2015-05-12T15:27:45Z</time>
      </trkpt>
      <trkpt lat="45.34933" lon="5.69467">
        <ele>1048.356238341</ele>
        <time>2015-05-12T15:27:50Z</time>
      </trkpt>
      <trkpt lat="45.34934" lon="5.69475">
        <ele>1048.356238341</ele>
        <time>2015-05-12T15:27:55Z</time>
      </trkpt>
      <trkpt lat="45.3493" lon="5.6948">
        <ele>1049.711574071</ele>
        <time>2015-05-12T15:28:00Z</time>
      </trkpt>
      <trkpt lat="45.34931" lon="5.69479">
        <ele>1049.711574071</ele>
        <time>2015-05-12T15:28:05Z</time>
      </trkpt>
      <trkpt lat="45.34935" lon="5.69481">
        <ele>1049.711574071</ele>
        <time>2015-05-12T15:28:10Z</time>
      </trkpt>
      <trkpt lat="45.34941" lon="5.69481">
        <ele>1051.785484576</ele>
        <time>2015-05-12T15:28:15Z</time>
      </trkpt>
      <trkpt lat="45.34946" lon="5.69479">
        <ele>1051.785484576</ele>
        <time>2015-05-12T15:28:20Z</time>
      </trkpt>
      <trkpt lat="45.34951" lon="5.69475">
        <ele>1053.950015295</ele>
        <time>2015-05-12T15:28:25Z</time>
      </trkpt>
      <trkpt lat="45.34954" lon="5.69475">
        <ele>1053.950015295</ele>
        <time>2015-05-12T15:28:30Z</time>
      </trkpt>
      <trkpt lat="45.34962" lon="5.69468">
        <ele>1056.055453763</ele>
        <time>2015-05-12T15:28:35Z</time>
      </trkpt>
      <trkpt lat="45.34967" lon="5.69462">
        <ele>1056.055453763</ele>
        <time>2015-05-12T15:28:40Z</time>
      </trkpt>
      <trkpt lat="45.34977" lon="5.69455">
        <ele>1058.972057076</ele>
        <time>2015-05-12T15:28:45Z</time>
      </trkpt>
      <trkpt lat="45.34984" lon="5.69452">
        <ele>1058.972057076</ele>
        <time>2015-05-12T15:28:50Z</time>
      </trkpt>
      <trkpt lat="45.34991" lon="5.69454">
        <ele>1062.206902739</ele>
        <time>2015-05-12T15:28:55Z</time>
      </trkpt>
      <trkpt lat="45.34997" lon="5.6945">
        <ele>1062.206902739</ele>
        <time>2015-05-12T15:29:00Z</time>
      </trkpt>
      <trkpt lat="45.35002" lon="5.69446">
        <ele>1065.734743815</ele>
        <time>2015-05-12T15:29:05Z</time>
      </trkpt>
      <trkpt lat="45.35007" lon="5.69441">
        <ele>1065.734743815</ele>
        <time>2015-05-12T15:29:10Z</time>
      </trkpt>
      <trkpt lat="45.35012" lon="5.69436">
        <ele>1069.387282606</ele>
        <time>2015-05-12T15:29:15Z</time>
      </trkpt>
      <trkpt lat="45.35018" lon="5.69435">
        <ele>1069.387282606</ele>
        <time>2015-05-12T15:29:20Z</time>
      </trkpt>
      <trkpt lat="45.35024" lon="5.69436">
        <ele>1073.440601486</ele>
        <time>2015-05-12T15:29:25Z</time>
      </trkpt>
      <trkpt lat="45.35029" lon="5.69438">
        <ele>1073.440601486</ele>
        <time>2015-05-12T15:29:30Z</time>
      </trkpt>
      <trkpt lat="45.35037" lon="5.6944">
        <ele>1076.996527696</ele>
        <time>2015-05-12T15:29:35Z</time>
      </trkpt>
      <trkpt lat="45.35043" lon="5.69442">
        <ele>1076.996527696</ele>
        <time>2015-05-12T15:29:39Z</time>
      </trkpt>
      <trkpt lat="45.35047" lon="5.69436">
        <ele>1080.377197706</ele>
        <time>2015-05-12T15:29:45Z</time>
      </trkpt>
      <trkpt lat="45.35053" lon="5.69439">
        <ele>1080.377197706</ele>
        <time>2015-05-12T15:29:50Z</time>
      </trkpt>
      <trkpt lat="45.35057" lon="5.69436">
        <ele>1082.584623509</ele>
        <time>2015-05-12T15:29:55Z</time>
      </trkpt>
      <trkpt lat="45.35062" lon="5.6944">
        <ele>1082.584623509</ele>
        <time>2015-05-12T15:29:59Z</time>
      </trkpt>
      <trkpt lat="45.35069" lon="5.69439">
        <ele>1084.282690569</ele>
        <time>2015-05-12T15:30:04Z</time>
      </trkpt>
      <trkpt lat="45.35079" lon="5.6943">
        <ele>1085.655653438</ele>
        <time>2015-05-12T15:30:10Z</time>
      </trkpt>
      <trkpt lat="45.35083" lon="5.69435">
        <ele>1085.655653438</ele>
        <time>2015-05-12T15:30:14Z</time>
      </trkpt>
      <trkpt lat="45.35084" lon="5.69443">
        <ele>1087.163399163</ele>
        <time>2015-05-12T15:30:20Z</time>
      </trkpt>
      <trkpt lat="45.35081" lon="5.69448">
        <ele>1087.163399163</ele>
        <time>2015-05-12T15:30:25Z</time>
      </trkpt>
      <trkpt lat="45.35078" lon="5.69454">
        <ele>1088.799342295</ele>
        <time>2015-05-12T15:30:30Z</time>
      </trkpt>
      <trkpt lat="45.35071" lon="5.69455">
        <ele>1088.799342295</ele>
        <time>2015-05-12T15:30:35Z</time>
      </trkpt>
      <trkpt lat="45.35067" lon="5.69459">
        <ele>1091.277589621</ele>
        <time>2015-05-12T15:30:40Z</time>
      </trkpt>
      <trkpt lat="45.35065" lon="5.69473">
        <ele>1093.383985673</ele>
        <time>2015-05-12T15:30:45Z</time>
      </trkpt>
      <trkpt lat="45.35064" lon="5.69474">
        <ele>1093.383985673</ele>
        <time>2015-05-12T15:30:50Z</time>
      </trkpt>
      <trkpt lat="45.35071" lon="5.6947">
        <ele>1095.723941109</ele>
        <time>2015-05-12T15:30:55Z</time>
      </trkpt>
      <trkpt lat="45.35075" lon="5.69471">
        <ele>1095.723941109</ele>
        <time>2015-05-12T15:31:00Z</time>
      </trkpt>
      <trkpt lat="45.35076" lon="5.69476">
        <ele>1095.723941109</ele>
        <time>2015-05-12T15:31:05Z</time>
      </trkpt>
      <trkpt lat="45.35079" lon="5.69477">
        <ele>1098.569510639</ele>
        <time>2015-05-12T15:31:10Z</time>
      </trkpt>
      <trkpt lat="45.35081" lon="5.69468">
        <ele>1098.569510639</ele>
        <time>2015-05-12T15:31:15Z</time>
      </trkpt>
      <trkpt lat="45.35085" lon="5.69468">
        <ele>1101.018448965</ele>
        <time>2015-05-12T15:31:20Z</time>
      </trkpt>
      <trkpt lat="45.3509" lon="5.69464">
        <ele>1101.018448965</ele>
        <time>2015-05-12T15:31:25Z</time>
      </trkpt>
      <trkpt lat="45.35094" lon="5.69463">
        <ele>1103.10055957</ele>
        <time>2015-05-12T15:31:30Z</time>
      </trkpt>
      <trkpt lat="45.35095" lon="5.69464">
        <ele>1103.10055957</ele>
        <time>2015-05-12T15:31:35Z</time>
      </trkpt>
      <trkpt lat="45.35101" lon="5.69462">
        <ele>1103.10055957</ele>
        <time>2015-05-12T15:31:40Z</time>
      </trkpt>
      <trkpt lat="45.35108" lon="5.69468">
        <ele>1104.556251135</ele>
        <time>2015-05-12T15:31:45Z</time>
      </trkpt>
      <trkpt lat="45.35112" lon="5.69466">
        <ele>1104.556251135</ele>
        <time>2015-05-12T15:31:50Z</time>
      </trkpt>
      <trkpt lat="45.35119" lon="5.69464">
        <ele>1106.011409545</ele>
        <time>2015-05-12T15:31:55Z</time>
      </trkpt>
      <trkpt lat="45.35123" lon="5.69464">
        <ele>1106.011409545</ele>
        <time>2015-05-12T15:32:00Z</time>
      </trkpt>
      <trkpt lat="45.35128" lon="5.69465">
        <ele>1107.613588707</ele>
        <time>2015-05-12T15:32:05Z</time>
      </trkpt>
      <trkpt lat="45.35134" lon="5.69469">
        <ele>1107.613588707</ele>
        <time>2015-05-12T15:32:10Z</time>
      </trkpt>
      <trkpt lat="45.35139" lon="5.69471">
        <ele>1109.066727088</ele>
        <time>2015-05-12T15:32:15Z</time>
      </trkpt>
      <trkpt lat="45.35145" lon="5.69468">
        <ele>1109.066727088</ele>
        <time>2015-05-12T15:32:20Z</time>
      </trkpt>
      <trkpt lat="45.35148" lon="5.69467">
        <ele>1111.10567106</ele>
        <time>2015-05-12T15:32:25Z</time>
      </trkpt>
      <trkpt lat="45.35156" lon="5.69471">
        <ele>1111.10567106</ele>
        <time>2015-05-12T15:32:29Z</time>
      </trkpt>
      <trkpt lat="45.35163" lon="5.69473">
        <ele>1112.247931139</ele>
        <time>2015-05-12T15:32:35Z</time>
      </trkpt>
      <trkpt lat="45.35166" lon="5.69472">
        <ele>1112.247931139</ele>
        <time>2015-05-12T15:32:40Z</time>
      </trkpt>
      <trkpt lat="45.35167" lon="5.69475">
        <ele>1112.247931139</ele>
        <time>2015-05-12T15:32:45Z</time>
      </trkpt>
      <trkpt lat="45.35168" lon="5.69478">
        <ele>1112.247931139</ele>
        <time>2015-05-12T15:32:50Z</time>
      </trkpt>
      <trkpt lat="45.3517" lon="5.69481">
        <ele>1113.284053592</ele>
        <time>2015-05-12T15:32:55Z</time>
      </trkpt>
      <trkpt lat="45.3517" lon="5.69482">
        <ele>1113.284053592</ele>
        <time>2015-05-12T15:32:59Z</time>
      </trkpt>
      <trkpt lat="45.35173" lon="5.69485">
        <ele>1113.284053592</ele>
        <time>2015-05-12T15:33:04Z</time>
      </trkpt>
      <trkpt lat="45.35173" lon="5.69488">
        <ele>1113.284053592</ele>
        <time>2015-05-12T15:33:09Z</time>
      </trkpt>
      <trkpt lat="45.3517" lon="5.69489">
        <ele>1115.667310758</ele>
        <time>2015-05-12T15:33:14Z</time>
      </trkpt>
      <trkpt lat="45.35166" lon="5.69491">
        <ele>1115.667310758</ele>
        <time>2015-05-12T15:33:20Z</time>
      </trkpt>
      <trkpt lat="45.35161" lon="5.69498">
        <ele>1118.434603563</ele>
        <time>2015-05-12T15:33:25Z</time>
      </trkpt>
      <trkpt lat="45.35159" lon="5.69501">
        <ele>1118.434603563</ele>
        <time>2015-05-12T15:33:30Z</time>
      </trkpt>
      <trkpt lat="45.35152" lon="5.69505">
        <ele>1121.268891537</ele>
        <time>2015-05-12T15:33:35Z</time>
      </trkpt>
      <trkpt lat="45.35152" lon="5.69508">
        <ele>1121.268891537</ele>
        <time>2015-05-12T15:33:40Z</time>
      </trkpt>
      <trkpt lat="45.35147" lon="5.69509">
        <ele>1121.268891537</ele>
        <time>2015-05-12T15:33:44Z</time>
      </trkpt>
      <trkpt lat="45.35142" lon="5.69516">
        <ele>1123.876181363</ele>
        <time>2015-05-12T15:33:50Z</time>
      </trkpt>
      <trkpt lat="45.35139" lon="5.6952">
        <ele>1123.876181363</ele>
        <time>2015-05-12T15:33:55Z</time>
      </trkpt>
      <trkpt lat="45.35139" lon="5.69517">
        <ele>1123.876181363</ele>
        <time>2015-05-12T15:34:00Z</time>
      </trkpt>
      <trkpt lat="45.3514" lon="5.6952">
        <ele>1125.984663004</ele>
        <time>2015-05-12T15:34:05Z</time>
      </trkpt>
      <trkpt lat="45.35141" lon="5.69528">
        <ele>1125.984663004</ele>
        <time>2015-05-12T15:34:10Z</time>
      </trkpt>
      <trkpt lat="45.35137" lon="5.69536">
        <ele>1127.487956496</ele>
        <time>2015-05-12T15:34:15Z</time>
      </trkpt>
      <trkpt lat="45.35143" lon="5.69535">
        <ele>1127.487956496</ele>
        <time>2015-05-12T15:34:20Z</time>
      </trkpt>
      <trkpt lat="45.35144" lon="5.69532">
        <ele>1127.487956496</ele>
        <time>2015-05-12T15:34:25Z</time>
      </trkpt>
      <trkpt lat="45.35146" lon="5.69531">
        <ele>1129.586148789</ele>
        <time>2015-05-12T15:34:30Z</time>
      </trkpt>
      <trkpt lat="45.35151" lon="5.69533">
        <ele>1129.586148789</ele>
        <time>2015-05-12T15:34:35Z</time>
      </trkpt>
      <trkpt lat="45.35156" lon="5.69532">
        <ele>1131.660120056</ele>
        <time>2015-05-12T15:34:40Z</time>
      </trkpt>
      <trkpt lat="45.3516" lon="5.69534">
        <ele>1131.660120056</ele>
        <time>2015-05-12T15:34:45Z</time>
      </trkpt>
      <trkpt lat="45.35163" lon="5.69537">
        <ele>1131.660120056</ele>
        <time>2015-05-12T15:34:50Z</time>
      </trkpt>
      <trkpt lat="45.35163" lon="5.69543">
        <ele>1133.712696178</ele>
        <time>2015-05-12T15:34:55Z</time>
      </trkpt>
      <trkpt lat="45.35164" lon="5.69541">
        <ele>1133.712696178</ele>
        <time>2015-05-12T15:35:00Z</time>
      </trkpt>
      <trkpt lat="45.35164" lon="5.69541">
        <ele>1133.712696178</ele>
        <time>2015-05-12T15:35:05Z</time>
      </trkpt>
      <trkpt lat="45.35164" lon="5.69541">
        <ele>1133.712696178</ele>
        <time>2015-05-12T15:35:10Z</time>
      </trkpt>
      <trkpt lat="45.35164" lon="5.69541">
        <ele>1133.712696178</ele>
        <time>2015-05-12T15:35:15Z</time>
      </trkpt>
      <trkpt lat="45.35164" lon="5.69543">
        <ele>1133.712696178</ele>
        <time>2015-05-12T15:35:20Z</time>
      </trkpt>
      <trkpt lat="45.35164" lon="5.69543">
        <ele>1133.712696178</ele>
        <time>2015-05-12T15:35:25Z</time>
      </trkpt>
      <trkpt lat="45.3516" lon="5.69551">
        <ele>1135.746507973</ele>
        <time>2015-05-12T15:35:30Z</time>
      </trkpt>
      <trkpt lat="45.35161" lon="5.69565">
        <ele>1137.763998586</ele>
        <time>2015-05-12T15:35:34Z</time>
      </trkpt>
      <trkpt lat="45.35149" lon="5.69575">
        <ele>1139.479207969</ele>
        <time>2015-05-12T15:35:40Z</time>
      </trkpt>
      <trkpt lat="45.35143" lon="5.6958">
        <ele>1139.479207969</ele>
        <time>2015-05-12T15:35:45Z</time>
      </trkpt>
      <trkpt lat="45.35146" lon="5.6959">
        <ele>1142.357318894</ele>
        <time>2015-05-12T15:35:50Z</time>
      </trkpt>
      <trkpt lat="45.35146" lon="5.69587">
        <ele>1142.357318894</ele>
        <time>2015-05-12T15:35:54Z</time>
      </trkpt>
      <trkpt lat="45.35148" lon="5.69588">
        <ele>1142.357318894</ele>
        <time>2015-05-12T15:36:00Z</time>
      </trkpt>
      <trkpt lat="45.35149" lon="5.6959">
        <ele>1142.357318894</ele>
        <time>2015-05-12T15:36:05Z</time>
      </trkpt>
      <trkpt lat="45.35154" lon="5.6959">
        <ele>1146.167356001</ele>
        <time>2015-05-12T15:36:10Z</time>
      </trkpt>
      <trkpt lat="45.35155" lon="5.6959">
        <ele>1146.167356001</ele>
        <time>2015-05-12T15:36:15Z</time>
      </trkpt>
      <trkpt lat="45.35158" lon="5.69593">
        <ele>1146.167356001</ele>
        <time>2015-05-12T15:36:20Z</time>
      </trkpt>
      <trkpt lat="45.35162" lon="5.69599">
        <ele>1150.260329259</ele>
        <time>2015-05-12T15:36:25Z</time>
      </trkpt>
      <trkpt lat="45.35165" lon="5.69597">
        <ele>1150.260329259</ele>
        <time>2015-05-12T15:36:30Z</time>
      </trkpt>
      <trkpt lat="45.35168" lon="5.69597">
        <ele>1150.260329259</ele>
        <time>2015-05-12T15:36:34Z</time>
      </trkpt>
      <trkpt lat="45.35172" lon="5.69594">
        <ele>1155.18699711</ele>
        <time>2015-05-12T15:36:39Z</time>
      </trkpt>
      <trkpt lat="45.35177" lon="5.69594">
        <ele>1155.18699711</ele>
        <time>2015-05-12T15:36:44Z</time>
      </trkpt>
      <trkpt lat="45.35178" lon="5.69606">
        <ele>1159.581870021</ele>
        <time>2015-05-12T15:36:49Z</time>
      </trkpt>
      <trkpt lat="45.35177" lon="5.69612">
        <ele>1159.581870021</ele>
        <time>2015-05-12T15:36:55Z</time>
      </trkpt>
      <trkpt lat="45.35175" lon="5.69619">
        <ele>1163.190047038</ele>
        <time>2015-05-12T15:37:00Z</time>
      </trkpt>
      <trkpt lat="45.35174" lon="5.6962">
        <ele>1163.190047038</ele>
        <time>2015-05-12T15:37:05Z</time>
      </trkpt>
      <trkpt lat="45.35174" lon="5.69619">
        <ele>1163.190047038</ele>
        <time>2015-05-12T15:37:10Z</time>
      </trkpt>
      <trkpt lat="45.35174" lon="5.69617">
        <ele>1163.190047038</ele>
        <time>2015-05-12T15:37:15Z</time>
      </trkpt>
      <trkpt lat="45.35174" lon="5.69618">
        <ele>1163.190047038</ele>
        <time>2015-05-12T15:37:20Z</time>
      </trkpt>
      <trkpt lat="45.35174" lon="5.69618">
        <ele>1163.190047038</ele>
        <time>2015-05-12T15:37:25Z</time>
      </trkpt>
      <trkpt lat="45.35175" lon="5.69618">
        <ele>1163.190047038</ele>
        <time>2015-05-12T15:37:30Z</time>
      </trkpt>
      <trkpt lat="45.35174" lon="5.69618">
        <ele>1163.190047038</ele>
        <time>2015-05-12T15:37:35Z</time>
      </trkpt>
      <trkpt lat="45.35169" lon="5.69627">
        <ele>1167.0745853</ele>
        <time>2015-05-12T15:37:40Z</time>
      </trkpt>
      <trkpt lat="45.35164" lon="5.69635">
        <ele>1167.0745853</ele>
        <time>2015-05-12T15:37:45Z</time>
      </trkpt>
      <trkpt lat="45.35162" lon="5.69644">
        <ele>1170.778601812</ele>
        <time>2015-05-12T15:37:50Z</time>
      </trkpt>
      <trkpt lat="45.35159" lon="5.69651">
        <ele>1170.778601812</ele>
        <time>2015-05-12T15:37:54Z</time>
      </trkpt>
      <trkpt lat="45.3515" lon="5.69655">
        <ele>1174.888109096</ele>
        <time>2015-05-12T15:38:00Z</time>
      </trkpt>
      <trkpt lat="45.35145" lon="5.6966">
        <ele>1174.888109096</ele>
        <time>2015-05-12T15:38:05Z</time>
      </trkpt>
      <trkpt lat="45.35143" lon="5.69657">
        <ele>1174.888109096</ele>
        <time>2015-05-12T15:38:10Z</time>
      </trkpt>
      <trkpt lat="45.35138" lon="5.69665">
        <ele>1179.080324694</ele>
        <time>2015-05-12T15:38:15Z</time>
      </trkpt>
      <trkpt lat="45.35136" lon="5.69671">
        <ele>1179.080324694</ele>
        <time>2015-05-12T15:38:20Z</time>
      </trkpt>
      <trkpt lat="45.35133" lon="5.69679">
        <ele>1183.200123439</ele>
        <time>2015-05-12T15:38:25Z</time>
      </trkpt>
      <trkpt lat="45.35135" lon="5.69684">
        <ele>1183.200123439</ele>
        <time>2015-05-12T15:38:30Z</time>
      </trkpt>
      <trkpt lat="45.35136" lon="5.69676">
        <ele>1187.536388133</ele>
        <time>2015-05-12T15:38:35Z</time>
      </trkpt>
      <trkpt lat="45.35139" lon="5.69677">
        <ele>1187.536388133</ele>
        <time>2015-05-12T15:38:39Z</time>
      </trkpt>
      <trkpt lat="45.35144" lon="5.69682">
        <ele>1191.635701947</ele>
        <time>2015-05-12T15:38:44Z</time>
      </trkpt>
      <trkpt lat="45.35149" lon="5.69678">
        <ele>1191.635701947</ele>
        <time>2015-05-12T15:38:49Z</time>
      </trkpt>
      <trkpt lat="45.35153" lon="5.69684">
        <ele>1195.222823262</ele>
        <time>2015-05-12T15:38:54Z</time>
      </trkpt>
      <trkpt lat="45.35155" lon="5.69691">
        <ele>1195.222823262</ele>
        <time>2015-05-12T15:39:00Z</time>
      </trkpt>
      <trkpt lat="45.35158" lon="5.69689">
        <ele>1195.222823262</ele>
        <time>2015-05-12T15:39:05Z</time>
      </trkpt>
      <trkpt lat="45.35166" lon="5.69688">
        <ele>1200.205933248</ele>
        <time>2015-05-12T15:39:10Z</time>
      </trkpt>
      <trkpt lat="45.35166" lon="5.6969">
        <ele>1200.205933248</ele>
        <time>2015-05-12T15:39:15Z</time>
      </trkpt>
      <trkpt lat="45.35165" lon="5.69696">
        <ele>1200.205933248</ele>
        <time>2015-05-12T15:39:20Z</time>
      </trkpt>
      <trkpt lat="45.35162" lon="5.69699">
        <ele>1205.46700706</ele>
        <time>2015-05-12T15:39:24Z</time>
      </trkpt>
      <trkpt lat="45.35162" lon="5.69703">
        <ele>1205.46700706</ele>
        <time>2015-05-12T15:39:30Z</time>
      </trkpt>
      <trkpt lat="45.35163" lon="5.69701">
        <ele>1205.46700706</ele>
        <time>2015-05-12T15:39:35Z</time>
      </trkpt>
      <trkpt lat="45.35166" lon="5.69707">
        <ele>1210.545930177</ele>
        <time>2015-05-12T15:39:39Z</time>
      </trkpt>
      <trkpt lat="45.35168" lon="5.69701">
        <ele>1210.545930177</ele>
        <time>2015-05-12T15:39:44Z</time>
      </trkpt>
      <trkpt lat="45.35173" lon="5.69702">
        <ele>1216.025803698</ele>
        <time>2015-05-12T15:39:49Z</time>
      </trkpt>
      <trkpt lat="45.35173" lon="5.69703">
        <ele>1216.025803698</ele>
        <time>2015-05-12T15:39:54Z</time>
      </trkpt>
      <trkpt lat="45.35174" lon="5.69709">
        <ele>1216.025803698</ele>
        <time>2015-05-12T15:39:59Z</time>
      </trkpt>
      <trkpt lat="45.35172" lon="5.69714">
        <ele>1220.716573183</ele>
        <time>2015-05-12T15:40:04Z</time>
      </trkpt>
      <trkpt lat="45.35176" lon="5.69718">
        <ele>1220.716573183</ele>
        <time>2015-05-12T15:40:09Z</time>
      </trkpt>
      <trkpt lat="45.35181" lon="5.69722">
        <ele>1224.959076277</ele>
        <time>2015-05-12T15:40:14Z</time>
      </trkpt>
      <trkpt lat="45.35182" lon="5.69727">
        <ele>1224.959076277</ele>
        <time>2015-05-12T15:40:19Z</time>
      </trkpt>
      <trkpt lat="45.35188" lon="5.6973">
        <ele>1229.214633431</ele>
        <time>2015-05-12T15:40:25Z</time>
      </trkpt>
      <trkpt lat="45.35192" lon="5.69729">
        <ele>1229.214633431</ele>
        <time>2015-05-12T15:40:29Z</time>
      </trkpt>
      <trkpt lat="45.35189" lon="5.69738">
        <ele>1233.478461477</ele>
        <time>2015-05-12T15:40:34Z</time>
      </trkpt>
      <trkpt lat="45.3519" lon="5.69736">
        <ele>1233.478461477</ele>
        <time>2015-05-12T15:40:39Z</time>
      </trkpt>
      <trkpt lat="45.35189" lon="5.69735">
        <ele>1233.478461477</ele>
        <time>2015-05-12T15:40:44Z</time>
      </trkpt>
      <trkpt lat="45.3519" lon="5.69735">
        <ele>1233.478461477</ele>
        <time>2015-05-12T15:40:49Z</time>
      </trkpt>
      <trkpt lat="45.35189" lon="5.69735">
        <ele>1233.478461477</ele>
        <time>2015-05-12T15:40:54Z</time>
      </trkpt>
      <trkpt lat="45.35189" lon="5.69735">
        <ele>1233.478461477</ele>
        <time>2015-05-12T15:41:00Z</time>
      </trkpt>
      <trkpt lat="45.35189" lon="5.69735">
        <ele>1233.478461477</ele>
        <time>2015-05-12T15:41:04Z</time>
      </trkpt>
      <trkpt lat="45.3519" lon="5.69735">
        <ele>1233.478461477</ele>
        <time>2015-05-12T15:41:09Z</time>
      </trkpt>
      <trkpt lat="45.35191" lon="5.69737">
        <ele>1233.478461477</ele>
        <time>2015-05-12T15:41:14Z</time>
      </trkpt>
      <trkpt lat="45.35196" lon="5.69747">
        <ele>1238.466817697</ele>
        <time>2015-05-12T15:41:19Z</time>
      </trkpt>
      <trkpt lat="45.35204" lon="5.69747">
        <ele>1238.466817697</ele>
        <time>2015-05-12T15:41:24Z</time>
      </trkpt>
      <trkpt lat="45.3521" lon="5.69753">
        <ele>1243.688579967</ele>
        <time>2015-05-12T15:41:30Z</time>
      </trkpt>
      <trkpt lat="45.35213" lon="5.69759">
        <ele>1243.688579967</ele>
        <time>2015-05-12T15:41:34Z</time>
      </trkpt>
      <trkpt lat="45.35217" lon="5.69764">
        <ele>1248.255875627</ele>
        <time>2015-05-12T15:41:39Z</time>
      </trkpt>
      <trkpt lat="45.35218" lon="5.69766">
        <ele>1248.255875627</ele>
        <time>2015-05-12T15:41:44Z</time>
      </trkpt>
      <trkpt lat="45.35219" lon="5.69765">
        <ele>1248.255875627</ele>
        <time>2015-05-12T15:41:49Z</time>
      </trkpt>
      <trkpt lat="45.3522" lon="5.69763">
        <ele>1248.255875627</ele>
        <time>2015-05-12T15:41:54Z</time>
      </trkpt>
      <trkpt lat="45.3522" lon="5.69764">
        <ele>1248.255875627</ele>
        <time>2015-05-12T15:41:59Z</time>
      </trkpt>
      <trkpt lat="45.3522" lon="5.69764">
        <ele>1248.255875627</ele>
        <time>2015-05-12T15:42:04Z</time>
      </trkpt>
      <trkpt lat="45.3522" lon="5.69764">
        <ele>1248.255875627</ele>
        <time>2015-05-12T15:42:09Z</time>
      </trkpt>
      <trkpt lat="45.3522" lon="5.69764">
        <ele>1248.255875627</ele>
        <time>2015-05-12T15:42:14Z</time>
      </trkpt>
      <trkpt lat="45.3522" lon="5.69764">
        <ele>1248.255875627</ele>
        <time>2015-05-12T15:42:19Z</time>
      </trkpt>
      <trkpt lat="45.3522" lon="5.69764">
        <ele>1248.255875627</ele>
        <time>2015-05-12T15:42:24Z</time>
      </trkpt>
      <trkpt lat="45.3522" lon="5.69764">
        <ele>1248.255875627</ele>
        <time>2015-05-12T15:42:29Z</time>
      </trkpt>
      <trkpt lat="45.3522" lon="5.69764">
        <ele>1248.255875627</ele>
        <time>2015-05-12T15:42:34Z</time>
      </trkpt>
      <trkpt lat="45.3522" lon="5.69765">
        <ele>1248.255875627</ele>
        <time>2015-05-12T15:42:39Z</time>
      </trkpt>
      <trkpt lat="45.35213" lon="5.69773">
        <ele>1252.35683048</ele>
        <time>2015-05-12T15:42:44Z</time>
      </trkpt>
      <trkpt lat="45.3521" lon="5.69773">
        <ele>1252.35683048</ele>
        <time>2015-05-12T15:42:49Z</time>
      </trkpt>
      <trkpt lat="45.35205" lon="5.6978">
        <ele>1256.167220564</ele>
        <time>2015-05-12T15:42:54Z</time>
      </trkpt>
      <trkpt lat="45.35204" lon="5.69786">
        <ele>1256.167220564</ele>
        <time>2015-05-12T15:42:59Z</time>
      </trkpt>
      <trkpt lat="45.35201" lon="5.69789">
        <ele>1256.167220564</ele>
        <time>2015-05-12T15:43:04Z</time>
      </trkpt>
      <trkpt lat="45.35196" lon="5.69795">
        <ele>1260.57144019</ele>
        <time>2015-05-12T15:43:10Z</time>
      </trkpt>
      <trkpt lat="45.35193" lon="5.69794">
        <ele>1260.57144019</ele>
        <time>2015-05-12T15:43:15Z</time>
      </trkpt>
      <trkpt lat="45.35189" lon="5.69796">
        <ele>1260.57144019</ele>
        <time>2015-05-12T15:43:20Z</time>
      </trkpt>
      <trkpt lat="45.35185" lon="5.698">
        <ele>1264.65807205</ele>
        <time>2015-05-12T15:43:25Z</time>
      </trkpt>
      <trkpt lat="45.35184" lon="5.69801">
        <ele>1264.65807205</ele>
        <time>2015-05-12T15:43:30Z</time>
      </trkpt>
      <trkpt lat="45.35182" lon="5.69805">
        <ele>1264.65807205</ele>
        <time>2015-05-12T15:43:34Z</time>
      </trkpt>
      <trkpt lat="45.35178" lon="5.69806">
        <ele>1264.65807205</ele>
        <time>2015-05-12T15:43:40Z</time>
      </trkpt>
      <trkpt lat="45.35176" lon="5.69806">
        <ele>1269.168915884</ele>
        <time>2015-05-12T15:43:45Z</time>
      </trkpt>
      <trkpt lat="45.35176" lon="5.69808">
        <ele>1269.168915884</ele>
        <time>2015-05-12T15:43:50Z</time>
      </trkpt>
      <trkpt lat="45.35174" lon="5.6981">
        <ele>1269.168915884</ele>
        <time>2015-05-12T15:43:55Z</time>
      </trkpt>
      <trkpt lat="45.35173" lon="5.6981">
        <ele>1269.168915884</ele>
        <time>2015-05-12T15:44:00Z</time>
      </trkpt>
      <trkpt lat="45.35173" lon="5.69811">
        <ele>1269.168915884</ele>
        <time>2015-05-12T15:44:05Z</time>
      </trkpt>
      <trkpt lat="45.35173" lon="5.69811">
        <ele>1269.168915884</ele>
        <time>2015-05-12T15:44:10Z</time>
      </trkpt>
      <trkpt lat="45.35173" lon="5.69811">
        <ele>1269.168915884</ele>
        <time>2015-05-12T15:44:15Z</time>
      </trkpt>
      <trkpt lat="45.35173" lon="5.69811">
        <ele>1269.168915884</ele>
        <time>2015-05-12T15:44:20Z</time>
      </trkpt>
      <trkpt lat="45.35173" lon="5.69811">
        <ele>1269.168915884</ele>
        <time>2015-05-12T15:44:25Z</time>
      </trkpt>
      <trkpt lat="45.35173" lon="5.69811">
        <ele>1269.168915884</ele>
        <time>2015-05-12T15:44:30Z</time>
      </trkpt>
      <trkpt lat="45.35166" lon="5.69823">
        <ele>1272.772678781</ele>
        <time>2015-05-12T15:44:35Z</time>
      </trkpt>
      <trkpt lat="45.35164" lon="5.69828">
        <ele>1272.772678781</ele>
        <time>2015-05-12T15:44:40Z</time>
      </trkpt>
      <trkpt lat="45.35163" lon="5.69835">
        <ele>1272.772678781</ele>
        <time>2015-05-12T15:44:45Z</time>
      </trkpt>
      <trkpt lat="45.35157" lon="5.69839">
        <ele>1277.264884946</ele>
        <time>2015-05-12T15:44:50Z</time>
      </trkpt>
      <trkpt lat="45.35147" lon="5.69845">
        <ele>1281.712804727</ele>
        <time>2015-05-12T15:44:55Z</time>
      </trkpt>
      <trkpt lat="45.3514" lon="5.69854">
        <ele>1285.684816875</ele>
        <time>2015-05-12T15:45:00Z</time>
      </trkpt>
      <trkpt lat="45.35136" lon="5.69859">
        <ele>1285.684816875</ele>
        <time>2015-05-12T15:45:05Z</time>
      </trkpt>
      <trkpt lat="45.35134" lon="5.69864">
        <ele>1289.214802508</ele>
        <time>2015-05-12T15:45:10Z</time>
      </trkpt>
      <trkpt lat="45.35128" lon="5.69868">
        <ele>1289.214802508</ele>
        <time>2015-05-12T15:45:15Z</time>
      </trkpt>
      <trkpt lat="45.35131" lon="5.69869">
        <ele>1292.911959851</ele>
        <time>2015-05-12T15:45:20Z</time>
      </trkpt>
      <trkpt lat="45.3513" lon="5.69864">
        <ele>1292.911959851</ele>
        <time>2015-05-12T15:45:25Z</time>
      </trkpt>
      <trkpt lat="45.35137" lon="5.69869">
        <ele>1296.475713439</ele>
        <time>2015-05-12T15:45:30Z</time>
      </trkpt>
      <trkpt lat="45.35141" lon="5.69865">
        <ele>1296.475713439</ele>
        <time>2015-05-12T15:45:35Z</time>
      </trkpt>
      <trkpt lat="45.35142" lon="5.69868">
        <ele>1296.475713439</ele>
        <time>2015-05-12T15:45:40Z</time>
      </trkpt>
      <trkpt lat="45.35141" lon="5.69874">
        <ele>1299.916269063</ele>
        <time>2015-05-12T15:45:45Z</time>
      </trkpt>
      <trkpt lat="45.35139" lon="5.69879">
        <ele>1299.916269063</ele>
        <time>2015-05-12T15:45:50Z</time>
      </trkpt>
      <trkpt lat="45.35134" lon="5.69881">
        <ele>1303.243523441</ele>
        <time>2015-05-12T15:45:55Z</time>
      </trkpt>
      <trkpt lat="45.35129" lon="5.69885">
        <ele>1303.243523441</ele>
        <time>2015-05-12T15:46:00Z</time>
      </trkpt>
      <trkpt lat="45.35127" lon="5.69886">
        <ele>1303.243523441</ele>
        <time>2015-05-12T15:46:04Z</time>
      </trkpt>
      <trkpt lat="45.35122" lon="5.69893">
        <ele>1305.890603744</ele>
        <time>2015-05-12T15:46:10Z</time>
      </trkpt>
      <trkpt lat="45.35118" lon="5.69897">
        <ele>1305.890603744</ele>
        <time>2015-05-12T15:46:14Z</time>
      </trkpt>
      <trkpt lat="45.35116" lon="5.69899">
        <ele>1305.890603744</ele>
        <time>2015-05-12T15:46:20Z</time>
      </trkpt>
      <trkpt lat="45.35112" lon="5.69896">
        <ele>1308.343037732</ele>
        <time>2015-05-12T15:46:25Z</time>
      </trkpt>
      <trkpt lat="45.35102" lon="5.69896">
        <ele>1310.618957566</ele>
        <time>2015-05-12T15:46:30Z</time>
      </trkpt>
      <trkpt lat="45.35097" lon="5.699">
        <ele>1310.618957566</ele>
        <time>2015-05-12T15:46:34Z</time>
      </trkpt>
      <trkpt lat="45.35095" lon="5.69904">
        <ele>1310.618957566</ele>
        <time>2015-05-12T15:46:40Z</time>
      </trkpt>
      <trkpt lat="45.35094" lon="5.69903">
        <ele>1312.879813159</ele>
        <time>2015-05-12T15:46:45Z</time>
      </trkpt>
      <trkpt lat="45.35093" lon="5.69905">
        <ele>1312.879813159</ele>
        <time>2015-05-12T15:46:50Z</time>
      </trkpt>
      <trkpt lat="45.35092" lon="5.69904">
        <ele>1312.879813159</ele>
        <time>2015-05-12T15:46:55Z</time>
      </trkpt>
      <trkpt lat="45.35092" lon="5.69903">
        <ele>1312.879813159</ele>
        <time>2015-05-12T15:47:00Z</time>
      </trkpt>
      <trkpt lat="45.35091" lon="5.69903">
        <ele>1312.879813159</ele>
        <time>2015-05-12T15:47:05Z</time>
      </trkpt>
      <trkpt lat="45.35083" lon="5.69904">
        <ele>1315.563487399</ele>
        <time>2015-05-12T15:47:10Z</time>
      </trkpt>
      <trkpt lat="45.35076" lon="5.69909">
        <ele>1315.563487399</ele>
        <time>2015-05-12T15:47:15Z</time>
      </trkpt>
      <trkpt lat="45.35071" lon="5.69912">
        <ele>1318.353969154</ele>
        <time>2015-05-12T15:47:20Z</time>
      </trkpt>
      <trkpt lat="45.35065" lon="5.69918">
        <ele>1318.353969154</ele>
        <time>2015-05-12T15:47:25Z</time>
      </trkpt>
      <trkpt lat="45.35053" lon="5.69919">
        <ele>1321.246386654</ele>
        <time>2015-05-12T15:47:29Z</time>
      </trkpt>
      <trkpt lat="45.35053" lon="5.69916">
        <ele>1321.246386654</ele>
        <time>2015-05-12T15:47:35Z</time>
      </trkpt>
      <trkpt lat="45.35047" lon="5.69914">
        <ele>1321.246386654</ele>
        <time>2015-05-12T15:47:40Z</time>
      </trkpt>
      <trkpt lat="45.35046" lon="5.69918">
        <ele>1324.956490144</ele>
        <time>2015-05-12T15:47:45Z</time>
      </trkpt>
      <trkpt lat="45.35046" lon="5.69926">
        <ele>1324.956490144</ele>
        <time>2015-05-12T15:47:50Z</time>
      </trkpt>
      <trkpt lat="45.35039" lon="5.69928">
        <ele>1328.271700188</ele>
        <time>2015-05-12T15:47:55Z</time>
      </trkpt>
      <trkpt lat="45.35039" lon="5.69924">
        <ele>1328.271700188</ele>
        <time>2015-05-12T15:48:00Z</time>
      </trkpt>
      <trkpt lat="45.35041" lon="5.69926">
        <ele>1328.271700188</ele>
        <time>2015-05-12T15:48:05Z</time>
      </trkpt>
      <trkpt lat="45.35041" lon="5.69929">
        <ele>1328.271700188</ele>
        <time>2015-05-12T15:48:10Z</time>
      </trkpt>
      <trkpt lat="45.35041" lon="5.69929">
        <ele>1328.271700188</ele>
        <time>2015-05-12T15:48:15Z</time>
      </trkpt>
      <trkpt lat="45.3504" lon="5.69929">
        <ele>1328.271700188</ele>
        <time>2015-05-12T15:48:20Z</time>
      </trkpt>
      <trkpt lat="45.3504" lon="5.69929">
        <ele>1328.271700188</ele>
        <time>2015-05-12T15:48:24Z</time>
      </trkpt>
      <trkpt lat="45.3504" lon="5.69929">
        <ele>1328.271700188</ele>
        <time>2015-05-12T15:48:29Z</time>
      </trkpt>
      <trkpt lat="45.3504" lon="5.69929">
        <ele>1328.271700188</ele>
        <time>2015-05-12T15:48:35Z</time>
      </trkpt>
      <trkpt lat="45.3504" lon="5.69929">
        <ele>1328.271700188</ele>
        <time>2015-05-12T15:48:39Z</time>
      </trkpt>
      <trkpt lat="45.3504" lon="5.69929">
        <ele>1328.271700188</ele>
        <time>2015-05-12T15:48:45Z</time>
      </trkpt>
      <trkpt lat="45.3504" lon="5.69929">
        <ele>1328.271700188</ele>
        <time>2015-05-12T15:48:50Z</time>
      </trkpt>
      <trkpt lat="45.3504" lon="5.69929">
        <ele>1328.271700188</ele>
        <time>2015-05-12T15:48:55Z</time>
      </trkpt>
      <trkpt lat="45.3504" lon="5.69929">
        <ele>1328.271700188</ele>
        <time>2015-05-12T15:48:59Z</time>
      </trkpt>
      <trkpt lat="45.3504" lon="5.69929">
        <ele>1328.271700188</ele>
        <time>2015-05-12T15:49:04Z</time>
      </trkpt>
      <trkpt lat="45.3504" lon="5.69929">
        <ele>1328.271700188</ele>
        <time>2015-05-12T15:49:10Z</time>
      </trkpt>
      <trkpt lat="45.3504" lon="5.69929">
        <ele>1328.271700188</ele>
        <time>2015-05-12T15:49:15Z</time>
      </trkpt>
      <trkpt lat="45.3504" lon="5.69929">
        <ele>1328.271700188</ele>
        <time>2015-05-12T15:49:20Z</time>
      </trkpt>
      <trkpt lat="45.3504" lon="5.69929">
        <ele>1328.271700188</ele>
        <time>2015-05-12T15:49:24Z</time>
      </trkpt>
      <trkpt lat="45.35041" lon="5.69929">
        <ele>1328.271700188</ele>
        <time>2015-05-12T15:49:29Z</time>
      </trkpt>
      <trkpt lat="45.35041" lon="5.69929">
        <ele>1328.271700188</ele>
        <time>2015-05-12T15:49:35Z</time>
      </trkpt>
      <trkpt lat="45.35041" lon="5.69929">
        <ele>1328.271700188</ele>
        <time>2015-05-12T15:49:39Z</time>
      </trkpt>
      <trkpt lat="45.35041" lon="5.69929">
        <ele>1328.271700188</ele>
        <time>2015-05-12T15:49:45Z</time>
      </trkpt>
      <trkpt lat="45.35041" lon="5.69929">
        <ele>1328.271700188</ele>
        <time>2015-05-12T15:49:50Z</time>
      </trkpt>
      <trkpt lat="45.35046" lon="5.69933">
        <ele>1331.654827082</ele>
        <time>2015-05-12T15:49:55Z</time>
      </trkpt>
      <trkpt lat="45.35052" lon="5.69935">
        <ele>1331.654827082</ele>
        <time>2015-05-12T15:49:59Z</time>
      </trkpt>
      <trkpt lat="45.35058" lon="5.69937">
        <ele>1334.669806133</ele>
        <time>2015-05-12T15:50:05Z</time>
      </trkpt>
      <trkpt lat="45.35062" lon="5.69941">
        <ele>1334.669806133</ele>
        <time>2015-05-12T15:50:10Z</time>
      </trkpt>
      <trkpt lat="45.35071" lon="5.69942">
        <ele>1337.057725724</ele>
        <time>2015-05-12T15:50:15Z</time>
      </trkpt>
      <trkpt lat="45.35079" lon="5.69943">
        <ele>1337.057725724</ele>
        <time>2015-05-12T15:50:20Z</time>
      </trkpt>
      <trkpt lat="45.35083" lon="5.69948">
        <ele>1339.012755832</ele>
        <time>2015-05-12T15:50:25Z</time>
      </trkpt>
      <trkpt lat="45.35086" lon="5.69951">
        <ele>1339.012755832</ele>
        <time>2015-05-12T15:50:30Z</time>
      </trkpt>
      <trkpt lat="45.35089" lon="5.69953">
        <ele>1339.012755832</ele>
        <time>2015-05-12T15:50:35Z</time>
      </trkpt>
      <trkpt lat="45.3509" lon="5.69954">
        <ele>1339.012755832</ele>
        <time>2015-05-12T15:50:40Z</time>
      </trkpt>
      <trkpt lat="45.35097" lon="5.69955">
        <ele>1341.004200614</ele>
        <time>2015-05-12T15:50:45Z</time>
      </trkpt>
      <trkpt lat="45.35099" lon="5.69956">
        <ele>1341.004200614</ele>
        <time>2015-05-12T15:50:50Z</time>
      </trkpt>
      <trkpt lat="45.35105" lon="5.69959">
        <ele>1341.004200614</ele>
        <time>2015-05-12T15:50:55Z</time>
      </trkpt>
      <trkpt lat="45.35111" lon="5.6996">
        <ele>1342.169736143</ele>
        <time>2015-05-12T15:51:00Z</time>
      </trkpt>
      <trkpt lat="45.35117" lon="5.69961">
        <ele>1342.169736143</ele>
        <time>2015-05-12T15:51:05Z</time>
      </trkpt>
      <trkpt lat="45.35122" lon="5.69964">
        <ele>1343.153748544</ele>
        <time>2015-05-12T15:51:10Z</time>
      </trkpt>
      <trkpt lat="45.35125" lon="5.69968">
        <ele>1343.153748544</ele>
        <time>2015-05-12T15:51:15Z</time>
      </trkpt>
      <trkpt lat="45.35127" lon="5.69968">
        <ele>1343.153748544</ele>
        <time>2015-05-12T15:51:20Z</time>
      </trkpt>
      <trkpt lat="45.35126" lon="5.6997">
        <ele>1343.153748544</ele>
        <time>2015-05-12T15:51:25Z</time>
      </trkpt>
      <trkpt lat="45.35125" lon="5.69971">
        <ele>1344.265495548</ele>
        <time>2015-05-12T15:51:30Z</time>
      </trkpt>
      <trkpt lat="45.35125" lon="5.69971">
        <ele>1344.265495548</ele>
        <time>2015-05-12T15:51:35Z</time>
      </trkpt>
      <trkpt lat="45.35125" lon="5.69971">
        <ele>1344.265495548</ele>
        <time>2015-05-12T15:51:40Z</time>
      </trkpt>
      <trkpt lat="45.35125" lon="5.69971">
        <ele>1344.265495548</ele>
        <time>2015-05-12T15:51:45Z</time>
      </trkpt>
      <trkpt lat="45.35122" lon="5.6997">
        <ele>1344.265495548</ele>
        <time>2015-05-12T15:51:50Z</time>
      </trkpt>
      <trkpt lat="45.35107" lon="5.69982">
        <ele>1344.63817384</ele>
        <time>2015-05-12T15:51:55Z</time>
      </trkpt>
      <trkpt lat="45.35101" lon="5.69985">
        <ele>1344.63817384</ele>
        <time>2015-05-12T15:52:00Z</time>
      </trkpt>
      <trkpt lat="45.35096" lon="5.69988">
        <ele>1345.920507081</ele>
        <time>2015-05-12T15:52:04Z</time>
      </trkpt>
      <trkpt lat="45.35092" lon="5.69989">
        <ele>1345.920507081</ele>
        <time>2015-05-12T15:52:10Z</time>
      </trkpt>
      <trkpt lat="45.35089" lon="5.6999">
        <ele>1345.920507081</ele>
        <time>2015-05-12T15:52:15Z</time>
      </trkpt>
      <trkpt lat="45.35086" lon="5.69989">
        <ele>1348.196317556</ele>
        <time>2015-05-12T15:52:20Z</time>
      </trkpt>
      <trkpt lat="45.35077" lon="5.69988">
        <ele>1348.196317556</ele>
        <time>2015-05-12T15:52:25Z</time>
      </trkpt>
      <trkpt lat="45.35072" lon="5.69993">
        <ele>1350.819794869</ele>
        <time>2015-05-12T15:52:30Z</time>
      </trkpt>
      <trkpt lat="45.35066" lon="5.69997">
        <ele>1350.819794869</ele>
        <time>2015-05-12T15:52:35Z</time>
      </trkpt>
      <trkpt lat="45.35064" lon="5.70006">
        <ele>1352.903234231</ele>
        <time>2015-05-12T15:52:40Z</time>
      </trkpt>
      <trkpt lat="45.35053" lon="5.70008">
        <ele>1355.06662904</ele>
        <time>2015-05-12T15:52:45Z</time>
      </trkpt>
      <trkpt lat="45.35049" lon="5.70012">
        <ele>1355.06662904</ele>
        <time>2015-05-12T15:52:50Z</time>
      </trkpt>
      <trkpt lat="45.35046" lon="5.70014">
        <ele>1355.06662904</ele>
        <time>2015-05-12T15:52:54Z</time>
      </trkpt>
      <trkpt lat="45.35045" lon="5.70013">
        <ele>1357.595844057</ele>
        <time>2015-05-12T15:53:00Z</time>
      </trkpt>
      <trkpt lat="45.35045" lon="5.70011">
        <ele>1357.595844057</ele>
        <time>2015-05-12T15:53:05Z</time>
      </trkpt>
      <trkpt lat="45.35046" lon="5.70011">
        <ele>1357.595844057</ele>
        <time>2015-05-12T15:53:10Z</time>
      </trkpt>
      <trkpt lat="45.35049" lon="5.70019">
        <ele>1357.595844057</ele>
        <time>2015-05-12T15:53:15Z</time>
      </trkpt>
      <trkpt lat="45.35052" lon="5.70018">
        <ele>1361.186917492</ele>
        <time>2015-05-12T15:53:20Z</time>
      </trkpt>
      <trkpt lat="45.35057" lon="5.70015">
        <ele>1361.186917492</ele>
        <time>2015-05-12T15:53:25Z</time>
      </trkpt>
      <trkpt lat="45.35061" lon="5.7002">
        <ele>1365.184649074</ele>
        <time>2015-05-12T15:53:30Z</time>
      </trkpt>
      <trkpt lat="45.35063" lon="5.70019">
        <ele>1365.184649074</ele>
        <time>2015-05-12T15:53:35Z</time>
      </trkpt>
      <trkpt lat="45.35067" lon="5.70021">
        <ele>1365.184649074</ele>
        <time>2015-05-12T15:53:40Z</time>
      </trkpt>
      <trkpt lat="45.35072" lon="5.70022">
        <ele>1369.557154362</ele>
        <time>2015-05-12T15:53:45Z</time>
      </trkpt>
      <trkpt lat="45.35075" lon="5.70024">
        <ele>1369.557154362</ele>
        <time>2015-05-12T15:53:50Z</time>
      </trkpt>
      <trkpt lat="45.3508" lon="5.7002">
        <ele>1369.557154362</ele>
        <time>2015-05-12T15:53:55Z</time>
      </trkpt>
      <trkpt lat="45.35083" lon="5.70017">
        <ele>1373.69728952</ele>
        <time>2015-05-12T15:54:00Z</time>
      </trkpt>
      <trkpt lat="45.35087" lon="5.70019">
        <ele>1373.69728952</ele>
        <time>2015-05-12T15:54:05Z</time>
      </trkpt>
      <trkpt lat="45.35094" lon="5.70018">
        <ele>1377.475405412</ele>
        <time>2015-05-12T15:54:10Z</time>
      </trkpt>
      <trkpt lat="45.35104" lon="5.70018">
        <ele>1381.204648724</ele>
        <time>2015-05-12T15:54:15Z</time>
      </trkpt>
      <trkpt lat="45.35109" lon="5.70019">
        <ele>1381.204648724</ele>
        <time>2015-05-12T15:54:20Z</time>
      </trkpt>
      <trkpt lat="45.35116" lon="5.7002">
        <ele>1385.031123803</ele>
        <time>2015-05-12T15:54:25Z</time>
      </trkpt>
      <trkpt lat="45.35123" lon="5.70021">
        <ele>1385.031123803</ele>
        <time>2015-05-12T15:54:30Z</time>
      </trkpt>
      <trkpt lat="45.35125" lon="5.70025">
        <ele>1388.225207406</ele>
        <time>2015-05-12T15:54:35Z</time>
      </trkpt>
      <trkpt lat="45.35131" lon="5.70023">
        <ele>1388.225207406</ele>
        <time>2015-05-12T15:54:40Z</time>
      </trkpt>
      <trkpt lat="45.35137" lon="5.70027">
        <ele>1391.12137841</ele>
        <time>2015-05-12T15:54:45Z</time>
      </trkpt>
      <trkpt lat="45.3514" lon="5.70031">
        <ele>1391.12137841</ele>
        <time>2015-05-12T15:54:50Z</time>
      </trkpt>
      <trkpt lat="45.35145" lon="5.70033">
        <ele>1393.598004107</ele>
        <time>2015-05-12T15:54:55Z</time>
      </trkpt>
      <trkpt lat="45.3515" lon="5.70034">
        <ele>1393.598004107</ele>
        <time>2015-05-12T15:54:59Z</time>
      </trkpt>
      <trkpt lat="45.35152" lon="5.70038">
        <ele>1393.598004107</ele>
        <time>2015-05-12T15:55:04Z</time>
      </trkpt>
      <trkpt lat="45.35151" lon="5.70039">
        <ele>1395.97585599</ele>
        <time>2015-05-12T15:55:09Z</time>
      </trkpt>
      <trkpt lat="45.3515" lon="5.7004">
        <ele>1395.97585599</ele>
        <time>2015-05-12T15:55:14Z</time>
      </trkpt>
      <trkpt lat="45.35152" lon="5.70041">
        <ele>1395.97585599</ele>
        <time>2015-05-12T15:55:19Z</time>
      </trkpt>
      <trkpt lat="45.35153" lon="5.70042">
        <ele>1395.97585599</ele>
        <time>2015-05-12T15:55:24Z</time>
      </trkpt>
      <trkpt lat="45.35152" lon="5.70042">
        <ele>1395.97585599</ele>
        <time>2015-05-12T15:55:30Z</time>
      </trkpt>
      <trkpt lat="45.35152" lon="5.70042">
        <ele>1395.97585599</ele>
        <time>2015-05-12T15:55:35Z</time>
      </trkpt>
      <trkpt lat="45.35152" lon="5.70042">
        <ele>1395.97585599</ele>
        <time>2015-05-12T15:55:40Z</time>
      </trkpt>
      <trkpt lat="45.35152" lon="5.70042">
        <ele>1395.97585599</ele>
        <time>2015-05-12T15:55:45Z</time>
      </trkpt>
      <trkpt lat="45.35144" lon="5.70043">
        <ele>1397.111263246</ele>
        <time>2015-05-12T15:55:49Z</time>
      </trkpt>
      <trkpt lat="45.35133" lon="5.70048">
        <ele>1397.965560161</ele>
        <time>2015-05-12T15:55:55Z</time>
      </trkpt>
      <trkpt lat="45.35124" lon="5.70046">
        <ele>1398.421412578</ele>
        <time>2015-05-12T15:56:00Z</time>
      </trkpt>
      <trkpt lat="45.35119" lon="5.70052">
        <ele>1398.421412578</ele>
        <time>2015-05-12T15:56:05Z</time>
      </trkpt>
      <trkpt lat="45.35112" lon="5.70055">
        <ele>1398.227038694</ele>
        <time>2015-05-12T15:56:10Z</time>
      </trkpt>
      <trkpt lat="45.35107" lon="5.70057">
        <ele>1398.227038694</ele>
        <time>2015-05-12T15:56:15Z</time>
      </trkpt>
      <trkpt lat="45.35102" lon="5.70055">
        <ele>1397.727330757</ele>
        <time>2015-05-12T15:56:19Z</time>
      </trkpt>
      <trkpt lat="45.35096" lon="5.70047">
        <ele>1397.727330757</ele>
        <time>2015-05-12T15:56:25Z</time>
      </trkpt>
      <trkpt lat="45.35095" lon="5.70048">
        <ele>1397.674927547</ele>
        <time>2015-05-12T15:56:30Z</time>
      </trkpt>
      <trkpt lat="45.35095" lon="5.70047">
        <ele>1397.674927547</ele>
        <time>2015-05-12T15:56:35Z</time>
      </trkpt>
      <trkpt lat="45.35094" lon="5.70048">
        <ele>1397.674927547</ele>
        <time>2015-05-12T15:56:40Z</time>
      </trkpt>
      <trkpt lat="45.35093" lon="5.70048">
        <ele>1397.674927547</ele>
        <time>2015-05-12T15:56:45Z</time>
      </trkpt>
      <trkpt lat="45.35076" lon="5.70049">
        <ele>1397.612909644</ele>
        <time>2015-05-12T15:56:50Z</time>
      </trkpt>
      <trkpt lat="45.35065" lon="5.70048">
        <ele>1397.838363747</ele>
        <time>2015-05-12T15:56:55Z</time>
      </trkpt>
      <trkpt lat="45.35056" lon="5.70046">
        <ele>1397.838363747</ele>
        <time>2015-05-12T15:57:00Z</time>
      </trkpt>
      <trkpt lat="45.35049" lon="5.7005">
        <ele>1398.481480571</ele>
        <time>2015-05-12T15:57:05Z</time>
      </trkpt>
      <trkpt lat="45.35041" lon="5.7005">
        <ele>1398.481480571</ele>
        <time>2015-05-12T15:57:10Z</time>
      </trkpt>
      <trkpt lat="45.35034" lon="5.70054">
        <ele>1399.373329309</ele>
        <time>2015-05-12T15:57:15Z</time>
      </trkpt>
      <trkpt lat="45.35029" lon="5.7005">
        <ele>1399.373329309</ele>
        <time>2015-05-12T15:57:20Z</time>
      </trkpt>
      <trkpt lat="45.35023" lon="5.70055">
        <ele>1399.78007538</ele>
        <time>2015-05-12T15:57:25Z</time>
      </trkpt>
      <trkpt lat="45.35015" lon="5.70055">
        <ele>1399.78007538</ele>
        <time>2015-05-12T15:57:30Z</time>
      </trkpt>
      <trkpt lat="45.35007" lon="5.70054">
        <ele>1400.175865549</ele>
        <time>2015-05-12T15:57:35Z</time>
      </trkpt>
      <trkpt lat="45.35002" lon="5.70057">
        <ele>1400.175865549</ele>
        <time>2015-05-12T15:57:40Z</time>
      </trkpt>
      <trkpt lat="45.35" lon="5.70058">
        <ele>1400.175865549</ele>
        <time>2015-05-12T15:57:45Z</time>
      </trkpt>
      <trkpt lat="45.34995" lon="5.70059">
        <ele>1400.711644763</ele>
        <time>2015-05-12T15:57:50Z</time>
      </trkpt>
      <trkpt lat="45.34991" lon="5.70059">
        <ele>1400.711644763</ele>
        <time>2015-05-12T15:57:55Z</time>
      </trkpt>
      <trkpt lat="45.34988" lon="5.70065">
        <ele>1402.103139988</ele>
        <time>2015-05-12T15:58:00Z</time>
      </trkpt>
      <trkpt lat="45.34984" lon="5.70073">
        <ele>1402.103139988</ele>
        <time>2015-05-12T15:58:05Z</time>
      </trkpt>
      <trkpt lat="45.34986" lon="5.70074">
        <ele>1402.103139988</ele>
        <time>2015-05-12T15:58:10Z</time>
      </trkpt>
      <trkpt lat="45.34984" lon="5.70071">
        <ele>1402.849250064</ele>
        <time>2015-05-12T15:58:14Z</time>
      </trkpt>
      <trkpt lat="45.34984" lon="5.70072">
        <ele>1402.849250064</ele>
        <time>2015-05-12T15:58:20Z</time>
      </trkpt>
      <trkpt lat="45.34983" lon="5.70073">
        <ele>1402.849250064</ele>
        <time>2015-05-12T15:58:25Z</time>
      </trkpt>
      <trkpt lat="45.34982" lon="5.70073">
        <ele>1402.849250064</ele>
        <time>2015-05-12T15:58:30Z</time>
      </trkpt>
      <trkpt lat="45.34982" lon="5.70073">
        <ele>1402.849250064</ele>
        <time>2015-05-12T15:58:35Z</time>
      </trkpt>
      <trkpt lat="45.34982" lon="5.70074">
        <ele>1402.849250064</ele>
        <time>2015-05-12T15:58:39Z</time>
      </trkpt>
      <trkpt lat="45.34982" lon="5.70074">
        <ele>1402.849250064</ele>
        <time>2015-05-12T15:58:44Z</time>
      </trkpt>
      <trkpt lat="45.34982" lon="5.70074">
        <ele>1402.849250064</ele>
        <time>2015-05-12T15:58:49Z</time>
      </trkpt>
      <trkpt lat="45.34982" lon="5.70074">
        <ele>1402.849250064</ele>
        <time>2015-05-12T15:58:55Z</time>
      </trkpt>
      <trkpt lat="45.34982" lon="5.70074">
        <ele>1402.849250064</ele>
        <time>2015-05-12T15:59:00Z</time>
      </trkpt>
      <trkpt lat="45.34975" lon="5.70072">
        <ele>1404.731219005</ele>
        <time>2015-05-12T15:59:05Z</time>
      </trkpt>
      <trkpt lat="45.34973" lon="5.70071">
        <ele>1404.731219005</ele>
        <time>2015-05-12T15:59:10Z</time>
      </trkpt>
      <trkpt lat="45.34975" lon="5.70072">
        <ele>1404.731219005</ele>
        <time>2015-05-12T15:59:15Z</time>
      </trkpt>
      <trkpt lat="45.34977" lon="5.70073">
        <ele>1404.731219005</ele>
        <time>2015-05-12T15:59:20Z</time>
      </trkpt>
      <trkpt lat="45.34982" lon="5.70074">
        <ele>1407.234412535</ele>
        <time>2015-05-12T15:59:25Z</time>
      </trkpt>
      <trkpt lat="45.3499" lon="5.70074">
        <ele>1407.234412535</ele>
        <time>2015-05-12T15:59:30Z</time>
      </trkpt>
      <trkpt lat="45.34996" lon="5.70076">
        <ele>1409.591869468</ele>
        <time>2015-05-12T15:59:35Z</time>
      </trkpt>
      <trkpt lat="45.34999" lon="5.70079">
        <ele>1409.591869468</ele>
        <time>2015-05-12T15:59:40Z</time>
      </trkpt>
      <trkpt lat="45.35003" lon="5.7008">
        <ele>1409.591869468</ele>
        <time>2015-05-12T15:59:45Z</time>
      </trkpt>
      <trkpt lat="45.35011" lon="5.70086">
        <ele>1411.669666522</ele>
        <time>2015-05-12T15:59:50Z</time>
      </trkpt>
      <trkpt lat="45.35019" lon="5.70087">
        <ele>1411.669666522</ele>
        <time>2015-05-12T15:59:55Z</time>
      </trkpt>
      <trkpt lat="45.35024" lon="5.70087">
        <ele>1414.064915397</ele>
        <time>2015-05-12T16:00:00Z</time>
      </trkpt>
      <trkpt lat="45.3503" lon="5.7009">
        <ele>1414.064915397</ele>
        <time>2015-05-12T16:00:05Z</time>
      </trkpt>
      <trkpt lat="45.35035" lon="5.70098">
        <ele>1415.456396218</ele>
        <time>2015-05-12T16:00:10Z</time>
      </trkpt>
      <trkpt lat="45.3504" lon="5.70098">
        <ele>1415.456396218</ele>
        <time>2015-05-12T16:00:15Z</time>
      </trkpt>
      <trkpt lat="45.35045" lon="5.70097">
        <ele>1417.072527892</ele>
        <time>2015-05-12T16:00:20Z</time>
      </trkpt>
      <trkpt lat="45.35047" lon="5.70096">
        <ele>1417.072527892</ele>
        <time>2015-05-12T16:00:25Z</time>
      </trkpt>
      <trkpt lat="45.35052" lon="5.70097">
        <ele>1417.072527892</ele>
        <time>2015-05-12T16:00:30Z</time>
      </trkpt>
      <trkpt lat="45.35058" lon="5.70097">
        <ele>1419.04196725</ele>
        <time>2015-05-12T16:00:35Z</time>
      </trkpt>
      <trkpt lat="45.35064" lon="5.70096">
        <ele>1419.04196725</ele>
        <time>2015-05-12T16:00:40Z</time>
      </trkpt>
      <trkpt lat="45.35068" lon="5.70103">
        <ele>1421.482822268</ele>
        <time>2015-05-12T16:00:45Z</time>
      </trkpt>
      <trkpt lat="45.35074" lon="5.70106">
        <ele>1421.482822268</ele>
        <time>2015-05-12T16:00:50Z</time>
      </trkpt>
      <trkpt lat="45.35077" lon="5.70106">
        <ele>1423.782547818</ele>
        <time>2015-05-12T16:00:55Z</time>
      </trkpt>
      <trkpt lat="45.35079" lon="5.70105">
        <ele>1423.782547818</ele>
        <time>2015-05-12T16:01:00Z</time>
      </trkpt>
      <trkpt lat="45.35082" lon="5.70115">
        <ele>1426.670904221</ele>
        <time>2015-05-12T16:01:04Z</time>
      </trkpt>
      <trkpt lat="45.3508" lon="5.70121">
        <ele>1426.670904221</ele>
        <time>2015-05-12T16:01:09Z</time>
      </trkpt>
      <trkpt lat="45.35084" lon="5.70118">
        <ele>1426.670904221</ele>
        <time>2015-05-12T16:01:14Z</time>
      </trkpt>
      <trkpt lat="45.35088" lon="5.70117">
        <ele>1428.948870249</ele>
        <time>2015-05-12T16:01:19Z</time>
      </trkpt>
      <trkpt lat="45.35095" lon="5.70118">
        <ele>1428.948870249</ele>
        <time>2015-05-12T16:01:25Z</time>
      </trkpt>
      <trkpt lat="45.35102" lon="5.70112">
        <ele>1431.236484053</ele>
        <time>2015-05-12T16:01:30Z</time>
      </trkpt>
      <trkpt lat="45.35107" lon="5.70109">
        <ele>1431.236484053</ele>
        <time>2015-05-12T16:01:35Z</time>
      </trkpt>
      <trkpt lat="45.35112" lon="5.70109">
        <ele>1433.531708196</ele>
        <time>2015-05-12T16:01:39Z</time>
      </trkpt>
      <trkpt lat="45.35118" lon="5.70113">
        <ele>1433.531708196</ele>
        <time>2015-05-12T16:01:44Z</time>
      </trkpt>
      <trkpt lat="45.35124" lon="5.7012">
        <ele>1435.400252231</ele>
        <time>2015-05-12T16:01:50Z</time>
      </trkpt>
      <trkpt lat="45.35129" lon="5.70119">
        <ele>1435.400252231</ele>
        <time>2015-05-12T16:01:55Z</time>
      </trkpt>
      <trkpt lat="45.35136" lon="5.7013">
        <ele>1437.161439728</ele>
        <time>2015-05-12T16:02:00Z</time>
      </trkpt>
      <trkpt lat="45.35138" lon="5.70137">
        <ele>1437.161439728</ele>
        <time>2015-05-12T16:02:05Z</time>
      </trkpt>
      <trkpt lat="45.35141" lon="5.70142">
        <ele>1438.246733423</ele>
        <time>2015-05-12T16:02:10Z</time>
      </trkpt>
      <trkpt lat="45.35142" lon="5.70145">
        <ele>1438.246733423</ele>
        <time>2015-05-12T16:02:15Z</time>
      </trkpt>
      <trkpt lat="45.35144" lon="5.70153">
        <ele>1438.246733423</ele>
        <time>2015-05-12T16:02:20Z</time>
      </trkpt>
      <trkpt lat="45.35147" lon="5.70157">
        <ele>1440.581112533</ele>
        <time>2015-05-12T16:02:24Z</time>
      </trkpt>
      <trkpt lat="45.35151" lon="5.70161">
        <ele>1440.581112533</ele>
        <time>2015-05-12T16:02:29Z</time>
      </trkpt>
      <trkpt lat="45.35154" lon="5.70166">
        <ele>1443.206502017</ele>
        <time>2015-05-12T16:02:34Z</time>
      </trkpt>
      <trkpt lat="45.35157" lon="5.70178">
        <ele>1445.810809452</ele>
        <time>2015-05-12T16:02:39Z</time>
      </trkpt>
      <trkpt lat="45.35156" lon="5.70176">
        <ele>1445.810809452</ele>
        <time>2015-05-12T16:02:44Z</time>
      </trkpt>
      <trkpt lat="45.35158" lon="5.70177">
        <ele>1445.810809452</ele>
        <time>2015-05-12T16:02:51Z</time>
      </trkpt>
      <trkpt lat="45.35159" lon="5.70178">
        <ele>1445.810809452</ele>
        <time>2015-05-12T16:02:54Z</time>
      </trkpt>
      <trkpt lat="45.35159" lon="5.70178">
        <ele>1445.810809452</ele>
        <time>2015-05-12T16:03:00Z</time>
      </trkpt>
      <trkpt lat="45.35159" lon="5.70178">
        <ele>1445.810809452</ele>
        <time>2015-05-12T16:03:05Z</time>
      </trkpt>
      <trkpt lat="45.35161" lon="5.70184">
        <ele>1449.113688492</ele>
        <time>2015-05-12T16:03:10Z</time>
      </trkpt>
      <trkpt lat="45.35163" lon="5.70188">
        <ele>1449.113688492</ele>
        <time>2015-05-12T16:03:14Z</time>
      </trkpt>
      <trkpt lat="45.35167" lon="5.70189">
        <ele>1449.113688492</ele>
        <time>2015-05-12T16:03:20Z</time>
      </trkpt>
      <trkpt lat="45.35173" lon="5.70199">
        <ele>1452.771183417</ele>
        <time>2015-05-12T16:03:25Z</time>
      </trkpt>
      <trkpt lat="45.35176" lon="5.70203">
        <ele>1452.771183417</ele>
        <time>2015-05-12T16:03:30Z</time>
      </trkpt>
      <trkpt lat="45.35181" lon="5.7021">
        <ele>1456.60772841</ele>
        <time>2015-05-12T16:03:35Z</time>
      </trkpt>
      <trkpt lat="45.35187" lon="5.70211">
        <ele>1456.60772841</ele>
        <time>2015-05-12T16:03:40Z</time>
      </trkpt>
      <trkpt lat="45.3519" lon="5.70213">
        <ele>1460.892507616</ele>
        <time>2015-05-12T16:03:45Z</time>
      </trkpt>
      <trkpt lat="45.35192" lon="5.70218">
        <ele>1460.892507616</ele>
        <time>2015-05-12T16:03:50Z</time>
      </trkpt>
      <trkpt lat="45.35194" lon="5.70221">
        <ele>1460.892507616</ele>
        <time>2015-05-12T16:03:55Z</time>
      </trkpt>
      <trkpt lat="45.35194" lon="5.70224">
        <ele>1465.153156002</ele>
        <time>2015-05-12T16:04:00Z</time>
      </trkpt>
      <trkpt lat="45.35194" lon="5.70224">
        <ele>1465.153156002</ele>
        <time>2015-05-12T16:04:05Z</time>
      </trkpt>
      <trkpt lat="45.35193" lon="5.70224">
        <ele>1465.153156002</ele>
        <time>2015-05-12T16:04:10Z</time>
      </trkpt>
      <trkpt lat="45.35193" lon="5.70224">
        <ele>1465.153156002</ele>
        <time>2015-05-12T16:04:15Z</time>
      </trkpt>
      <trkpt lat="45.35193" lon="5.70224">
        <ele>1465.153156002</ele>
        <time>2015-05-12T16:04:20Z</time>
      </trkpt>
      <trkpt lat="45.35193" lon="5.70224">
        <ele>1465.153156002</ele>
        <time>2015-05-12T16:04:24Z</time>
      </trkpt>
      <trkpt lat="45.35193" lon="5.70224">
        <ele>1465.153156002</ele>
        <time>2015-05-12T16:04:30Z</time>
      </trkpt>
      <trkpt lat="45.35193" lon="5.70224">
        <ele>1465.153156002</ele>
        <time>2015-05-12T16:04:35Z</time>
      </trkpt>
      <trkpt lat="45.35193" lon="5.70224">
        <ele>1465.153156002</ele>
        <time>2015-05-12T16:04:39Z</time>
      </trkpt>
      <trkpt lat="45.35193" lon="5.70224">
        <ele>1465.153156002</ele>
        <time>2015-05-12T16:04:44Z</time>
      </trkpt>
      <trkpt lat="45.35193" lon="5.70224">
        <ele>1465.153156002</ele>
        <time>2015-05-12T16:04:49Z</time>
      </trkpt>
      <trkpt lat="45.35193" lon="5.70224">
        <ele>1465.153156002</ele>
        <time>2015-05-12T16:04:54Z</time>
      </trkpt>
      <trkpt lat="45.35193" lon="5.70224">
        <ele>1465.153156002</ele>
        <time>2015-05-12T16:04:59Z</time>
      </trkpt>
      <trkpt lat="45.35193" lon="5.70224">
        <ele>1465.153156002</ele>
        <time>2015-05-12T16:05:04Z</time>
      </trkpt>
      <trkpt lat="45.35184" lon="5.70223">
        <ele>1468.375684379</ele>
        <time>2015-05-12T16:05:10Z</time>
      </trkpt>
      <trkpt lat="45.35168" lon="5.70226">
        <ele>1471.064680084</ele>
        <time>2015-05-12T16:05:14Z</time>
      </trkpt>
      <trkpt lat="45.35167" lon="5.70232">
        <ele>1471.064680084</ele>
        <time>2015-05-12T16:05:20Z</time>
      </trkpt>
      <trkpt lat="45.35165" lon="5.70232">
        <ele>1471.064680084</ele>
        <time>2015-05-12T16:05:24Z</time>
      </trkpt>
      <trkpt lat="45.35158" lon="5.70234">
        <ele>1473.977457782</ele>
        <time>2015-05-12T16:05:29Z</time>
      </trkpt>
      <trkpt lat="45.35159" lon="5.70235">
        <ele>1473.977457782</ele>
        <time>2015-05-12T16:05:34Z</time>
      </trkpt>
      <trkpt lat="45.35159" lon="5.70233">
        <ele>1473.977457782</ele>
        <time>2015-05-12T16:05:39Z</time>
      </trkpt>
      <trkpt lat="45.35159" lon="5.70233">
        <ele>1473.977457782</ele>
        <time>2015-05-12T16:05:45Z</time>
      </trkpt>
      <trkpt lat="45.3516" lon="5.70233">
        <ele>1473.977457782</ele>
        <time>2015-05-12T16:05:49Z</time>
      </trkpt>
      <trkpt lat="45.3516" lon="5.70233">
        <ele>1473.977457782</ele>
        <time>2015-05-12T16:05:55Z</time>
      </trkpt>
      <trkpt lat="45.3516" lon="5.70232">
        <ele>1473.977457782</ele>
        <time>2015-05-12T16:06:00Z</time>
      </trkpt>
      <trkpt lat="45.3516" lon="5.70232">
        <ele>1473.977457782</ele>
        <time>2015-05-12T16:06:05Z</time>
      </trkpt>
      <trkpt lat="45.3516" lon="5.70232">
        <ele>1473.977457782</ele>
        <time>2015-05-12T16:06:09Z</time>
      </trkpt>
      <trkpt lat="45.3516" lon="5.70232">
        <ele>1473.977457782</ele>
        <time>2015-05-12T16:06:15Z</time>
      </trkpt>
      <trkpt lat="45.3516" lon="5.70232">
        <ele>1473.977457782</ele>
        <time>2015-05-12T16:06:20Z</time>
      </trkpt>
      <trkpt lat="45.3516" lon="5.70232">
        <ele>1473.977457782</ele>
        <time>2015-05-12T16:06:25Z</time>
      </trkpt>
      <trkpt lat="45.3516" lon="5.70232">
        <ele>1473.977457782</ele>
        <time>2015-05-12T16:06:30Z</time>
      </trkpt>
      <trkpt lat="45.3516" lon="5.70232">
        <ele>1473.977457782</ele>
        <time>2015-05-12T16:06:35Z</time>
      </trkpt>
      <trkpt lat="45.3516" lon="5.70232">
        <ele>1473.977457782</ele>
        <time>2015-05-12T16:06:40Z</time>
      </trkpt>
      <trkpt lat="45.35161" lon="5.70243">
        <ele>1477.671043162</ele>
        <time>2015-05-12T16:06:45Z</time>
      </trkpt>
      <trkpt lat="45.35165" lon="5.70251">
        <ele>1477.671043162</ele>
        <time>2015-05-12T16:06:50Z</time>
      </trkpt>
      <trkpt lat="45.35168" lon="5.70258">
        <ele>1481.650662083</ele>
        <time>2015-05-12T16:06:55Z</time>
      </trkpt>
      <trkpt lat="45.35166" lon="5.70266">
        <ele>1481.650662083</ele>
        <time>2015-05-12T16:07:00Z</time>
      </trkpt>
      <trkpt lat="45.35174" lon="5.70273">
        <ele>1485.889511945</ele>
        <time>2015-05-12T16:07:05Z</time>
      </trkpt>
      <trkpt lat="45.35174" lon="5.70274">
        <ele>1485.889511945</ele>
        <time>2015-05-12T16:07:09Z</time>
      </trkpt>
      <trkpt lat="45.35174" lon="5.70275">
        <ele>1485.889511945</ele>
        <time>2015-05-12T16:07:14Z</time>
      </trkpt>
      <trkpt lat="45.35173" lon="5.70274">
        <ele>1485.889511945</ele>
        <time>2015-05-12T16:07:19Z</time>
      </trkpt>
      <trkpt lat="45.35171" lon="5.70274">
        <ele>1485.889511945</ele>
        <time>2015-05-12T16:07:24Z</time>
      </trkpt>
      <trkpt lat="45.35171" lon="5.70271">
        <ele>1485.889511945</ele>
        <time>2015-05-12T16:07:29Z</time>
      </trkpt>
      <trkpt lat="45.3517" lon="5.70272">
        <ele>1485.889511945</ele>
        <time>2015-05-12T16:07:34Z</time>
      </trkpt>
      <trkpt lat="45.35169" lon="5.7027">
        <ele>1490.794470207</ele>
        <time>2015-05-12T16:07:39Z</time>
      </trkpt>
      <trkpt lat="45.35166" lon="5.70269">
        <ele>1490.794470207</ele>
        <time>2015-05-12T16:07:44Z</time>
      </trkpt>
      <trkpt lat="45.3516" lon="5.7027">
        <ele>1490.794470207</ele>
        <time>2015-05-12T16:07:50Z</time>
      </trkpt>
      <trkpt lat="45.35158" lon="5.70274">
        <ele>1495.587884273</ele>
        <time>2015-05-12T16:07:54Z</time>
      </trkpt>
      <trkpt lat="45.35153" lon="5.70278">
        <ele>1495.587884273</ele>
        <time>2015-05-12T16:08:00Z</time>
      </trkpt>
      <trkpt lat="45.35151" lon="5.7028">
        <ele>1495.587884273</ele>
        <time>2015-05-12T16:08:04Z</time>
      </trkpt>
      <trkpt lat="45.3515" lon="5.70273">
        <ele>1500.414337174</ele>
        <time>2015-05-12T16:08:09Z</time>
      </trkpt>
      <trkpt lat="45.35149" lon="5.70273">
        <ele>1500.414337174</ele>
        <time>2015-05-12T16:08:14Z</time>
      </trkpt>
      <trkpt lat="45.35149" lon="5.70273">
        <ele>1500.414337174</ele>
        <time>2015-05-12T16:08:19Z</time>
      </trkpt>
      <trkpt lat="45.35149" lon="5.70273">
        <ele>1500.414337174</ele>
        <time>2015-05-12T16:08:24Z</time>
      </trkpt>
      <trkpt lat="45.35143" lon="5.70277">
        <ele>1500.414337174</ele>
        <time>2015-05-12T16:08:29Z</time>
      </trkpt>
      <trkpt lat="45.35134" lon="5.70279">
        <ele>1504.975507163</ele>
        <time>2015-05-12T16:08:35Z</time>
      </trkpt>
      <trkpt lat="45.35127" lon="5.7027">
        <ele>1508.707661433</ele>
        <time>2015-05-12T16:08:40Z</time>
      </trkpt>
      <trkpt lat="45.35124" lon="5.70268">
        <ele>1508.707661433</ele>
        <time>2015-05-12T16:08:45Z</time>
      </trkpt>
      <trkpt lat="45.35115" lon="5.70273">
        <ele>1511.955630141</ele>
        <time>2015-05-12T16:08:49Z</time>
      </trkpt>
      <trkpt lat="45.3511" lon="5.7027">
        <ele>1511.955630141</ele>
        <time>2015-05-12T16:08:55Z</time>
      </trkpt>
      <trkpt lat="45.35109" lon="5.70267">
        <ele>1511.955630141</ele>
        <time>2015-05-12T16:09:00Z</time>
      </trkpt>
      <trkpt lat="45.35102" lon="5.70269">
        <ele>1514.463986133</ele>
        <time>2015-05-12T16:09:05Z</time>
      </trkpt>
      <trkpt lat="45.35095" lon="5.70268">
        <ele>1514.463986133</ele>
        <time>2015-05-12T16:09:10Z</time>
      </trkpt>
      <trkpt lat="45.35085" lon="5.70266">
        <ele>1517.151187002</ele>
        <time>2015-05-12T16:09:15Z</time>
      </trkpt>
      <trkpt lat="45.35077" lon="5.70267">
        <ele>1517.151187002</ele>
        <time>2015-05-12T16:09:20Z</time>
      </trkpt>
      <trkpt lat="45.3507" lon="5.70264">
        <ele>1520.14731438</ele>
        <time>2015-05-12T16:09:25Z</time>
      </trkpt>
      <trkpt lat="45.35065" lon="5.70264">
        <ele>1520.14731438</ele>
        <time>2015-05-12T16:09:30Z</time>
      </trkpt>
      <trkpt lat="45.35061" lon="5.70263">
        <ele>1523.428060363</ele>
        <time>2015-05-12T16:09:35Z</time>
      </trkpt>
      <trkpt lat="45.35055" lon="5.70259">
        <ele>1523.428060363</ele>
        <time>2015-05-12T16:09:40Z</time>
      </trkpt>
      <trkpt lat="45.3505" lon="5.7026">
        <ele>1526.537907943</ele>
        <time>2015-05-12T16:09:45Z</time>
      </trkpt>
      <trkpt lat="45.35044" lon="5.70258">
        <ele>1526.537907943</ele>
        <time>2015-05-12T16:09:50Z</time>
      </trkpt>
      <trkpt lat="45.35039" lon="5.70258">
        <ele>1529.199523642</ele>
        <time>2015-05-12T16:09:55Z</time>
      </trkpt>
      <trkpt lat="45.35033" lon="5.70254">
        <ele>1529.199523642</ele>
        <time>2015-05-12T16:10:00Z</time>
      </trkpt>
      <trkpt lat="45.35025" lon="5.70253">
        <ele>1531.877884816</ele>
        <time>2015-05-12T16:10:05Z</time>
      </trkpt>
      <trkpt lat="45.35019" lon="5.70252">
        <ele>1531.877884816</ele>
        <time>2015-05-12T16:10:10Z</time>
      </trkpt>
      <trkpt lat="45.35009" lon="5.70251">
        <ele>1534.571549359</ele>
        <time>2015-05-12T16:10:15Z</time>
      </trkpt>
      <trkpt lat="45.35003" lon="5.70249">
        <ele>1534.571549359</ele>
        <time>2015-05-12T16:10:20Z</time>
      </trkpt>
      <trkpt lat="45.34999" lon="5.70249">
        <ele>1536.84691416</ele>
        <time>2015-05-12T16:10:25Z</time>
      </trkpt>
      <trkpt lat="45.34994" lon="5.70248">
        <ele>1536.84691416</ele>
        <time>2015-05-12T16:10:30Z</time>
      </trkpt>
      <trkpt lat="45.34986" lon="5.7025">
        <ele>1539.024057679</ele>
        <time>2015-05-12T16:10:35Z</time>
      </trkpt>
      <trkpt lat="45.34979" lon="5.70251">
        <ele>1539.024057679</ele>
        <time>2015-05-12T16:10:40Z</time>
      </trkpt>
      <trkpt lat="45.34973" lon="5.70257">
        <ele>1540.823465899</ele>
        <time>2015-05-12T16:10:45Z</time>
      </trkpt>
      <trkpt lat="45.34975" lon="5.70266">
        <ele>1540.823465899</ele>
        <time>2015-05-12T16:10:50Z</time>
      </trkpt>
      <trkpt lat="45.34974" lon="5.70269">
        <ele>1540.823465899</ele>
        <time>2015-05-12T16:10:55Z</time>
      </trkpt>
      <trkpt lat="45.34969" lon="5.70269">
        <ele>1542.851962624</ele>
        <time>2015-05-12T16:11:00Z</time>
      </trkpt>
      <trkpt lat="45.34964" lon="5.70269">
        <ele>1542.851962624</ele>
        <time>2015-05-12T16:11:05Z</time>
      </trkpt>
      <trkpt lat="45.34958" lon="5.70266">
        <ele>1544.518328517</ele>
        <time>2015-05-12T16:11:10Z</time>
      </trkpt>
      <trkpt lat="45.34952" lon="5.70267">
        <ele>1544.518328517</ele>
        <time>2015-05-12T16:11:15Z</time>
      </trkpt>
      <trkpt lat="45.34947" lon="5.70267">
        <ele>1546.140510843</ele>
        <time>2015-05-12T16:11:20Z</time>
      </trkpt>
      <trkpt lat="45.34943" lon="5.70268">
        <ele>1546.140510843</ele>
        <time>2015-05-12T16:11:25Z</time>
      </trkpt>
      <trkpt lat="45.34941" lon="5.7027">
        <ele>1546.140510843</ele>
        <time>2015-05-12T16:11:30Z</time>
      </trkpt>
      <trkpt lat="45.34936" lon="5.70273">
        <ele>1547.725042558</ele>
        <time>2015-05-12T16:11:35Z</time>
      </trkpt>
      <trkpt lat="45.34932" lon="5.70272">
        <ele>1547.725042558</ele>
        <time>2015-05-12T16:11:39Z</time>
      </trkpt>
      <trkpt lat="45.34926" lon="5.70272">
        <ele>1549.27811008</ele>
        <time>2015-05-12T16:11:45Z</time>
      </trkpt>
      <trkpt lat="45.34925" lon="5.70273">
        <ele>1549.27811008</ele>
        <time>2015-05-12T16:11:49Z</time>
      </trkpt>
      <trkpt lat="45.34922" lon="5.70274">
        <ele>1549.27811008</ele>
        <time>2015-05-12T16:11:55Z</time>
      </trkpt>
      <trkpt lat="45.34922" lon="5.70274">
        <ele>1549.27811008</ele>
        <time>2015-05-12T16:12:00Z</time>
      </trkpt>
      <trkpt lat="45.34922" lon="5.70274">
        <ele>1549.27811008</ele>
        <time>2015-05-12T16:12:05Z</time>
      </trkpt>
      <trkpt lat="45.34913" lon="5.70273">
        <ele>1550.661437545</ele>
        <time>2015-05-12T16:12:10Z</time>
      </trkpt>
      <trkpt lat="45.34907" lon="5.70273">
        <ele>1550.661437545</ele>
        <time>2015-05-12T16:12:15Z</time>
      </trkpt>
      <trkpt lat="45.34902" lon="5.70265">
        <ele>1551.170939631</ele>
        <time>2015-05-12T16:12:19Z</time>
      </trkpt>
      <trkpt lat="45.34899" lon="5.70267">
        <ele>1551.170939631</ele>
        <time>2015-05-12T16:12:24Z</time>
      </trkpt>
      <trkpt lat="45.34894" lon="5.70268">
        <ele>1551.170939631</ele>
        <time>2015-05-12T16:12:30Z</time>
      </trkpt>
      <trkpt lat="45.34888" lon="5.70271">
        <ele>1552.318359736</ele>
        <time>2015-05-12T16:12:35Z</time>
      </trkpt>
      <trkpt lat="45.34886" lon="5.70271">
        <ele>1552.318359736</ele>
        <time>2015-05-12T16:12:40Z</time>
      </trkpt>
      <trkpt lat="45.34886" lon="5.70272">
        <ele>1552.318359736</ele>
        <time>2015-05-12T16:12:45Z</time>
      </trkpt>
      <trkpt lat="45.34882" lon="5.70272">
        <ele>1552.318359736</ele>
        <time>2015-05-12T16:12:50Z</time>
      </trkpt>
      <trkpt lat="45.34873" lon="5.70269">
        <ele>1553.48501835</ele>
        <time>2015-05-12T16:12:55Z</time>
      </trkpt>
      <trkpt lat="45.34867" lon="5.70268">
        <ele>1553.48501835</ele>
        <time>2015-05-12T16:13:00Z</time>
      </trkpt>
      <trkpt lat="45.3486" lon="5.70269">
        <ele>1554.818147737</ele>
        <time>2015-05-12T16:13:05Z</time>
      </trkpt>
      <trkpt lat="45.34853" lon="5.70271">
        <ele>1554.818147737</ele>
        <time>2015-05-12T16:13:10Z</time>
      </trkpt>
      <trkpt lat="45.34851" lon="5.70273">
        <ele>1556.02131467</ele>
        <time>2015-05-12T16:13:14Z</time>
      </trkpt>
      <trkpt lat="45.34848" lon="5.70281">
        <ele>1556.02131467</ele>
        <time>2015-05-12T16:13:19Z</time>
      </trkpt>
      <trkpt lat="45.34846" lon="5.70285">
        <ele>1557.252501091</ele>
        <time>2015-05-12T16:13:25Z</time>
      </trkpt>
      <trkpt lat="45.34847" lon="5.70288">
        <ele>1557.252501091</ele>
        <time>2015-05-12T16:13:30Z</time>
      </trkpt>
      <trkpt lat="45.34846" lon="5.70295">
        <ele>1557.252501091</ele>
        <time>2015-05-12T16:13:35Z</time>
      </trkpt>
      <trkpt lat="45.34844" lon="5.70298">
        <ele>1558.369715511</ele>
        <time>2015-05-12T16:13:40Z</time>
      </trkpt>
      <trkpt lat="45.3484" lon="5.70303">
        <ele>1558.369715511</ele>
        <time>2015-05-12T16:13:45Z</time>
      </trkpt>
      <trkpt lat="45.34839" lon="5.70307">
        <ele>1558.369715511</ele>
        <time>2015-05-12T16:13:49Z</time>
      </trkpt>
      <trkpt lat="45.34835" lon="5.70311">
        <ele>1560.250421252</ele>
        <time>2015-05-12T16:13:55Z</time>
      </trkpt>
      <trkpt lat="45.34831" lon="5.70315">
        <ele>1560.250421252</ele>
        <time>2015-05-12T16:14:00Z</time>
      </trkpt>
      <trkpt lat="45.3483" lon="5.70321">
        <ele>1560.250421252</ele>
        <time>2015-05-12T16:14:05Z</time>
      </trkpt>
      <trkpt lat="45.3483" lon="5.70326">
        <ele>1562.840737348</ele>
        <time>2015-05-12T16:14:10Z</time>
      </trkpt>
      <trkpt lat="45.34825" lon="5.70329">
        <ele>1562.840737348</ele>
        <time>2015-05-12T16:14:15Z</time>
      </trkpt>
      <trkpt lat="45.34823" lon="5.70333">
        <ele>1562.840737348</ele>
        <time>2015-05-12T16:14:20Z</time>
      </trkpt>
      <trkpt lat="45.34821" lon="5.70338">
        <ele>1567.097452786</ele>
        <time>2015-05-12T16:14:25Z</time>
      </trkpt>
      <trkpt lat="45.34819" lon="5.70338">
        <ele>1567.097452786</ele>
        <time>2015-05-12T16:14:30Z</time>
      </trkpt>
      <trkpt lat="45.34819" lon="5.70338">
        <ele>1567.097452786</ele>
        <time>2015-05-12T16:14:35Z</time>
      </trkpt>
      <trkpt lat="45.3482" lon="5.70337">
        <ele>1567.097452786</ele>
        <time>2015-05-12T16:14:39Z</time>
      </trkpt>
      <trkpt lat="45.34818" lon="5.70341">
        <ele>1567.097452786</ele>
        <time>2015-05-12T16:14:45Z</time>
      </trkpt>
      <trkpt lat="45.34814" lon="5.70347">
        <ele>1571.596549865</ele>
        <time>2015-05-12T16:14:49Z</time>
      </trkpt>
      <trkpt lat="45.3481" lon="5.7035">
        <ele>1571.596549865</ele>
        <time>2015-05-12T16:14:55Z</time>
      </trkpt>
      <trkpt lat="45.34808" lon="5.70356">
        <ele>1571.596549865</ele>
        <time>2015-05-12T16:14:59Z</time>
      </trkpt>
      <trkpt lat="45.34805" lon="5.70364">
        <ele>1575.450216012</ele>
        <time>2015-05-12T16:15:04Z</time>
      </trkpt>
      <trkpt lat="45.34795" lon="5.70373">
        <ele>1578.702292862</ele>
        <time>2015-05-12T16:15:10Z</time>
      </trkpt>
      <trkpt lat="45.34789" lon="5.70383">
        <ele>1578.702292862</ele>
        <time>2015-05-12T16:15:15Z</time>
      </trkpt>
      <trkpt lat="45.3478" lon="5.7039">
        <ele>1580.962726236</ele>
        <time>2015-05-12T16:15:20Z</time>
      </trkpt>
      <trkpt lat="45.3477" lon="5.70392">
        <ele>1583.025764443</ele>
        <time>2015-05-12T16:15:25Z</time>
      </trkpt>
      <trkpt lat="45.34765" lon="5.70395">
        <ele>1583.025764443</ele>
        <time>2015-05-12T16:15:30Z</time>
      </trkpt>
      <trkpt lat="45.34759" lon="5.70397">
        <ele>1585.195512007</ele>
        <time>2015-05-12T16:15:35Z</time>
      </trkpt>
      <trkpt lat="45.34759" lon="5.70398">
        <ele>1585.195512007</ele>
        <time>2015-05-12T16:15:40Z</time>
      </trkpt>
      <trkpt lat="45.34757" lon="5.70402">
        <ele>1585.195512007</ele>
        <time>2015-05-12T16:15:45Z</time>
      </trkpt>
      <trkpt lat="45.3475" lon="5.70397">
        <ele>1587.32108177</ele>
        <time>2015-05-12T16:15:50Z</time>
      </trkpt>
      <trkpt lat="45.34742" lon="5.70395">
        <ele>1587.32108177</ele>
        <time>2015-05-12T16:15:54Z</time>
      </trkpt>
      <trkpt lat="45.34735" lon="5.70396">
        <ele>1589.695107067</ele>
        <time>2015-05-12T16:16:00Z</time>
      </trkpt>
      <trkpt lat="45.34728" lon="5.70392">
        <ele>1589.695107067</ele>
        <time>2015-05-12T16:16:05Z</time>
      </trkpt>
      <trkpt lat="45.34721" lon="5.70392">
        <ele>1591.723337797</ele>
        <time>2015-05-12T16:16:10Z</time>
      </trkpt>
      <trkpt lat="45.34716" lon="5.70391">
        <ele>1591.723337797</ele>
        <time>2015-05-12T16:16:15Z</time>
      </trkpt>
      <trkpt lat="45.34709" lon="5.70388">
        <ele>1593.864901313</ele>
        <time>2015-05-12T16:16:20Z</time>
      </trkpt>
      <trkpt lat="45.34706" lon="5.70386">
        <ele>1593.864901313</ele>
        <time>2015-05-12T16:16:25Z</time>
      </trkpt>
      <trkpt lat="45.34698" lon="5.70386">
        <ele>1595.103741338</ele>
        <time>2015-05-12T16:16:30Z</time>
      </trkpt>
      <trkpt lat="45.34693" lon="5.70385">
        <ele>1595.103741338</ele>
        <time>2015-05-12T16:16:35Z</time>
      </trkpt>
      <trkpt lat="45.34687" lon="5.70383">
        <ele>1596.806721746</ele>
        <time>2015-05-12T16:16:39Z</time>
      </trkpt>
      <trkpt lat="45.3468" lon="5.7038">
        <ele>1596.806721746</ele>
        <time>2015-05-12T16:16:45Z</time>
      </trkpt>
      <trkpt lat="45.34672" lon="5.70381">
        <ele>1598.365515944</ele>
        <time>2015-05-12T16:16:50Z</time>
      </trkpt>
      <trkpt lat="45.34663" lon="5.70379">
        <ele>1599.937405895</ele>
        <time>2015-05-12T16:16:55Z</time>
      </trkpt>
      <trkpt lat="45.34656" lon="5.70374">
        <ele>1599.937405895</ele>
        <time>2015-05-12T16:17:00Z</time>
      </trkpt>
      <trkpt lat="45.34649" lon="5.70374">
        <ele>1601.668039256</ele>
        <time>2015-05-12T16:17:05Z</time>
      </trkpt>
      <trkpt lat="45.34644" lon="5.70374">
        <ele>1601.668039256</ele>
        <time>2015-05-12T16:17:10Z</time>
      </trkpt>
      <trkpt lat="45.34638" lon="5.70373">
        <ele>1603.115426697</ele>
        <time>2015-05-12T16:17:15Z</time>
      </trkpt>
      <trkpt lat="45.34632" lon="5.70372">
        <ele>1603.115426697</ele>
        <time>2015-05-12T16:17:20Z</time>
      </trkpt>
      <trkpt lat="45.34624" lon="5.70374">
        <ele>1604.159011731</ele>
        <time>2015-05-12T16:17:25Z</time>
      </trkpt>
      <trkpt lat="45.34618" lon="5.70378">
        <ele>1604.159011731</ele>
        <time>2015-05-12T16:17:29Z</time>
      </trkpt>
      <trkpt lat="45.3461" lon="5.70379">
        <ele>1605.696948502</ele>
        <time>2015-05-12T16:17:34Z</time>
      </trkpt>
      <trkpt lat="45.346" lon="5.70382">
        <ele>1606.686520014</ele>
        <time>2015-05-12T16:17:40Z</time>
      </trkpt>
      <trkpt lat="45.34595" lon="5.70383">
        <ele>1606.686520014</ele>
        <time>2015-05-12T16:17:45Z</time>
      </trkpt>
      <trkpt lat="45.34587" lon="5.70388">
        <ele>1607.31596707</ele>
        <time>2015-05-12T16:17:50Z</time>
      </trkpt>
      <trkpt lat="45.34582" lon="5.70387">
        <ele>1607.31596707</ele>
        <time>2015-05-12T16:17:55Z</time>
      </trkpt>
      <trkpt lat="45.34576" lon="5.70388">
        <ele>1606.895970149</ele>
        <time>2015-05-12T16:17:59Z</time>
      </trkpt>
      <trkpt lat="45.34572" lon="5.70388">
        <ele>1606.895970149</ele>
        <time>2015-05-12T16:18:04Z</time>
      </trkpt>
      <trkpt lat="45.34565" lon="5.70392">
        <ele>1606.087705052</ele>
        <time>2015-05-12T16:18:09Z</time>
      </trkpt>
      <trkpt lat="45.34557" lon="5.70395">
        <ele>1606.087705052</ele>
        <time>2015-05-12T16:18:15Z</time>
      </trkpt>
      <trkpt lat="45.34549" lon="5.70395">
        <ele>1604.640099165</ele>
        <time>2015-05-12T16:18:20Z</time>
      </trkpt>
      <trkpt lat="45.34542" lon="5.70401">
        <ele>1604.640099165</ele>
        <time>2015-05-12T16:18:25Z</time>
      </trkpt>
      <trkpt lat="45.34544" lon="5.704">
        <ele>1603.763311036</ele>
        <time>2015-05-12T16:18:30Z</time>
      </trkpt>
      <trkpt lat="45.34543" lon="5.70401">
        <ele>1603.763311036</ele>
        <time>2015-05-12T16:18:35Z</time>
      </trkpt>
      <trkpt lat="45.34542" lon="5.70401">
        <ele>1603.763311036</ele>
        <time>2015-05-12T16:18:40Z</time>
      </trkpt>
      <trkpt lat="45.34538" lon="5.70404">
        <ele>1603.763311036</ele>
        <time>2015-05-12T16:18:45Z</time>
      </trkpt>
      <trkpt lat="45.34532" lon="5.70407">
        <ele>1602.126973746</ele>
        <time>2015-05-12T16:18:50Z</time>
      </trkpt>
      <trkpt lat="45.34526" lon="5.7041">
        <ele>1602.126973746</ele>
        <time>2015-05-12T16:18:55Z</time>
      </trkpt>
      <trkpt lat="45.34518" lon="5.70411">
        <ele>1601.238536909</ele>
        <time>2015-05-12T16:19:00Z</time>
      </trkpt>
      <trkpt lat="45.34511" lon="5.70414">
        <ele>1601.238536909</ele>
        <time>2015-05-12T16:19:05Z</time>
      </trkpt>
      <trkpt lat="45.34504" lon="5.70415">
        <ele>1599.898443495</ele>
        <time>2015-05-12T16:19:10Z</time>
      </trkpt>
      <trkpt lat="45.345" lon="5.70411">
        <ele>1599.898443495</ele>
        <time>2015-05-12T16:19:15Z</time>
      </trkpt>
      <trkpt lat="45.34498" lon="5.70405">
        <ele>1598.725670495</ele>
        <time>2015-05-12T16:19:20Z</time>
      </trkpt>
      <trkpt lat="45.34494" lon="5.70396">
        <ele>1598.725670495</ele>
        <time>2015-05-12T16:19:25Z</time>
      </trkpt>
      <trkpt lat="45.34491" lon="5.70393">
        <ele>1596.85194406</ele>
        <time>2015-05-12T16:19:30Z</time>
      </trkpt>
      <trkpt lat="45.34486" lon="5.70387">
        <ele>1596.85194406</ele>
        <time>2015-05-12T16:19:35Z</time>
      </trkpt>
      <trkpt lat="45.3448" lon="5.70383">
        <ele>1595.059749348</ele>
        <time>2015-05-12T16:19:40Z</time>
      </trkpt>
      <trkpt lat="45.34474" lon="5.70381">
        <ele>1595.059749348</ele>
        <time>2015-05-12T16:19:45Z</time>
      </trkpt>
      <trkpt lat="45.34471" lon="5.70372">
        <ele>1593.353080155</ele>
        <time>2015-05-12T16:19:50Z</time>
      </trkpt>
      <trkpt lat="45.34467" lon="5.70361">
        <ele>1593.353080155</ele>
        <time>2015-05-12T16:19:55Z</time>
      </trkpt>
      <trkpt lat="45.34462" lon="5.70355">
        <ele>1591.44693634</ele>
        <time>2015-05-12T16:20:00Z</time>
      </trkpt>
      <trkpt lat="45.34457" lon="5.70349">
        <ele>1591.44693634</ele>
        <time>2015-05-12T16:20:05Z</time>
      </trkpt>
      <trkpt lat="45.34456" lon="5.70337">
        <ele>1590.086342505</ele>
        <time>2015-05-12T16:20:10Z</time>
      </trkpt>
      <trkpt lat="45.34454" lon="5.7033">
        <ele>1590.086342505</ele>
        <time>2015-05-12T16:20:15Z</time>
      </trkpt>
      <trkpt lat="45.34451" lon="5.7032">
        <ele>1588.662805705</ele>
        <time>2015-05-12T16:20:19Z</time>
      </trkpt>
      <trkpt lat="45.3445" lon="5.70307">
        <ele>1587.621223978</ele>
        <time>2015-05-12T16:20:25Z</time>
      </trkpt>
      <trkpt lat="45.34449" lon="5.70297">
        <ele>1587.621223978</ele>
        <time>2015-05-12T16:20:30Z</time>
      </trkpt>
      <trkpt lat="45.34446" lon="5.70288">
        <ele>1586.651919613</ele>
        <time>2015-05-12T16:20:35Z</time>
      </trkpt>
      <trkpt lat="45.34441" lon="5.7028">
        <ele>1586.651919613</ele>
        <time>2015-05-12T16:20:40Z</time>
      </trkpt>
      <trkpt lat="45.34433" lon="5.70275">
        <ele>1586.332161905</ele>
        <time>2015-05-12T16:20:45Z</time>
      </trkpt>
      <trkpt lat="45.34428" lon="5.70271">
        <ele>1586.332161905</ele>
        <time>2015-05-12T16:20:50Z</time>
      </trkpt>
      <trkpt lat="45.34423" lon="5.70261">
        <ele>1585.753616982</ele>
        <time>2015-05-12T16:20:55Z</time>
      </trkpt>
      <trkpt lat="45.34414" lon="5.70258">
        <ele>1585.753616982</ele>
        <time>2015-05-12T16:21:00Z</time>
      </trkpt>
      <trkpt lat="45.34406" lon="5.70253">
        <ele>1585.51625618</ele>
        <time>2015-05-12T16:21:04Z</time>
      </trkpt>
      <trkpt lat="45.34402" lon="5.70249">
        <ele>1585.51625618</ele>
        <time>2015-05-12T16:21:09Z</time>
      </trkpt>
      <trkpt lat="45.34393" lon="5.70244">
        <ele>1585.742436416</ele>
        <time>2015-05-12T16:21:15Z</time>
      </trkpt>
      <trkpt lat="45.34385" lon="5.70239">
        <ele>1585.742436416</ele>
        <time>2015-05-12T16:21:20Z</time>
      </trkpt>
      <trkpt lat="45.34378" lon="5.70237">
        <ele>1585.535206506</ele>
        <time>2015-05-12T16:21:25Z</time>
      </trkpt>
      <trkpt lat="45.34369" lon="5.70235">
        <ele>1585.535206506</ele>
        <time>2015-05-12T16:21:30Z</time>
      </trkpt>
      <trkpt lat="45.34366" lon="5.70233">
        <ele>1585.937935243</ele>
        <time>2015-05-12T16:21:35Z</time>
      </trkpt>
      <trkpt lat="45.34366" lon="5.70233">
        <ele>1585.937935243</ele>
        <time>2015-05-12T16:21:40Z</time>
      </trkpt>
      <trkpt lat="45.34366" lon="5.70232">
        <ele>1585.937935243</ele>
        <time>2015-05-12T16:21:44Z</time>
      </trkpt>
      <trkpt lat="45.34367" lon="5.70232">
        <ele>1585.937935243</ele>
        <time>2015-05-12T16:21:49Z</time>
      </trkpt>
      <trkpt lat="45.34367" lon="5.70232">
        <ele>1585.937935243</ele>
        <time>2015-05-12T16:21:54Z</time>
      </trkpt>
      <trkpt lat="45.34367" lon="5.70232">
        <ele>1585.937935243</ele>
        <time>2015-05-12T16:21:59Z</time>
      </trkpt>
      <trkpt lat="45.34363" lon="5.7023">
        <ele>1585.937935243</ele>
        <time>2015-05-12T16:22:05Z</time>
      </trkpt>
      <trkpt lat="45.3436" lon="5.70227">
        <ele>1586.186082191</ele>
        <time>2015-05-12T16:22:09Z</time>
      </trkpt>
      <trkpt lat="45.34351" lon="5.70224">
        <ele>1587.012609333</ele>
        <time>2015-05-12T16:22:15Z</time>
      </trkpt>
      <trkpt lat="45.34343" lon="5.70222">
        <ele>1587.012609333</ele>
        <time>2015-05-12T16:22:20Z</time>
      </trkpt>
      <trkpt lat="45.34337" lon="5.70218">
        <ele>1587.797820984</ele>
        <time>2015-05-12T16:22:25Z</time>
      </trkpt>
      <trkpt lat="45.34332" lon="5.70216">
        <ele>1587.797820984</ele>
        <time>2015-05-12T16:22:29Z</time>
      </trkpt>
      <trkpt lat="45.34324" lon="5.70207">
        <ele>1589.264484909</ele>
        <time>2015-05-12T16:22:35Z</time>
      </trkpt>
      <trkpt lat="45.34317" lon="5.70204">
        <ele>1589.264484909</ele>
        <time>2015-05-12T16:22:40Z</time>
      </trkpt>
      <trkpt lat="45.34309" lon="5.70202">
        <ele>1591.50376167</ele>
        <time>2015-05-12T16:22:45Z</time>
      </trkpt>
      <trkpt lat="45.34302" lon="5.70198">
        <ele>1591.50376167</ele>
        <time>2015-05-12T16:22:50Z</time>
      </trkpt>
      <trkpt lat="45.34297" lon="5.70194">
        <ele>1594.021367725</ele>
        <time>2015-05-12T16:22:54Z</time>
      </trkpt>
      <trkpt lat="45.34291" lon="5.70189">
        <ele>1594.021367725</ele>
        <time>2015-05-12T16:23:00Z</time>
      </trkpt>
      <trkpt lat="45.34291" lon="5.70186">
        <ele>1596.502547581</ele>
        <time>2015-05-12T16:23:04Z</time>
      </trkpt>
      <trkpt lat="45.3429" lon="5.70186">
        <ele>1596.502547581</ele>
        <time>2015-05-12T16:23:09Z</time>
      </trkpt>
      <trkpt lat="45.34289" lon="5.70187">
        <ele>1596.502547581</ele>
        <time>2015-05-12T16:23:14Z</time>
      </trkpt>
      <trkpt lat="45.3429" lon="5.70186">
        <ele>1596.502547581</ele>
        <time>2015-05-12T16:23:19Z</time>
      </trkpt>
      <trkpt lat="45.3429" lon="5.70186">
        <ele>1596.502547581</ele>
        <time>2015-05-12T16:23:25Z</time>
      </trkpt>
      <trkpt lat="45.34288" lon="5.70186">
        <ele>1596.502547581</ele>
        <time>2015-05-12T16:23:30Z</time>
      </trkpt>
      <trkpt lat="45.34281" lon="5.70182">
        <ele>1598.655681885</ele>
        <time>2015-05-12T16:23:35Z</time>
      </trkpt>
      <trkpt lat="45.34273" lon="5.70183">
        <ele>1598.655681885</ele>
        <time>2015-05-12T16:23:40Z</time>
      </trkpt>
      <trkpt lat="45.34267" lon="5.7018">
        <ele>1600.643762955</ele>
        <time>2015-05-12T16:23:44Z</time>
      </trkpt>
      <trkpt lat="45.34259" lon="5.70177">
        <ele>1600.643762955</ele>
        <time>2015-05-12T16:23:50Z</time>
      </trkpt>
      <trkpt lat="45.3425" lon="5.70178">
        <ele>1602.618229838</ele>
        <time>2015-05-12T16:23:55Z</time>
      </trkpt>
      <trkpt lat="45.34241" lon="5.70177">
        <ele>1604.719411148</ele>
        <time>2015-05-12T16:24:00Z</time>
      </trkpt>
      <trkpt lat="45.34235" lon="5.70181">
        <ele>1604.719411148</ele>
        <time>2015-05-12T16:24:04Z</time>
      </trkpt>
      <trkpt lat="45.34231" lon="5.70185">
        <ele>1605.77996222</ele>
        <time>2015-05-12T16:24:09Z</time>
      </trkpt>
      <trkpt lat="45.34226" lon="5.7019">
        <ele>1605.77996222</ele>
        <time>2015-05-12T16:24:15Z</time>
      </trkpt>
      <trkpt lat="45.34222" lon="5.70192">
        <ele>1606.594658645</ele>
        <time>2015-05-12T16:24:20Z</time>
      </trkpt>
      <trkpt lat="45.34216" lon="5.70196">
        <ele>1606.594658645</ele>
        <time>2015-05-12T16:24:25Z</time>
      </trkpt>
      <trkpt lat="45.34211" lon="5.702">
        <ele>1607.46826096</ele>
        <time>2015-05-12T16:24:30Z</time>
      </trkpt>
      <trkpt lat="45.34204" lon="5.70206">
        <ele>1607.46826096</ele>
        <time>2015-05-12T16:24:35Z</time>
      </trkpt>
      <trkpt lat="45.34196" lon="5.70209">
        <ele>1607.962439</ele>
        <time>2015-05-12T16:24:40Z</time>
      </trkpt>
      <trkpt lat="45.34189" lon="5.70211">
        <ele>1607.962439</ele>
        <time>2015-05-12T16:24:45Z</time>
      </trkpt>
      <trkpt lat="45.3418" lon="5.70208">
        <ele>1608.536814179</ele>
        <time>2015-05-12T16:24:50Z</time>
      </trkpt>
      <trkpt lat="45.34171" lon="5.70202">
        <ele>1609.040596957</ele>
        <time>2015-05-12T16:24:55Z</time>
      </trkpt>
      <trkpt lat="45.34164" lon="5.70204">
        <ele>1609.040596957</ele>
        <time>2015-05-12T16:25:00Z</time>
      </trkpt>
      <trkpt lat="45.34154" lon="5.70203">
        <ele>1610.054852386</ele>
        <time>2015-05-12T16:25:05Z</time>
      </trkpt>
      <trkpt lat="45.34146" lon="5.70203">
        <ele>1610.054852386</ele>
        <time>2015-05-12T16:25:10Z</time>
      </trkpt>
      <trkpt lat="45.34138" lon="5.702">
        <ele>1610.963664691</ele>
        <time>2015-05-12T16:25:15Z</time>
      </trkpt>
      <trkpt lat="45.34133" lon="5.70197">
        <ele>1610.963664691</ele>
        <time>2015-05-12T16:25:20Z</time>
      </trkpt>
      <trkpt lat="45.34128" lon="5.70191">
        <ele>1612.205464778</ele>
        <time>2015-05-12T16:25:25Z</time>
      </trkpt>
      <trkpt lat="45.34124" lon="5.70186">
        <ele>1612.205464778</ele>
        <time>2015-05-12T16:25:30Z</time>
      </trkpt>
      <trkpt lat="45.34122" lon="5.70181">
        <ele>1613.897352457</ele>
        <time>2015-05-12T16:25:35Z</time>
      </trkpt>
      <trkpt lat="45.34118" lon="5.70171">
        <ele>1613.897352457</ele>
        <time>2015-05-12T16:25:40Z</time>
      </trkpt>
      <trkpt lat="45.34117" lon="5.70161">
        <ele>1614.561376114</ele>
        <time>2015-05-12T16:25:45Z</time>
      </trkpt>
      <trkpt lat="45.34116" lon="5.7015">
        <ele>1614.561376114</ele>
        <time>2015-05-12T16:25:50Z</time>
      </trkpt>
      <trkpt lat="45.3411" lon="5.70143">
        <ele>1614.992743824</ele>
        <time>2015-05-12T16:25:55Z</time>
      </trkpt>
      <trkpt lat="45.34106" lon="5.70136">
        <ele>1614.992743824</ele>
        <time>2015-05-12T16:26:00Z</time>
      </trkpt>
      <trkpt lat="45.34102" lon="5.7013">
        <ele>1615.640719825</ele>
        <time>2015-05-12T16:26:05Z</time>
      </trkpt>
      <trkpt lat="45.34098" lon="5.70123">
        <ele>1615.640719825</ele>
        <time>2015-05-12T16:26:10Z</time>
      </trkpt>
      <trkpt lat="45.34093" lon="5.70116">
        <ele>1616.056332143</ele>
        <time>2015-05-12T16:26:15Z</time>
      </trkpt>
      <trkpt lat="45.34088" lon="5.70111">
        <ele>1616.056332143</ele>
        <time>2015-05-12T16:26:20Z</time>
      </trkpt>
      <trkpt lat="45.34082" lon="5.70108">
        <ele>1616.833059723</ele>
        <time>2015-05-12T16:26:25Z</time>
      </trkpt>
      <trkpt lat="45.34075" lon="5.70104">
        <ele>1616.833059723</ele>
        <time>2015-05-12T16:26:30Z</time>
      </trkpt>
      <trkpt lat="45.34074" lon="5.70102">
        <ele>1617.366920469</ele>
        <time>2015-05-12T16:26:35Z</time>
      </trkpt>
      <trkpt lat="45.34074" lon="5.70102">
        <ele>1617.366920469</ele>
        <time>2015-05-12T16:26:40Z</time>
      </trkpt>
      <trkpt lat="45.34073" lon="5.70103">
        <ele>1617.366920469</ele>
        <time>2015-05-12T16:26:45Z</time>
      </trkpt>
      <trkpt lat="45.34063" lon="5.70099">
        <ele>1617.819573918</ele>
        <time>2015-05-12T16:26:50Z</time>
      </trkpt>
      <trkpt lat="45.34056" lon="5.70096">
        <ele>1617.819573918</ele>
        <time>2015-05-12T16:26:54Z</time>
      </trkpt>
      <trkpt lat="45.3405" lon="5.70091">
        <ele>1618.485178054</ele>
        <time>2015-05-12T16:27:00Z</time>
      </trkpt>
      <trkpt lat="45.34047" lon="5.70087">
        <ele>1618.485178054</ele>
        <time>2015-05-12T16:27:04Z</time>
      </trkpt>
      <trkpt lat="45.34042" lon="5.70083">
        <ele>1618.771050704</ele>
        <time>2015-05-12T16:27:10Z</time>
      </trkpt>
      <trkpt lat="45.34037" lon="5.70078">
        <ele>1618.771050704</ele>
        <time>2015-05-12T16:27:14Z</time>
      </trkpt>
      <trkpt lat="45.34031" lon="5.70072">
        <ele>1618.561476102</ele>
        <time>2015-05-12T16:27:20Z</time>
      </trkpt>
      <trkpt lat="45.34023" lon="5.7007">
        <ele>1618.561476102</ele>
        <time>2015-05-12T16:27:25Z</time>
      </trkpt>
      <trkpt lat="45.34014" lon="5.70063">
        <ele>1618.615321476</ele>
        <time>2015-05-12T16:27:30Z</time>
      </trkpt>
      <trkpt lat="45.34004" lon="5.70053">
        <ele>1618.626211841</ele>
        <time>2015-05-12T16:27:35Z</time>
      </trkpt>
      <trkpt lat="45.33995" lon="5.70043">
        <ele>1618.742747829</ele>
        <time>2015-05-12T16:27:40Z</time>
      </trkpt>
      <trkpt lat="45.33989" lon="5.70033">
        <ele>1617.372991386</ele>
        <time>2015-05-12T16:27:45Z</time>
      </trkpt>
      <trkpt lat="45.33985" lon="5.70032">
        <ele>1617.372991386</ele>
        <time>2015-05-12T16:27:50Z</time>
      </trkpt>
      <trkpt lat="45.33984" lon="5.70029">
        <ele>1617.372991386</ele>
        <time>2015-05-12T16:27:55Z</time>
      </trkpt>
      <trkpt lat="45.33978" lon="5.70027">
        <ele>1617.225341902</ele>
        <time>2015-05-12T16:28:00Z</time>
      </trkpt>
      <trkpt lat="45.33969" lon="5.70025">
        <ele>1617.058916616</ele>
        <time>2015-05-12T16:28:05Z</time>
      </trkpt>
      <trkpt lat="45.33959" lon="5.70026">
        <ele>1616.876916169</ele>
        <time>2015-05-12T16:28:10Z</time>
      </trkpt>
      <trkpt lat="45.33952" lon="5.70025">
        <ele>1616.876916169</ele>
        <time>2015-05-12T16:28:15Z</time>
      </trkpt>
      <trkpt lat="45.33949" lon="5.70025">
        <ele>1616.826441899</ele>
        <time>2015-05-12T16:28:20Z</time>
      </trkpt>
      <trkpt lat="45.33948" lon="5.70023">
        <ele>1616.826441899</ele>
        <time>2015-05-12T16:28:25Z</time>
      </trkpt>
      <trkpt lat="45.33945" lon="5.70019">
        <ele>1616.826441899</ele>
        <time>2015-05-12T16:28:30Z</time>
      </trkpt>
      <trkpt lat="45.33942" lon="5.70016">
        <ele>1616.75517513</ele>
        <time>2015-05-12T16:28:35Z</time>
      </trkpt>
      <trkpt lat="45.33936" lon="5.70013">
        <ele>1616.75517513</ele>
        <time>2015-05-12T16:28:40Z</time>
      </trkpt>
      <trkpt lat="45.33932" lon="5.70007">
        <ele>1616.95435284</ele>
        <time>2015-05-12T16:28:45Z</time>
      </trkpt>
      <trkpt lat="45.33928" lon="5.70001">
        <ele>1616.95435284</ele>
        <time>2015-05-12T16:28:50Z</time>
      </trkpt>
      <trkpt lat="45.33922" lon="5.69995">
        <ele>1616.684252996</ele>
        <time>2015-05-12T16:28:55Z</time>
      </trkpt>
      <trkpt lat="45.33919" lon="5.69986">
        <ele>1616.684252996</ele>
        <time>2015-05-12T16:29:00Z</time>
      </trkpt>
      <trkpt lat="45.33911" lon="5.6998">
        <ele>1616.557779952</ele>
        <time>2015-05-12T16:29:05Z</time>
      </trkpt>
      <trkpt lat="45.33906" lon="5.69968">
        <ele>1616.565934929</ele>
        <time>2015-05-12T16:29:10Z</time>
      </trkpt>
      <trkpt lat="45.339" lon="5.69957">
        <ele>1615.979412008</ele>
        <time>2015-05-12T16:29:15Z</time>
      </trkpt>
      <trkpt lat="45.33895" lon="5.69949">
        <ele>1615.979412008</ele>
        <time>2015-05-12T16:29:20Z</time>
      </trkpt>
      <trkpt lat="45.33891" lon="5.69945">
        <ele>1615.132887655</ele>
        <time>2015-05-12T16:29:25Z</time>
      </trkpt>
      <trkpt lat="45.33883" lon="5.69937">
        <ele>1614.48125123</ele>
        <time>2015-05-12T16:29:30Z</time>
      </trkpt>
      <trkpt lat="45.33878" lon="5.69928">
        <ele>1614.48125123</ele>
        <time>2015-05-12T16:29:35Z</time>
      </trkpt>
      <trkpt lat="45.33873" lon="5.69921">
        <ele>1613.580714581</ele>
        <time>2015-05-12T16:29:40Z</time>
      </trkpt>
      <trkpt lat="45.33865" lon="5.69918">
        <ele>1613.580714581</ele>
        <time>2015-05-12T16:29:45Z</time>
      </trkpt>
      <trkpt lat="45.33858" lon="5.69912">
        <ele>1612.453067356</ele>
        <time>2015-05-12T16:29:50Z</time>
      </trkpt>
      <trkpt lat="45.33853" lon="5.69902">
        <ele>1611.551408599</ele>
        <time>2015-05-12T16:29:55Z</time>
      </trkpt>
      <trkpt lat="45.33845" lon="5.69894">
        <ele>1610.57429654</ele>
        <time>2015-05-12T16:30:00Z</time>
      </trkpt>
      <trkpt lat="45.3384" lon="5.69888">
        <ele>1610.57429654</ele>
        <time>2015-05-12T16:30:04Z</time>
      </trkpt>
      <trkpt lat="45.33829" lon="5.69879">
        <ele>1609.530794567</ele>
        <time>2015-05-12T16:30:10Z</time>
      </trkpt>
      <trkpt lat="45.33824" lon="5.69865">
        <ele>1607.564739959</ele>
        <time>2015-05-12T16:30:15Z</time>
      </trkpt>
      <trkpt lat="45.33817" lon="5.69853">
        <ele>1606.191143944</ele>
        <time>2015-05-12T16:30:20Z</time>
      </trkpt>
      <trkpt lat="45.33809" lon="5.69842">
        <ele>1605.082637414</ele>
        <time>2015-05-12T16:30:25Z</time>
      </trkpt>
      <trkpt lat="45.33802" lon="5.69835">
        <ele>1605.082637414</ele>
        <time>2015-05-12T16:30:29Z</time>
      </trkpt>
      <trkpt lat="45.3379" lon="5.69824">
        <ele>1604.223280127</ele>
        <time>2015-05-12T16:30:35Z</time>
      </trkpt>
      <trkpt lat="45.33784" lon="5.69815">
        <ele>1603.453390569</ele>
        <time>2015-05-12T16:30:40Z</time>
      </trkpt>
      <trkpt lat="45.33781" lon="5.69803">
        <ele>1601.183548548</ele>
        <time>2015-05-12T16:30:45Z</time>
      </trkpt>
      <trkpt lat="45.33774" lon="5.69797">
        <ele>1601.183548548</ele>
        <time>2015-05-12T16:30:50Z</time>
      </trkpt>
      <trkpt lat="45.33764" lon="5.69792">
        <ele>1599.115635079</ele>
        <time>2015-05-12T16:30:55Z</time>
      </trkpt>
      <trkpt lat="45.33757" lon="5.69785">
        <ele>1599.115635079</ele>
        <time>2015-05-12T16:31:00Z</time>
      </trkpt>
      <trkpt lat="45.33752" lon="5.69779">
        <ele>1596.664161564</ele>
        <time>2015-05-12T16:31:05Z</time>
      </trkpt>
      <trkpt lat="45.33747" lon="5.69775">
        <ele>1596.664161564</ele>
        <time>2015-05-12T16:31:10Z</time>
      </trkpt>
      <trkpt lat="45.33741" lon="5.69771">
        <ele>1594.296378437</ele>
        <time>2015-05-12T16:31:15Z</time>
      </trkpt>
      <trkpt lat="45.33736" lon="5.69767">
        <ele>1594.296378437</ele>
        <time>2015-05-12T16:31:20Z</time>
      </trkpt>
      <trkpt lat="45.33732" lon="5.69763">
        <ele>1591.868398245</ele>
        <time>2015-05-12T16:31:25Z</time>
      </trkpt>
      <trkpt lat="45.33725" lon="5.69759">
        <ele>1591.868398245</ele>
        <time>2015-05-12T16:31:30Z</time>
      </trkpt>
      <trkpt lat="45.3372" lon="5.69757">
        <ele>1590.255708408</ele>
        <time>2015-05-12T16:31:35Z</time>
      </trkpt>
      <trkpt lat="45.33714" lon="5.69758">
        <ele>1590.255708408</ele>
        <time>2015-05-12T16:31:40Z</time>
      </trkpt>
      <trkpt lat="45.33707" lon="5.69756">
        <ele>1588.681825673</ele>
        <time>2015-05-12T16:31:45Z</time>
      </trkpt>
      <trkpt lat="45.33705" lon="5.69749">
        <ele>1588.681825673</ele>
        <time>2015-05-12T16:31:50Z</time>
      </trkpt>
      <trkpt lat="45.33699" lon="5.69742">
        <ele>1587.147602665</ele>
        <time>2015-05-12T16:31:55Z</time>
      </trkpt>
      <trkpt lat="45.3369" lon="5.69738">
        <ele>1587.147602665</ele>
        <time>2015-05-12T16:32:00Z</time>
      </trkpt>
      <trkpt lat="45.33681" lon="5.69736">
        <ele>1585.941789127</ele>
        <time>2015-05-12T16:32:05Z</time>
      </trkpt>
      <trkpt lat="45.3367" lon="5.6973">
        <ele>1584.898519541</ele>
        <time>2015-05-12T16:32:10Z</time>
      </trkpt>
      <trkpt lat="45.33664" lon="5.69723">
        <ele>1584.898519541</ele>
        <time>2015-05-12T16:32:15Z</time>
      </trkpt>
      <trkpt lat="45.33656" lon="5.69715">
        <ele>1584.007622673</ele>
        <time>2015-05-12T16:32:20Z</time>
      </trkpt>
      <trkpt lat="45.33649" lon="5.69713">
        <ele>1584.007622673</ele>
        <time>2015-05-12T16:32:25Z</time>
      </trkpt>
      <trkpt lat="45.33644" lon="5.69709">
        <ele>1583.114995761</ele>
        <time>2015-05-12T16:32:29Z</time>
      </trkpt>
      <trkpt lat="45.33636" lon="5.69705">
        <ele>1583.114995761</ele>
        <time>2015-05-12T16:32:35Z</time>
      </trkpt>
      <trkpt lat="45.33629" lon="5.69701">
        <ele>1582.365950003</ele>
        <time>2015-05-12T16:32:40Z</time>
      </trkpt>
      <trkpt lat="45.33627" lon="5.69699">
        <ele>1582.365950003</ele>
        <time>2015-05-12T16:32:45Z</time>
      </trkpt>
      <trkpt lat="45.33624" lon="5.69695">
        <ele>1582.365950003</ele>
        <time>2015-05-12T16:32:50Z</time>
      </trkpt>
      <trkpt lat="45.33623" lon="5.69697">
        <ele>1582.365950003</ele>
        <time>2015-05-12T16:32:55Z</time>
      </trkpt>
      <trkpt lat="45.33623" lon="5.69697">
        <ele>1582.365950003</ele>
        <time>2015-05-12T16:33:00Z</time>
      </trkpt>
      <trkpt lat="45.33621" lon="5.69696">
        <ele>1581.750482054</ele>
        <time>2015-05-12T16:33:04Z</time>
      </trkpt>
      <trkpt lat="45.33618" lon="5.69696">
        <ele>1581.750482054</ele>
        <time>2015-05-12T16:33:09Z</time>
      </trkpt>
      <trkpt lat="45.33619" lon="5.69695">
        <ele>1581.750482054</ele>
        <time>2015-05-12T16:33:14Z</time>
      </trkpt>
      <trkpt lat="45.33619" lon="5.69695">
        <ele>1581.750482054</ele>
        <time>2015-05-12T16:33:19Z</time>
      </trkpt>
      <trkpt lat="45.33618" lon="5.69695">
        <ele>1581.750482054</ele>
        <time>2015-05-12T16:33:24Z</time>
      </trkpt>
      <trkpt lat="45.33616" lon="5.69694">
        <ele>1581.750482054</ele>
        <time>2015-05-12T16:33:29Z</time>
      </trkpt>
      <trkpt lat="45.33615" lon="5.69693">
        <ele>1581.750482054</ele>
        <time>2015-05-12T16:33:34Z</time>
      </trkpt>
      <trkpt lat="45.33616" lon="5.69694">
        <ele>1581.114719266</ele>
        <time>2015-05-12T16:33:40Z</time>
      </trkpt>
      <trkpt lat="45.3361" lon="5.69691">
        <ele>1581.114719266</ele>
        <time>2015-05-12T16:33:45Z</time>
      </trkpt>
      <trkpt lat="45.33605" lon="5.69688">
        <ele>1580.460150361</ele>
        <time>2015-05-12T16:33:50Z</time>
      </trkpt>
      <trkpt lat="45.33599" lon="5.69685">
        <ele>1580.460150361</ele>
        <time>2015-05-12T16:33:55Z</time>
      </trkpt>
      <trkpt lat="45.33591" lon="5.6968">
        <ele>1579.932216952</ele>
        <time>2015-05-12T16:34:00Z</time>
      </trkpt>
      <trkpt lat="45.33585" lon="5.69676">
        <ele>1579.932216952</ele>
        <time>2015-05-12T16:34:05Z</time>
      </trkpt>
      <trkpt lat="45.33576" lon="5.69672">
        <ele>1578.800560015</ele>
        <time>2015-05-12T16:34:10Z</time>
      </trkpt>
      <trkpt lat="45.33571" lon="5.69669">
        <ele>1578.800560015</ele>
        <time>2015-05-12T16:34:15Z</time>
      </trkpt>
      <trkpt lat="45.33567" lon="5.69667">
        <ele>1577.542967122</ele>
        <time>2015-05-12T16:34:20Z</time>
      </trkpt>
      <trkpt lat="45.33562" lon="5.69667">
        <ele>1577.542967122</ele>
        <time>2015-05-12T16:34:25Z</time>
      </trkpt>
      <trkpt lat="45.33554" lon="5.69666">
        <ele>1576.314175591</ele>
        <time>2015-05-12T16:34:30Z</time>
      </trkpt>
      <trkpt lat="45.33547" lon="5.69667">
        <ele>1576.314175591</ele>
        <time>2015-05-12T16:34:35Z</time>
      </trkpt>
      <trkpt lat="45.33537" lon="5.6967">
        <ele>1575.545618465</ele>
        <time>2015-05-12T16:34:40Z</time>
      </trkpt>
      <trkpt lat="45.33526" lon="5.69668">
        <ele>1574.915114217</ele>
        <time>2015-05-12T16:34:45Z</time>
      </trkpt>
      <trkpt lat="45.33514" lon="5.69666">
        <ele>1574.700136871</ele>
        <time>2015-05-12T16:34:50Z</time>
      </trkpt>
      <trkpt lat="45.33503" lon="5.69667">
        <ele>1574.580105395</ele>
        <time>2015-05-12T16:34:55Z</time>
      </trkpt>
      <trkpt lat="45.33494" lon="5.69665">
        <ele>1574.580105395</ele>
        <time>2015-05-12T16:35:00Z</time>
      </trkpt>
      <trkpt lat="45.33487" lon="5.69664">
        <ele>1573.969446239</ele>
        <time>2015-05-12T16:35:05Z</time>
      </trkpt>
      <trkpt lat="45.33476" lon="5.69665">
        <ele>1573.335710903</ele>
        <time>2015-05-12T16:35:10Z</time>
      </trkpt>
      <trkpt lat="45.33467" lon="5.69664">
        <ele>1573.112132313</ele>
        <time>2015-05-12T16:35:15Z</time>
      </trkpt>
      <trkpt lat="45.33453" lon="5.69663">
        <ele>1573.12249349</ele>
        <time>2015-05-12T16:35:20Z</time>
      </trkpt>
      <trkpt lat="45.33446" lon="5.69654">
        <ele>1573.202844129</ele>
        <time>2015-05-12T16:35:25Z</time>
      </trkpt>
      <trkpt lat="45.33438" lon="5.69651">
        <ele>1573.202844129</ele>
        <time>2015-05-12T16:35:30Z</time>
      </trkpt>
      <trkpt lat="45.3343" lon="5.6965">
        <ele>1572.624622179</ele>
        <time>2015-05-12T16:35:35Z</time>
      </trkpt>
      <trkpt lat="45.33423" lon="5.69648">
        <ele>1572.624622179</ele>
        <time>2015-05-12T16:35:39Z</time>
      </trkpt>
      <trkpt lat="45.33414" lon="5.69651">
        <ele>1571.867514606</ele>
        <time>2015-05-12T16:35:45Z</time>
      </trkpt>
      <trkpt lat="45.33404" lon="5.6965">
        <ele>1571.520582246</ele>
        <time>2015-05-12T16:35:49Z</time>
      </trkpt>
      <trkpt lat="45.33396" lon="5.69646">
        <ele>1571.520582246</ele>
        <time>2015-05-12T16:35:55Z</time>
      </trkpt>
      <trkpt lat="45.33386" lon="5.69642">
        <ele>1571.696133488</ele>
        <time>2015-05-12T16:36:00Z</time>
      </trkpt>
      <trkpt lat="45.33379" lon="5.69642">
        <ele>1571.696133488</ele>
        <time>2015-05-12T16:36:04Z</time>
      </trkpt>
      <trkpt lat="45.3337" lon="5.69643">
        <ele>1572.20854817</ele>
        <time>2015-05-12T16:36:10Z</time>
      </trkpt>
      <trkpt lat="45.33362" lon="5.69641">
        <ele>1572.20854817</ele>
        <time>2015-05-12T16:36:15Z</time>
      </trkpt>
      <trkpt lat="45.33351" lon="5.69639">
        <ele>1572.596691202</ele>
        <time>2015-05-12T16:36:20Z</time>
      </trkpt>
      <trkpt lat="45.33342" lon="5.69635">
        <ele>1572.596691202</ele>
        <time>2015-05-12T16:36:25Z</time>
      </trkpt>
      <trkpt lat="45.33334" lon="5.69632">
        <ele>1572.866009739</ele>
        <time>2015-05-12T16:36:30Z</time>
      </trkpt>
      <trkpt lat="45.33324" lon="5.69629">
        <ele>1573.886586647</ele>
        <time>2015-05-12T16:36:35Z</time>
      </trkpt>
      <trkpt lat="45.33314" lon="5.69626">
        <ele>1574.733192932</ele>
        <time>2015-05-12T16:36:40Z</time>
      </trkpt>
      <trkpt lat="45.33307" lon="5.69625">
        <ele>1574.733192932</ele>
        <time>2015-05-12T16:36:44Z</time>
      </trkpt>
      <trkpt lat="45.33299" lon="5.69621">
        <ele>1575.12555362</ele>
        <time>2015-05-12T16:36:49Z</time>
      </trkpt>
      <trkpt lat="45.33292" lon="5.69615">
        <ele>1575.12555362</ele>
        <time>2015-05-12T16:36:54Z</time>
      </trkpt>
      <trkpt lat="45.33281" lon="5.69607">
        <ele>1575.525875871</ele>
        <time>2015-05-12T16:37:00Z</time>
      </trkpt>
      <trkpt lat="45.33274" lon="5.69598">
        <ele>1575.497794023</ele>
        <time>2015-05-12T16:37:05Z</time>
      </trkpt>
      <trkpt lat="45.33267" lon="5.69592">
        <ele>1575.497794023</ele>
        <time>2015-05-12T16:37:10Z</time>
      </trkpt>
      <trkpt lat="45.33262" lon="5.69591">
        <ele>1575.935275028</ele>
        <time>2015-05-12T16:37:15Z</time>
      </trkpt>
      <trkpt lat="45.33255" lon="5.69584">
        <ele>1575.935275028</ele>
        <time>2015-05-12T16:37:20Z</time>
      </trkpt>
      <trkpt lat="45.33248" lon="5.69578">
        <ele>1576.368387852</ele>
        <time>2015-05-12T16:37:25Z</time>
      </trkpt>
      <trkpt lat="45.33243" lon="5.69569">
        <ele>1576.368387852</ele>
        <time>2015-05-12T16:37:30Z</time>
      </trkpt>
      <trkpt lat="45.33238" lon="5.69561">
        <ele>1576.938261597</ele>
        <time>2015-05-12T16:37:35Z</time>
      </trkpt>
      <trkpt lat="45.33234" lon="5.69557">
        <ele>1576.938261597</ele>
        <time>2015-05-12T16:37:40Z</time>
      </trkpt>
      <trkpt lat="45.33228" lon="5.69552">
        <ele>1577.198915116</ele>
        <time>2015-05-12T16:37:45Z</time>
      </trkpt>
      <trkpt lat="45.33224" lon="5.69547">
        <ele>1577.198915116</ele>
        <time>2015-05-12T16:37:50Z</time>
      </trkpt>
      <trkpt lat="45.3322" lon="5.69546">
        <ele>1577.314528969</ele>
        <time>2015-05-12T16:37:54Z</time>
      </trkpt>
      <trkpt lat="45.33219" lon="5.69547">
        <ele>1577.314528969</ele>
        <time>2015-05-12T16:38:00Z</time>
      </trkpt>
      <trkpt lat="45.33213" lon="5.69544">
        <ele>1577.314528969</ele>
        <time>2015-05-12T16:38:05Z</time>
      </trkpt>
      <trkpt lat="45.33206" lon="5.69538">
        <ele>1578.014165436</ele>
        <time>2015-05-12T16:38:10Z</time>
      </trkpt>
      <trkpt lat="45.33199" lon="5.69536">
        <ele>1578.014165436</ele>
        <time>2015-05-12T16:38:15Z</time>
      </trkpt>
      <trkpt lat="45.33195" lon="5.69534">
        <ele>1579.395341534</ele>
        <time>2015-05-12T16:38:20Z</time>
      </trkpt>
      <trkpt lat="45.33192" lon="5.69535">
        <ele>1579.395341534</ele>
        <time>2015-05-12T16:38:25Z</time>
      </trkpt>
      <trkpt lat="45.33185" lon="5.69536">
        <ele>1580.393707398</ele>
        <time>2015-05-12T16:38:30Z</time>
      </trkpt>
      <trkpt lat="45.3318" lon="5.69537">
        <ele>1580.393707398</ele>
        <time>2015-05-12T16:38:35Z</time>
      </trkpt>
      <trkpt lat="45.33174" lon="5.69545">
        <ele>1581.033053963</ele>
        <time>2015-05-12T16:38:40Z</time>
      </trkpt>
      <trkpt lat="45.33162" lon="5.69547">
        <ele>1581.768872102</ele>
        <time>2015-05-12T16:38:45Z</time>
      </trkpt>
      <trkpt lat="45.33156" lon="5.69555">
        <ele>1581.768872102</ele>
        <time>2015-05-12T16:38:50Z</time>
      </trkpt>
      <trkpt lat="45.33148" lon="5.69558">
        <ele>1582.44658775</ele>
        <time>2015-05-12T16:38:55Z</time>
      </trkpt>
      <trkpt lat="45.33142" lon="5.69565">
        <ele>1582.44658775</ele>
        <time>2015-05-12T16:39:00Z</time>
      </trkpt>
      <trkpt lat="45.33134" lon="5.69568">
        <ele>1583.499702302</ele>
        <time>2015-05-12T16:39:05Z</time>
      </trkpt>
      <trkpt lat="45.33127" lon="5.69577">
        <ele>1583.499702302</ele>
        <time>2015-05-12T16:39:10Z</time>
      </trkpt>
      <trkpt lat="45.33123" lon="5.69584">
        <ele>1585.473046934</ele>
        <time>2015-05-12T16:39:15Z</time>
      </trkpt>
      <trkpt lat="45.33117" lon="5.69583">
        <ele>1585.473046934</ele>
        <time>2015-05-12T16:39:19Z</time>
      </trkpt>
      <trkpt lat="45.33118" lon="5.69583">
        <ele>1585.473046934</ele>
        <time>2015-05-12T16:39:24Z</time>
      </trkpt>
      <trkpt lat="45.33119" lon="5.69586">
        <ele>1585.473046934</ele>
        <time>2015-05-12T16:39:29Z</time>
      </trkpt>
      <trkpt lat="45.33119" lon="5.69585">
        <ele>1585.473046934</ele>
        <time>2015-05-12T16:39:34Z</time>
      </trkpt>
      <trkpt lat="45.33119" lon="5.69585">
        <ele>1585.473046934</ele>
        <time>2015-05-12T16:39:39Z</time>
      </trkpt>
      <trkpt lat="45.33113" lon="5.6959">
        <ele>1588.580749431</ele>
        <time>2015-05-12T16:39:44Z</time>
      </trkpt>
      <trkpt lat="45.3311" lon="5.69589">
        <ele>1588.580749431</ele>
        <time>2015-05-12T16:39:49Z</time>
      </trkpt>
      <trkpt lat="45.33102" lon="5.69591">
        <ele>1590.280044638</ele>
        <time>2015-05-12T16:39:54Z</time>
      </trkpt>
      <trkpt lat="45.33099" lon="5.69603">
        <ele>1590.280044638</ele>
        <time>2015-05-12T16:39:59Z</time>
      </trkpt>
      <trkpt lat="45.33096" lon="5.69612">
        <ele>1591.533605116</ele>
        <time>2015-05-12T16:40:05Z</time>
      </trkpt>
      <trkpt lat="45.33091" lon="5.6962">
        <ele>1591.533605116</ele>
        <time>2015-05-12T16:40:10Z</time>
      </trkpt>
      <trkpt lat="45.33089" lon="5.6962">
        <ele>1592.51422768</ele>
        <time>2015-05-12T16:40:14Z</time>
      </trkpt>
      <trkpt lat="45.33088" lon="5.69629">
        <ele>1592.51422768</ele>
        <time>2015-05-12T16:40:20Z</time>
      </trkpt>
      <trkpt lat="45.33087" lon="5.69638">
        <ele>1591.941817566</ele>
        <time>2015-05-12T16:40:25Z</time>
      </trkpt>
      <trkpt lat="45.33086" lon="5.69643">
        <ele>1591.941817566</ele>
        <time>2015-05-12T16:40:30Z</time>
      </trkpt>
      <trkpt lat="45.33082" lon="5.69654">
        <ele>1591.228815419</ele>
        <time>2015-05-12T16:40:35Z</time>
      </trkpt>
      <trkpt lat="45.33084" lon="5.69662">
        <ele>1591.228815419</ele>
        <time>2015-05-12T16:40:40Z</time>
      </trkpt>
      <trkpt lat="45.33081" lon="5.69675">
        <ele>1589.810985687</ele>
        <time>2015-05-12T16:40:45Z</time>
      </trkpt>
      <trkpt lat="45.33075" lon="5.69685">
        <ele>1588.75285824</ele>
        <time>2015-05-12T16:40:50Z</time>
      </trkpt>
      <trkpt lat="45.33067" lon="5.69698">
        <ele>1587.886964787</ele>
        <time>2015-05-12T16:40:55Z</time>
      </trkpt>
      <trkpt lat="45.33065" lon="5.69706">
        <ele>1587.886964787</ele>
        <time>2015-05-12T16:41:00Z</time>
      </trkpt>
      <trkpt lat="45.33059" lon="5.69716">
        <ele>1587.057683368</ele>
        <time>2015-05-12T16:41:05Z</time>
      </trkpt>
      <trkpt lat="45.33049" lon="5.69723">
        <ele>1585.544343556</ele>
        <time>2015-05-12T16:41:10Z</time>
      </trkpt>
      <trkpt lat="45.33039" lon="5.69725">
        <ele>1584.554631624</ele>
        <time>2015-05-12T16:41:15Z</time>
      </trkpt>
      <trkpt lat="45.33039" lon="5.69732">
        <ele>1584.554631624</ele>
        <time>2015-05-12T16:41:20Z</time>
      </trkpt>
      <trkpt lat="45.33044" lon="5.69737">
        <ele>1582.756196371</ele>
        <time>2015-05-12T16:41:25Z</time>
      </trkpt>
      <trkpt lat="45.33042" lon="5.69746">
        <ele>1582.756196371</ele>
        <time>2015-05-12T16:41:30Z</time>
      </trkpt>
      <trkpt lat="45.33048" lon="5.69754">
        <ele>1580.502072712</ele>
        <time>2015-05-12T16:41:35Z</time>
      </trkpt>
      <trkpt lat="45.33053" lon="5.69761">
        <ele>1580.502072712</ele>
        <time>2015-05-12T16:41:40Z</time>
      </trkpt>
      <trkpt lat="45.3306" lon="5.69767">
        <ele>1578.408866269</ele>
        <time>2015-05-12T16:41:44Z</time>
      </trkpt>
      <trkpt lat="45.33066" lon="5.69777">
        <ele>1576.182754899</ele>
        <time>2015-05-12T16:41:50Z</time>
      </trkpt>
      <trkpt lat="45.33067" lon="5.69783">
        <ele>1576.182754899</ele>
        <time>2015-05-12T16:41:55Z</time>
      </trkpt>
      <trkpt lat="45.33069" lon="5.69794">
        <ele>1573.984174885</ele>
        <time>2015-05-12T16:42:00Z</time>
      </trkpt>
      <trkpt lat="45.33076" lon="5.69797">
        <ele>1573.984174885</ele>
        <time>2015-05-12T16:42:05Z</time>
      </trkpt>
      <trkpt lat="45.33082" lon="5.69802">
        <ele>1571.817539588</ele>
        <time>2015-05-12T16:42:10Z</time>
      </trkpt>
      <trkpt lat="45.33085" lon="5.69807">
        <ele>1571.817539588</ele>
        <time>2015-05-12T16:42:15Z</time>
      </trkpt>
      <trkpt lat="45.33088" lon="5.69816">
        <ele>1569.25444984</ele>
        <time>2015-05-12T16:42:20Z</time>
      </trkpt>
      <trkpt lat="45.33087" lon="5.69828">
        <ele>1569.25444984</ele>
        <time>2015-05-12T16:42:25Z</time>
      </trkpt>
      <trkpt lat="45.33089" lon="5.69835">
        <ele>1566.61956369</ele>
        <time>2015-05-12T16:42:30Z</time>
      </trkpt>
      <trkpt lat="45.33094" lon="5.69842">
        <ele>1566.61956369</ele>
        <time>2015-05-12T16:42:35Z</time>
      </trkpt>
      <trkpt lat="45.33092" lon="5.69846">
        <ele>1562.628570571</ele>
        <time>2015-05-12T16:42:39Z</time>
      </trkpt>
      <trkpt lat="45.33087" lon="5.69849">
        <ele>1562.628570571</ele>
        <time>2015-05-12T16:42:45Z</time>
      </trkpt>
      <trkpt lat="45.33081" lon="5.69856">
        <ele>1559.409750699</ele>
        <time>2015-05-12T16:42:50Z</time>
      </trkpt>
      <trkpt lat="45.3308" lon="5.69857">
        <ele>1559.409750699</ele>
        <time>2015-05-12T16:42:54Z</time>
      </trkpt>
      <trkpt lat="45.33079" lon="5.6986">
        <ele>1559.409750699</ele>
        <time>2015-05-12T16:43:00Z</time>
      </trkpt>
      <trkpt lat="45.33076" lon="5.69862">
        <ele>1559.409750699</ele>
        <time>2015-05-12T16:43:04Z</time>
      </trkpt>
      <trkpt lat="45.33071" lon="5.69861">
        <ele>1555.329962403</ele>
        <time>2015-05-12T16:43:10Z</time>
      </trkpt>
      <trkpt lat="45.33064" lon="5.69864">
        <ele>1555.329962403</ele>
        <time>2015-05-12T16:43:15Z</time>
      </trkpt>
      <trkpt lat="45.33057" lon="5.69861">
        <ele>1550.751739069</ele>
        <time>2015-05-12T16:43:20Z</time>
      </trkpt>
      <trkpt lat="45.33053" lon="5.6986">
        <ele>1550.751739069</ele>
        <time>2015-05-12T16:43:25Z</time>
      </trkpt>
      <trkpt lat="45.3305" lon="5.6986">
        <ele>1550.751739069</ele>
        <time>2015-05-12T16:43:30Z</time>
      </trkpt>
      <trkpt lat="45.33047" lon="5.69867">
        <ele>1546.156315622</ele>
        <time>2015-05-12T16:43:35Z</time>
      </trkpt>
      <trkpt lat="45.33042" lon="5.69868">
        <ele>1546.156315622</ele>
        <time>2015-05-12T16:43:40Z</time>
      </trkpt>
      <trkpt lat="45.33032" lon="5.69872">
        <ele>1542.277650245</ele>
        <time>2015-05-12T16:43:45Z</time>
      </trkpt>
      <trkpt lat="45.3303" lon="5.69876">
        <ele>1542.277650245</ele>
        <time>2015-05-12T16:43:50Z</time>
      </trkpt>
      <trkpt lat="45.33027" lon="5.69869">
        <ele>1542.277650245</ele>
        <time>2015-05-12T16:43:55Z</time>
      </trkpt>
      <trkpt lat="45.33022" lon="5.69871">
        <ele>1537.19955625</ele>
        <time>2015-05-12T16:44:00Z</time>
      </trkpt>
      <trkpt lat="45.33022" lon="5.69874">
        <ele>1537.19955625</ele>
        <time>2015-05-12T16:44:05Z</time>
      </trkpt>
      <trkpt lat="45.33016" lon="5.69874">
        <ele>1537.19955625</ele>
        <time>2015-05-12T16:44:10Z</time>
      </trkpt>
      <trkpt lat="45.33009" lon="5.69871">
        <ele>1532.320183119</ele>
        <time>2015-05-12T16:44:15Z</time>
      </trkpt>
      <trkpt lat="45.33003" lon="5.69869">
        <ele>1532.320183119</ele>
        <time>2015-05-12T16:44:20Z</time>
      </trkpt>
      <trkpt lat="45.33003" lon="5.69873">
        <ele>1532.320183119</ele>
        <time>2015-05-12T16:44:25Z</time>
      </trkpt>
      <trkpt lat="45.32999" lon="5.69877">
        <ele>1526.62838157</ele>
        <time>2015-05-12T16:44:30Z</time>
      </trkpt>
      <trkpt lat="45.32994" lon="5.69877">
        <ele>1526.62838157</ele>
        <time>2015-05-12T16:44:35Z</time>
      </trkpt>
      <trkpt lat="45.3299" lon="5.69873">
        <ele>1520.918619358</ele>
        <time>2015-05-12T16:44:40Z</time>
      </trkpt>
      <trkpt lat="45.32987" lon="5.69872">
        <ele>1520.918619358</ele>
        <time>2015-05-12T16:44:45Z</time>
      </trkpt>
      <trkpt lat="45.32985" lon="5.69879">
        <ele>1520.918619358</ele>
        <time>2015-05-12T16:44:50Z</time>
      </trkpt>
      <trkpt lat="45.32983" lon="5.69882">
        <ele>1515.350314841</ele>
        <time>2015-05-12T16:44:55Z</time>
      </trkpt>
      <trkpt lat="45.32976" lon="5.69879">
        <ele>1515.350314841</ele>
        <time>2015-05-12T16:45:00Z</time>
      </trkpt>
      <trkpt lat="45.32974" lon="5.6988">
        <ele>1510.358689808</ele>
        <time>2015-05-12T16:45:04Z</time>
      </trkpt>
      <trkpt lat="45.32972" lon="5.69881">
        <ele>1510.358689808</ele>
        <time>2015-05-12T16:45:10Z</time>
      </trkpt>
      <trkpt lat="45.32967" lon="5.69881">
        <ele>1510.358689808</ele>
        <time>2015-05-12T16:45:15Z</time>
      </trkpt>
      <trkpt lat="45.32959" lon="5.69882">
        <ele>1505.624495354</ele>
        <time>2015-05-12T16:45:20Z</time>
      </trkpt>
      <trkpt lat="45.3296" lon="5.69882">
        <ele>1505.624495354</ele>
        <time>2015-05-12T16:45:25Z</time>
      </trkpt>
      <trkpt lat="45.32957" lon="5.69882">
        <ele>1505.624495354</ele>
        <time>2015-05-12T16:45:30Z</time>
      </trkpt>
      <trkpt lat="45.32955" lon="5.69879">
        <ele>1505.624495354</ele>
        <time>2015-05-12T16:45:35Z</time>
      </trkpt>
      <trkpt lat="45.3295" lon="5.69879">
        <ele>1499.842095505</ele>
        <time>2015-05-12T16:45:40Z</time>
      </trkpt>
      <trkpt lat="45.32942" lon="5.69879">
        <ele>1499.842095505</ele>
        <time>2015-05-12T16:45:45Z</time>
      </trkpt>
      <trkpt lat="45.32942" lon="5.69883">
        <ele>1493.821913257</ele>
        <time>2015-05-12T16:45:49Z</time>
      </trkpt>
      <trkpt lat="45.3294" lon="5.69884">
        <ele>1493.821913257</ele>
        <time>2015-05-12T16:45:54Z</time>
      </trkpt>
      <trkpt lat="45.32937" lon="5.69886">
        <ele>1493.821913257</ele>
        <time>2015-05-12T16:46:00Z</time>
      </trkpt>
      <trkpt lat="45.32932" lon="5.69891">
        <ele>1488.891593001</ele>
        <time>2015-05-12T16:46:05Z</time>
      </trkpt>
      <trkpt lat="45.32927" lon="5.69892">
        <ele>1488.891593001</ele>
        <time>2015-05-12T16:46:10Z</time>
      </trkpt>
      <trkpt lat="45.32923" lon="5.69892">
        <ele>1483.251493846</ele>
        <time>2015-05-12T16:46:15Z</time>
      </trkpt>
      <trkpt lat="45.3292" lon="5.69893">
        <ele>1483.251493846</ele>
        <time>2015-05-12T16:46:20Z</time>
      </trkpt>
      <trkpt lat="45.32917" lon="5.69897">
        <ele>1483.251493846</ele>
        <time>2015-05-12T16:46:25Z</time>
      </trkpt>
      <trkpt lat="45.32913" lon="5.699">
        <ele>1478.406241055</ele>
        <time>2015-05-12T16:46:30Z</time>
      </trkpt>
      <trkpt lat="45.32912" lon="5.69913">
        <ele>1473.873882633</ele>
        <time>2015-05-12T16:46:35Z</time>
      </trkpt>
      <trkpt lat="45.3291" lon="5.6992">
        <ele>1473.873882633</ele>
        <time>2015-05-12T16:46:40Z</time>
      </trkpt>
      <trkpt lat="45.3291" lon="5.69928">
        <ele>1469.494843096</ele>
        <time>2015-05-12T16:46:44Z</time>
      </trkpt>
      <trkpt lat="45.32906" lon="5.69941">
        <ele>1465.696916838</ele>
        <time>2015-05-12T16:46:49Z</time>
      </trkpt>
      <trkpt lat="45.32899" lon="5.69956">
        <ele>1461.577482959</ele>
        <time>2015-05-12T16:46:54Z</time>
      </trkpt>
      <trkpt lat="45.32894" lon="5.69972">
        <ele>1457.453668637</ele>
        <time>2015-05-12T16:47:00Z</time>
      </trkpt>
      <trkpt lat="45.32888" lon="5.69982">
        <ele>1454.051313843</ele>
        <time>2015-05-12T16:47:05Z</time>
      </trkpt>
      <trkpt lat="45.32884" lon="5.69994">
        <ele>1450.887702279</ele>
        <time>2015-05-12T16:47:10Z</time>
      </trkpt>
      <trkpt lat="45.3288" lon="5.70003">
        <ele>1450.887702279</ele>
        <time>2015-05-12T16:47:15Z</time>
      </trkpt>
      <trkpt lat="45.32881" lon="5.70008">
        <ele>1448.66749074</ele>
        <time>2015-05-12T16:47:20Z</time>
      </trkpt>
      <trkpt lat="45.32884" lon="5.70019">
        <ele>1448.66749074</ele>
        <time>2015-05-12T16:47:24Z</time>
      </trkpt>
      <trkpt lat="45.32881" lon="5.7003">
        <ele>1446.455416002</ele>
        <time>2015-05-12T16:47:29Z</time>
      </trkpt>
      <trkpt lat="45.32883" lon="5.7004">
        <ele>1446.455416002</ele>
        <time>2015-05-12T16:47:35Z</time>
      </trkpt>
      <trkpt lat="45.32885" lon="5.70051">
        <ele>1444.249298256</ele>
        <time>2015-05-12T16:47:40Z</time>
      </trkpt>
      <trkpt lat="45.32884" lon="5.70065">
        <ele>1441.470414483</ele>
        <time>2015-05-12T16:47:45Z</time>
      </trkpt>
      <trkpt lat="45.32887" lon="5.70078">
        <ele>1438.880942182</ele>
        <time>2015-05-12T16:47:50Z</time>
      </trkpt>
      <trkpt lat="45.3289" lon="5.70091">
        <ele>1436.465784047</ele>
        <time>2015-05-12T16:47:55Z</time>
      </trkpt>
      <trkpt lat="45.32893" lon="5.70101">
        <ele>1436.465784047</ele>
        <time>2015-05-12T16:48:00Z</time>
      </trkpt>
      <trkpt lat="45.32887" lon="5.70112">
        <ele>1433.489726893</ele>
        <time>2015-05-12T16:48:05Z</time>
      </trkpt>
      <trkpt lat="45.32886" lon="5.70121">
        <ele>1433.489726893</ele>
        <time>2015-05-12T16:48:10Z</time>
      </trkpt>
      <trkpt lat="45.32886" lon="5.70128">
        <ele>1430.281753793</ele>
        <time>2015-05-12T16:48:15Z</time>
      </trkpt>
      <trkpt lat="45.32881" lon="5.70131">
        <ele>1430.281753793</ele>
        <time>2015-05-12T16:48:20Z</time>
      </trkpt>
      <trkpt lat="45.32877" lon="5.70133">
        <ele>1426.858959841</ele>
        <time>2015-05-12T16:48:25Z</time>
      </trkpt>
      <trkpt lat="45.32872" lon="5.70139">
        <ele>1426.858959841</ele>
        <time>2015-05-12T16:48:30Z</time>
      </trkpt>
      <trkpt lat="45.32869" lon="5.70142">
        <ele>1423.66998362</ele>
        <time>2015-05-12T16:48:35Z</time>
      </trkpt>
      <trkpt lat="45.32862" lon="5.70137">
        <ele>1423.66998362</ele>
        <time>2015-05-12T16:48:40Z</time>
      </trkpt>
      <trkpt lat="45.32857" lon="5.70135">
        <ele>1420.40916886</ele>
        <time>2015-05-12T16:48:45Z</time>
      </trkpt>
      <trkpt lat="45.32858" lon="5.70127">
        <ele>1420.40916886</ele>
        <time>2015-05-12T16:48:49Z</time>
      </trkpt>
      <trkpt lat="45.32851" lon="5.70116">
        <ele>1417.513953953</ele>
        <time>2015-05-12T16:48:55Z</time>
      </trkpt>
      <trkpt lat="45.32848" lon="5.70108">
        <ele>1417.513953953</ele>
        <time>2015-05-12T16:49:00Z</time>
      </trkpt>
      <trkpt lat="45.32846" lon="5.70099">
        <ele>1413.947399264</ele>
        <time>2015-05-12T16:49:05Z</time>
      </trkpt>
      <trkpt lat="45.32838" lon="5.70096">
        <ele>1413.947399264</ele>
        <time>2015-05-12T16:49:10Z</time>
      </trkpt>
      <trkpt lat="45.32834" lon="5.70102">
        <ele>1410.912191979</ele>
        <time>2015-05-12T16:49:15Z</time>
      </trkpt>
      <trkpt lat="45.32834" lon="5.70106">
        <ele>1410.912191979</ele>
        <time>2015-05-12T16:49:20Z</time>
      </trkpt>
      <trkpt lat="45.32829" lon="5.70108">
        <ele>1410.912191979</ele>
        <time>2015-05-12T16:49:25Z</time>
      </trkpt>
      <trkpt lat="45.32832" lon="5.70119">
        <ele>1408.224092475</ele>
        <time>2015-05-12T16:49:30Z</time>
      </trkpt>
      <trkpt lat="45.32827" lon="5.70123">
        <ele>1408.224092475</ele>
        <time>2015-05-12T16:49:35Z</time>
      </trkpt>
      <trkpt lat="45.32823" lon="5.70132">
        <ele>1406.287790622</ele>
        <time>2015-05-12T16:49:40Z</time>
      </trkpt>
      <trkpt lat="45.32824" lon="5.70145">
        <ele>1404.467298145</ele>
        <time>2015-05-12T16:49:45Z</time>
      </trkpt>
      <trkpt lat="45.32819" lon="5.70153">
        <ele>1404.467298145</ele>
        <time>2015-05-12T16:49:50Z</time>
      </trkpt>
      <trkpt lat="45.32815" lon="5.70162">
        <ele>1402.893530005</ele>
        <time>2015-05-12T16:49:55Z</time>
      </trkpt>
      <trkpt lat="45.32813" lon="5.70171">
        <ele>1402.893530005</ele>
        <time>2015-05-12T16:50:00Z</time>
      </trkpt>
      <trkpt lat="45.32813" lon="5.70182">
        <ele>1401.110617143</ele>
        <time>2015-05-12T16:50:05Z</time>
      </trkpt>
      <trkpt lat="45.32812" lon="5.70188">
        <ele>1401.110617143</ele>
        <time>2015-05-12T16:50:10Z</time>
      </trkpt>
      <trkpt lat="45.32812" lon="5.70192">
        <ele>1401.110617143</ele>
        <time>2015-05-12T16:50:15Z</time>
      </trkpt>
      <trkpt lat="45.32813" lon="5.70193">
        <ele>1401.110617143</ele>
        <time>2015-05-12T16:50:20Z</time>
      </trkpt>
      <trkpt lat="45.32814" lon="5.70194">
        <ele>1398.40852793</ele>
        <time>2015-05-12T16:50:25Z</time>
      </trkpt>
      <trkpt lat="45.3281" lon="5.702">
        <ele>1398.40852793</ele>
        <time>2015-05-12T16:50:30Z</time>
      </trkpt>
      <trkpt lat="45.32811" lon="5.7021">
        <ele>1395.428966309</ele>
        <time>2015-05-12T16:50:35Z</time>
      </trkpt>
      <trkpt lat="45.32808" lon="5.70218">
        <ele>1395.428966309</ele>
        <time>2015-05-12T16:50:40Z</time>
      </trkpt>
      <trkpt lat="45.32803" lon="5.70221">
        <ele>1392.334949235</ele>
        <time>2015-05-12T16:50:45Z</time>
      </trkpt>
      <trkpt lat="45.32799" lon="5.7022">
        <ele>1392.334949235</ele>
        <time>2015-05-12T16:50:50Z</time>
      </trkpt>
      <trkpt lat="45.32794" lon="5.7022">
        <ele>1388.701407066</ele>
        <time>2015-05-12T16:50:54Z</time>
      </trkpt>
      <trkpt lat="45.32785" lon="5.70218">
        <ele>1388.701407066</ele>
        <time>2015-05-12T16:51:00Z</time>
      </trkpt>
      <trkpt lat="45.32778" lon="5.7022">
        <ele>1386.153581023</ele>
        <time>2015-05-12T16:51:05Z</time>
      </trkpt>
      <trkpt lat="45.32772" lon="5.7022">
        <ele>1386.153581023</ele>
        <time>2015-05-12T16:51:10Z</time>
      </trkpt>
      <trkpt lat="45.32766" lon="5.7022">
        <ele>1383.888517727</ele>
        <time>2015-05-12T16:51:15Z</time>
      </trkpt>
      <trkpt lat="45.3276" lon="5.70226">
        <ele>1383.888517727</ele>
        <time>2015-05-12T16:51:20Z</time>
      </trkpt>
      <trkpt lat="45.32757" lon="5.70228">
        <ele>1382.026146336</ele>
        <time>2015-05-12T16:51:25Z</time>
      </trkpt>
      <trkpt lat="45.3275" lon="5.7023">
        <ele>1382.026146336</ele>
        <time>2015-05-12T16:51:30Z</time>
      </trkpt>
      <trkpt lat="45.32742" lon="5.70233">
        <ele>1381.252934541</ele>
        <time>2015-05-12T16:51:35Z</time>
      </trkpt>
      <trkpt lat="45.32737" lon="5.70232">
        <ele>1381.252934541</ele>
        <time>2015-05-12T16:51:40Z</time>
      </trkpt>
      <trkpt lat="45.32735" lon="5.70232">
        <ele>1381.252934541</ele>
        <time>2015-05-12T16:51:45Z</time>
      </trkpt>
      <trkpt lat="45.3273" lon="5.70231">
        <ele>1380.040245019</ele>
        <time>2015-05-12T16:51:49Z</time>
      </trkpt>
      <trkpt lat="45.32724" lon="5.70225">
        <ele>1380.040245019</ele>
        <time>2015-05-12T16:51:54Z</time>
      </trkpt>
      <trkpt lat="45.32715" lon="5.70228">
        <ele>1378.558247618</ele>
        <time>2015-05-12T16:52:00Z</time>
      </trkpt>
      <trkpt lat="45.32708" lon="5.70229">
        <ele>1378.558247618</ele>
        <time>2015-05-12T16:52:05Z</time>
      </trkpt>
      <trkpt lat="45.32704" lon="5.70227">
        <ele>1377.109550518</ele>
        <time>2015-05-12T16:52:10Z</time>
      </trkpt>
      <trkpt lat="45.327" lon="5.70225">
        <ele>1377.109550518</ele>
        <time>2015-05-12T16:52:15Z</time>
      </trkpt>
      <trkpt lat="45.3269" lon="5.7022">
        <ele>1376.262747131</ele>
        <time>2015-05-12T16:52:20Z</time>
      </trkpt>
      <trkpt lat="45.32684" lon="5.70215">
        <ele>1376.262747131</ele>
        <time>2015-05-12T16:52:25Z</time>
      </trkpt>
      <trkpt lat="45.3268" lon="5.70203">
        <ele>1375.390182123</ele>
        <time>2015-05-12T16:52:30Z</time>
      </trkpt>
      <trkpt lat="45.32675" lon="5.70195">
        <ele>1375.390182123</ele>
        <time>2015-05-12T16:52:35Z</time>
      </trkpt>
      <trkpt lat="45.32673" lon="5.70177">
        <ele>1373.478153514</ele>
        <time>2015-05-12T16:52:40Z</time>
      </trkpt>
      <trkpt lat="45.32671" lon="5.70166">
        <ele>1373.478153514</ele>
        <time>2015-05-12T16:52:45Z</time>
      </trkpt>
      <trkpt lat="45.3267" lon="5.70155">
        <ele>1371.46390216</ele>
        <time>2015-05-12T16:52:50Z</time>
      </trkpt>
      <trkpt lat="45.32671" lon="5.70146">
        <ele>1371.46390216</ele>
        <time>2015-05-12T16:52:54Z</time>
      </trkpt>
      <trkpt lat="45.32668" lon="5.70131">
        <ele>1369.063338071</ele>
        <time>2015-05-12T16:53:00Z</time>
      </trkpt>
      <trkpt lat="45.32666" lon="5.7012">
        <ele>1369.063338071</ele>
        <time>2015-05-12T16:53:05Z</time>
      </trkpt>
      <trkpt lat="45.32669" lon="5.70107">
        <ele>1366.302668213</ele>
        <time>2015-05-12T16:53:10Z</time>
      </trkpt>
      <trkpt lat="45.3267" lon="5.70095">
        <ele>1366.302668213</ele>
        <time>2015-05-12T16:53:15Z</time>
      </trkpt>
      <trkpt lat="45.32676" lon="5.7008">
        <ele>1363.063192037</ele>
        <time>2015-05-12T16:53:20Z</time>
      </trkpt>
      <trkpt lat="45.32676" lon="5.7007">
        <ele>1363.063192037</ele>
        <time>2015-05-12T16:53:25Z</time>
      </trkpt>
      <trkpt lat="45.3268" lon="5.70055">
        <ele>1359.956940885</ele>
        <time>2015-05-12T16:53:30Z</time>
      </trkpt>
      <trkpt lat="45.32684" lon="5.70041">
        <ele>1356.830162848</ele>
        <time>2015-05-12T16:53:35Z</time>
      </trkpt>
      <trkpt lat="45.32682" lon="5.70027">
        <ele>1353.684666672</ele>
        <time>2015-05-12T16:53:40Z</time>
      </trkpt>
      <trkpt lat="45.32684" lon="5.70014">
        <ele>1351.098715258</ele>
        <time>2015-05-12T16:53:45Z</time>
      </trkpt>
      <trkpt lat="45.32683" lon="5.70004">
        <ele>1351.098715258</ele>
        <time>2015-05-12T16:53:50Z</time>
      </trkpt>
      <trkpt lat="45.32679" lon="5.69992">
        <ele>1348.021382746</ele>
        <time>2015-05-12T16:53:55Z</time>
      </trkpt>
      <trkpt lat="45.32672" lon="5.69987">
        <ele>1348.021382746</ele>
        <time>2015-05-12T16:54:00Z</time>
      </trkpt>
      <trkpt lat="45.32663" lon="5.69978">
        <ele>1345.786178383</ele>
        <time>2015-05-12T16:54:05Z</time>
      </trkpt>
      <trkpt lat="45.32655" lon="5.69975">
        <ele>1345.786178383</ele>
        <time>2015-05-12T16:54:10Z</time>
      </trkpt>
      <trkpt lat="45.32649" lon="5.69971">
        <ele>1343.897030685</ele>
        <time>2015-05-12T16:54:15Z</time>
      </trkpt>
      <trkpt lat="45.32646" lon="5.69956">
        <ele>1342.469857369</ele>
        <time>2015-05-12T16:54:20Z</time>
      </trkpt>
      <trkpt lat="45.32648" lon="5.6994">
        <ele>1341.466730554</ele>
        <time>2015-05-12T16:54:25Z</time>
      </trkpt>
      <trkpt lat="45.32639" lon="5.69928">
        <ele>1341.139624758</ele>
        <time>2015-05-12T16:54:30Z</time>
      </trkpt>
      <trkpt lat="45.32639" lon="5.69916">
        <ele>1341.139624758</ele>
        <time>2015-05-12T16:54:35Z</time>
      </trkpt>
      <trkpt lat="45.32642" lon="5.699">
        <ele>1341.143756638</ele>
        <time>2015-05-12T16:54:40Z</time>
      </trkpt>
      <trkpt lat="45.32648" lon="5.69887">
        <ele>1341.158846344</ele>
        <time>2015-05-12T16:54:45Z</time>
      </trkpt>
      <trkpt lat="45.32654" lon="5.69872">
        <ele>1340.744117431</ele>
        <time>2015-05-12T16:54:49Z</time>
      </trkpt>
      <trkpt lat="45.32659" lon="5.69862">
        <ele>1340.744117431</ele>
        <time>2015-05-12T16:54:54Z</time>
      </trkpt>
      <trkpt lat="45.32665" lon="5.69842">
        <ele>1340.213064105</ele>
        <time>2015-05-12T16:55:00Z</time>
      </trkpt>
      <trkpt lat="45.32668" lon="5.69827">
        <ele>1339.712506783</ele>
        <time>2015-05-12T16:55:05Z</time>
      </trkpt>
      <trkpt lat="45.32674" lon="5.69812">
        <ele>1339.090320647</ele>
        <time>2015-05-12T16:55:10Z</time>
      </trkpt>
      <trkpt lat="45.32681" lon="5.69801">
        <ele>1338.494273315</ele>
        <time>2015-05-12T16:55:15Z</time>
      </trkpt>
      <trkpt lat="45.32686" lon="5.69791">
        <ele>1338.494273315</ele>
        <time>2015-05-12T16:55:20Z</time>
      </trkpt>
      <trkpt lat="45.32693" lon="5.69779">
        <ele>1338.349585858</ele>
        <time>2015-05-12T16:55:25Z</time>
      </trkpt>
      <trkpt lat="45.32703" lon="5.69776">
        <ele>1338.32858544</ele>
        <time>2015-05-12T16:55:30Z</time>
      </trkpt>
      <trkpt lat="45.32709" lon="5.69767">
        <ele>1338.32858544</ele>
        <time>2015-05-12T16:55:35Z</time>
      </trkpt>
      <trkpt lat="45.3271" lon="5.6976">
        <ele>1338.703938196</ele>
        <time>2015-05-12T16:55:39Z</time>
      </trkpt>
      <trkpt lat="45.32709" lon="5.69752">
        <ele>1338.703938196</ele>
        <time>2015-05-12T16:55:44Z</time>
      </trkpt>
      <trkpt lat="45.32711" lon="5.69747">
        <ele>1338.862678493</ele>
        <time>2015-05-12T16:55:50Z</time>
      </trkpt>
      <trkpt lat="45.32712" lon="5.69738">
        <ele>1338.862678493</ele>
        <time>2015-05-12T16:55:55Z</time>
      </trkpt>
      <trkpt lat="45.32711" lon="5.69733">
        <ele>1338.669993105</ele>
        <time>2015-05-12T16:56:00Z</time>
      </trkpt>
      <trkpt lat="45.32707" lon="5.69726">
        <ele>1338.669993105</ele>
        <time>2015-05-12T16:56:05Z</time>
      </trkpt>
      <trkpt lat="45.32705" lon="5.69715">
        <ele>1338.00214544</ele>
        <time>2015-05-12T16:56:10Z</time>
      </trkpt>
      <trkpt lat="45.32705" lon="5.69705">
        <ele>1338.00214544</ele>
        <time>2015-05-12T16:56:15Z</time>
      </trkpt>
      <trkpt lat="45.32704" lon="5.69687">
        <ele>1335.737230209</ele>
        <time>2015-05-12T16:56:20Z</time>
      </trkpt>
      <trkpt lat="45.32699" lon="5.69671">
        <ele>1333.434419449</ele>
        <time>2015-05-12T16:56:25Z</time>
      </trkpt>
      <trkpt lat="45.32697" lon="5.69656">
        <ele>1330.953403876</ele>
        <time>2015-05-12T16:56:30Z</time>
      </trkpt>
      <trkpt lat="45.32694" lon="5.69639">
        <ele>1328.741282986</ele>
        <time>2015-05-12T16:56:35Z</time>
      </trkpt>
      <trkpt lat="45.3269" lon="5.69625">
        <ele>1326.058809704</ele>
        <time>2015-05-12T16:56:40Z</time>
      </trkpt>
      <trkpt lat="45.32688" lon="5.69614">
        <ele>1326.058809704</ele>
        <time>2015-05-12T16:56:44Z</time>
      </trkpt>
      <trkpt lat="45.32691" lon="5.69594">
        <ele>1323.375375128</ele>
        <time>2015-05-12T16:56:50Z</time>
      </trkpt>
      <trkpt lat="45.32692" lon="5.69577">
        <ele>1321.270112851</ele>
        <time>2015-05-12T16:56:55Z</time>
      </trkpt>
      <trkpt lat="45.32696" lon="5.69562">
        <ele>1320.133978178</ele>
        <time>2015-05-12T16:57:00Z</time>
      </trkpt>
      <trkpt lat="45.32697" lon="5.69548">
        <ele>1319.317798701</ele>
        <time>2015-05-12T16:57:05Z</time>
      </trkpt>
      <trkpt lat="45.32696" lon="5.69533">
        <ele>1317.931052278</ele>
        <time>2015-05-12T16:57:10Z</time>
      </trkpt>
      <trkpt lat="45.32704" lon="5.69526">
        <ele>1317.931052278</ele>
        <time>2015-05-12T16:57:15Z</time>
      </trkpt>
      <trkpt lat="45.32707" lon="5.69512">
        <ele>1316.735536811</ele>
        <time>2015-05-12T16:57:20Z</time>
      </trkpt>
      <trkpt lat="45.32705" lon="5.695">
        <ele>1316.735536811</ele>
        <time>2015-05-12T16:57:25Z</time>
      </trkpt>
      <trkpt lat="45.32708" lon="5.69487">
        <ele>1316.00429724</ele>
        <time>2015-05-12T16:57:30Z</time>
      </trkpt>
      <trkpt lat="45.32711" lon="5.69475">
        <ele>1315.124428338</ele>
        <time>2015-05-12T16:57:35Z</time>
      </trkpt>
      <trkpt lat="45.32713" lon="5.69462">
        <ele>1315.124428338</ele>
        <time>2015-05-12T16:57:40Z</time>
      </trkpt>
      <trkpt lat="45.3271" lon="5.69448">
        <ele>1314.249097291</ele>
        <time>2015-05-12T16:57:45Z</time>
      </trkpt>
      <trkpt lat="45.32712" lon="5.69434">
        <ele>1313.952617187</ele>
        <time>2015-05-12T16:57:49Z</time>
      </trkpt>
      <trkpt lat="45.32714" lon="5.69425">
        <ele>1313.952617187</ele>
        <time>2015-05-12T16:57:54Z</time>
      </trkpt>
      <trkpt lat="45.32716" lon="5.69416">
        <ele>1313.324454588</ele>
        <time>2015-05-12T16:58:00Z</time>
      </trkpt>
      <trkpt lat="45.32713" lon="5.69411">
        <ele>1313.324454588</ele>
        <time>2015-05-12T16:58:05Z</time>
      </trkpt>
      <trkpt lat="45.32712" lon="5.69405">
        <ele>1313.324454588</ele>
        <time>2015-05-12T16:58:10Z</time>
      </trkpt>
      <trkpt lat="45.32709" lon="5.69398">
        <ele>1311.810193487</ele>
        <time>2015-05-12T16:58:15Z</time>
      </trkpt>
      <trkpt lat="45.32708" lon="5.69394">
        <ele>1311.810193487</ele>
        <time>2015-05-12T16:58:20Z</time>
      </trkpt>
      <trkpt lat="45.32705" lon="5.69389">
        <ele>1311.810193487</ele>
        <time>2015-05-12T16:58:25Z</time>
      </trkpt>
      <trkpt lat="45.32702" lon="5.6938">
        <ele>1310.051595769</ele>
        <time>2015-05-12T16:58:30Z</time>
      </trkpt>
      <trkpt lat="45.32698" lon="5.69374">
        <ele>1310.051595769</ele>
        <time>2015-05-12T16:58:35Z</time>
      </trkpt>
      <trkpt lat="45.32695" lon="5.69369">
        <ele>1308.499926431</ele>
        <time>2015-05-12T16:58:40Z</time>
      </trkpt>
      <trkpt lat="45.3269" lon="5.69364">
        <ele>1308.499926431</ele>
        <time>2015-05-12T16:58:45Z</time>
      </trkpt>
      <trkpt lat="45.32689" lon="5.69351">
        <ele>1306.131673694</ele>
        <time>2015-05-12T16:58:50Z</time>
      </trkpt>
      <trkpt lat="45.32686" lon="5.69341">
        <ele>1306.131673694</ele>
        <time>2015-05-12T16:58:55Z</time>
      </trkpt>
      <trkpt lat="45.32685" lon="5.69329">
        <ele>1303.297858594</ele>
        <time>2015-05-12T16:59:00Z</time>
      </trkpt>
      <trkpt lat="45.32685" lon="5.69314">
        <ele>1300.469176888</ele>
        <time>2015-05-12T16:59:05Z</time>
      </trkpt>
      <trkpt lat="45.32686" lon="5.69301">
        <ele>1300.469176888</ele>
        <time>2015-05-12T16:59:10Z</time>
      </trkpt>
      <trkpt lat="45.32683" lon="5.69292">
        <ele>1297.217095259</ele>
        <time>2015-05-12T16:59:15Z</time>
      </trkpt>
      <trkpt lat="45.3268" lon="5.69281">
        <ele>1297.217095259</ele>
        <time>2015-05-12T16:59:20Z</time>
      </trkpt>
      <trkpt lat="45.32674" lon="5.69273">
        <ele>1294.586874497</ele>
        <time>2015-05-12T16:59:25Z</time>
      </trkpt>
      <trkpt lat="45.32673" lon="5.69262">
        <ele>1294.586874497</ele>
        <time>2015-05-12T16:59:30Z</time>
      </trkpt>
      <trkpt lat="45.32673" lon="5.69248">
        <ele>1291.527690357</ele>
        <time>2015-05-12T16:59:35Z</time>
      </trkpt>
      <trkpt lat="45.32671" lon="5.6923">
        <ele>1288.652324251</ele>
        <time>2015-05-12T16:59:40Z</time>
      </trkpt>
      <trkpt lat="45.32666" lon="5.69215">
        <ele>1285.951557111</ele>
        <time>2015-05-12T16:59:45Z</time>
      </trkpt>
      <trkpt lat="45.32668" lon="5.69219">
        <ele>1285.951557111</ele>
        <time>2015-05-12T16:59:50Z</time>
      </trkpt>
      <trkpt lat="45.32665" lon="5.69225">
        <ele>1283.128098654</ele>
        <time>2015-05-12T16:59:55Z</time>
      </trkpt>
      <trkpt lat="45.32662" lon="5.69236">
        <ele>1283.128098654</ele>
        <time>2015-05-12T17:00:00Z</time>
      </trkpt>
      <trkpt lat="45.32658" lon="5.69244">
        <ele>1280.915574653</ele>
        <time>2015-05-12T17:00:05Z</time>
      </trkpt>
      <trkpt lat="45.32658" lon="5.69257">
        <ele>1278.406730118</ele>
        <time>2015-05-12T17:00:10Z</time>
      </trkpt>
      <trkpt lat="45.32658" lon="5.69268">
        <ele>1278.406730118</ele>
        <time>2015-05-12T17:00:15Z</time>
      </trkpt>
      <trkpt lat="45.32658" lon="5.69282">
        <ele>1275.338173337</ele>
        <time>2015-05-12T17:00:20Z</time>
      </trkpt>
      <trkpt lat="45.32655" lon="5.69292">
        <ele>1275.338173337</ele>
        <time>2015-05-12T17:00:25Z</time>
      </trkpt>
      <trkpt lat="45.32654" lon="5.69307">
        <ele>1272.476144487</ele>
        <time>2015-05-12T17:00:30Z</time>
      </trkpt>
      <trkpt lat="45.32648" lon="5.69316">
        <ele>1272.476144487</ele>
        <time>2015-05-12T17:00:35Z</time>
      </trkpt>
      <trkpt lat="45.32648" lon="5.69327">
        <ele>1269.809390338</ele>
        <time>2015-05-12T17:00:40Z</time>
      </trkpt>
      <trkpt lat="45.3265" lon="5.6934">
        <ele>1267.759194637</ele>
        <time>2015-05-12T17:00:45Z</time>
      </trkpt>
      <trkpt lat="45.32648" lon="5.69358">
        <ele>1266.137641688</ele>
        <time>2015-05-12T17:00:50Z</time>
      </trkpt>
      <trkpt lat="45.32643" lon="5.69365">
        <ele>1266.137641688</ele>
        <time>2015-05-12T17:00:55Z</time>
      </trkpt>
      <trkpt lat="45.32641" lon="5.69376">
        <ele>1265.057563313</ele>
        <time>2015-05-12T17:01:00Z</time>
      </trkpt>
      <trkpt lat="45.32638" lon="5.69388">
        <ele>1265.057563313</ele>
        <time>2015-05-12T17:01:04Z</time>
      </trkpt>
      <trkpt lat="45.32634" lon="5.69395">
        <ele>1263.90135589</ele>
        <time>2015-05-12T17:01:09Z</time>
      </trkpt>
      <trkpt lat="45.32633" lon="5.69401">
        <ele>1263.90135589</ele>
        <time>2015-05-12T17:01:14Z</time>
      </trkpt>
      <trkpt lat="45.32632" lon="5.69404">
        <ele>1263.90135589</ele>
        <time>2015-05-12T17:01:19Z</time>
      </trkpt>
      <trkpt lat="45.32632" lon="5.69416">
        <ele>1262.241043441</ele>
        <time>2015-05-12T17:01:24Z</time>
      </trkpt>
      <trkpt lat="45.32625" lon="5.6943">
        <ele>1260.978445043</ele>
        <time>2015-05-12T17:01:30Z</time>
      </trkpt>
      <trkpt lat="45.32621" lon="5.69439">
        <ele>1260.978445043</ele>
        <time>2015-05-12T17:01:35Z</time>
      </trkpt>
      <trkpt lat="45.32619" lon="5.69455">
        <ele>1259.650965003</ele>
        <time>2015-05-12T17:01:40Z</time>
      </trkpt>
      <trkpt lat="45.32616" lon="5.69471">
        <ele>1258.55068265</ele>
        <time>2015-05-12T17:01:44Z</time>
      </trkpt>
      <trkpt lat="45.32613" lon="5.69487">
        <ele>1257.082878056</ele>
        <time>2015-05-12T17:01:50Z</time>
      </trkpt>
      <trkpt lat="45.3261" lon="5.69494">
        <ele>1257.082878056</ele>
        <time>2015-05-12T17:01:55Z</time>
      </trkpt>
      <trkpt lat="45.32603" lon="5.69505">
        <ele>1255.418072605</ele>
        <time>2015-05-12T17:02:00Z</time>
      </trkpt>
      <trkpt lat="45.32599" lon="5.69514">
        <ele>1255.418072605</ele>
        <time>2015-05-12T17:02:05Z</time>
      </trkpt>
      <trkpt lat="45.32595" lon="5.69522">
        <ele>1252.706005271</ele>
        <time>2015-05-12T17:02:10Z</time>
      </trkpt>
      <trkpt lat="45.32589" lon="5.69527">
        <ele>1252.706005271</ele>
        <time>2015-05-12T17:02:15Z</time>
      </trkpt>
      <trkpt lat="45.32578" lon="5.69528">
        <ele>1249.60289353</ele>
        <time>2015-05-12T17:02:20Z</time>
      </trkpt>
      <trkpt lat="45.32573" lon="5.69524">
        <ele>1249.60289353</ele>
        <time>2015-05-12T17:02:25Z</time>
      </trkpt>
      <trkpt lat="45.32571" lon="5.69523">
        <ele>1249.60289353</ele>
        <time>2015-05-12T17:02:29Z</time>
      </trkpt>
      <trkpt lat="45.32571" lon="5.69518">
        <ele>1246.429589651</ele>
        <time>2015-05-12T17:02:34Z</time>
      </trkpt>
      <trkpt lat="45.32562" lon="5.69505">
        <ele>1243.195309569</ele>
        <time>2015-05-12T17:02:40Z</time>
      </trkpt>
      <trkpt lat="45.32559" lon="5.69497">
        <ele>1243.195309569</ele>
        <time>2015-05-12T17:02:45Z</time>
      </trkpt>
      <trkpt lat="45.32555" lon="5.69488">
        <ele>1239.476379088</ele>
        <time>2015-05-12T17:02:50Z</time>
      </trkpt>
      <trkpt lat="45.32548" lon="5.69481">
        <ele>1239.476379088</ele>
        <time>2015-05-12T17:02:55Z</time>
      </trkpt>
      <trkpt lat="45.32541" lon="5.69477">
        <ele>1237.04321552</ele>
        <time>2015-05-12T17:03:00Z</time>
      </trkpt>
      <trkpt lat="45.32537" lon="5.69467">
        <ele>1237.04321552</ele>
        <time>2015-05-12T17:03:05Z</time>
      </trkpt>
      <trkpt lat="45.32531" lon="5.69464">
        <ele>1236.091401419</ele>
        <time>2015-05-12T17:03:10Z</time>
      </trkpt>
      <trkpt lat="45.32528" lon="5.69461">
        <ele>1236.091401419</ele>
        <time>2015-05-12T17:03:15Z</time>
      </trkpt>
      <trkpt lat="45.32523" lon="5.69462">
        <ele>1236.365602832</ele>
        <time>2015-05-12T17:03:20Z</time>
      </trkpt>
      <trkpt lat="45.3252" lon="5.69458">
        <ele>1236.365602832</ele>
        <time>2015-05-12T17:03:25Z</time>
      </trkpt>
      <trkpt lat="45.32514" lon="5.69454">
        <ele>1237.62575377</ele>
        <time>2015-05-12T17:03:30Z</time>
      </trkpt>
      <trkpt lat="45.32508" lon="5.69452">
        <ele>1237.62575377</ele>
        <time>2015-05-12T17:03:35Z</time>
      </trkpt>
      <trkpt lat="45.325" lon="5.69452">
        <ele>1239.646627928</ele>
        <time>2015-05-12T17:03:40Z</time>
      </trkpt>
      <trkpt lat="45.32495" lon="5.69446">
        <ele>1239.646627928</ele>
        <time>2015-05-12T17:03:45Z</time>
      </trkpt>
      <trkpt lat="45.3249" lon="5.69446">
        <ele>1241.785073017</ele>
        <time>2015-05-12T17:03:50Z</time>
      </trkpt>
      <trkpt lat="45.32486" lon="5.69442">
        <ele>1241.785073017</ele>
        <time>2015-05-12T17:03:55Z</time>
      </trkpt>
      <trkpt lat="45.3248" lon="5.69442">
        <ele>1244.309546256</ele>
        <time>2015-05-12T17:04:00Z</time>
      </trkpt>
      <trkpt lat="45.32473" lon="5.69439">
        <ele>1244.309546256</ele>
        <time>2015-05-12T17:04:05Z</time>
      </trkpt>
      <trkpt lat="45.32471" lon="5.69434">
        <ele>1247.467760476</ele>
        <time>2015-05-12T17:04:10Z</time>
      </trkpt>
      <trkpt lat="45.32463" lon="5.69428">
        <ele>1247.467760476</ele>
        <time>2015-05-12T17:04:15Z</time>
      </trkpt>
      <trkpt lat="45.32462" lon="5.69424">
        <ele>1250.622878831</ele>
        <time>2015-05-12T17:04:19Z</time>
      </trkpt>
      <trkpt lat="45.32462" lon="5.69418">
        <ele>1250.622878831</ele>
        <time>2015-05-12T17:04:24Z</time>
      </trkpt>
      <trkpt lat="45.32451" lon="5.69413">
        <ele>1254.049646488</ele>
        <time>2015-05-12T17:04:30Z</time>
      </trkpt>
      <trkpt lat="45.32445" lon="5.69411">
        <ele>1254.049646488</ele>
        <time>2015-05-12T17:04:35Z</time>
      </trkpt>
      <trkpt lat="45.3244" lon="5.69408">
        <ele>1257.425575806</ele>
        <time>2015-05-12T17:04:40Z</time>
      </trkpt>
      <trkpt lat="45.32437" lon="5.69402">
        <ele>1257.425575806</ele>
        <time>2015-05-12T17:04:45Z</time>
      </trkpt>
      <trkpt lat="45.32432" lon="5.69398">
        <ele>1260.59630916</ele>
        <time>2015-05-12T17:04:50Z</time>
      </trkpt>
      <trkpt lat="45.32431" lon="5.69389">
        <ele>1260.59630916</ele>
        <time>2015-05-12T17:04:54Z</time>
      </trkpt>
      <trkpt lat="45.32424" lon="5.69382">
        <ele>1263.707839552</ele>
        <time>2015-05-12T17:05:00Z</time>
      </trkpt>
      <trkpt lat="45.32418" lon="5.69372">
        <ele>1266.031170979</ele>
        <time>2015-05-12T17:05:05Z</time>
      </trkpt>
      <trkpt lat="45.32414" lon="5.69362">
        <ele>1266.031170979</ele>
        <time>2015-05-12T17:05:10Z</time>
      </trkpt>
      <trkpt lat="45.32409" lon="5.69354">
        <ele>1268.190325588</ele>
        <time>2015-05-12T17:05:15Z</time>
      </trkpt>
      <trkpt lat="45.32405" lon="5.69346">
        <ele>1268.190325588</ele>
        <time>2015-05-12T17:05:20Z</time>
      </trkpt>
      <trkpt lat="45.32401" lon="5.69333">
        <ele>1269.899546937</ele>
        <time>2015-05-12T17:05:25Z</time>
      </trkpt>
      <trkpt lat="45.32397" lon="5.69322">
        <ele>1269.899546937</ele>
        <time>2015-05-12T17:05:30Z</time>
      </trkpt>
      <trkpt lat="45.32392" lon="5.69311">
        <ele>1272.336722172</ele>
        <time>2015-05-12T17:05:35Z</time>
      </trkpt>
      <trkpt lat="45.32384" lon="5.69302">
        <ele>1274.718009519</ele>
        <time>2015-05-12T17:05:40Z</time>
      </trkpt>
      <trkpt lat="45.32376" lon="5.69293">
        <ele>1277.182262882</ele>
        <time>2015-05-12T17:05:45Z</time>
      </trkpt>
      <trkpt lat="45.32373" lon="5.6928">
        <ele>1279.281754914</ele>
        <time>2015-05-12T17:05:50Z</time>
      </trkpt>
      <trkpt lat="45.32373" lon="5.69269">
        <ele>1279.281754914</ele>
        <time>2015-05-12T17:05:55Z</time>
      </trkpt>
      <trkpt lat="45.32368" lon="5.69262">
        <ele>1280.747081883</ele>
        <time>2015-05-12T17:06:00Z</time>
      </trkpt>
      <trkpt lat="45.32363" lon="5.69251">
        <ele>1282.195376155</ele>
        <time>2015-05-12T17:06:05Z</time>
      </trkpt>
      <trkpt lat="45.32361" lon="5.6924">
        <ele>1282.195376155</ele>
        <time>2015-05-12T17:06:10Z</time>
      </trkpt>
      <trkpt lat="45.32358" lon="5.69231">
        <ele>1283.334113549</ele>
        <time>2015-05-12T17:06:15Z</time>
      </trkpt>
      <trkpt lat="45.32358" lon="5.6922">
        <ele>1283.334113549</ele>
        <time>2015-05-12T17:06:20Z</time>
      </trkpt>
      <trkpt lat="45.32354" lon="5.69214">
        <ele>1284.758085413</ele>
        <time>2015-05-12T17:06:25Z</time>
      </trkpt>
      <trkpt lat="45.32352" lon="5.69207">
        <ele>1284.758085413</ele>
        <time>2015-05-12T17:06:30Z</time>
      </trkpt>
      <trkpt lat="45.32344" lon="5.69203">
        <ele>1286.153207349</ele>
        <time>2015-05-12T17:06:35Z</time>
      </trkpt>
      <trkpt lat="45.32345" lon="5.69194">
        <ele>1286.153207349</ele>
        <time>2015-05-12T17:06:40Z</time>
      </trkpt>
      <trkpt lat="45.32341" lon="5.69185">
        <ele>1287.372936182</ele>
        <time>2015-05-12T17:06:45Z</time>
      </trkpt>
      <trkpt lat="45.3234" lon="5.69175">
        <ele>1287.372936182</ele>
        <time>2015-05-12T17:06:50Z</time>
      </trkpt>
      <trkpt lat="45.32334" lon="5.69167">
        <ele>1289.435145063</ele>
        <time>2015-05-12T17:06:55Z</time>
      </trkpt>
      <trkpt lat="45.3233" lon="5.69157">
        <ele>1289.435145063</ele>
        <time>2015-05-12T17:07:00Z</time>
      </trkpt>
      <trkpt lat="45.3233" lon="5.69147">
        <ele>1291.695612969</ele>
        <time>2015-05-12T17:07:05Z</time>
      </trkpt>
      <trkpt lat="45.32328" lon="5.69136">
        <ele>1291.695612969</ele>
        <time>2015-05-12T17:07:10Z</time>
      </trkpt>
      <trkpt lat="45.32323" lon="5.69124">
        <ele>1293.701257635</ele>
        <time>2015-05-12T17:07:15Z</time>
      </trkpt>
      <trkpt lat="45.32317" lon="5.69116">
        <ele>1293.701257635</ele>
        <time>2015-05-12T17:07:20Z</time>
      </trkpt>
      <trkpt lat="45.32311" lon="5.69108">
        <ele>1295.89791813</ele>
        <time>2015-05-12T17:07:25Z</time>
      </trkpt>
      <trkpt lat="45.32309" lon="5.69102">
        <ele>1295.89791813</ele>
        <time>2015-05-12T17:07:29Z</time>
      </trkpt>
      <trkpt lat="45.32311" lon="5.69095">
        <ele>1297.545510028</ele>
        <time>2015-05-12T17:07:34Z</time>
      </trkpt>
      <trkpt lat="45.323" lon="5.69091">
        <ele>1299.257104126</ele>
        <time>2015-05-12T17:07:40Z</time>
      </trkpt>
      <trkpt lat="45.32295" lon="5.69088">
        <ele>1299.257104126</ele>
        <time>2015-05-12T17:07:45Z</time>
      </trkpt>
      <trkpt lat="45.32292" lon="5.69082">
        <ele>1301.600799281</ele>
        <time>2015-05-12T17:07:50Z</time>
      </trkpt>
      <trkpt lat="45.32284" lon="5.69079">
        <ele>1301.600799281</ele>
        <time>2015-05-12T17:07:54Z</time>
      </trkpt>
      <trkpt lat="45.3228" lon="5.69072">
        <ele>1304.524983625</ele>
        <time>2015-05-12T17:08:00Z</time>
      </trkpt>
      <trkpt lat="45.32272" lon="5.69068">
        <ele>1304.524983625</ele>
        <time>2015-05-12T17:08:05Z</time>
      </trkpt>
      <trkpt lat="45.32265" lon="5.69063">
        <ele>1306.971665605</ele>
        <time>2015-05-12T17:08:10Z</time>
      </trkpt>
      <trkpt lat="45.32266" lon="5.69062">
        <ele>1306.971665605</ele>
        <time>2015-05-12T17:08:15Z</time>
      </trkpt>
      <trkpt lat="45.32265" lon="5.69061">
        <ele>1306.971665605</ele>
        <time>2015-05-12T17:08:20Z</time>
      </trkpt>
      <trkpt lat="45.32258" lon="5.69063">
        <ele>1308.970923224</ele>
        <time>2015-05-12T17:08:25Z</time>
      </trkpt>
      <trkpt lat="45.32251" lon="5.69068">
        <ele>1308.970923224</ele>
        <time>2015-05-12T17:08:30Z</time>
      </trkpt>
      <trkpt lat="45.32243" lon="5.69065">
        <ele>1310.552108661</ele>
        <time>2015-05-12T17:08:35Z</time>
      </trkpt>
      <trkpt lat="45.32234" lon="5.69057">
        <ele>1312.320258309</ele>
        <time>2015-05-12T17:08:40Z</time>
      </trkpt>
      <trkpt lat="45.32229" lon="5.69061">
        <ele>1312.320258309</ele>
        <time>2015-05-12T17:08:45Z</time>
      </trkpt>
      <trkpt lat="45.32218" lon="5.69065">
        <ele>1313.250429094</ele>
        <time>2015-05-12T17:08:50Z</time>
      </trkpt>
      <trkpt lat="45.32212" lon="5.69069">
        <ele>1313.250429094</ele>
        <time>2015-05-12T17:08:55Z</time>
      </trkpt>
      <trkpt lat="45.32207" lon="5.69073">
        <ele>1314.845413331</ele>
        <time>2015-05-12T17:09:00Z</time>
      </trkpt>
      <trkpt lat="45.32201" lon="5.69077">
        <ele>1314.845413331</ele>
        <time>2015-05-12T17:09:05Z</time>
      </trkpt>
      <trkpt lat="45.32198" lon="5.69085">
        <ele>1316.766602474</ele>
        <time>2015-05-12T17:09:10Z</time>
      </trkpt>
      <trkpt lat="45.32196" lon="5.69091">
        <ele>1316.766602474</ele>
        <time>2015-05-12T17:09:15Z</time>
      </trkpt>
      <trkpt lat="45.32193" lon="5.69091">
        <ele>1316.766602474</ele>
        <time>2015-05-12T17:09:20Z</time>
      </trkpt>
      <trkpt lat="45.32185" lon="5.6909">
        <ele>1318.267194943</ele>
        <time>2015-05-12T17:09:25Z</time>
      </trkpt>
      <trkpt lat="45.32183" lon="5.69089">
        <ele>1318.267194943</ele>
        <time>2015-05-12T17:09:30Z</time>
      </trkpt>
      <trkpt lat="45.32178" lon="5.69094">
        <ele>1318.267194943</ele>
        <time>2015-05-12T17:09:35Z</time>
      </trkpt>
      <trkpt lat="45.32174" lon="5.691">
        <ele>1320.241823665</ele>
        <time>2015-05-12T17:09:40Z</time>
      </trkpt>
      <trkpt lat="45.32169" lon="5.69102">
        <ele>1320.241823665</ele>
        <time>2015-05-12T17:09:45Z</time>
      </trkpt>
      <trkpt lat="45.32166" lon="5.69109">
        <ele>1322.365347763</ele>
        <time>2015-05-12T17:09:50Z</time>
      </trkpt>
      <trkpt lat="45.32166" lon="5.69113">
        <ele>1322.365347763</ele>
        <time>2015-05-12T17:09:55Z</time>
      </trkpt>
      <trkpt lat="45.32161" lon="5.69112">
        <ele>1322.365347763</ele>
        <time>2015-05-12T17:10:00Z</time>
      </trkpt>
      <trkpt lat="45.32154" lon="5.6911">
        <ele>1324.91269651</ele>
        <time>2015-05-12T17:10:05Z</time>
      </trkpt>
      <trkpt lat="45.32144" lon="5.69111">
        <ele>1326.552343399</ele>
        <time>2015-05-12T17:10:10Z</time>
      </trkpt>
      <trkpt lat="45.32136" lon="5.69112">
        <ele>1326.552343399</ele>
        <time>2015-05-12T17:10:15Z</time>
      </trkpt>
      <trkpt lat="45.3213" lon="5.6911">
        <ele>1328.935492459</ele>
        <time>2015-05-12T17:10:20Z</time>
      </trkpt>
      <trkpt lat="45.3212" lon="5.69109">
        <ele>1330.851995818</ele>
        <time>2015-05-12T17:10:25Z</time>
      </trkpt>
      <trkpt lat="45.32113" lon="5.69109">
        <ele>1330.851995818</ele>
        <time>2015-05-12T17:10:30Z</time>
      </trkpt>
      <trkpt lat="45.32105" lon="5.69107">
        <ele>1332.91138259</ele>
        <time>2015-05-12T17:10:35Z</time>
      </trkpt>
      <trkpt lat="45.32093" lon="5.69113">
        <ele>1334.092912365</ele>
        <time>2015-05-12T17:10:40Z</time>
      </trkpt>
      <trkpt lat="45.32087" lon="5.6912">
        <ele>1334.092912365</ele>
        <time>2015-05-12T17:10:44Z</time>
      </trkpt>
      <trkpt lat="45.32081" lon="5.69119">
        <ele>1335.903303071</ele>
        <time>2015-05-12T17:10:50Z</time>
      </trkpt>
      <trkpt lat="45.32075" lon="5.69116">
        <ele>1335.903303071</ele>
        <time>2015-05-12T17:10:55Z</time>
      </trkpt>
      <trkpt lat="45.32067" lon="5.6912">
        <ele>1338.728164278</ele>
        <time>2015-05-12T17:11:00Z</time>
      </trkpt>
      <trkpt lat="45.32064" lon="5.69119">
        <ele>1338.728164278</ele>
        <time>2015-05-12T17:11:05Z</time>
      </trkpt>
      <trkpt lat="45.32054" lon="5.69123">
        <ele>1340.328041372</ele>
        <time>2015-05-12T17:11:10Z</time>
      </trkpt>
      <trkpt lat="45.32045" lon="5.69128">
        <ele>1341.65786209</ele>
        <time>2015-05-12T17:11:15Z</time>
      </trkpt>
      <trkpt lat="45.32039" lon="5.69125">
        <ele>1341.65786209</ele>
        <time>2015-05-12T17:11:19Z</time>
      </trkpt>
      <trkpt lat="45.32038" lon="5.69125">
        <ele>1341.65786209</ele>
        <time>2015-05-12T17:11:24Z</time>
      </trkpt>
      <trkpt lat="45.32037" lon="5.69125">
        <ele>1341.65786209</ele>
        <time>2015-05-12T17:11:29Z</time>
      </trkpt>
      <trkpt lat="45.32037" lon="5.69124">
        <ele>1341.65786209</ele>
        <time>2015-05-12T17:11:34Z</time>
      </trkpt>
      <trkpt lat="45.32037" lon="5.69124">
        <ele>1341.65786209</ele>
        <time>2015-05-12T17:11:39Z</time>
      </trkpt>
      <trkpt lat="45.32037" lon="5.69124">
        <ele>1341.65786209</ele>
        <time>2015-05-12T17:11:44Z</time>
      </trkpt>
      <trkpt lat="45.32037" lon="5.69124">
        <ele>1341.65786209</ele>
        <time>2015-05-12T17:11:49Z</time>
      </trkpt>
      <trkpt lat="45.32034" lon="5.69128">
        <ele>1344.035594306</ele>
        <time>2015-05-12T17:11:54Z</time>
      </trkpt>
      <trkpt lat="45.32028" lon="5.6913">
        <ele>1344.035594306</ele>
        <time>2015-05-12T17:11:59Z</time>
      </trkpt>
      <trkpt lat="45.32022" lon="5.69132">
        <ele>1346.085539901</ele>
        <time>2015-05-12T17:12:04Z</time>
      </trkpt>
      <trkpt lat="45.3202" lon="5.69134">
        <ele>1346.085539901</ele>
        <time>2015-05-12T17:12:09Z</time>
      </trkpt>
      <trkpt lat="45.3202" lon="5.69139">
        <ele>1346.085539901</ele>
        <time>2015-05-12T17:12:14Z</time>
      </trkpt>
      <trkpt lat="45.32017" lon="5.69139">
        <ele>1348.983955472</ele>
        <time>2015-05-12T17:12:19Z</time>
      </trkpt>
      <trkpt lat="45.32012" lon="5.69141">
        <ele>1348.983955472</ele>
        <time>2015-05-12T17:12:25Z</time>
      </trkpt>
      <trkpt lat="45.32012" lon="5.69146">
        <ele>1348.983955472</ele>
        <time>2015-05-12T17:12:29Z</time>
      </trkpt>
      <trkpt lat="45.32003" lon="5.69149">
        <ele>1352.233173216</ele>
        <time>2015-05-12T17:12:34Z</time>
      </trkpt>
      <trkpt lat="45.32" lon="5.69154">
        <ele>1352.233173216</ele>
        <time>2015-05-12T17:12:39Z</time>
      </trkpt>
      <trkpt lat="45.31996" lon="5.69156">
        <ele>1355.659409254</ele>
        <time>2015-05-12T17:12:44Z</time>
      </trkpt>
      <trkpt lat="45.31994" lon="5.6916">
        <ele>1355.659409254</ele>
        <time>2015-05-12T17:12:49Z</time>
      </trkpt>
      <trkpt lat="45.31988" lon="5.69163">
        <ele>1358.524794216</ele>
        <time>2015-05-12T17:12:54Z</time>
      </trkpt>
      <trkpt lat="45.31982" lon="5.69165">
        <ele>1358.524794216</ele>
        <time>2015-05-12T17:12:59Z</time>
      </trkpt>
      <trkpt lat="45.31976" lon="5.69164">
        <ele>1361.444329237</ele>
        <time>2015-05-12T17:13:04Z</time>
      </trkpt>
      <trkpt lat="45.31977" lon="5.69166">
        <ele>1361.444329237</ele>
        <time>2015-05-12T17:13:09Z</time>
      </trkpt>
      <trkpt lat="45.31975" lon="5.69167">
        <ele>1361.444329237</ele>
        <time>2015-05-12T17:13:14Z</time>
      </trkpt>
      <trkpt lat="45.31968" lon="5.69169">
        <ele>1364.699560072</ele>
        <time>2015-05-12T17:13:20Z</time>
      </trkpt>
      <trkpt lat="45.31962" lon="5.6917">
        <ele>1364.699560072</ele>
        <time>2015-05-12T17:13:24Z</time>
      </trkpt>
      <trkpt lat="45.3196" lon="5.69174">
        <ele>1367.541728592</ele>
        <time>2015-05-12T17:13:29Z</time>
      </trkpt>
      <trkpt lat="45.31956" lon="5.69173">
        <ele>1367.541728592</ele>
        <time>2015-05-12T17:13:34Z</time>
      </trkpt>
      <trkpt lat="45.31954" lon="5.6917">
        <ele>1367.541728592</ele>
        <time>2015-05-12T17:13:39Z</time>
      </trkpt>
      <trkpt lat="45.31953" lon="5.6917">
        <ele>1367.541728592</ele>
        <time>2015-05-12T17:13:44Z</time>
      </trkpt>
      <trkpt lat="45.31952" lon="5.6917">
        <ele>1370.575338542</ele>
        <time>2015-05-12T17:13:49Z</time>
      </trkpt>
      <trkpt lat="45.31952" lon="5.6917">
        <ele>1370.575338542</ele>
        <time>2015-05-12T17:13:54Z</time>
      </trkpt>
      <trkpt lat="45.31952" lon="5.69173">
        <ele>1370.575338542</ele>
        <time>2015-05-12T17:13:59Z</time>
      </trkpt>
      <trkpt lat="45.31949" lon="5.69181">
        <ele>1370.575338542</ele>
        <time>2015-05-12T17:14:04Z</time>
      </trkpt>
      <trkpt lat="45.31948" lon="5.69182">
        <ele>1373.495383077</ele>
        <time>2015-05-12T17:14:09Z</time>
      </trkpt>
      <trkpt lat="45.31945" lon="5.69191">
        <ele>1373.495383077</ele>
        <time>2015-05-12T17:14:15Z</time>
      </trkpt>
      <trkpt lat="45.31947" lon="5.69199">
        <ele>1375.875567585</ele>
        <time>2015-05-12T17:14:20Z</time>
      </trkpt>
      <trkpt lat="45.31946" lon="5.69198">
        <ele>1375.875567585</ele>
        <time>2015-05-12T17:14:24Z</time>
      </trkpt>
      <trkpt lat="45.31945" lon="5.69204">
        <ele>1375.875567585</ele>
        <time>2015-05-12T17:14:30Z</time>
      </trkpt>
      <trkpt lat="45.31941" lon="5.69212">
        <ele>1378.907748292</ele>
        <time>2015-05-12T17:14:35Z</time>
      </trkpt>
      <trkpt lat="45.3194" lon="5.69213">
        <ele>1378.907748292</ele>
        <time>2015-05-12T17:14:40Z</time>
      </trkpt>
      <trkpt lat="45.31939" lon="5.69218">
        <ele>1378.907748292</ele>
        <time>2015-05-12T17:14:45Z</time>
      </trkpt>
      <trkpt lat="45.31933" lon="5.69225">
        <ele>1382.397496389</ele>
        <time>2015-05-12T17:14:50Z</time>
      </trkpt>
      <trkpt lat="45.31933" lon="5.69234">
        <ele>1382.397496389</ele>
        <time>2015-05-12T17:14:55Z</time>
      </trkpt>
      <trkpt lat="45.31925" lon="5.69237">
        <ele>1385.298811469</ele>
        <time>2015-05-12T17:15:00Z</time>
      </trkpt>
      <trkpt lat="45.31921" lon="5.69241">
        <ele>1385.298811469</ele>
        <time>2015-05-12T17:15:05Z</time>
      </trkpt>
      <trkpt lat="45.31916" lon="5.69239">
        <ele>1389.094169541</ele>
        <time>2015-05-12T17:15:10Z</time>
      </trkpt>
      <trkpt lat="45.31914" lon="5.69249">
        <ele>1389.094169541</ele>
        <time>2015-05-12T17:15:15Z</time>
      </trkpt>
      <trkpt lat="45.31908" lon="5.69255">
        <ele>1392.272511944</ele>
        <time>2015-05-12T17:15:20Z</time>
      </trkpt>
      <trkpt lat="45.31905" lon="5.69261">
        <ele>1392.272511944</ele>
        <time>2015-05-12T17:15:25Z</time>
      </trkpt>
      <trkpt lat="45.31896" lon="5.6926">
        <ele>1395.885502838</ele>
        <time>2015-05-12T17:15:30Z</time>
      </trkpt>
      <trkpt lat="45.31891" lon="5.69267">
        <ele>1395.885502838</ele>
        <time>2015-05-12T17:15:35Z</time>
      </trkpt>
      <trkpt lat="45.31887" lon="5.69273">
        <ele>1399.46532322</ele>
        <time>2015-05-12T17:15:40Z</time>
      </trkpt>
      <trkpt lat="45.31878" lon="5.69269">
        <ele>1402.578716708</ele>
        <time>2015-05-12T17:15:45Z</time>
      </trkpt>
      <trkpt lat="45.31873" lon="5.69271">
        <ele>1402.578716708</ele>
        <time>2015-05-12T17:15:50Z</time>
      </trkpt>
      <trkpt lat="45.31867" lon="5.69272">
        <ele>1404.969776256</ele>
        <time>2015-05-12T17:15:55Z</time>
      </trkpt>
      <trkpt lat="45.3186" lon="5.69275">
        <ele>1404.969776256</ele>
        <time>2015-05-12T17:16:00Z</time>
      </trkpt>
      <trkpt lat="45.31859" lon="5.69273">
        <ele>1407.412298579</ele>
        <time>2015-05-12T17:16:05Z</time>
      </trkpt>
      <trkpt lat="45.31852" lon="5.6927">
        <ele>1407.412298579</ele>
        <time>2015-05-12T17:16:10Z</time>
      </trkpt>
      <trkpt lat="45.31844" lon="5.6927">
        <ele>1410.046744514</ele>
        <time>2015-05-12T17:16:15Z</time>
      </trkpt>
      <trkpt lat="45.31838" lon="5.69263">
        <ele>1410.046744514</ele>
        <time>2015-05-12T17:16:20Z</time>
      </trkpt>
      <trkpt lat="45.31831" lon="5.69262">
        <ele>1411.994028467</ele>
        <time>2015-05-12T17:16:25Z</time>
      </trkpt>
      <trkpt lat="45.31823" lon="5.69264">
        <ele>1411.994028467</ele>
        <time>2015-05-12T17:16:30Z</time>
      </trkpt>
      <trkpt lat="45.31821" lon="5.69252">
        <ele>1414.315095178</ele>
        <time>2015-05-12T17:16:35Z</time>
      </trkpt>
      <trkpt lat="45.31818" lon="5.69248">
        <ele>1414.315095178</ele>
        <time>2015-05-12T17:16:40Z</time>
      </trkpt>
      <trkpt lat="45.31813" lon="5.69248">
        <ele>1417.127310616</ele>
        <time>2015-05-12T17:16:44Z</time>
      </trkpt>
      <trkpt lat="45.31803" lon="5.69241">
        <ele>1419.961663304</ele>
        <time>2015-05-12T17:16:50Z</time>
      </trkpt>
      <trkpt lat="45.318" lon="5.69236">
        <ele>1419.961663304</ele>
        <time>2015-05-12T17:16:55Z</time>
      </trkpt>
      <trkpt lat="45.318" lon="5.69232">
        <ele>1419.961663304</ele>
        <time>2015-05-12T17:17:00Z</time>
      </trkpt>
      <trkpt lat="45.31797" lon="5.69225">
        <ele>1423.248262069</ele>
        <time>2015-05-12T17:17:05Z</time>
      </trkpt>
      <trkpt lat="45.31797" lon="5.69218">
        <ele>1423.248262069</ele>
        <time>2015-05-12T17:17:10Z</time>
      </trkpt>
      <trkpt lat="45.31799" lon="5.69201">
        <ele>1425.510964394</ele>
        <time>2015-05-12T17:17:15Z</time>
      </trkpt>
      <trkpt lat="45.318" lon="5.69192">
        <ele>1425.510964394</ele>
        <time>2015-05-12T17:17:20Z</time>
      </trkpt>
      <trkpt lat="45.31799" lon="5.69181">
        <ele>1427.690769572</ele>
        <time>2015-05-12T17:17:25Z</time>
      </trkpt>
      <trkpt lat="45.31791" lon="5.69175">
        <ele>1429.50694352</ele>
        <time>2015-05-12T17:17:29Z</time>
      </trkpt>
      <trkpt lat="45.31796" lon="5.69164">
        <ele>1429.50694352</ele>
        <time>2015-05-12T17:17:35Z</time>
      </trkpt>
      <trkpt lat="45.31796" lon="5.69159">
        <ele>1431.709214916</ele>
        <time>2015-05-12T17:17:39Z</time>
      </trkpt>
      <trkpt lat="45.318" lon="5.69152">
        <ele>1431.709214916</ele>
        <time>2015-05-12T17:17:45Z</time>
      </trkpt>
      <trkpt lat="45.31801" lon="5.6914">
        <ele>1433.982410464</ele>
        <time>2015-05-12T17:17:50Z</time>
      </trkpt>
      <trkpt lat="45.318" lon="5.69129">
        <ele>1433.982410464</ele>
        <time>2015-05-12T17:17:55Z</time>
      </trkpt>
      <trkpt lat="45.31801" lon="5.69119">
        <ele>1435.602002212</ele>
        <time>2015-05-12T17:18:00Z</time>
      </trkpt>
      <trkpt lat="45.31803" lon="5.69114">
        <ele>1435.602002212</ele>
        <time>2015-05-12T17:18:05Z</time>
      </trkpt>
      <trkpt lat="45.31804" lon="5.69104">
        <ele>1437.771982184</ele>
        <time>2015-05-12T17:18:10Z</time>
      </trkpt>
      <trkpt lat="45.31805" lon="5.69095">
        <ele>1437.771982184</ele>
        <time>2015-05-12T17:18:15Z</time>
      </trkpt>
      <trkpt lat="45.31803" lon="5.69095">
        <ele>1437.771982184</ele>
        <time>2015-05-12T17:18:20Z</time>
      </trkpt>
      <trkpt lat="45.31799" lon="5.69091">
        <ele>1439.588807852</ele>
        <time>2015-05-12T17:18:25Z</time>
      </trkpt>
      <trkpt lat="45.31796" lon="5.69085">
        <ele>1439.588807852</ele>
        <time>2015-05-12T17:18:30Z</time>
      </trkpt>
      <trkpt lat="45.31795" lon="5.69082">
        <ele>1439.588807852</ele>
        <time>2015-05-12T17:18:34Z</time>
      </trkpt>
      <trkpt lat="45.31783" lon="5.69073">
        <ele>1442.233861651</ele>
        <time>2015-05-12T17:18:40Z</time>
      </trkpt>
      <trkpt lat="45.31785" lon="5.6906">
        <ele>1442.233861651</ele>
        <time>2015-05-12T17:18:45Z</time>
      </trkpt>
      <trkpt lat="45.3178" lon="5.69055">
        <ele>1445.502418693</ele>
        <time>2015-05-12T17:18:50Z</time>
      </trkpt>
      <trkpt lat="45.31782" lon="5.6905">
        <ele>1445.502418693</ele>
        <time>2015-05-12T17:18:55Z</time>
      </trkpt>
      <trkpt lat="45.31782" lon="5.69041">
        <ele>1448.626598205</ele>
        <time>2015-05-12T17:19:00Z</time>
      </trkpt>
      <trkpt lat="45.31777" lon="5.6904">
        <ele>1448.626598205</ele>
        <time>2015-05-12T17:19:05Z</time>
      </trkpt>
      <trkpt lat="45.31767" lon="5.69035">
        <ele>1451.759999475</ele>
        <time>2015-05-12T17:19:10Z</time>
      </trkpt>
      <trkpt lat="45.31767" lon="5.69031">
        <ele>1451.759999475</ele>
        <time>2015-05-12T17:19:15Z</time>
      </trkpt>
      <trkpt lat="45.31763" lon="5.6902">
        <ele>1454.900804474</ele>
        <time>2015-05-12T17:19:20Z</time>
      </trkpt>
      <trkpt lat="45.31761" lon="5.69015">
        <ele>1454.900804474</ele>
        <time>2015-05-12T17:19:25Z</time>
      </trkpt>
      <trkpt lat="45.3176" lon="5.69006">
        <ele>1458.047314406</ele>
        <time>2015-05-12T17:19:30Z</time>
      </trkpt>
      <trkpt lat="45.31757" lon="5.68998">
        <ele>1458.047314406</ele>
        <time>2015-05-12T17:19:35Z</time>
      </trkpt>
      <trkpt lat="45.31751" lon="5.68991">
        <ele>1460.333280201</ele>
        <time>2015-05-12T17:19:40Z</time>
      </trkpt>
      <trkpt lat="45.31748" lon="5.68986">
        <ele>1460.333280201</ele>
        <time>2015-05-12T17:19:45Z</time>
      </trkpt>
      <trkpt lat="45.31746" lon="5.68976">
        <ele>1461.967286224</ele>
        <time>2015-05-12T17:19:50Z</time>
      </trkpt>
      <trkpt lat="45.31747" lon="5.68969">
        <ele>1461.967286224</ele>
        <time>2015-05-12T17:19:55Z</time>
      </trkpt>
      <trkpt lat="45.31739" lon="5.68966">
        <ele>1463.576760312</ele>
        <time>2015-05-12T17:20:00Z</time>
      </trkpt>
      <trkpt lat="45.31733" lon="5.68966">
        <ele>1463.576760312</ele>
        <time>2015-05-12T17:20:05Z</time>
      </trkpt>
      <trkpt lat="45.31728" lon="5.68966">
        <ele>1465.887218206</ele>
        <time>2015-05-12T17:20:10Z</time>
      </trkpt>
      <trkpt lat="45.31726" lon="5.68964">
        <ele>1465.887218206</ele>
        <time>2015-05-12T17:20:15Z</time>
      </trkpt>
      <trkpt lat="45.31718" lon="5.68963">
        <ele>1468.416016359</ele>
        <time>2015-05-12T17:20:20Z</time>
      </trkpt>
      <trkpt lat="45.31712" lon="5.68958">
        <ele>1468.416016359</ele>
        <time>2015-05-12T17:20:25Z</time>
      </trkpt>
      <trkpt lat="45.31715" lon="5.68955">
        <ele>1470.571229425</ele>
        <time>2015-05-12T17:20:30Z</time>
      </trkpt>
      <trkpt lat="45.31714" lon="5.68958">
        <ele>1470.571229425</ele>
        <time>2015-05-12T17:20:35Z</time>
      </trkpt>
      <trkpt lat="45.31715" lon="5.68959">
        <ele>1470.571229425</ele>
        <time>2015-05-12T17:20:40Z</time>
      </trkpt>
      <trkpt lat="45.31715" lon="5.68959">
        <ele>1470.571229425</ele>
        <time>2015-05-12T17:20:44Z</time>
      </trkpt>
      <trkpt lat="45.31715" lon="5.68959">
        <ele>1470.571229425</ele>
        <time>2015-05-12T17:20:50Z</time>
      </trkpt>
      <trkpt lat="45.31715" lon="5.68959">
        <ele>1470.571229425</ele>
        <time>2015-05-12T17:20:55Z</time>
      </trkpt>
      <trkpt lat="45.31715" lon="5.68959">
        <ele>1470.571229425</ele>
        <time>2015-05-12T17:21:00Z</time>
      </trkpt>
      <trkpt lat="45.31713" lon="5.6896">
        <ele>1470.571229425</ele>
        <time>2015-05-12T17:21:05Z</time>
      </trkpt>
      <trkpt lat="45.31709" lon="5.68962">
        <ele>1472.526001672</ele>
        <time>2015-05-12T17:21:10Z</time>
      </trkpt>
      <trkpt lat="45.31702" lon="5.68966">
        <ele>1472.526001672</ele>
        <time>2015-05-12T17:21:15Z</time>
      </trkpt>
      <trkpt lat="45.31695" lon="5.68972">
        <ele>1474.297189175</ele>
        <time>2015-05-12T17:21:20Z</time>
      </trkpt>
      <trkpt lat="45.31687" lon="5.68976">
        <ele>1474.297189175</ele>
        <time>2015-05-12T17:21:25Z</time>
      </trkpt>
      <trkpt lat="45.31683" lon="5.68978">
        <ele>1475.900899955</ele>
        <time>2015-05-12T17:21:30Z</time>
      </trkpt>
      <trkpt lat="45.31682" lon="5.68983">
        <ele>1475.900899955</ele>
        <time>2015-05-12T17:21:35Z</time>
      </trkpt>
      <trkpt lat="45.31677" lon="5.68983">
        <ele>1475.900899955</ele>
        <time>2015-05-12T17:21:40Z</time>
      </trkpt>
      <trkpt lat="45.31675" lon="5.68985">
        <ele>1478.217166307</ele>
        <time>2015-05-12T17:21:45Z</time>
      </trkpt>
      <trkpt lat="45.31674" lon="5.68986">
        <ele>1478.217166307</ele>
        <time>2015-05-12T17:21:50Z</time>
      </trkpt>
      <trkpt lat="45.31674" lon="5.68988">
        <ele>1478.217166307</ele>
        <time>2015-05-12T17:21:55Z</time>
      </trkpt>
      <trkpt lat="45.31672" lon="5.68987">
        <ele>1478.217166307</ele>
        <time>2015-05-12T17:22:00Z</time>
      </trkpt>
      <trkpt lat="45.31671" lon="5.68987">
        <ele>1478.217166307</ele>
        <time>2015-05-12T17:22:05Z</time>
      </trkpt>
      <trkpt lat="45.31671" lon="5.68988">
        <ele>1478.217166307</ele>
        <time>2015-05-12T17:22:10Z</time>
      </trkpt>
      <trkpt lat="45.31669" lon="5.68987">
        <ele>1478.217166307</ele>
        <time>2015-05-12T17:22:15Z</time>
      </trkpt>
      <trkpt lat="45.31656" lon="5.68972">
        <ele>1479.89767305</ele>
        <time>2015-05-12T17:22:20Z</time>
      </trkpt>
      <trkpt lat="45.31645" lon="5.6897">
        <ele>1481.424229662</ele>
        <time>2015-05-12T17:22:25Z</time>
      </trkpt>
      <trkpt lat="45.31637" lon="5.68969">
        <ele>1481.424229662</ele>
        <time>2015-05-12T17:22:30Z</time>
      </trkpt>
      <trkpt lat="45.31638" lon="5.68967">
        <ele>1482.811306328</ele>
        <time>2015-05-12T17:22:35Z</time>
      </trkpt>
      <trkpt lat="45.31638" lon="5.68967">
        <ele>1482.811306328</ele>
        <time>2015-05-12T17:22:39Z</time>
      </trkpt>
      <trkpt lat="45.31637" lon="5.68966">
        <ele>1482.811306328</ele>
        <time>2015-05-12T17:22:45Z</time>
      </trkpt>
      <trkpt lat="45.31633" lon="5.68967">
        <ele>1482.811306328</ele>
        <time>2015-05-12T17:22:50Z</time>
      </trkpt>
      <trkpt lat="45.31629" lon="5.68967">
        <ele>1484.93732036</ele>
        <time>2015-05-12T17:22:54Z</time>
      </trkpt>
      <trkpt lat="45.31617" lon="5.68963">
        <ele>1486.596478807</ele>
        <time>2015-05-12T17:23:00Z</time>
      </trkpt>
      <trkpt lat="45.3161" lon="5.68955">
        <ele>1488.690375484</ele>
        <time>2015-05-12T17:23:05Z</time>
      </trkpt>
      <trkpt lat="45.31603" lon="5.68947">
        <ele>1488.690375484</ele>
        <time>2015-05-12T17:23:10Z</time>
      </trkpt>
      <trkpt lat="45.31596" lon="5.68945">
        <ele>1491.044318507</ele>
        <time>2015-05-12T17:23:15Z</time>
      </trkpt>
      <trkpt lat="45.31593" lon="5.68945">
        <ele>1491.044318507</ele>
        <time>2015-05-12T17:23:20Z</time>
      </trkpt>
      <trkpt lat="45.31589" lon="5.6894">
        <ele>1491.044318507</ele>
        <time>2015-05-12T17:23:25Z</time>
      </trkpt>
      <trkpt lat="45.31588" lon="5.68936">
        <ele>1493.351550848</ele>
        <time>2015-05-12T17:23:30Z</time>
      </trkpt>
      <trkpt lat="45.31582" lon="5.6893">
        <ele>1493.351550848</ele>
        <time>2015-05-12T17:23:35Z</time>
      </trkpt>
      <trkpt lat="45.31576" lon="5.68927">
        <ele>1495.760258183</ele>
        <time>2015-05-12T17:23:40Z</time>
      </trkpt>
      <trkpt lat="45.31573" lon="5.68924">
        <ele>1495.760258183</ele>
        <time>2015-05-12T17:23:44Z</time>
      </trkpt>
      <trkpt lat="45.3157" lon="5.68919">
        <ele>1495.760258183</ele>
        <time>2015-05-12T17:23:50Z</time>
      </trkpt>
      <trkpt lat="45.3157" lon="5.68919">
        <ele>1498.263291306</ele>
        <time>2015-05-12T17:23:55Z</time>
      </trkpt>
      <trkpt lat="45.3157" lon="5.68917">
        <ele>1498.263291306</ele>
        <time>2015-05-12T17:23:59Z</time>
      </trkpt>
      <trkpt lat="45.31569" lon="5.68918">
        <ele>1498.263291306</ele>
        <time>2015-05-12T17:24:04Z</time>
      </trkpt>
      <trkpt lat="45.31569" lon="5.68911">
        <ele>1498.263291306</ele>
        <time>2015-05-12T17:24:10Z</time>
      </trkpt>
      <trkpt lat="45.31568" lon="5.68901">
        <ele>1500.421377226</ele>
        <time>2015-05-12T17:24:14Z</time>
      </trkpt>
      <trkpt lat="45.31564" lon="5.6889">
        <ele>1500.421377226</ele>
        <time>2015-05-12T17:24:20Z</time>
      </trkpt>
      <trkpt lat="45.31564" lon="5.68876">
        <ele>1501.972541017</ele>
        <time>2015-05-12T17:24:25Z</time>
      </trkpt>
      <trkpt lat="45.31564" lon="5.68861">
        <ele>1503.252149738</ele>
        <time>2015-05-12T17:24:30Z</time>
      </trkpt>
      <trkpt lat="45.31563" lon="5.68848">
        <ele>1504.283421527</ele>
        <time>2015-05-12T17:24:35Z</time>
      </trkpt>
      <trkpt lat="45.31562" lon="5.68834">
        <ele>1504.944396338</ele>
        <time>2015-05-12T17:24:39Z</time>
      </trkpt>
      <trkpt lat="45.31562" lon="5.68822">
        <ele>1504.944396338</ele>
        <time>2015-05-12T17:24:44Z</time>
      </trkpt>
      <trkpt lat="45.31561" lon="5.68821">
        <ele>1505.41126861</ele>
        <time>2015-05-12T17:24:50Z</time>
      </trkpt>
      <trkpt lat="45.3156" lon="5.68819">
        <ele>1505.41126861</ele>
        <time>2015-05-12T17:24:54Z</time>
      </trkpt>
      <trkpt lat="45.31558" lon="5.68809">
        <ele>1505.415425316</ele>
        <time>2015-05-12T17:25:00Z</time>
      </trkpt>
      <trkpt lat="45.31552" lon="5.68798">
        <ele>1505.141530598</ele>
        <time>2015-05-12T17:25:05Z</time>
      </trkpt>
      <trkpt lat="45.31548" lon="5.68788">
        <ele>1505.141530598</ele>
        <time>2015-05-12T17:25:10Z</time>
      </trkpt>
      <trkpt lat="45.31544" lon="5.68773">
        <ele>1505.193698518</ele>
        <time>2015-05-12T17:25:15Z</time>
      </trkpt>
      <trkpt lat="45.31538" lon="5.6876">
        <ele>1505.26597347</ele>
        <time>2015-05-12T17:25:20Z</time>
      </trkpt>
      <trkpt lat="45.31533" lon="5.68747">
        <ele>1505.362919958</ele>
        <time>2015-05-12T17:25:25Z</time>
      </trkpt>
      <trkpt lat="45.31529" lon="5.68736">
        <ele>1505.362919958</ele>
        <time>2015-05-12T17:25:30Z</time>
      </trkpt>
      <trkpt lat="45.31522" lon="5.68729">
        <ele>1505.776790233</ele>
        <time>2015-05-12T17:25:35Z</time>
      </trkpt>
      <trkpt lat="45.31513" lon="5.68724">
        <ele>1505.768562943</ele>
        <time>2015-05-12T17:25:40Z</time>
      </trkpt>
      <trkpt lat="45.31507" lon="5.68717">
        <ele>1505.768562943</ele>
        <time>2015-05-12T17:25:45Z</time>
      </trkpt>
      <trkpt lat="45.31504" lon="5.68701">
        <ele>1505.230988498</ele>
        <time>2015-05-12T17:25:50Z</time>
      </trkpt>
      <trkpt lat="45.31503" lon="5.68687">
        <ele>1504.354250133</ele>
        <time>2015-05-12T17:25:55Z</time>
      </trkpt>
      <trkpt lat="45.31499" lon="5.68678">
        <ele>1504.354250133</ele>
        <time>2015-05-12T17:26:00Z</time>
      </trkpt>
      <trkpt lat="45.31493" lon="5.68664">
        <ele>1503.027126919</ele>
        <time>2015-05-12T17:26:05Z</time>
      </trkpt>
      <trkpt lat="45.31489" lon="5.6865">
        <ele>1501.29176826</ele>
        <time>2015-05-12T17:26:10Z</time>
      </trkpt>
      <trkpt lat="45.31485" lon="5.68637">
        <ele>1499.332295354</ele>
        <time>2015-05-12T17:26:15Z</time>
      </trkpt>
      <trkpt lat="45.31482" lon="5.68622">
        <ele>1497.896175255</ele>
        <time>2015-05-12T17:26:20Z</time>
      </trkpt>
      <trkpt lat="45.31478" lon="5.68611">
        <ele>1497.896175255</ele>
        <time>2015-05-12T17:26:25Z</time>
      </trkpt>
      <trkpt lat="45.31476" lon="5.68599">
        <ele>1496.233170928</ele>
        <time>2015-05-12T17:26:30Z</time>
      </trkpt>
      <trkpt lat="45.31474" lon="5.68588">
        <ele>1496.233170928</ele>
        <time>2015-05-12T17:26:35Z</time>
      </trkpt>
      <trkpt lat="45.31472" lon="5.68578">
        <ele>1494.513232701</ele>
        <time>2015-05-12T17:26:40Z</time>
      </trkpt>
      <trkpt lat="45.31467" lon="5.68566">
        <ele>1492.893747766</ele>
        <time>2015-05-12T17:26:44Z</time>
      </trkpt>
      <trkpt lat="45.31461" lon="5.68561">
        <ele>1492.893747766</ele>
        <time>2015-05-12T17:26:49Z</time>
      </trkpt>
      <trkpt lat="45.31458" lon="5.68549">
        <ele>1491.375902019</ele>
        <time>2015-05-12T17:26:55Z</time>
      </trkpt>
      <trkpt lat="45.31454" lon="5.68541">
        <ele>1491.375902019</ele>
        <time>2015-05-12T17:26:59Z</time>
      </trkpt>
      <trkpt lat="45.31453" lon="5.6853">
        <ele>1490.248478315</ele>
        <time>2015-05-12T17:27:04Z</time>
      </trkpt>
      <trkpt lat="45.31453" lon="5.68523">
        <ele>1490.248478315</ele>
        <time>2015-05-12T17:27:09Z</time>
      </trkpt>
      <trkpt lat="45.31454" lon="5.68522">
        <ele>1490.248478315</ele>
        <time>2015-05-12T17:27:14Z</time>
      </trkpt>
      <trkpt lat="45.31454" lon="5.68522">
        <ele>1490.248478315</ele>
        <time>2015-05-12T17:27:19Z</time>
      </trkpt>
      <trkpt lat="45.31454" lon="5.68521">
        <ele>1490.248478315</ele>
        <time>2015-05-12T17:27:24Z</time>
      </trkpt>
      <trkpt lat="45.31455" lon="5.68521">
        <ele>1490.248478315</ele>
        <time>2015-05-12T17:27:29Z</time>
      </trkpt>
      <trkpt lat="45.31451" lon="5.68506">
        <ele>1488.480691441</ele>
        <time>2015-05-12T17:27:35Z</time>
      </trkpt>
      <trkpt lat="45.31443" lon="5.68484">
        <ele>1488.145348048</ele>
        <time>2015-05-12T17:27:39Z</time>
      </trkpt>
      <trkpt lat="45.3144" lon="5.68471">
        <ele>1486.979485015</ele>
        <time>2015-05-12T17:27:45Z</time>
      </trkpt>
      <trkpt lat="45.31435" lon="5.68456">
        <ele>1486.347115053</ele>
        <time>2015-05-12T17:27:50Z</time>
      </trkpt>
      <trkpt lat="45.31429" lon="5.68448">
        <ele>1486.347115053</ele>
        <time>2015-05-12T17:27:54Z</time>
      </trkpt>
      <trkpt lat="45.31422" lon="5.68436">
        <ele>1485.925078256</ele>
        <time>2015-05-12T17:28:00Z</time>
      </trkpt>
      <trkpt lat="45.31419" lon="5.68421">
        <ele>1485.557227916</ele>
        <time>2015-05-12T17:28:05Z</time>
      </trkpt>
      <trkpt lat="45.3141" lon="5.68419">
        <ele>1484.377938705</ele>
        <time>2015-05-12T17:28:10Z</time>
      </trkpt>
      <trkpt lat="45.31405" lon="5.68413">
        <ele>1484.377938705</ele>
        <time>2015-05-12T17:28:15Z</time>
      </trkpt>
      <trkpt lat="45.31392" lon="5.68403">
        <ele>1484.037106289</ele>
        <time>2015-05-12T17:28:20Z</time>
      </trkpt>
      <trkpt lat="45.31388" lon="5.68395">
        <ele>1484.037106289</ele>
        <time>2015-05-12T17:28:25Z</time>
      </trkpt>
      <trkpt lat="45.31377" lon="5.68386">
        <ele>1483.610958092</ele>
        <time>2015-05-12T17:28:30Z</time>
      </trkpt>
      <trkpt lat="45.31364" lon="5.68382">
        <ele>1482.964157912</ele>
        <time>2015-05-12T17:28:35Z</time>
      </trkpt>
      <trkpt lat="45.31357" lon="5.68376">
        <ele>1482.964157912</ele>
        <time>2015-05-12T17:28:40Z</time>
      </trkpt>
      <trkpt lat="45.31346" lon="5.68381">
        <ele>1482.115830041</ele>
        <time>2015-05-12T17:28:45Z</time>
      </trkpt>
      <trkpt lat="45.31335" lon="5.68382">
        <ele>1481.08405508</ele>
        <time>2015-05-12T17:28:50Z</time>
      </trkpt>
      <trkpt lat="45.31327" lon="5.6838">
        <ele>1481.08405508</ele>
        <time>2015-05-12T17:28:55Z</time>
      </trkpt>
      <trkpt lat="45.31323" lon="5.6837">
        <ele>1479.885901665</ele>
        <time>2015-05-12T17:29:00Z</time>
      </trkpt>
      <trkpt lat="45.31311" lon="5.68366">
        <ele>1478.825680126</ele>
        <time>2015-05-12T17:29:05Z</time>
      </trkpt>
      <trkpt lat="45.31304" lon="5.68357">
        <ele>1477.175990969</ele>
        <time>2015-05-12T17:29:10Z</time>
      </trkpt>
      <trkpt lat="45.31298" lon="5.68358">
        <ele>1477.175990969</ele>
        <time>2015-05-12T17:29:15Z</time>
      </trkpt>
      <trkpt lat="45.31289" lon="5.68355">
        <ele>1475.417224051</ele>
        <time>2015-05-12T17:29:20Z</time>
      </trkpt>
      <trkpt lat="45.31275" lon="5.68349">
        <ele>1473.706377269</ele>
        <time>2015-05-12T17:29:25Z</time>
      </trkpt>
      <trkpt lat="45.31268" lon="5.68342">
        <ele>1473.706377269</ele>
        <time>2015-05-12T17:29:30Z</time>
      </trkpt>
      <trkpt lat="45.31262" lon="5.68334">
        <ele>1472.04448435</ele>
        <time>2015-05-12T17:29:35Z</time>
      </trkpt>
      <trkpt lat="45.31252" lon="5.68328">
        <ele>1470.864515002</ele>
        <time>2015-05-12T17:29:40Z</time>
      </trkpt>
      <trkpt lat="45.31243" lon="5.68325">
        <ele>1470.864515002</ele>
        <time>2015-05-12T17:29:44Z</time>
      </trkpt>
      <trkpt lat="45.31234" lon="5.68324">
        <ele>1470.277878237</ele>
        <time>2015-05-12T17:29:49Z</time>
      </trkpt>
      <trkpt lat="45.31225" lon="5.68319">
        <ele>1469.80951513</ele>
        <time>2015-05-12T17:29:55Z</time>
      </trkpt>
      <trkpt lat="45.3122" lon="5.68316">
        <ele>1469.80951513</ele>
        <time>2015-05-12T17:30:00Z</time>
      </trkpt>
      <trkpt lat="45.31211" lon="5.68311">
        <ele>1469.595211301</ele>
        <time>2015-05-12T17:30:05Z</time>
      </trkpt>
      <trkpt lat="45.31209" lon="5.68304">
        <ele>1469.595211301</ele>
        <time>2015-05-12T17:30:10Z</time>
      </trkpt>
      <trkpt lat="45.31202" lon="5.68299">
        <ele>1469.183465177</ele>
        <time>2015-05-12T17:30:15Z</time>
      </trkpt>
      <trkpt lat="45.31197" lon="5.68299">
        <ele>1469.183465177</ele>
        <time>2015-05-12T17:30:20Z</time>
      </trkpt>
      <trkpt lat="45.31193" lon="5.68294">
        <ele>1467.868128848</ele>
        <time>2015-05-12T17:30:25Z</time>
      </trkpt>
      <trkpt lat="45.31187" lon="5.68279">
        <ele>1466.294326451</ele>
        <time>2015-05-12T17:30:30Z</time>
      </trkpt>
      <trkpt lat="45.31179" lon="5.68272">
        <ele>1465.060386794</ele>
        <time>2015-05-12T17:30:35Z</time>
      </trkpt>
      <trkpt lat="45.31169" lon="5.68267">
        <ele>1463.566716916</ele>
        <time>2015-05-12T17:30:40Z</time>
      </trkpt>
      <trkpt lat="45.31157" lon="5.68263">
        <ele>1461.978930289</ele>
        <time>2015-05-12T17:30:45Z</time>
      </trkpt>
      <trkpt lat="45.31151" lon="5.68251">
        <ele>1460.450617102</ele>
        <time>2015-05-12T17:30:50Z</time>
      </trkpt>
      <trkpt lat="45.31136" lon="5.6825">
        <ele>1459.123799315</ele>
        <time>2015-05-12T17:30:55Z</time>
      </trkpt>
      <trkpt lat="45.31128" lon="5.68239">
        <ele>1457.841162492</ele>
        <time>2015-05-12T17:31:00Z</time>
      </trkpt>
      <trkpt lat="45.31118" lon="5.68234">
        <ele>1456.312600317</ele>
        <time>2015-05-12T17:31:05Z</time>
      </trkpt>
      <trkpt lat="45.31108" lon="5.68228">
        <ele>1455.134565326</ele>
        <time>2015-05-12T17:31:10Z</time>
      </trkpt>
      <trkpt lat="45.31102" lon="5.68217">
        <ele>1453.705717112</ele>
        <time>2015-05-12T17:31:15Z</time>
      </trkpt>
      <trkpt lat="45.31086" lon="5.68204">
        <ele>1453.054715771</ele>
        <time>2015-05-12T17:31:20Z</time>
      </trkpt>
      <trkpt lat="45.31077" lon="5.68195">
        <ele>1451.97071222</ele>
        <time>2015-05-12T17:31:25Z</time>
      </trkpt>
      <trkpt lat="45.31081" lon="5.68187">
        <ele>1451.97071222</ele>
        <time>2015-05-12T17:31:30Z</time>
      </trkpt>
      <trkpt lat="45.31085" lon="5.68182">
        <ele>1450.62993168</ele>
        <time>2015-05-12T17:31:35Z</time>
      </trkpt>
      <trkpt lat="45.3109" lon="5.6817">
        <ele>1449.340401878</ele>
        <time>2015-05-12T17:31:40Z</time>
      </trkpt>
      <trkpt lat="45.31089" lon="5.68158">
        <ele>1449.340401878</ele>
        <time>2015-05-12T17:31:45Z</time>
      </trkpt>
      <trkpt lat="45.31093" lon="5.68153">
        <ele>1448.099078521</ele>
        <time>2015-05-12T17:31:50Z</time>
      </trkpt>
      <trkpt lat="45.31092" lon="5.68152">
        <ele>1448.099078521</ele>
        <time>2015-05-12T17:31:55Z</time>
      </trkpt>
      <trkpt lat="45.31094" lon="5.6815">
        <ele>1448.099078521</ele>
        <time>2015-05-12T17:32:00Z</time>
      </trkpt>
      <trkpt lat="45.31096" lon="5.68145">
        <ele>1448.099078521</ele>
        <time>2015-05-12T17:32:05Z</time>
      </trkpt>
      <trkpt lat="45.31104" lon="5.6814">
        <ele>1447.191154367</ele>
        <time>2015-05-12T17:32:10Z</time>
      </trkpt>
      <trkpt lat="45.31109" lon="5.6813">
        <ele>1447.191154367</ele>
        <time>2015-05-12T17:32:15Z</time>
      </trkpt>
      <trkpt lat="45.31112" lon="5.68124">
        <ele>1446.01520052</ele>
        <time>2015-05-12T17:32:20Z</time>
      </trkpt>
      <trkpt lat="45.31117" lon="5.6812">
        <ele>1446.01520052</ele>
        <time>2015-05-12T17:32:25Z</time>
      </trkpt>
      <trkpt lat="45.31119" lon="5.68121">
        <ele>1446.01520052</ele>
        <time>2015-05-12T17:32:29Z</time>
      </trkpt>
      <trkpt lat="45.31121" lon="5.68118">
        <ele>1445.16754599</ele>
        <time>2015-05-12T17:32:34Z</time>
      </trkpt>
      <trkpt lat="45.31123" lon="5.68117">
        <ele>1445.16754599</ele>
        <time>2015-05-12T17:32:40Z</time>
      </trkpt>
      <trkpt lat="45.31123" lon="5.68117">
        <ele>1445.16754599</ele>
        <time>2015-05-12T17:32:44Z</time>
      </trkpt>
      <trkpt lat="45.31123" lon="5.68117">
        <ele>1445.16754599</ele>
        <time>2015-05-12T17:32:49Z</time>
      </trkpt>
      <trkpt lat="45.31127" lon="5.68112">
        <ele>1445.16754599</ele>
        <time>2015-05-12T17:32:54Z</time>
      </trkpt>
      <trkpt lat="45.31134" lon="5.68106">
        <ele>1444.335067659</ele>
        <time>2015-05-12T17:32:59Z</time>
      </trkpt>
      <trkpt lat="45.31137" lon="5.681">
        <ele>1444.335067659</ele>
        <time>2015-05-12T17:33:04Z</time>
      </trkpt>
      <trkpt lat="45.31138" lon="5.68104">
        <ele>1444.335067659</ele>
        <time>2015-05-12T17:33:09Z</time>
      </trkpt>
      <trkpt lat="45.31138" lon="5.68104">
        <ele>1444.335067659</ele>
        <time>2015-05-12T17:33:14Z</time>
      </trkpt>
      <trkpt lat="45.31139" lon="5.68105">
        <ele>1443.083437725</ele>
        <time>2015-05-12T17:33:20Z</time>
      </trkpt>
      <trkpt lat="45.3114" lon="5.68105">
        <ele>1443.083437725</ele>
        <time>2015-05-12T17:33:24Z</time>
      </trkpt>
      <trkpt lat="45.31154" lon="5.68102">
        <ele>1441.299583218</ele>
        <time>2015-05-12T17:33:30Z</time>
      </trkpt>
      <trkpt lat="45.31169" lon="5.68095">
        <ele>1439.888963211</ele>
        <time>2015-05-12T17:33:35Z</time>
      </trkpt>
      <trkpt lat="45.31174" lon="5.68097">
        <ele>1439.888963211</ele>
        <time>2015-05-12T17:33:40Z</time>
      </trkpt>
      <trkpt lat="45.31179" lon="5.68095">
        <ele>1437.960096748</ele>
        <time>2015-05-12T17:33:44Z</time>
      </trkpt>
      <trkpt lat="45.31186" lon="5.68096">
        <ele>1437.960096748</ele>
        <time>2015-05-12T17:33:50Z</time>
      </trkpt>
      <trkpt lat="45.31192" lon="5.6809">
        <ele>1435.841288313</ele>
        <time>2015-05-12T17:33:55Z</time>
      </trkpt>
      <trkpt lat="45.31196" lon="5.68094">
        <ele>1435.841288313</ele>
        <time>2015-05-12T17:34:00Z</time>
      </trkpt>
      <trkpt lat="45.31195" lon="5.68088">
        <ele>1433.404876749</ele>
        <time>2015-05-12T17:34:05Z</time>
      </trkpt>
      <trkpt lat="45.31206" lon="5.68094">
        <ele>1430.965751813</ele>
        <time>2015-05-12T17:34:10Z</time>
      </trkpt>
      <trkpt lat="45.31205" lon="5.68096">
        <ele>1430.965751813</ele>
        <time>2015-05-12T17:34:15Z</time>
      </trkpt>
      <trkpt lat="45.31211" lon="5.68097">
        <ele>1430.965751813</ele>
        <time>2015-05-12T17:34:20Z</time>
      </trkpt>
      <trkpt lat="45.31216" lon="5.68099">
        <ele>1427.806843506</ele>
        <time>2015-05-12T17:34:25Z</time>
      </trkpt>
      <trkpt lat="45.31224" lon="5.68105">
        <ele>1427.806843506</ele>
        <time>2015-05-12T17:34:29Z</time>
      </trkpt>
      <trkpt lat="45.3123" lon="5.68116">
        <ele>1424.995046266</ele>
        <time>2015-05-12T17:34:34Z</time>
      </trkpt>
      <trkpt lat="45.31233" lon="5.68116">
        <ele>1424.995046266</ele>
        <time>2015-05-12T17:34:40Z</time>
      </trkpt>
      <trkpt lat="45.31235" lon="5.68116">
        <ele>1424.995046266</ele>
        <time>2015-05-12T17:34:45Z</time>
      </trkpt>
      <trkpt lat="45.31238" lon="5.68115">
        <ele>1424.995046266</ele>
        <time>2015-05-12T17:34:50Z</time>
      </trkpt>
      <trkpt lat="45.31244" lon="5.68112">
        <ele>1423.229615047</ele>
        <time>2015-05-12T17:34:54Z</time>
      </trkpt>
      <trkpt lat="45.31243" lon="5.681">
        <ele>1423.229615047</ele>
        <time>2015-05-12T17:35:00Z</time>
      </trkpt>
      <trkpt lat="45.31245" lon="5.68097">
        <ele>1421.426094222</ele>
        <time>2015-05-12T17:35:05Z</time>
      </trkpt>
      <trkpt lat="45.31251" lon="5.68088">
        <ele>1421.426094222</ele>
        <time>2015-05-12T17:35:10Z</time>
      </trkpt>
      <trkpt lat="45.31256" lon="5.68079">
        <ele>1419.300277382</ele>
        <time>2015-05-12T17:35:15Z</time>
      </trkpt>
      <trkpt lat="45.31263" lon="5.68083">
        <ele>1419.300277382</ele>
        <time>2015-05-12T17:35:20Z</time>
      </trkpt>
      <trkpt lat="45.31266" lon="5.68073">
        <ele>1416.013216157</ele>
        <time>2015-05-12T17:35:25Z</time>
      </trkpt>
      <trkpt lat="45.31271" lon="5.68066">
        <ele>1416.013216157</ele>
        <time>2015-05-12T17:35:30Z</time>
      </trkpt>
      <trkpt lat="45.31276" lon="5.68067">
        <ele>1412.664211859</ele>
        <time>2015-05-12T17:35:35Z</time>
      </trkpt>
      <trkpt lat="45.31276" lon="5.68066">
        <ele>1412.664211859</ele>
        <time>2015-05-12T17:35:40Z</time>
      </trkpt>
      <trkpt lat="45.31278" lon="5.68064">
        <ele>1412.664211859</ele>
        <time>2015-05-12T17:35:45Z</time>
      </trkpt>
      <trkpt lat="45.31278" lon="5.68063">
        <ele>1412.664211859</ele>
        <time>2015-05-12T17:35:49Z</time>
      </trkpt>
      <trkpt lat="45.3128" lon="5.68062">
        <ele>1412.664211859</ele>
        <time>2015-05-12T17:35:55Z</time>
      </trkpt>
      <trkpt lat="45.31281" lon="5.68062">
        <ele>1412.664211859</ele>
        <time>2015-05-12T17:35:59Z</time>
      </trkpt>
      <trkpt lat="45.31281" lon="5.68062">
        <ele>1412.664211859</ele>
        <time>2015-05-12T17:36:04Z</time>
      </trkpt>
      <trkpt lat="45.31281" lon="5.68062">
        <ele>1412.664211859</ele>
        <time>2015-05-12T17:36:09Z</time>
      </trkpt>
      <trkpt lat="45.31281" lon="5.68062">
        <ele>1412.664211859</ele>
        <time>2015-05-12T17:36:14Z</time>
      </trkpt>
      <trkpt lat="45.31283" lon="5.68062">
        <ele>1408.974897262</ele>
        <time>2015-05-12T17:36:20Z</time>
      </trkpt>
      <trkpt lat="45.31292" lon="5.68056">
        <ele>1405.408768145</ele>
        <time>2015-05-12T17:36:25Z</time>
      </trkpt>
      <trkpt lat="45.31303" lon="5.68053">
        <ele>1402.10659881</ele>
        <time>2015-05-12T17:36:30Z</time>
      </trkpt>
      <trkpt lat="45.31308" lon="5.68051">
        <ele>1402.10659881</ele>
        <time>2015-05-12T17:36:35Z</time>
      </trkpt>
      <trkpt lat="45.31309" lon="5.68051">
        <ele>1402.10659881</ele>
        <time>2015-05-12T17:36:39Z</time>
      </trkpt>
      <trkpt lat="45.31309" lon="5.68052">
        <ele>1402.10659881</ele>
        <time>2015-05-12T17:36:44Z</time>
      </trkpt>
      <trkpt lat="45.3131" lon="5.68052">
        <ele>1402.10659881</ele>
        <time>2015-05-12T17:36:49Z</time>
      </trkpt>
      <trkpt lat="45.3131" lon="5.68053">
        <ele>1402.10659881</ele>
        <time>2015-05-12T17:36:54Z</time>
      </trkpt>
      <trkpt lat="45.3131" lon="5.68053">
        <ele>1402.10659881</ele>
        <time>2015-05-12T17:36:59Z</time>
      </trkpt>
      <trkpt lat="45.3131" lon="5.68053">
        <ele>1402.10659881</ele>
        <time>2015-05-12T17:37:04Z</time>
      </trkpt>
      <trkpt lat="45.31309" lon="5.68042">
        <ele>1398.765634488</ele>
        <time>2015-05-12T17:37:10Z</time>
      </trkpt>
      <trkpt lat="45.31311" lon="5.6804">
        <ele>1398.765634488</ele>
        <time>2015-05-12T17:37:14Z</time>
      </trkpt>
      <trkpt lat="45.31312" lon="5.6804">
        <ele>1398.765634488</ele>
        <time>2015-05-12T17:37:20Z</time>
      </trkpt>
      <trkpt lat="45.31311" lon="5.68039">
        <ele>1398.765634488</ele>
        <time>2015-05-12T17:37:25Z</time>
      </trkpt>
      <trkpt lat="45.31311" lon="5.68038">
        <ele>1398.765634488</ele>
        <time>2015-05-12T17:37:30Z</time>
      </trkpt>
      <trkpt lat="45.31311" lon="5.68038">
        <ele>1398.765634488</ele>
        <time>2015-05-12T17:37:34Z</time>
      </trkpt>
      <trkpt lat="45.3132" lon="5.68026">
        <ele>1395.970016289</ele>
        <time>2015-05-12T17:37:40Z</time>
      </trkpt>
      <trkpt lat="45.31325" lon="5.68018">
        <ele>1395.970016289</ele>
        <time>2015-05-12T17:37:45Z</time>
      </trkpt>
      <trkpt lat="45.31327" lon="5.68012">
        <ele>1392.818208335</ele>
        <time>2015-05-12T17:37:50Z</time>
      </trkpt>
      <trkpt lat="45.31331" lon="5.68003">
        <ele>1392.818208335</ele>
        <time>2015-05-12T17:37:54Z</time>
      </trkpt>
      <trkpt lat="45.31332" lon="5.67995">
        <ele>1389.052216036</ele>
        <time>2015-05-12T17:38:00Z</time>
      </trkpt>
      <trkpt lat="45.31336" lon="5.67992">
        <ele>1389.052216036</ele>
        <time>2015-05-12T17:38:05Z</time>
      </trkpt>
      <trkpt lat="45.31338" lon="5.67986">
        <ele>1389.052216036</ele>
        <time>2015-05-12T17:38:10Z</time>
      </trkpt>
      <trkpt lat="45.31339" lon="5.67971">
        <ele>1384.578697043</ele>
        <time>2015-05-12T17:38:15Z</time>
      </trkpt>
      <trkpt lat="45.31339" lon="5.67969">
        <ele>1384.578697043</ele>
        <time>2015-05-12T17:38:20Z</time>
      </trkpt>
      <trkpt lat="45.31343" lon="5.67972">
        <ele>1384.578697043</ele>
        <time>2015-05-12T17:38:25Z</time>
      </trkpt>
      <trkpt lat="45.31348" lon="5.67972">
        <ele>1379.601231617</ele>
        <time>2015-05-12T17:38:30Z</time>
      </trkpt>
      <trkpt lat="45.31351" lon="5.67974">
        <ele>1379.601231617</ele>
        <time>2015-05-12T17:38:35Z</time>
      </trkpt>
      <trkpt lat="45.31356" lon="5.67975">
        <ele>1379.601231617</ele>
        <time>2015-05-12T17:38:40Z</time>
      </trkpt>
      <trkpt lat="45.3136" lon="5.67971">
        <ele>1373.877372393</ele>
        <time>2015-05-12T17:38:45Z</time>
      </trkpt>
      <trkpt lat="45.31367" lon="5.67964">
        <ele>1373.877372393</ele>
        <time>2015-05-12T17:38:50Z</time>
      </trkpt>
      <trkpt lat="45.3137" lon="5.67956">
        <ele>1368.48140953</ele>
        <time>2015-05-12T17:38:55Z</time>
      </trkpt>
      <trkpt lat="45.31372" lon="5.67951">
        <ele>1368.48140953</ele>
        <time>2015-05-12T17:38:59Z</time>
      </trkpt>
      <trkpt lat="45.31372" lon="5.67946">
        <ele>1368.48140953</ele>
        <time>2015-05-12T17:39:04Z</time>
      </trkpt>
      <trkpt lat="45.31375" lon="5.67939">
        <ele>1363.254725304</ele>
        <time>2015-05-12T17:39:09Z</time>
      </trkpt>
      <trkpt lat="45.31378" lon="5.67936">
        <ele>1363.254725304</ele>
        <time>2015-05-12T17:39:14Z</time>
      </trkpt>
      <trkpt lat="45.31379" lon="5.67937">
        <ele>1363.254725304</ele>
        <time>2015-05-12T17:39:19Z</time>
      </trkpt>
      <trkpt lat="45.31379" lon="5.67938">
        <ele>1363.254725304</ele>
        <time>2015-05-12T17:39:24Z</time>
      </trkpt>
      <trkpt lat="45.3138" lon="5.67937">
        <ele>1363.254725304</ele>
        <time>2015-05-12T17:39:29Z</time>
      </trkpt>
      <trkpt lat="45.31379" lon="5.67939">
        <ele>1363.254725304</ele>
        <time>2015-05-12T17:39:34Z</time>
      </trkpt>
      <trkpt lat="45.3138" lon="5.67938">
        <ele>1363.254725304</ele>
        <time>2015-05-12T17:39:39Z</time>
      </trkpt>
      <trkpt lat="45.31381" lon="5.67937">
        <ele>1363.254725304</ele>
        <time>2015-05-12T17:39:44Z</time>
      </trkpt>
      <trkpt lat="45.31381" lon="5.67937">
        <ele>1357.617348204</ele>
        <time>2015-05-12T17:39:50Z</time>
      </trkpt>
      <trkpt lat="45.31381" lon="5.67937">
        <ele>1357.617348204</ele>
        <time>2015-05-12T17:39:55Z</time>
      </trkpt>
      <trkpt lat="45.31381" lon="5.67937">
        <ele>1357.617348204</ele>
        <time>2015-05-12T17:40:00Z</time>
      </trkpt>
      <trkpt lat="45.31381" lon="5.67938">
        <ele>1357.617348204</ele>
        <time>2015-05-12T17:40:05Z</time>
      </trkpt>
      <trkpt lat="45.31383" lon="5.6795">
        <ele>1352.185741332</ele>
        <time>2015-05-12T17:40:10Z</time>
      </trkpt>
      <trkpt lat="45.31379" lon="5.67959">
        <ele>1352.185741332</ele>
        <time>2015-05-12T17:40:14Z</time>
      </trkpt>
      <trkpt lat="45.31379" lon="5.67971">
        <ele>1348.394952255</ele>
        <time>2015-05-12T17:40:20Z</time>
      </trkpt>
      <trkpt lat="45.3137" lon="5.67972">
        <ele>1345.119892932</ele>
        <time>2015-05-12T17:40:25Z</time>
      </trkpt>
      <trkpt lat="45.31368" lon="5.67979">
        <ele>1345.119892932</ele>
        <time>2015-05-12T17:40:30Z</time>
      </trkpt>
      <trkpt lat="45.3136" lon="5.67983">
        <ele>1342.901676671</ele>
        <time>2015-05-12T17:40:35Z</time>
      </trkpt>
      <trkpt lat="45.31347" lon="5.67977">
        <ele>1341.085599075</ele>
        <time>2015-05-12T17:40:40Z</time>
      </trkpt>
      <trkpt lat="45.3134" lon="5.67979">
        <ele>1341.085599075</ele>
        <time>2015-05-12T17:40:45Z</time>
      </trkpt>
      <trkpt lat="45.31337" lon="5.6798">
        <ele>1340.072502836</ele>
        <time>2015-05-12T17:40:49Z</time>
      </trkpt>
      <trkpt lat="45.31336" lon="5.67972">
        <ele>1340.072502836</ele>
        <time>2015-05-12T17:40:55Z</time>
      </trkpt>
      <trkpt lat="45.31334" lon="5.67968">
        <ele>1339.510800787</ele>
        <time>2015-05-12T17:41:00Z</time>
      </trkpt>
      <trkpt lat="45.31328" lon="5.67972">
        <ele>1339.510800787</ele>
        <time>2015-05-12T17:41:05Z</time>
      </trkpt>
      <trkpt lat="45.31326" lon="5.6797">
        <ele>1339.510800787</ele>
        <time>2015-05-12T17:41:10Z</time>
      </trkpt>
      <trkpt lat="45.31325" lon="5.67969">
        <ele>1338.640981872</ele>
        <time>2015-05-12T17:41:15Z</time>
      </trkpt>
      <trkpt lat="45.31325" lon="5.67968">
        <ele>1338.640981872</ele>
        <time>2015-05-12T17:41:20Z</time>
      </trkpt>
      <trkpt lat="45.31324" lon="5.67968">
        <ele>1338.640981872</ele>
        <time>2015-05-12T17:41:25Z</time>
      </trkpt>
      <trkpt lat="45.31324" lon="5.67968">
        <ele>1338.640981872</ele>
        <time>2015-05-12T17:41:30Z</time>
      </trkpt>
      <trkpt lat="45.31324" lon="5.67968">
        <ele>1338.640981872</ele>
        <time>2015-05-12T17:41:35Z</time>
      </trkpt>
      <trkpt lat="45.31324" lon="5.67968">
        <ele>1338.640981872</ele>
        <time>2015-05-12T17:41:40Z</time>
      </trkpt>
      <trkpt lat="45.31324" lon="5.67968">
        <ele>1338.640981872</ele>
        <time>2015-05-12T17:41:45Z</time>
      </trkpt>
      <trkpt lat="45.31324" lon="5.67968">
        <ele>1338.640981872</ele>
        <time>2015-05-12T17:41:49Z</time>
      </trkpt>
      <trkpt lat="45.31324" lon="5.67968">
        <ele>1338.640981872</ele>
        <time>2015-05-12T17:41:55Z</time>
      </trkpt>
      <trkpt lat="45.31322" lon="5.67962">
        <ele>1338.640981872</ele>
        <time>2015-05-12T17:42:00Z</time>
      </trkpt>
      <trkpt lat="45.3132" lon="5.67949">
        <ele>1336.90417634</ele>
        <time>2015-05-12T17:42:05Z</time>
      </trkpt>
      <trkpt lat="45.31315" lon="5.67942">
        <ele>1336.90417634</ele>
        <time>2015-05-12T17:42:09Z</time>
      </trkpt>
      <trkpt lat="45.31306" lon="5.67941">
        <ele>1334.793673676</ele>
        <time>2015-05-12T17:42:14Z</time>
      </trkpt>
      <trkpt lat="45.31298" lon="5.67943">
        <ele>1334.793673676</ele>
        <time>2015-05-12T17:42:19Z</time>
      </trkpt>
      <trkpt lat="45.31297" lon="5.67937">
        <ele>1332.046931148</ele>
        <time>2015-05-12T17:42:25Z</time>
      </trkpt>
      <trkpt lat="45.313" lon="5.67943">
        <ele>1332.046931148</ele>
        <time>2015-05-12T17:42:30Z</time>
      </trkpt>
      <trkpt lat="45.313" lon="5.6794">
        <ele>1332.046931148</ele>
        <time>2015-05-12T17:42:35Z</time>
      </trkpt>
      <trkpt lat="45.313" lon="5.67932">
        <ele>1327.557731652</ele>
        <time>2015-05-12T17:42:40Z</time>
      </trkpt>
      <trkpt lat="45.31298" lon="5.6793">
        <ele>1327.557731652</ele>
        <time>2015-05-12T17:42:45Z</time>
      </trkpt>
      <trkpt lat="45.31297" lon="5.67929">
        <ele>1327.557731652</ele>
        <time>2015-05-12T17:42:50Z</time>
      </trkpt>
      <trkpt lat="45.31295" lon="5.67929">
        <ele>1327.557731652</ele>
        <time>2015-05-12T17:42:55Z</time>
      </trkpt>
      <trkpt lat="45.31295" lon="5.67929">
        <ele>1327.557731652</ele>
        <time>2015-05-12T17:43:00Z</time>
      </trkpt>
      <trkpt lat="45.31295" lon="5.67929">
        <ele>1327.557731652</ele>
        <time>2015-05-12T17:43:05Z</time>
      </trkpt>
      <trkpt lat="45.31295" lon="5.67929">
        <ele>1327.557731652</ele>
        <time>2015-05-12T17:43:10Z</time>
      </trkpt>
      <trkpt lat="45.31295" lon="5.67929">
        <ele>1327.557731652</ele>
        <time>2015-05-12T17:43:15Z</time>
      </trkpt>
      <trkpt lat="45.31287" lon="5.67936">
        <ele>1322.75582254</ele>
        <time>2015-05-12T17:43:20Z</time>
      </trkpt>
      <trkpt lat="45.31282" lon="5.67944">
        <ele>1322.75582254</ele>
        <time>2015-05-12T17:43:25Z</time>
      </trkpt>
      <trkpt lat="45.31275" lon="5.67937">
        <ele>1317.66972061</ele>
        <time>2015-05-12T17:43:30Z</time>
      </trkpt>
      <trkpt lat="45.31269" lon="5.67934">
        <ele>1317.66972061</ele>
        <time>2015-05-12T17:43:35Z</time>
      </trkpt>
      <trkpt lat="45.31263" lon="5.67934">
        <ele>1312.903003178</ele>
        <time>2015-05-12T17:43:40Z</time>
      </trkpt>
      <trkpt lat="45.31265" lon="5.67931">
        <ele>1312.903003178</ele>
        <time>2015-05-12T17:43:45Z</time>
      </trkpt>
      <trkpt lat="45.31266" lon="5.6793">
        <ele>1312.903003178</ele>
        <time>2015-05-12T17:43:50Z</time>
      </trkpt>
      <trkpt lat="45.31267" lon="5.67928">
        <ele>1312.903003178</ele>
        <time>2015-05-12T17:43:55Z</time>
      </trkpt>
      <trkpt lat="45.31267" lon="5.67928">
        <ele>1312.903003178</ele>
        <time>2015-05-12T17:44:00Z</time>
      </trkpt>
      <trkpt lat="45.31267" lon="5.67928">
        <ele>1312.903003178</ele>
        <time>2015-05-12T17:44:05Z</time>
      </trkpt>
      <trkpt lat="45.31267" lon="5.67927">
        <ele>1312.903003178</ele>
        <time>2015-05-12T17:44:10Z</time>
      </trkpt>
      <trkpt lat="45.31267" lon="5.67927">
        <ele>1312.903003178</ele>
        <time>2015-05-12T17:44:15Z</time>
      </trkpt>
      <trkpt lat="45.31267" lon="5.67927">
        <ele>1312.903003178</ele>
        <time>2015-05-12T17:44:20Z</time>
      </trkpt>
      <trkpt lat="45.31267" lon="5.67927">
        <ele>1312.903003178</ele>
        <time>2015-05-12T17:44:25Z</time>
      </trkpt>
      <trkpt lat="45.31267" lon="5.67927">
        <ele>1312.903003178</ele>
        <time>2015-05-12T17:44:30Z</time>
      </trkpt>
      <trkpt lat="45.31267" lon="5.67927">
        <ele>1312.903003178</ele>
        <time>2015-05-12T17:44:35Z</time>
      </trkpt>
      <trkpt lat="45.31267" lon="5.67927">
        <ele>1312.903003178</ele>
        <time>2015-05-12T17:44:40Z</time>
      </trkpt>
      <trkpt lat="45.31266" lon="5.67924">
        <ele>1308.869806729</ele>
        <time>2015-05-12T17:44:45Z</time>
      </trkpt>
      <trkpt lat="45.31262" lon="5.67915">
        <ele>1308.869806729</ele>
        <time>2015-05-12T17:44:50Z</time>
      </trkpt>
      <trkpt lat="45.31261" lon="5.67917">
        <ele>1304.22235036</ele>
        <time>2015-05-12T17:44:55Z</time>
      </trkpt>
      <trkpt lat="45.31257" lon="5.67916">
        <ele>1304.22235036</ele>
        <time>2015-05-12T17:45:00Z</time>
      </trkpt>
      <trkpt lat="45.31256" lon="5.67908">
        <ele>1298.866361932</ele>
        <time>2015-05-12T17:45:05Z</time>
      </trkpt>
      <trkpt lat="45.31254" lon="5.67903">
        <ele>1298.866361932</ele>
        <time>2015-05-12T17:45:10Z</time>
      </trkpt>
      <trkpt lat="45.31249" lon="5.67905">
        <ele>1298.866361932</ele>
        <time>2015-05-12T17:45:14Z</time>
      </trkpt>
      <trkpt lat="45.31247" lon="5.67907">
        <ele>1292.42814003</ele>
        <time>2015-05-12T17:45:20Z</time>
      </trkpt>
      <trkpt lat="45.3124" lon="5.67902">
        <ele>1292.42814003</ele>
        <time>2015-05-12T17:45:25Z</time>
      </trkpt>
      <trkpt lat="45.31238" lon="5.67901">
        <ele>1286.870120631</ele>
        <time>2015-05-12T17:45:30Z</time>
      </trkpt>
      <trkpt lat="45.31231" lon="5.67898">
        <ele>1286.870120631</ele>
        <time>2015-05-12T17:45:35Z</time>
      </trkpt>
      <trkpt lat="45.31228" lon="5.67899">
        <ele>1281.125746723</ele>
        <time>2015-05-12T17:45:40Z</time>
      </trkpt>
      <trkpt lat="45.31221" lon="5.67899">
        <ele>1281.125746723</ele>
        <time>2015-05-12T17:45:45Z</time>
      </trkpt>
      <trkpt lat="45.31218" lon="5.679">
        <ele>1275.071846025</ele>
        <time>2015-05-12T17:45:50Z</time>
      </trkpt>
      <trkpt lat="45.31221" lon="5.67895">
        <ele>1275.071846025</ele>
        <time>2015-05-12T17:45:55Z</time>
      </trkpt>
      <trkpt lat="45.31219" lon="5.67886">
        <ele>1269.027330812</ele>
        <time>2015-05-12T17:46:01Z</time>
      </trkpt>
      <trkpt lat="45.31225" lon="5.67878">
        <ele>1269.027330812</ele>
        <time>2015-05-12T17:46:04Z</time>
      </trkpt>
      <trkpt lat="45.3122" lon="5.67872">
        <ele>1263.43159631</ele>
        <time>2015-05-12T17:46:10Z</time>
      </trkpt>
      <trkpt lat="45.3122" lon="5.67873">
        <ele>1263.43159631</ele>
        <time>2015-05-12T17:46:15Z</time>
      </trkpt>
      <trkpt lat="45.3122" lon="5.6787">
        <ele>1263.43159631</ele>
        <time>2015-05-12T17:46:20Z</time>
      </trkpt>
      <trkpt lat="45.31217" lon="5.67864">
        <ele>1263.43159631</ele>
        <time>2015-05-12T17:46:25Z</time>
      </trkpt>
      <trkpt lat="45.3122" lon="5.6786">
        <ele>1257.825650921</ele>
        <time>2015-05-12T17:46:30Z</time>
      </trkpt>
      <trkpt lat="45.3122" lon="5.67852">
        <ele>1257.825650921</ele>
        <time>2015-05-12T17:46:35Z</time>
      </trkpt>
      <trkpt lat="45.31218" lon="5.67844">
        <ele>1252.648726863</ele>
        <time>2015-05-12T17:46:40Z</time>
      </trkpt>
      <trkpt lat="45.31217" lon="5.67844">
        <ele>1252.648726863</ele>
        <time>2015-05-12T17:46:45Z</time>
      </trkpt>
      <trkpt lat="45.31217" lon="5.67835">
        <ele>1252.648726863</ele>
        <time>2015-05-12T17:46:49Z</time>
      </trkpt>
      <trkpt lat="45.3122" lon="5.67827">
        <ele>1246.577059007</ele>
        <time>2015-05-12T17:46:55Z</time>
      </trkpt>
      <trkpt lat="45.31218" lon="5.67824">
        <ele>1246.577059007</ele>
        <time>2015-05-12T17:47:00Z</time>
      </trkpt>
      <trkpt lat="45.31216" lon="5.6782">
        <ele>1246.577059007</ele>
        <time>2015-05-12T17:47:05Z</time>
      </trkpt>
      <trkpt lat="45.31214" lon="5.67818">
        <ele>1241.268662072</ele>
        <time>2015-05-12T17:47:10Z</time>
      </trkpt>
      <trkpt lat="45.31213" lon="5.67812">
        <ele>1241.268662072</ele>
        <time>2015-05-12T17:47:15Z</time>
      </trkpt>
      <trkpt lat="45.31218" lon="5.67814">
        <ele>1236.383970228</ele>
        <time>2015-05-12T17:47:20Z</time>
      </trkpt>
      <trkpt lat="45.3122" lon="5.67811">
        <ele>1236.383970228</ele>
        <time>2015-05-12T17:47:25Z</time>
      </trkpt>
      <trkpt lat="45.31219" lon="5.67807">
        <ele>1236.383970228</ele>
        <time>2015-05-12T17:47:29Z</time>
      </trkpt>
      <trkpt lat="45.31218" lon="5.67804">
        <ele>1236.383970228</ele>
        <time>2015-05-12T17:47:34Z</time>
      </trkpt>
      <trkpt lat="45.31226" lon="5.67794">
        <ele>1232.039311086</ele>
        <time>2015-05-12T17:47:40Z</time>
      </trkpt>
      <trkpt lat="45.31223" lon="5.67789">
        <ele>1232.039311086</ele>
        <time>2015-05-12T17:47:45Z</time>
      </trkpt>
      <trkpt lat="45.3122" lon="5.67781">
        <ele>1227.620204258</ele>
        <time>2015-05-12T17:47:50Z</time>
      </trkpt>
      <trkpt lat="45.31218" lon="5.67776">
        <ele>1227.620204258</ele>
        <time>2015-05-12T17:47:55Z</time>
      </trkpt>
      <trkpt lat="45.31215" lon="5.67772">
        <ele>1227.620204258</ele>
        <time>2015-05-12T17:48:00Z</time>
      </trkpt>
      <trkpt lat="45.31216" lon="5.67772">
        <ele>1227.620204258</ele>
        <time>2015-05-12T17:48:05Z</time>
      </trkpt>
      <trkpt lat="45.31214" lon="5.67768">
        <ele>1222.989665917</ele>
        <time>2015-05-12T17:48:10Z</time>
      </trkpt>
      <trkpt lat="45.31213" lon="5.67767">
        <ele>1222.989665917</ele>
        <time>2015-05-12T17:48:14Z</time>
      </trkpt>
      <trkpt lat="45.31213" lon="5.67767">
        <ele>1222.989665917</ele>
        <time>2015-05-12T17:48:20Z</time>
      </trkpt>
      <trkpt lat="45.31213" lon="5.67767">
        <ele>1222.989665917</ele>
        <time>2015-05-12T17:48:25Z</time>
      </trkpt>
      <trkpt lat="45.31213" lon="5.67767">
        <ele>1222.989665917</ele>
        <time>2015-05-12T17:48:30Z</time>
      </trkpt>
      <trkpt lat="45.31213" lon="5.67767">
        <ele>1222.989665917</ele>
        <time>2015-05-12T17:48:35Z</time>
      </trkpt>
      <trkpt lat="45.31212" lon="5.67767">
        <ele>1222.989665917</ele>
        <time>2015-05-12T17:48:40Z</time>
      </trkpt>
      <trkpt lat="45.31212" lon="5.67767">
        <ele>1222.989665917</ele>
        <time>2015-05-12T17:48:45Z</time>
      </trkpt>
      <trkpt lat="45.31212" lon="5.67767">
        <ele>1222.989665917</ele>
        <time>2015-05-12T17:48:50Z</time>
      </trkpt>
      <trkpt lat="45.31212" lon="5.67767">
        <ele>1222.989665917</ele>
        <time>2015-05-12T17:48:55Z</time>
      </trkpt>
      <trkpt lat="45.31212" lon="5.67767">
        <ele>1222.989665917</ele>
        <time>2015-05-12T17:49:00Z</time>
      </trkpt>
      <trkpt lat="45.31212" lon="5.67767">
        <ele>1222.989665917</ele>
        <time>2015-05-12T17:49:05Z</time>
      </trkpt>
      <trkpt lat="45.31202" lon="5.67747">
        <ele>1219.174081672</ele>
        <time>2015-05-12T17:49:10Z</time>
      </trkpt>
      <trkpt lat="45.31194" lon="5.67734">
        <ele>1215.392653992</ele>
        <time>2015-05-12T17:49:15Z</time>
      </trkpt>
      <trkpt lat="45.31197" lon="5.67738">
        <ele>1215.392653992</ele>
        <time>2015-05-12T17:49:20Z</time>
      </trkpt>
      <trkpt lat="45.31198" lon="5.67746">
        <ele>1211.498137049</ele>
        <time>2015-05-12T17:49:25Z</time>
      </trkpt>
      <trkpt lat="45.31198" lon="5.67746">
        <ele>1211.498137049</ele>
        <time>2015-05-12T17:49:30Z</time>
      </trkpt>
      <trkpt lat="45.31198" lon="5.67746">
        <ele>1211.498137049</ele>
        <time>2015-05-12T17:49:35Z</time>
      </trkpt>
      <trkpt lat="45.31198" lon="5.67746">
        <ele>1211.498137049</ele>
        <time>2015-05-12T17:49:40Z</time>
      </trkpt>
      <trkpt lat="45.31198" lon="5.67746">
        <ele>1211.498137049</ele>
        <time>2015-05-12T17:49:45Z</time>
      </trkpt>
      <trkpt lat="45.31198" lon="5.67746">
        <ele>1211.498137049</ele>
        <time>2015-05-12T17:49:49Z</time>
      </trkpt>
      <trkpt lat="45.31198" lon="5.67745">
        <ele>1211.498137049</ele>
        <time>2015-05-12T17:49:54Z</time>
      </trkpt>
      <trkpt lat="45.31198" lon="5.67742">
        <ele>1211.498137049</ele>
        <time>2015-05-12T17:49:59Z</time>
      </trkpt>
      <trkpt lat="45.31198" lon="5.67743">
        <ele>1211.498137049</ele>
        <time>2015-05-12T17:50:04Z</time>
      </trkpt>
      <trkpt lat="45.31198" lon="5.67743">
        <ele>1211.498137049</ele>
        <time>2015-05-12T17:50:09Z</time>
      </trkpt>
      <trkpt lat="45.31198" lon="5.67743">
        <ele>1211.498137049</ele>
        <time>2015-05-12T17:50:14Z</time>
      </trkpt>
      <trkpt lat="45.31198" lon="5.67743">
        <ele>1211.498137049</ele>
        <time>2015-05-12T17:50:19Z</time>
      </trkpt>
      <trkpt lat="45.31198" lon="5.67743">
        <ele>1211.498137049</ele>
        <time>2015-05-12T17:50:25Z</time>
      </trkpt>
      <trkpt lat="45.31194" lon="5.67736">
        <ele>1207.64249926</ele>
        <time>2015-05-12T17:50:30Z</time>
      </trkpt>
      <trkpt lat="45.31188" lon="5.67735">
        <ele>1207.64249926</ele>
        <time>2015-05-12T17:50:35Z</time>
      </trkpt>
      <trkpt lat="45.31188" lon="5.67721">
        <ele>1202.957527565</ele>
        <time>2015-05-12T17:50:40Z</time>
      </trkpt>
      <trkpt lat="45.31187" lon="5.6772">
        <ele>1202.957527565</ele>
        <time>2015-05-12T17:50:44Z</time>
      </trkpt>
      <trkpt lat="45.31186" lon="5.67721">
        <ele>1202.957527565</ele>
        <time>2015-05-12T17:50:50Z</time>
      </trkpt>
      <trkpt lat="45.31185" lon="5.67719">
        <ele>1202.957527565</ele>
        <time>2015-05-12T17:50:55Z</time>
      </trkpt>
      <trkpt lat="45.31185" lon="5.67718">
        <ele>1202.957527565</ele>
        <time>2015-05-12T17:51:00Z</time>
      </trkpt>
      <trkpt lat="45.31185" lon="5.67718">
        <ele>1202.957527565</ele>
        <time>2015-05-12T17:51:05Z</time>
      </trkpt>
      <trkpt lat="45.31185" lon="5.67718">
        <ele>1202.957527565</ele>
        <time>2015-05-12T17:51:09Z</time>
      </trkpt>
      <trkpt lat="45.31185" lon="5.67718">
        <ele>1202.957527565</ele>
        <time>2015-05-12T17:51:14Z</time>
      </trkpt>
      <trkpt lat="45.31185" lon="5.67718">
        <ele>1202.957527565</ele>
        <time>2015-05-12T17:51:20Z</time>
      </trkpt>
      <trkpt lat="45.31185" lon="5.67718">
        <ele>1202.957527565</ele>
        <time>2015-05-12T17:51:25Z</time>
      </trkpt>
      <trkpt lat="45.31185" lon="5.67718">
        <ele>1202.957527565</ele>
        <time>2015-05-12T17:51:30Z</time>
      </trkpt>
      <trkpt lat="45.31185" lon="5.67718">
        <ele>1202.957527565</ele>
        <time>2015-05-12T17:51:35Z</time>
      </trkpt>
      <trkpt lat="45.31185" lon="5.67718">
        <ele>1202.957527565</ele>
        <time>2015-05-12T17:51:40Z</time>
      </trkpt>
      <trkpt lat="45.31179" lon="5.67707">
        <ele>1196.064544133</ele>
        <time>2015-05-12T17:51:45Z</time>
      </trkpt>
      <trkpt lat="45.31166" lon="5.67703">
        <ele>1189.294997341</ele>
        <time>2015-05-12T17:51:50Z</time>
      </trkpt>
      <trkpt lat="45.31158" lon="5.67689">
        <ele>1183.799817981</ele>
        <time>2015-05-12T17:51:55Z</time>
      </trkpt>
      <trkpt lat="45.31155" lon="5.67688">
        <ele>1183.799817981</ele>
        <time>2015-05-12T17:52:00Z</time>
      </trkpt>
      <trkpt lat="45.31152" lon="5.67674">
        <ele>1177.903570622</ele>
        <time>2015-05-12T17:52:05Z</time>
      </trkpt>
      <trkpt lat="45.31153" lon="5.67675">
        <ele>1177.903570622</ele>
        <time>2015-05-12T17:52:10Z</time>
      </trkpt>
      <trkpt lat="45.31156" lon="5.67673">
        <ele>1177.903570622</ele>
        <time>2015-05-12T17:52:15Z</time>
      </trkpt>
      <trkpt lat="45.31159" lon="5.67677">
        <ele>1177.903570622</ele>
        <time>2015-05-12T17:52:20Z</time>
      </trkpt>
      <trkpt lat="45.31161" lon="5.67674">
        <ele>1172.072439637</ele>
        <time>2015-05-12T17:52:25Z</time>
      </trkpt>
      <trkpt lat="45.31161" lon="5.67675">
        <ele>1172.072439637</ele>
        <time>2015-05-12T17:52:30Z</time>
      </trkpt>
      <trkpt lat="45.31161" lon="5.67675">
        <ele>1172.072439637</ele>
        <time>2015-05-12T17:52:35Z</time>
      </trkpt>
      <trkpt lat="45.31161" lon="5.67675">
        <ele>1172.072439637</ele>
        <time>2015-05-12T17:52:40Z</time>
      </trkpt>
      <trkpt lat="45.31161" lon="5.67675">
        <ele>1172.072439637</ele>
        <time>2015-05-12T17:52:45Z</time>
      </trkpt>
      <trkpt lat="45.31161" lon="5.67675">
        <ele>1172.072439637</ele>
        <time>2015-05-12T17:52:50Z</time>
      </trkpt>
      <trkpt lat="45.31161" lon="5.67675">
        <ele>1172.072439637</ele>
        <time>2015-05-12T17:52:54Z</time>
      </trkpt>
      <trkpt lat="45.31161" lon="5.67675">
        <ele>1172.072439637</ele>
        <time>2015-05-12T17:53:00Z</time>
      </trkpt>
      <trkpt lat="45.31161" lon="5.67663">
        <ele>1172.072439637</ele>
        <time>2015-05-12T17:53:05Z</time>
      </trkpt>
      <trkpt lat="45.31155" lon="5.67659">
        <ele>1166.449818052</ele>
        <time>2015-05-12T17:53:10Z</time>
      </trkpt>
      <trkpt lat="45.31152" lon="5.6765">
        <ele>1166.449818052</ele>
        <time>2015-05-12T17:53:15Z</time>
      </trkpt>
      <trkpt lat="45.31152" lon="5.67648">
        <ele>1166.449818052</ele>
        <time>2015-05-12T17:53:20Z</time>
      </trkpt>
      <trkpt lat="45.31152" lon="5.67642">
        <ele>1161.456062502</ele>
        <time>2015-05-12T17:53:25Z</time>
      </trkpt>
      <trkpt lat="45.31154" lon="5.67641">
        <ele>1161.456062502</ele>
        <time>2015-05-12T17:53:29Z</time>
      </trkpt>
      <trkpt lat="45.3117" lon="5.6765">
        <ele>1157.190526763</ele>
        <time>2015-05-12T17:53:34Z</time>
      </trkpt>
      <trkpt lat="45.31171" lon="5.67651">
        <ele>1155.753159484</ele>
        <time>2015-05-12T17:53:39Z</time>
      </trkpt>
      <trkpt lat="45.31162" lon="5.67635">
        <ele>1154.315792205</ele>
        <time>2015-05-12T17:53:45Z</time>
      </trkpt>
      <trkpt lat="45.31157" lon="5.67618">
        <ele>1152.878424926</ele>
        <time>2015-05-12T17:53:50Z</time>
      </trkpt>
      <trkpt lat="45.31143" lon="5.67594">
        <ele>1149.243007333</ele>
        <time>2015-05-12T17:53:55Z</time>
      </trkpt>
      <trkpt lat="45.31133" lon="5.67589">
        <ele>1144.646607489</ele>
        <time>2015-05-12T17:54:00Z</time>
      </trkpt>
      <trkpt lat="45.31137" lon="5.67585">
        <ele>1144.646607489</ele>
        <time>2015-05-12T17:54:04Z</time>
      </trkpt>
      <trkpt lat="45.31136" lon="5.67575">
        <ele>1140.744904818</ele>
        <time>2015-05-12T17:54:09Z</time>
      </trkpt>
      <trkpt lat="45.31135" lon="5.67566">
        <ele>1140.744904818</ele>
        <time>2015-05-12T17:54:14Z</time>
      </trkpt>
      <trkpt lat="45.31136" lon="5.67561">
        <ele>1136.908251992</ele>
        <time>2015-05-12T17:54:20Z</time>
      </trkpt>
      <trkpt lat="45.31144" lon="5.67559">
        <ele>1136.908251992</ele>
        <time>2015-05-12T17:54:25Z</time>
      </trkpt>
      <trkpt lat="45.31137" lon="5.67559">
        <ele>1133.273555957</ele>
        <time>2015-05-12T17:54:30Z</time>
      </trkpt>
      <trkpt lat="45.31135" lon="5.6756">
        <ele>1133.273555957</ele>
        <time>2015-05-12T17:54:35Z</time>
      </trkpt>
      <trkpt lat="45.31135" lon="5.6756">
        <ele>1133.273555957</ele>
        <time>2015-05-12T17:54:40Z</time>
      </trkpt>
      <trkpt lat="45.31134" lon="5.67555">
        <ele>1133.273555957</ele>
        <time>2015-05-12T17:54:45Z</time>
      </trkpt>
      <trkpt lat="45.31128" lon="5.67552">
        <ele>1129.967040321</ele>
        <time>2015-05-12T17:54:50Z</time>
      </trkpt>
      <trkpt lat="45.31127" lon="5.67546">
        <ele>1129.967040321</ele>
        <time>2015-05-12T17:54:55Z</time>
      </trkpt>
      <trkpt lat="45.31126" lon="5.67549">
        <ele>1129.967040321</ele>
        <time>2015-05-12T17:55:00Z</time>
      </trkpt>
      <trkpt lat="45.31125" lon="5.67546">
        <ele>1129.967040321</ele>
        <time>2015-05-12T17:55:05Z</time>
      </trkpt>
      <trkpt lat="45.31124" lon="5.67545">
        <ele>1127.248802271</ele>
        <time>2015-05-12T17:55:10Z</time>
      </trkpt>
      <trkpt lat="45.31123" lon="5.67545">
        <ele>1127.248802271</ele>
        <time>2015-05-12T17:55:15Z</time>
      </trkpt>
      <trkpt lat="45.31123" lon="5.67545">
        <ele>1127.248802271</ele>
        <time>2015-05-12T17:55:20Z</time>
      </trkpt>
      <trkpt lat="45.31123" lon="5.67545">
        <ele>1127.248802271</ele>
        <time>2015-05-12T17:55:25Z</time>
      </trkpt>
      <trkpt lat="45.31123" lon="5.67545">
        <ele>1127.248802271</ele>
        <time>2015-05-12T17:55:30Z</time>
      </trkpt>
      <trkpt lat="45.31124" lon="5.67543">
        <ele>1127.248802271</ele>
        <time>2015-05-12T17:55:35Z</time>
      </trkpt>
      <trkpt lat="45.31121" lon="5.67523">
        <ele>1124.925820668</ele>
        <time>2015-05-12T17:55:40Z</time>
      </trkpt>
      <trkpt lat="45.31115" lon="5.67509">
        <ele>1122.818135375</ele>
        <time>2015-05-12T17:55:45Z</time>
      </trkpt>
      <trkpt lat="45.31098" lon="5.67488">
        <ele>1119.317298433</ele>
        <time>2015-05-12T17:55:50Z</time>
      </trkpt>
      <trkpt lat="45.3109" lon="5.67473">
        <ele>1115.675061951</ele>
        <time>2015-05-12T17:55:55Z</time>
      </trkpt>
      <trkpt lat="45.31086" lon="5.67454">
        <ele>1112.186991692</ele>
        <time>2015-05-12T17:56:00Z</time>
      </trkpt>
      <trkpt lat="45.31083" lon="5.6745">
        <ele>1112.186991692</ele>
        <time>2015-05-12T17:56:05Z</time>
      </trkpt>
      <trkpt lat="45.31083" lon="5.67449">
        <ele>1112.186991692</ele>
        <time>2015-05-12T17:56:10Z</time>
      </trkpt>
      <trkpt lat="45.31082" lon="5.67446">
        <ele>1112.186991692</ele>
        <time>2015-05-12T17:56:15Z</time>
      </trkpt>
      <trkpt lat="45.31076" lon="5.67434">
        <ele>1108.261887281</ele>
        <time>2015-05-12T17:56:20Z</time>
      </trkpt>
      <trkpt lat="45.31084" lon="5.67431">
        <ele>1108.261887281</ele>
        <time>2015-05-12T17:56:25Z</time>
      </trkpt>
      <trkpt lat="45.31084" lon="5.67419">
        <ele>1104.938478144</ele>
        <time>2015-05-12T17:56:30Z</time>
      </trkpt>
      <trkpt lat="45.31082" lon="5.67409">
        <ele>1104.938478144</ele>
        <time>2015-05-12T17:56:35Z</time>
      </trkpt>
      <trkpt lat="45.31074" lon="5.67407">
        <ele>1100.583555935</ele>
        <time>2015-05-12T17:56:40Z</time>
      </trkpt>
      <trkpt lat="45.31074" lon="5.67398">
        <ele>1100.583555935</ele>
        <time>2015-05-12T17:56:45Z</time>
      </trkpt>
      <trkpt lat="45.31073" lon="5.67389">
        <ele>1096.56906268</ele>
        <time>2015-05-12T17:56:50Z</time>
      </trkpt>
      <trkpt lat="45.31071" lon="5.67383">
        <ele>1096.56906268</ele>
        <time>2015-05-12T17:56:55Z</time>
      </trkpt>
      <trkpt lat="45.31072" lon="5.67373">
        <ele>1093.012375352</ele>
        <time>2015-05-12T17:57:00Z</time>
      </trkpt>
      <trkpt lat="45.31069" lon="5.67379">
        <ele>1093.012375352</ele>
        <time>2015-05-12T17:57:05Z</time>
      </trkpt>
      <trkpt lat="45.3107" lon="5.67375">
        <ele>1093.012375352</ele>
        <time>2015-05-12T17:57:09Z</time>
      </trkpt>
      <trkpt lat="45.31069" lon="5.67373">
        <ele>1090.741585825</ele>
        <time>2015-05-12T17:57:15Z</time>
      </trkpt>
      <trkpt lat="45.31069" lon="5.67373">
        <ele>1090.741585825</ele>
        <time>2015-05-12T17:57:19Z</time>
      </trkpt>
      <trkpt lat="45.31069" lon="5.67372">
        <ele>1090.741585825</ele>
        <time>2015-05-12T17:57:25Z</time>
      </trkpt>
      <trkpt lat="45.31069" lon="5.67372">
        <ele>1090.741585825</ele>
        <time>2015-05-12T17:57:29Z</time>
      </trkpt>
      <trkpt lat="45.31069" lon="5.67372">
        <ele>1090.741585825</ele>
        <time>2015-05-12T17:57:35Z</time>
      </trkpt>
      <trkpt lat="45.31069" lon="5.67372">
        <ele>1090.741585825</ele>
        <time>2015-05-12T17:57:40Z</time>
      </trkpt>
      <trkpt lat="45.31069" lon="5.67373">
        <ele>1090.741585825</ele>
        <time>2015-05-12T17:57:45Z</time>
      </trkpt>
      <trkpt lat="45.31069" lon="5.67373">
        <ele>1090.741585825</ele>
        <time>2015-05-12T17:57:50Z</time>
      </trkpt>
      <trkpt lat="45.31069" lon="5.67373">
        <ele>1090.741585825</ele>
        <time>2015-05-12T17:57:55Z</time>
      </trkpt>
      <trkpt lat="45.31069" lon="5.67373">
        <ele>1090.741585825</ele>
        <time>2015-05-12T17:58:00Z</time>
      </trkpt>
      <trkpt lat="45.31069" lon="5.67373">
        <ele>1090.741585825</ele>
        <time>2015-05-12T17:58:10Z</time>
      </trkpt>
      <trkpt lat="45.31073" lon="5.67369">
        <ele>1090.741585825</ele>
        <time>2015-05-12T17:58:15Z</time>
      </trkpt>
      <trkpt lat="45.31074" lon="5.67367">
        <ele>1090.741585825</ele>
        <time>2015-05-12T17:58:20Z</time>
      </trkpt>
      <trkpt lat="45.31075" lon="5.67364">
        <ele>1088.214640048</ele>
        <time>2015-05-12T17:58:25Z</time>
      </trkpt>
      <trkpt lat="45.31072" lon="5.67366">
        <ele>1088.214640048</ele>
        <time>2015-05-12T17:58:30Z</time>
      </trkpt>
      <trkpt lat="45.31066" lon="5.67363">
        <ele>1085.588783275</ele>
        <time>2015-05-12T17:58:35Z</time>
      </trkpt>
      <trkpt lat="45.31058" lon="5.6735">
        <ele>1083.154188029</ele>
        <time>2015-05-12T17:58:40Z</time>
      </trkpt>
      <trkpt lat="45.31056" lon="5.67342">
        <ele>1083.154188029</ele>
        <time>2015-05-12T17:58:45Z</time>
      </trkpt>
      <trkpt lat="45.31059" lon="5.67338">
        <ele>1080.45871838</ele>
        <time>2015-05-12T17:58:50Z</time>
      </trkpt>
      <trkpt lat="45.31065" lon="5.67331">
        <ele>1080.45871838</ele>
        <time>2015-05-12T17:58:55Z</time>
      </trkpt>
      <trkpt lat="45.31058" lon="5.67326">
        <ele>1077.660736668</ele>
        <time>2015-05-12T17:59:00Z</time>
      </trkpt>
      <trkpt lat="45.31053" lon="5.67322">
        <ele>1077.660736668</ele>
        <time>2015-05-12T17:59:05Z</time>
      </trkpt>
      <trkpt lat="45.31046" lon="5.67312">
        <ele>1075.339708986</ele>
        <time>2015-05-12T17:59:10Z</time>
      </trkpt>
      <trkpt lat="45.31047" lon="5.67311">
        <ele>1075.339708986</ele>
        <time>2015-05-12T17:59:15Z</time>
      </trkpt>
      <trkpt lat="45.31046" lon="5.67314">
        <ele>1075.339708986</ele>
        <time>2015-05-12T17:59:20Z</time>
      </trkpt>
      <trkpt lat="45.31044" lon="5.67313">
        <ele>1075.339708986</ele>
        <time>2015-05-12T17:59:25Z</time>
      </trkpt>
      <trkpt lat="45.31044" lon="5.67313">
        <ele>1075.339708986</ele>
        <time>2015-05-12T17:59:30Z</time>
      </trkpt>
      <trkpt lat="45.31044" lon="5.67313">
        <ele>1075.339708986</ele>
        <time>2015-05-12T17:59:35Z</time>
      </trkpt>
      <trkpt lat="45.31044" lon="5.67312">
        <ele>1075.339708986</ele>
        <time>2015-05-12T17:59:40Z</time>
      </trkpt>
      <trkpt lat="45.31044" lon="5.67312">
        <ele>1075.339708986</ele>
        <time>2015-05-12T17:59:45Z</time>
      </trkpt>
      <trkpt lat="45.31044" lon="5.67312">
        <ele>1075.339708986</ele>
        <time>2015-05-12T17:59:50Z</time>
      </trkpt>
      <trkpt lat="45.31043" lon="5.67305">
        <ele>1072.446095227</ele>
        <time>2015-05-12T17:59:55Z</time>
      </trkpt>
      <trkpt lat="45.31044" lon="5.67305">
        <ele>1072.446095227</ele>
        <time>2015-05-12T18:00:00Z</time>
      </trkpt>
      <trkpt lat="45.31043" lon="5.67306">
        <ele>1072.446095227</ele>
        <time>2015-05-12T18:00:04Z</time>
      </trkpt>
      <trkpt lat="45.31043" lon="5.67302">
        <ele>1072.446095227</ele>
        <time>2015-05-12T18:00:10Z</time>
      </trkpt>
      <trkpt lat="45.31042" lon="5.673">
        <ele>1072.446095227</ele>
        <time>2015-05-12T18:00:14Z</time>
      </trkpt>
      <trkpt lat="45.31042" lon="5.673">
        <ele>1072.446095227</ele>
        <time>2015-05-12T18:00:19Z</time>
      </trkpt>
      <trkpt lat="45.31042" lon="5.673">
        <ele>1072.446095227</ele>
        <time>2015-05-12T18:00:24Z</time>
      </trkpt>
      <trkpt lat="45.31049" lon="5.67284">
        <ele>1068.729741229</ele>
        <time>2015-05-12T18:00:29Z</time>
      </trkpt>
      <trkpt lat="45.31052" lon="5.67291">
        <ele>1068.729741229</ele>
        <time>2015-05-12T18:00:34Z</time>
      </trkpt>
      <trkpt lat="45.31056" lon="5.6729">
        <ele>1064.681858809</ele>
        <time>2015-05-12T18:00:40Z</time>
      </trkpt>
      <trkpt lat="45.31057" lon="5.67292">
        <ele>1064.681858809</ele>
        <time>2015-05-12T18:00:45Z</time>
      </trkpt>
      <trkpt lat="45.31057" lon="5.67293">
        <ele>1064.681858809</ele>
        <time>2015-05-12T18:00:50Z</time>
      </trkpt>
      <trkpt lat="45.31057" lon="5.67293">
        <ele>1064.681858809</ele>
        <time>2015-05-12T18:00:55Z</time>
      </trkpt>
      <trkpt lat="45.31057" lon="5.67293">
        <ele>1064.681858809</ele>
        <time>2015-05-12T18:01:00Z</time>
      </trkpt>
      <trkpt lat="45.31057" lon="5.67293">
        <ele>1064.681858809</ele>
        <time>2015-05-12T18:01:04Z</time>
      </trkpt>
      <trkpt lat="45.31057" lon="5.67293">
        <ele>1064.681858809</ele>
        <time>2015-05-12T18:01:09Z</time>
      </trkpt>
      <trkpt lat="45.31057" lon="5.67293">
        <ele>1064.681858809</ele>
        <time>2015-05-12T18:01:14Z</time>
      </trkpt>
      <trkpt lat="45.31057" lon="5.67293">
        <ele>1064.681858809</ele>
        <time>2015-05-12T18:01:19Z</time>
      </trkpt>
      <trkpt lat="45.31057" lon="5.67293">
        <ele>1064.681858809</ele>
        <time>2015-05-12T18:01:24Z</time>
      </trkpt>
      <trkpt lat="45.31057" lon="5.67293">
        <ele>1064.681858809</ele>
        <time>2015-05-12T18:01:29Z</time>
      </trkpt>
      <trkpt lat="45.31057" lon="5.67293">
        <ele>1064.681858809</ele>
        <time>2015-05-12T18:01:35Z</time>
      </trkpt>
      <trkpt lat="45.31057" lon="5.67293">
        <ele>1064.681858809</ele>
        <time>2015-05-12T18:01:39Z</time>
      </trkpt>
      <trkpt lat="45.31059" lon="5.67294">
        <ele>1064.681858809</ele>
        <time>2015-05-12T18:01:44Z</time>
      </trkpt>
      <trkpt lat="45.31069" lon="5.67299">
        <ele>1060.182183805</ele>
        <time>2015-05-12T18:01:49Z</time>
      </trkpt>
      <trkpt lat="45.31077" lon="5.67304">
        <ele>1055.985337322</ele>
        <time>2015-05-12T18:01:54Z</time>
      </trkpt>
      <trkpt lat="45.31087" lon="5.67316">
        <ele>1052.069209262</ele>
        <time>2015-05-12T18:01:59Z</time>
      </trkpt>
      <trkpt lat="45.3109" lon="5.67322">
        <ele>1052.069209262</ele>
        <time>2015-05-12T18:02:05Z</time>
      </trkpt>
      <trkpt lat="45.31096" lon="5.67324">
        <ele>1048.412626667</ele>
        <time>2015-05-12T18:02:09Z</time>
      </trkpt>
      <trkpt lat="45.31105" lon="5.6733">
        <ele>1045.283560969</ele>
        <time>2015-05-12T18:02:14Z</time>
      </trkpt>
      <trkpt lat="45.31108" lon="5.67332">
        <ele>1045.283560969</ele>
        <time>2015-05-12T18:02:19Z</time>
      </trkpt>
      <trkpt lat="45.31105" lon="5.67324">
        <ele>1042.208354542</ele>
        <time>2015-05-12T18:02:24Z</time>
      </trkpt>
      <trkpt lat="45.31109" lon="5.67324">
        <ele>1042.208354542</ele>
        <time>2015-05-12T18:02:29Z</time>
      </trkpt>
      <trkpt lat="45.31109" lon="5.67324">
        <ele>1042.208354542</ele>
        <time>2015-05-12T18:02:34Z</time>
      </trkpt>
      <trkpt lat="45.31107" lon="5.67323">
        <ele>1042.208354542</ele>
        <time>2015-05-12T18:02:39Z</time>
      </trkpt>
      <trkpt lat="45.31107" lon="5.67324">
        <ele>1042.208354542</ele>
        <time>2015-05-12T18:02:44Z</time>
      </trkpt>
      <trkpt lat="45.31107" lon="5.67324">
        <ele>1042.208354542</ele>
        <time>2015-05-12T18:02:49Z</time>
      </trkpt>
      <trkpt lat="45.31106" lon="5.67323">
        <ele>1042.208354542</ele>
        <time>2015-05-12T18:02:54Z</time>
      </trkpt>
      <trkpt lat="45.31106" lon="5.67322">
        <ele>1042.208354542</ele>
        <time>2015-05-12T18:02:59Z</time>
      </trkpt>
      <trkpt lat="45.31106" lon="5.67322">
        <ele>1042.208354542</ele>
        <time>2015-05-12T18:03:04Z</time>
      </trkpt>
      <trkpt lat="45.31106" lon="5.67322">
        <ele>1042.208354542</ele>
        <time>2015-05-12T18:03:09Z</time>
      </trkpt>
      <trkpt lat="45.31106" lon="5.67318">
        <ele>1038.748083086</ele>
        <time>2015-05-12T18:03:14Z</time>
      </trkpt>
      <trkpt lat="45.31107" lon="5.67315">
        <ele>1038.748083086</ele>
        <time>2015-05-12T18:03:19Z</time>
      </trkpt>
      <trkpt lat="45.31107" lon="5.67311">
        <ele>1038.748083086</ele>
        <time>2015-05-12T18:03:24Z</time>
      </trkpt>
      <trkpt lat="45.31107" lon="5.67312">
        <ele>1038.748083086</ele>
        <time>2015-05-12T18:03:29Z</time>
      </trkpt>
      <trkpt lat="45.31107" lon="5.67312">
        <ele>1038.748083086</ele>
        <time>2015-05-12T18:03:34Z</time>
      </trkpt>
      <trkpt lat="45.31107" lon="5.67312">
        <ele>1038.748083086</ele>
        <time>2015-05-12T18:03:39Z</time>
      </trkpt>
      <trkpt lat="45.31107" lon="5.6731">
        <ele>1038.748083086</ele>
        <time>2015-05-12T18:03:44Z</time>
      </trkpt>
      <trkpt lat="45.31112" lon="5.67299">
        <ele>1033.920787452</ele>
        <time>2015-05-12T18:03:49Z</time>
      </trkpt>
      <trkpt lat="45.31106" lon="5.67296">
        <ele>1033.920787452</ele>
        <time>2015-05-12T18:03:54Z</time>
      </trkpt>
      <trkpt lat="45.31103" lon="5.67293">
        <ele>1028.4057805</ele>
        <time>2015-05-12T18:03:59Z</time>
      </trkpt>
      <trkpt lat="45.31104" lon="5.6729">
        <ele>1028.4057805</ele>
        <time>2015-05-12T18:04:04Z</time>
      </trkpt>
      <trkpt lat="45.31104" lon="5.6729">
        <ele>1028.4057805</ele>
        <time>2015-05-12T18:04:09Z</time>
      </trkpt>
      <trkpt lat="45.31104" lon="5.6729">
        <ele>1028.4057805</ele>
        <time>2015-05-12T18:04:14Z</time>
      </trkpt>
      <trkpt lat="45.31104" lon="5.6729">
        <ele>1028.4057805</ele>
        <time>2015-05-12T18:04:20Z</time>
      </trkpt>
      <trkpt lat="45.31108" lon="5.67284">
        <ele>1028.4057805</ele>
        <time>2015-05-12T18:04:24Z</time>
      </trkpt>
      <trkpt lat="45.31108" lon="5.67277">
        <ele>1022.402137653</ele>
        <time>2015-05-12T18:04:29Z</time>
      </trkpt>
      <trkpt lat="45.31111" lon="5.67268">
        <ele>1022.402137653</ele>
        <time>2015-05-12T18:04:34Z</time>
      </trkpt>
      <trkpt lat="45.31111" lon="5.67252">
        <ele>1015.231064824</ele>
        <time>2015-05-12T18:04:39Z</time>
      </trkpt>
      <trkpt lat="45.31112" lon="5.67241">
        <ele>1015.231064824</ele>
        <time>2015-05-12T18:04:44Z</time>
      </trkpt>
      <trkpt lat="45.3111" lon="5.67234">
        <ele>1008.572714319</ele>
        <time>2015-05-12T18:04:49Z</time>
      </trkpt>
      <trkpt lat="45.31115" lon="5.67232">
        <ele>1008.572714319</ele>
        <time>2015-05-12T18:04:54Z</time>
      </trkpt>
      <trkpt lat="45.3111" lon="5.67239">
        <ele>1001.82071458</ele>
        <time>2015-05-12T18:04:59Z</time>
      </trkpt>
      <trkpt lat="45.31111" lon="5.67234">
        <ele>1001.82071458</ele>
        <time>2015-05-12T18:05:04Z</time>
      </trkpt>
      <trkpt lat="45.31111" lon="5.67231">
        <ele>1001.82071458</ele>
        <time>2015-05-12T18:05:09Z</time>
      </trkpt>
      <trkpt lat="45.3111" lon="5.67231">
        <ele>1001.82071458</ele>
        <time>2015-05-12T18:05:14Z</time>
      </trkpt>
      <trkpt lat="45.31111" lon="5.67227">
        <ele>996.286928492</ele>
        <time>2015-05-12T18:05:19Z</time>
      </trkpt>
      <trkpt lat="45.31113" lon="5.67228">
        <ele>996.286928492</ele>
        <time>2015-05-12T18:05:24Z</time>
      </trkpt>
      <trkpt lat="45.31113" lon="5.67228">
        <ele>996.286928492</ele>
        <time>2015-05-12T18:05:29Z</time>
      </trkpt>
      <trkpt lat="45.31113" lon="5.67228">
        <ele>996.286928492</ele>
        <time>2015-05-12T18:05:34Z</time>
      </trkpt>
      <trkpt lat="45.31113" lon="5.67227">
        <ele>996.286928492</ele>
        <time>2015-05-12T18:05:39Z</time>
      </trkpt>
      <trkpt lat="45.31113" lon="5.67227">
        <ele>996.286928492</ele>
        <time>2015-05-12T18:05:44Z</time>
      </trkpt>
      <trkpt lat="45.31113" lon="5.67227">
        <ele>996.286928492</ele>
        <time>2015-05-12T18:05:49Z</time>
      </trkpt>
      <trkpt lat="45.31113" lon="5.67227">
        <ele>996.286928492</ele>
        <time>2015-05-12T18:05:54Z</time>
      </trkpt>
      <trkpt lat="45.31113" lon="5.67227">
        <ele>996.286928492</ele>
        <time>2015-05-12T18:06:00Z</time>
      </trkpt>
      <trkpt lat="45.31113" lon="5.67227">
        <ele>996.286928492</ele>
        <time>2015-05-12T18:06:04Z</time>
      </trkpt>
      <trkpt lat="45.31118" lon="5.67222">
        <ele>996.286928492</ele>
        <time>2015-05-12T18:06:09Z</time>
      </trkpt>
      <trkpt lat="45.3112" lon="5.67221">
        <ele>990.445283505</ele>
        <time>2015-05-12T18:06:14Z</time>
      </trkpt>
      <trkpt lat="45.31124" lon="5.67221">
        <ele>990.445283505</ele>
        <time>2015-05-12T18:06:19Z</time>
      </trkpt>
      <trkpt lat="45.31134" lon="5.67215">
        <ele>983.603176268</ele>
        <time>2015-05-12T18:06:24Z</time>
      </trkpt>
      <trkpt lat="45.31139" lon="5.6721">
        <ele>983.603176268</ele>
        <time>2015-05-12T18:06:29Z</time>
      </trkpt>
      <trkpt lat="45.31142" lon="5.672">
        <ele>977.715620564</ele>
        <time>2015-05-12T18:06:34Z</time>
      </trkpt>
      <trkpt lat="45.31143" lon="5.67196">
        <ele>977.715620564</ele>
        <time>2015-05-12T18:06:39Z</time>
      </trkpt>
      <trkpt lat="45.3115" lon="5.67191">
        <ele>972.14136775</ele>
        <time>2015-05-12T18:06:44Z</time>
      </trkpt>
      <trkpt lat="45.31152" lon="5.67179">
        <ele>972.14136775</ele>
        <time>2015-05-12T18:06:49Z</time>
      </trkpt>
      <trkpt lat="45.31151" lon="5.67176">
        <ele>966.4294155</ele>
        <time>2015-05-12T18:06:54Z</time>
      </trkpt>
      <trkpt lat="45.31155" lon="5.67168">
        <ele>966.4294155</ele>
        <time>2015-05-12T18:06:59Z</time>
      </trkpt>
      <trkpt lat="45.31163" lon="5.67165">
        <ele>960.306287976</ele>
        <time>2015-05-12T18:07:04Z</time>
      </trkpt>
      <trkpt lat="45.31168" lon="5.67169">
        <ele>960.306287976</ele>
        <time>2015-05-12T18:07:09Z</time>
      </trkpt>
      <trkpt lat="45.31172" lon="5.67168">
        <ele>954.52842209</ele>
        <time>2015-05-12T18:07:14Z</time>
      </trkpt>
      <trkpt lat="45.31178" lon="5.67166">
        <ele>954.52842209</ele>
        <time>2015-05-12T18:07:19Z</time>
      </trkpt>
      <trkpt lat="45.31185" lon="5.67168">
        <ele>948.930937551</ele>
        <time>2015-05-12T18:07:24Z</time>
      </trkpt>
      <trkpt lat="45.31185" lon="5.67164">
        <ele>948.930937551</ele>
        <time>2015-05-12T18:07:29Z</time>
      </trkpt>
      <trkpt lat="45.31196" lon="5.67171">
        <ele>943.504552052</ele>
        <time>2015-05-12T18:07:34Z</time>
      </trkpt>
      <trkpt lat="45.312" lon="5.67169">
        <ele>943.504552052</ele>
        <time>2015-05-12T18:07:39Z</time>
      </trkpt>
      <trkpt lat="45.31201" lon="5.67165">
        <ele>943.504552052</ele>
        <time>2015-05-12T18:07:44Z</time>
      </trkpt>
      <trkpt lat="45.31209" lon="5.67163">
        <ele>937.951839983</ele>
        <time>2015-05-12T18:07:49Z</time>
      </trkpt>
      <trkpt lat="45.31204" lon="5.67162">
        <ele>937.951839983</ele>
        <time>2015-05-12T18:07:54Z</time>
      </trkpt>
      <trkpt lat="45.31203" lon="5.67161">
        <ele>937.951839983</ele>
        <time>2015-05-12T18:08:00Z</time>
      </trkpt>
      <trkpt lat="45.31204" lon="5.67161">
        <ele>937.951839983</ele>
        <time>2015-05-12T18:08:04Z</time>
      </trkpt>
      <trkpt lat="45.31204" lon="5.67161">
        <ele>937.951839983</ele>
        <time>2015-05-12T18:08:09Z</time>
      </trkpt>
      <trkpt lat="45.31205" lon="5.67161">
        <ele>937.951839983</ele>
        <time>2015-05-12T18:08:14Z</time>
      </trkpt>
      <trkpt lat="45.31205" lon="5.67161">
        <ele>937.951839983</ele>
        <time>2015-05-12T18:08:19Z</time>
      </trkpt>
      <trkpt lat="45.31211" lon="5.67155">
        <ele>931.709230411</ele>
        <time>2015-05-12T18:08:24Z</time>
      </trkpt>
      <trkpt lat="45.31222" lon="5.67151">
        <ele>925.841581569</ele>
        <time>2015-05-12T18:08:29Z</time>
      </trkpt>
      <trkpt lat="45.31224" lon="5.67152">
        <ele>925.841581569</ele>
        <time>2015-05-12T18:08:34Z</time>
      </trkpt>
      <trkpt lat="45.31232" lon="5.67159">
        <ele>920.037344041</ele>
        <time>2015-05-12T18:08:39Z</time>
      </trkpt>
      <trkpt lat="45.3124" lon="5.67157">
        <ele>920.037344041</ele>
        <time>2015-05-12T18:08:44Z</time>
      </trkpt>
      <trkpt lat="45.31243" lon="5.67163">
        <ele>914.295764927</ele>
        <time>2015-05-12T18:08:49Z</time>
      </trkpt>
      <trkpt lat="45.31252" lon="5.67168">
        <ele>908.759946098</ele>
        <time>2015-05-12T18:08:54Z</time>
      </trkpt>
      <trkpt lat="45.31261" lon="5.67173">
        <ele>903.561764517</ele>
        <time>2015-05-12T18:08:59Z</time>
      </trkpt>
      <trkpt lat="45.31272" lon="5.67174">
        <ele>899.254663786</ele>
        <time>2015-05-12T18:09:04Z</time>
      </trkpt>
      <trkpt lat="45.31274" lon="5.6718">
        <ele>899.254663786</ele>
        <time>2015-05-12T18:09:09Z</time>
      </trkpt>
      <trkpt lat="45.31274" lon="5.67184">
        <ele>899.254663786</ele>
        <time>2015-05-12T18:09:14Z</time>
      </trkpt>
      <trkpt lat="45.31275" lon="5.67182">
        <ele>899.254663786</ele>
        <time>2015-05-12T18:09:19Z</time>
      </trkpt>
      <trkpt lat="45.31276" lon="5.67182">
        <ele>894.763582843</ele>
        <time>2015-05-12T18:09:24Z</time>
      </trkpt>
      <trkpt lat="45.31277" lon="5.67182">
        <ele>894.763582843</ele>
        <time>2015-05-12T18:09:29Z</time>
      </trkpt>
      <trkpt lat="45.31277" lon="5.67182">
        <ele>894.763582843</ele>
        <time>2015-05-12T18:09:34Z</time>
      </trkpt>
      <trkpt lat="45.31277" lon="5.67182">
        <ele>894.763582843</ele>
        <time>2015-05-12T18:09:39Z</time>
      </trkpt>
      <trkpt lat="45.31278" lon="5.67182">
        <ele>894.763582843</ele>
        <time>2015-05-12T18:09:44Z</time>
      </trkpt>
      <trkpt lat="45.31278" lon="5.67182">
        <ele>894.763582843</ele>
        <time>2015-05-12T18:09:49Z</time>
      </trkpt>
      <trkpt lat="45.31287" lon="5.67176">
        <ele>890.389832477</ele>
        <time>2015-05-12T18:09:54Z</time>
      </trkpt>
      <trkpt lat="45.31303" lon="5.67179">
        <ele>886.123930019</ele>
        <time>2015-05-12T18:09:59Z</time>
      </trkpt>
      <trkpt lat="45.31314" lon="5.67179">
        <ele>880.947910258</ele>
        <time>2015-05-12T18:10:04Z</time>
      </trkpt>
      <trkpt lat="45.31322" lon="5.67182">
        <ele>880.947910258</ele>
        <time>2015-05-12T18:10:10Z</time>
      </trkpt>
      <trkpt lat="45.31328" lon="5.67181">
        <ele>875.79449505</ele>
        <time>2015-05-12T18:10:14Z</time>
      </trkpt>
      <trkpt lat="45.3133" lon="5.67183">
        <ele>875.79449505</ele>
        <time>2015-05-12T18:10:19Z</time>
      </trkpt>
      <trkpt lat="45.31332" lon="5.67183">
        <ele>875.79449505</ele>
        <time>2015-05-12T18:10:24Z</time>
      </trkpt>
      <trkpt lat="45.31337" lon="5.67181">
        <ele>870.374851707</ele>
        <time>2015-05-12T18:10:29Z</time>
      </trkpt>
      <trkpt lat="45.31347" lon="5.67179">
        <ele>865.574921296</ele>
        <time>2015-05-12T18:10:34Z</time>
      </trkpt>
      <trkpt lat="45.31358" lon="5.67178">
        <ele>861.493194874</ele>
        <time>2015-05-12T18:10:39Z</time>
      </trkpt>
      <trkpt lat="45.31359" lon="5.67174">
        <ele>861.493194874</ele>
        <time>2015-05-12T18:10:44Z</time>
      </trkpt>
      <trkpt lat="45.31368" lon="5.67172">
        <ele>857.210066628</ele>
        <time>2015-05-12T18:10:49Z</time>
      </trkpt>
      <trkpt lat="45.31371" lon="5.67171">
        <ele>857.210066628</ele>
        <time>2015-05-12T18:10:54Z</time>
      </trkpt>
      <trkpt lat="45.31375" lon="5.67169">
        <ele>857.210066628</ele>
        <time>2015-05-12T18:10:59Z</time>
      </trkpt>
      <trkpt lat="45.31376" lon="5.6717">
        <ele>857.210066628</ele>
        <time>2015-05-12T18:11:04Z</time>
      </trkpt>
      <trkpt lat="45.31378" lon="5.67171">
        <ele>852.450432419</ele>
        <time>2015-05-12T18:11:09Z</time>
      </trkpt>
      <trkpt lat="45.31379" lon="5.67172">
        <ele>852.450432419</ele>
        <time>2015-05-12T18:11:14Z</time>
      </trkpt>
      <trkpt lat="45.31379" lon="5.67172">
        <ele>852.450432419</ele>
        <time>2015-05-12T18:11:19Z</time>
      </trkpt>
      <trkpt lat="45.3138" lon="5.67172">
        <ele>852.450432419</ele>
        <time>2015-05-12T18:11:24Z</time>
      </trkpt>
      <trkpt lat="45.31388" lon="5.67171">
        <ele>847.537124559</ele>
        <time>2015-05-12T18:11:29Z</time>
      </trkpt>
      <trkpt lat="45.31397" lon="5.67172">
        <ele>842.913755817</ele>
        <time>2015-05-12T18:11:35Z</time>
      </trkpt>
      <trkpt lat="45.314" lon="5.67172">
        <ele>842.913755817</ele>
        <time>2015-05-12T18:11:39Z</time>
      </trkpt>
      <trkpt lat="45.31412" lon="5.67177">
        <ele>838.990498192</ele>
        <time>2015-05-12T18:11:44Z</time>
      </trkpt>
      <trkpt lat="45.31415" lon="5.67176">
        <ele>838.990498192</ele>
        <time>2015-05-12T18:11:49Z</time>
      </trkpt>
      <trkpt lat="45.31418" lon="5.67177">
        <ele>838.990498192</ele>
        <time>2015-05-12T18:11:54Z</time>
      </trkpt>
      <trkpt lat="45.31419" lon="5.67177">
        <ele>838.990498192</ele>
        <time>2015-05-12T18:11:59Z</time>
      </trkpt>
      <trkpt lat="45.31423" lon="5.67178">
        <ele>835.280729217</ele>
        <time>2015-05-12T18:12:04Z</time>
      </trkpt>
      <trkpt lat="45.31437" lon="5.67183">
        <ele>832.34173062</ele>
        <time>2015-05-12T18:12:09Z</time>
      </trkpt>
      <trkpt lat="45.31447" lon="5.67188">
        <ele>830.255343137</ele>
        <time>2015-05-12T18:12:14Z</time>
      </trkpt>
      <trkpt lat="45.31455" lon="5.67193">
        <ele>830.255343137</ele>
        <time>2015-05-12T18:12:19Z</time>
      </trkpt>
      <trkpt lat="45.31468" lon="5.67201">
        <ele>827.942123749</ele>
        <time>2015-05-12T18:12:24Z</time>
      </trkpt>
      <trkpt lat="45.31473" lon="5.67205">
        <ele>827.942123749</ele>
        <time>2015-05-12T18:12:29Z</time>
      </trkpt>
      <trkpt lat="45.31482" lon="5.67204">
        <ele>825.267255751</ele>
        <time>2015-05-12T18:12:34Z</time>
      </trkpt>
      <trkpt lat="45.31491" lon="5.67207">
        <ele>825.267255751</ele>
        <time>2015-05-12T18:12:39Z</time>
      </trkpt>
      <trkpt lat="45.3149" lon="5.67206">
        <ele>823.115666009</ele>
        <time>2015-05-12T18:12:44Z</time>
      </trkpt>
      <trkpt lat="45.31493" lon="5.67207">
        <ele>823.115666009</ele>
        <time>2015-05-12T18:12:49Z</time>
      </trkpt>
      <trkpt lat="45.31495" lon="5.67205">
        <ele>823.115666009</ele>
        <time>2015-05-12T18:12:54Z</time>
      </trkpt>
      <trkpt lat="45.31498" lon="5.67204">
        <ele>823.115666009</ele>
        <time>2015-05-12T18:12:59Z</time>
      </trkpt>
      <trkpt lat="45.31507" lon="5.672">
        <ele>821.873541237</ele>
        <time>2015-05-12T18:13:04Z</time>
      </trkpt>
      <trkpt lat="45.31512" lon="5.67189">
        <ele>819.73456595</ele>
        <time>2015-05-12T18:13:09Z</time>
      </trkpt>
      <trkpt lat="45.31518" lon="5.67184">
        <ele>819.73456595</ele>
        <time>2015-05-12T18:13:14Z</time>
      </trkpt>
      <trkpt lat="45.31523" lon="5.67184">
        <ele>818.486404403</ele>
        <time>2015-05-12T18:13:19Z</time>
      </trkpt>
      <trkpt lat="45.31531" lon="5.67191">
        <ele>817.47724715</ele>
        <time>2015-05-12T18:13:24Z</time>
      </trkpt>
      <trkpt lat="45.31538" lon="5.67197">
        <ele>817.47724715</ele>
        <time>2015-05-12T18:13:29Z</time>
      </trkpt>
      <trkpt lat="45.31546" lon="5.67204">
        <ele>816.390862224</ele>
        <time>2015-05-12T18:13:34Z</time>
      </trkpt>
      <trkpt lat="45.31554" lon="5.67207">
        <ele>816.390862224</ele>
        <time>2015-05-12T18:13:39Z</time>
      </trkpt>
      <trkpt lat="45.31559" lon="5.67216">
        <ele>815.366960607</ele>
        <time>2015-05-12T18:13:44Z</time>
      </trkpt>
      <trkpt lat="45.31562" lon="5.6722">
        <ele>815.366960607</ele>
        <time>2015-05-12T18:13:49Z</time>
      </trkpt>
      <trkpt lat="45.31567" lon="5.67225">
        <ele>814.390884629</ele>
        <time>2015-05-12T18:13:54Z</time>
      </trkpt>
      <trkpt lat="45.31563" lon="5.67232">
        <ele>814.390884629</ele>
        <time>2015-05-12T18:13:59Z</time>
      </trkpt>
      <trkpt lat="45.3157" lon="5.67243">
        <ele>812.87267119</ele>
        <time>2015-05-12T18:14:04Z</time>
      </trkpt>
      <trkpt lat="45.31579" lon="5.67255">
        <ele>811.420315859</ele>
        <time>2015-05-12T18:14:09Z</time>
      </trkpt>
      <trkpt lat="45.31585" lon="5.67265">
        <ele>810.164854411</ele>
        <time>2015-05-12T18:14:14Z</time>
      </trkpt>
      <trkpt lat="45.31589" lon="5.67264">
        <ele>810.164854411</ele>
        <time>2015-05-12T18:14:19Z</time>
      </trkpt>
      <trkpt lat="45.31594" lon="5.67262">
        <ele>810.164854411</ele>
        <time>2015-05-12T18:14:24Z</time>
      </trkpt>
      <trkpt lat="45.31607" lon="5.67268">
        <ele>807.498038626</ele>
        <time>2015-05-12T18:14:29Z</time>
      </trkpt>
      <trkpt lat="45.31612" lon="5.6727">
        <ele>807.498038626</ele>
        <time>2015-05-12T18:14:34Z</time>
      </trkpt>
      <trkpt lat="45.31619" lon="5.67278">
        <ele>804.383841148</ele>
        <time>2015-05-12T18:14:39Z</time>
      </trkpt>
      <trkpt lat="45.31619" lon="5.67281">
        <ele>804.383841148</ele>
        <time>2015-05-12T18:14:44Z</time>
      </trkpt>
      <trkpt lat="45.31628" lon="5.67283">
        <ele>801.716907085</ele>
        <time>2015-05-12T18:14:49Z</time>
      </trkpt>
      <trkpt lat="45.31633" lon="5.6728">
        <ele>801.716907085</ele>
        <time>2015-05-12T18:14:54Z</time>
      </trkpt>
      <trkpt lat="45.31642" lon="5.67281">
        <ele>799.604578128</ele>
        <time>2015-05-12T18:14:59Z</time>
      </trkpt>
      <trkpt lat="45.31652" lon="5.67295">
        <ele>797.424421484</ele>
        <time>2015-05-12T18:15:04Z</time>
      </trkpt>
      <trkpt lat="45.31656" lon="5.67298">
        <ele>797.424421484</ele>
        <time>2015-05-12T18:15:09Z</time>
      </trkpt>
      <trkpt lat="45.31662" lon="5.67292">
        <ele>795.176581417</ele>
        <time>2015-05-12T18:15:15Z</time>
      </trkpt>
      <trkpt lat="45.31668" lon="5.67287">
        <ele>795.176581417</ele>
        <time>2015-05-12T18:15:19Z</time>
      </trkpt>
      <trkpt lat="45.31681" lon="5.67289">
        <ele>792.573374317</ele>
        <time>2015-05-12T18:15:24Z</time>
      </trkpt>
      <trkpt lat="45.31687" lon="5.67279">
        <ele>790.502348227</ele>
        <time>2015-05-12T18:15:29Z</time>
      </trkpt>
      <trkpt lat="45.31698" lon="5.67278">
        <ele>788.775790772</ele>
        <time>2015-05-12T18:15:34Z</time>
      </trkpt>
      <trkpt lat="45.31709" lon="5.67277">
        <ele>787.795465307</ele>
        <time>2015-05-12T18:15:39Z</time>
      </trkpt>
      <trkpt lat="45.31724" lon="5.67286">
        <ele>786.778847729</ele>
        <time>2015-05-12T18:15:44Z</time>
      </trkpt>
      <trkpt lat="45.31727" lon="5.67289">
        <ele>786.778847729</ele>
        <time>2015-05-12T18:15:49Z</time>
      </trkpt>
      <trkpt lat="45.31732" lon="5.6729">
        <ele>786.778847729</ele>
        <time>2015-05-12T18:15:54Z</time>
      </trkpt>
      <trkpt lat="45.31736" lon="5.67287">
        <ele>786.874657837</ele>
        <time>2015-05-12T18:15:59Z</time>
      </trkpt>
      <trkpt lat="45.31741" lon="5.67283">
        <ele>786.874657837</ele>
        <time>2015-05-12T18:16:05Z</time>
      </trkpt>
      <trkpt lat="45.31744" lon="5.67272">
        <ele>787.126774531</ele>
        <time>2015-05-12T18:16:09Z</time>
      </trkpt>
      <trkpt lat="45.31748" lon="5.67254">
        <ele>788.090217081</ele>
        <time>2015-05-12T18:16:14Z</time>
      </trkpt>
      <trkpt lat="45.31758" lon="5.6725">
        <ele>789.124592401</ele>
        <time>2015-05-12T18:16:19Z</time>
      </trkpt>
      <trkpt lat="45.3177" lon="5.67237">
        <ele>790.068942925</ele>
        <time>2015-05-12T18:16:24Z</time>
      </trkpt>
      <trkpt lat="45.31776" lon="5.67227">
        <ele>790.918770637</ele>
        <time>2015-05-12T18:16:29Z</time>
      </trkpt>
      <trkpt lat="45.31781" lon="5.67225">
        <ele>790.918770637</ele>
        <time>2015-05-12T18:16:34Z</time>
      </trkpt>
      <trkpt lat="45.31788" lon="5.67216">
        <ele>791.526346309</ele>
        <time>2015-05-12T18:16:39Z</time>
      </trkpt>
      <trkpt lat="45.31795" lon="5.67206">
        <ele>792.043988919</ele>
        <time>2015-05-12T18:16:44Z</time>
      </trkpt>
      <trkpt lat="45.318" lon="5.67197">
        <ele>792.043988919</ele>
        <time>2015-05-12T18:16:49Z</time>
      </trkpt>
      <trkpt lat="45.31809" lon="5.67183">
        <ele>793.333939076</ele>
        <time>2015-05-12T18:16:55Z</time>
      </trkpt>
      <trkpt lat="45.31814" lon="5.6718">
        <ele>793.333939076</ele>
        <time>2015-05-12T18:16:59Z</time>
      </trkpt>
      <trkpt lat="45.31819" lon="5.67174">
        <ele>794.752129733</ele>
        <time>2015-05-12T18:17:04Z</time>
      </trkpt>
      <trkpt lat="45.31816" lon="5.67172">
        <ele>794.752129733</ele>
        <time>2015-05-12T18:17:09Z</time>
      </trkpt>
      <trkpt lat="45.31819" lon="5.67172">
        <ele>794.752129733</ele>
        <time>2015-05-12T18:17:14Z</time>
      </trkpt>
      <trkpt lat="45.31823" lon="5.67169">
        <ele>796.710543459</ele>
        <time>2015-05-12T18:17:19Z</time>
      </trkpt>
      <trkpt lat="45.31827" lon="5.67167">
        <ele>796.710543459</ele>
        <time>2015-05-12T18:17:24Z</time>
      </trkpt>
      <trkpt lat="45.31828" lon="5.67167">
        <ele>796.710543459</ele>
        <time>2015-05-12T18:17:29Z</time>
      </trkpt>
      <trkpt lat="45.31828" lon="5.67167">
        <ele>796.710543459</ele>
        <time>2015-05-12T18:17:34Z</time>
      </trkpt>
      <trkpt lat="45.31828" lon="5.67167">
        <ele>796.710543459</ele>
        <time>2015-05-12T18:17:39Z</time>
      </trkpt>
      <trkpt lat="45.3183" lon="5.67166">
        <ele>796.710543459</ele>
        <time>2015-05-12T18:17:44Z</time>
      </trkpt>
      <trkpt lat="45.31834" lon="5.6716">
        <ele>797.86037533</ele>
        <time>2015-05-12T18:17:49Z</time>
      </trkpt>
      <trkpt lat="45.31839" lon="5.67153">
        <ele>797.86037533</ele>
        <time>2015-05-12T18:17:54Z</time>
      </trkpt>
      <trkpt lat="45.31842" lon="5.67147">
        <ele>799.116172165</ele>
        <time>2015-05-12T18:17:59Z</time>
      </trkpt>
      <trkpt lat="45.31844" lon="5.67138">
        <ele>799.116172165</ele>
        <time>2015-05-12T18:18:04Z</time>
      </trkpt>
      <trkpt lat="45.3185" lon="5.67129">
        <ele>800.028339547</ele>
        <time>2015-05-12T18:18:09Z</time>
      </trkpt>
      <trkpt lat="45.31861" lon="5.67117">
        <ele>800.758059468</ele>
        <time>2015-05-12T18:18:14Z</time>
      </trkpt>
      <trkpt lat="45.31867" lon="5.67103">
        <ele>801.023191106</ele>
        <time>2015-05-12T18:18:19Z</time>
      </trkpt>
      <trkpt lat="45.31878" lon="5.67095">
        <ele>800.852179558</ele>
        <time>2015-05-12T18:18:24Z</time>
      </trkpt>
      <trkpt lat="45.31885" lon="5.67082">
        <ele>799.696484034</ele>
        <time>2015-05-12T18:18:30Z</time>
      </trkpt>
      <trkpt lat="45.31889" lon="5.67072">
        <ele>799.696484034</ele>
        <time>2015-05-12T18:18:34Z</time>
      </trkpt>
      <trkpt lat="45.31888" lon="5.67056">
        <ele>798.347933354</ele>
        <time>2015-05-12T18:18:39Z</time>
      </trkpt>
      <trkpt lat="45.31894" lon="5.67043">
        <ele>796.964579417</ele>
        <time>2015-05-12T18:18:44Z</time>
      </trkpt>
      <trkpt lat="45.31902" lon="5.67032">
        <ele>795.260901455</ele>
        <time>2015-05-12T18:18:49Z</time>
      </trkpt>
      <trkpt lat="45.31905" lon="5.67018">
        <ele>793.982282077</ele>
        <time>2015-05-12T18:18:54Z</time>
      </trkpt>
      <trkpt lat="45.31904" lon="5.66997">
        <ele>793.386055486</ele>
        <time>2015-05-12T18:18:59Z</time>
      </trkpt>
      <trkpt lat="45.31909" lon="5.66981">
        <ele>792.844286253</ele>
        <time>2015-05-12T18:19:04Z</time>
      </trkpt>
      <trkpt lat="45.31919" lon="5.66966">
        <ele>791.775213346</ele>
        <time>2015-05-12T18:19:09Z</time>
      </trkpt>
      <trkpt lat="45.31926" lon="5.6695">
        <ele>790.93847714</ele>
        <time>2015-05-12T18:19:14Z</time>
      </trkpt>
      <trkpt lat="45.31936" lon="5.6694">
        <ele>790.460992484</ele>
        <time>2015-05-12T18:19:19Z</time>
      </trkpt>
      <trkpt lat="45.31946" lon="5.66934">
        <ele>789.738948916</ele>
        <time>2015-05-12T18:19:24Z</time>
      </trkpt>
      <trkpt lat="45.31958" lon="5.66927">
        <ele>788.934283071</ele>
        <time>2015-05-12T18:19:29Z</time>
      </trkpt>
      <trkpt lat="45.3197" lon="5.66921">
        <ele>788.197406445</ele>
        <time>2015-05-12T18:19:34Z</time>
      </trkpt>
      <trkpt lat="45.3198" lon="5.66915">
        <ele>787.379397133</ele>
        <time>2015-05-12T18:19:39Z</time>
      </trkpt>
      <trkpt lat="45.3199" lon="5.66911">
        <ele>786.486729168</ele>
        <time>2015-05-12T18:19:44Z</time>
      </trkpt>
      <trkpt lat="45.31995" lon="5.66911">
        <ele>786.486729168</ele>
        <time>2015-05-12T18:19:49Z</time>
      </trkpt>
      <trkpt lat="45.31995" lon="5.6691">
        <ele>786.486729168</ele>
        <time>2015-05-12T18:19:54Z</time>
      </trkpt>
      <trkpt lat="45.31995" lon="5.66909">
        <ele>786.486729168</ele>
        <time>2015-05-12T18:19:59Z</time>
      </trkpt>
      <trkpt lat="45.31995" lon="5.66909">
        <ele>786.486729168</ele>
        <time>2015-05-12T18:20:04Z</time>
      </trkpt>
      <trkpt lat="45.31995" lon="5.66909">
        <ele>786.486729168</ele>
        <time>2015-05-12T18:20:09Z</time>
      </trkpt>
      <trkpt lat="45.31995" lon="5.66909">
        <ele>786.486729168</ele>
        <time>2015-05-12T18:20:15Z</time>
      </trkpt>
      <trkpt lat="45.32" lon="5.6691">
        <ele>786.102162886</ele>
        <time>2015-05-12T18:20:19Z</time>
      </trkpt>
      <trkpt lat="45.32011" lon="5.66908">
        <ele>785.467322054</ele>
        <time>2015-05-12T18:20:25Z</time>
      </trkpt>
      <trkpt lat="45.32022" lon="5.66903">
        <ele>784.889110813</ele>
        <time>2015-05-12T18:20:30Z</time>
      </trkpt>
      <trkpt lat="45.32031" lon="5.66897">
        <ele>784.219478575</ele>
        <time>2015-05-12T18:20:35Z</time>
      </trkpt>
      <trkpt lat="45.32039" lon="5.66895">
        <ele>784.219478575</ele>
        <time>2015-05-12T18:20:39Z</time>
      </trkpt>
      <trkpt lat="45.32052" lon="5.66894">
        <ele>783.898027725</ele>
        <time>2015-05-12T18:20:45Z</time>
      </trkpt>
      <trkpt lat="45.32062" lon="5.66895">
        <ele>783.754716566</ele>
        <time>2015-05-12T18:20:50Z</time>
      </trkpt>
      <trkpt lat="45.32071" lon="5.66901">
        <ele>783.487448933</ele>
        <time>2015-05-12T18:20:55Z</time>
      </trkpt>
      <trkpt lat="45.32079" lon="5.66905">
        <ele>783.487448933</ele>
        <time>2015-05-12T18:21:00Z</time>
      </trkpt>
      <trkpt lat="45.3209" lon="5.66912">
        <ele>783.681397224</ele>
        <time>2015-05-12T18:21:05Z</time>
      </trkpt>
      <trkpt lat="45.32097" lon="5.66923">
        <ele>783.724624013</ele>
        <time>2015-05-12T18:21:10Z</time>
      </trkpt>
      <trkpt lat="45.32102" lon="5.66925">
        <ele>783.724624013</ele>
        <time>2015-05-12T18:21:15Z</time>
      </trkpt>
      <trkpt lat="45.3211" lon="5.66929">
        <ele>783.771181346</ele>
        <time>2015-05-12T18:21:20Z</time>
      </trkpt>
      <trkpt lat="45.32116" lon="5.66935">
        <ele>783.771181346</ele>
        <time>2015-05-12T18:21:25Z</time>
      </trkpt>
      <trkpt lat="45.32118" lon="5.66939">
        <ele>783.387407064</ele>
        <time>2015-05-12T18:21:30Z</time>
      </trkpt>
      <trkpt lat="45.32117" lon="5.66943">
        <ele>783.387407064</ele>
        <time>2015-05-12T18:21:35Z</time>
      </trkpt>
      <trkpt lat="45.32111" lon="5.6694">
        <ele>783.46975832</ele>
        <time>2015-05-12T18:21:40Z</time>
      </trkpt>
      <trkpt lat="45.32112" lon="5.66945">
        <ele>783.46975832</ele>
        <time>2015-05-12T18:21:45Z</time>
      </trkpt>
      <trkpt lat="45.32114" lon="5.66943">
        <ele>783.46975832</ele>
        <time>2015-05-12T18:21:50Z</time>
      </trkpt>
      <trkpt lat="45.32115" lon="5.66942">
        <ele>783.46975832</ele>
        <time>2015-05-12T18:21:54Z</time>
      </trkpt>
      <trkpt lat="45.32118" lon="5.66941">
        <ele>783.694695521</ele>
        <time>2015-05-12T18:22:00Z</time>
      </trkpt>
      <trkpt lat="45.32118" lon="5.66942">
        <ele>783.694695521</ele>
        <time>2015-05-12T18:22:04Z</time>
      </trkpt>
      <trkpt lat="45.32117" lon="5.66942">
        <ele>783.694695521</ele>
        <time>2015-05-12T18:22:09Z</time>
      </trkpt>
      <trkpt lat="45.32117" lon="5.66942">
        <ele>783.694695521</ele>
        <time>2015-05-12T18:22:14Z</time>
      </trkpt>
      <trkpt lat="45.32117" lon="5.66941">
        <ele>783.694695521</ele>
        <time>2015-05-12T18:22:19Z</time>
      </trkpt>
      <trkpt lat="45.32117" lon="5.66941">
        <ele>783.694695521</ele>
        <time>2015-05-12T18:22:24Z</time>
      </trkpt>
      <trkpt lat="45.32118" lon="5.66941">
        <ele>783.694695521</ele>
        <time>2015-05-12T18:22:30Z</time>
      </trkpt>
      <trkpt lat="45.32118" lon="5.66941">
        <ele>783.694695521</ele>
        <time>2015-05-12T18:22:35Z</time>
      </trkpt>
      <trkpt lat="45.32118" lon="5.66941">
        <ele>783.694695521</ele>
        <time>2015-05-12T18:22:40Z</time>
      </trkpt>
      <trkpt lat="45.32118" lon="5.66942">
        <ele>783.694695521</ele>
        <time>2015-05-12T18:22:45Z</time>
      </trkpt>
      <trkpt lat="45.32118" lon="5.66942">
        <ele>783.694695521</ele>
        <time>2015-05-12T18:22:50Z</time>
      </trkpt>
      <trkpt lat="45.32118" lon="5.66941">
        <ele>783.694695521</ele>
        <time>2015-05-12T18:22:54Z</time>
      </trkpt>
      <trkpt lat="45.32118" lon="5.66941">
        <ele>783.694695521</ele>
        <time>2015-05-12T18:23:00Z</time>
      </trkpt>
      <trkpt lat="45.32118" lon="5.66941">
        <ele>783.694695521</ele>
        <time>2015-05-12T18:23:05Z</time>
      </trkpt>
      <trkpt lat="45.32119" lon="5.66941">
        <ele>783.694695521</ele>
        <time>2015-05-12T18:23:10Z</time>
      </trkpt>
      <trkpt lat="45.32119" lon="5.66941">
        <ele>783.694695521</ele>
        <time>2015-05-12T18:23:15Z</time>
      </trkpt>
      <trkpt lat="45.32119" lon="5.66941">
        <ele>783.694695521</ele>
        <time>2015-05-12T18:23:20Z</time>
      </trkpt>
      <trkpt lat="45.32119" lon="5.66941">
        <ele>783.694695521</ele>
        <time>2015-05-12T18:23:25Z</time>
      </trkpt>
      <trkpt lat="45.32119" lon="5.66941">
        <ele>783.694695521</ele>
        <time>2015-05-12T18:23:30Z</time>
      </trkpt>
      <trkpt lat="45.32119" lon="5.66941">
        <ele>783.694695521</ele>
        <time>2015-05-12T18:23:35Z</time>
      </trkpt>
      <trkpt lat="45.32119" lon="5.66941">
        <ele>783.694695521</ele>
        <time>2015-05-12T18:23:39Z</time>
      </trkpt>
      <trkpt lat="45.32119" lon="5.66941">
        <ele>783.694695521</ele>
        <time>2015-05-12T18:23:45Z</time>
      </trkpt>
      <trkpt lat="45.32119" lon="5.66941">
        <ele>783.694695521</ele>
        <time>2015-05-12T18:23:50Z</time>
      </trkpt>
      <trkpt lat="45.32119" lon="5.66941">
        <ele>783.694695521</ele>
        <time>2015-05-12T18:23:55Z</time>
      </trkpt>
      <trkpt lat="45.32119" lon="5.66941">
        <ele>783.694695521</ele>
        <time>2015-05-12T18:24:00Z</time>
      </trkpt>
      <trkpt lat="45.32119" lon="5.66941">
        <ele>783.694695521</ele>
        <time>2015-05-12T18:24:05Z</time>
      </trkpt>
      <trkpt lat="45.32119" lon="5.66941">
        <ele>783.694695521</ele>
        <time>2015-05-12T18:24:10Z</time>
      </trkpt>
      <trkpt lat="45.32119" lon="5.66941">
        <ele>783.694695521</ele>
        <time>2015-05-12T18:24:15Z</time>
      </trkpt>
      <trkpt lat="45.32119" lon="5.66941">
        <ele>783.694695521</ele>
        <time>2015-05-12T18:24:20Z</time>
      </trkpt>
      <trkpt lat="45.32119" lon="5.66941">
        <ele>783.694695521</ele>
        <time>2015-05-12T18:24:25Z</time>
      </trkpt>
      <trkpt lat="45.32119" lon="5.66941">
        <ele>783.694695521</ele>
        <time>2015-05-12T18:24:30Z</time>
      </trkpt>
      <trkpt lat="45.32119" lon="5.66941">
        <ele>783.694695521</ele>
        <time>2015-05-12T18:24:35Z</time>
      </trkpt>
      <trkpt lat="45.32119" lon="5.66941">
        <ele>783.694695521</ele>
        <time>2015-05-12T18:24:40Z</time>
      </trkpt>
      <trkpt lat="45.32119" lon="5.66941">
        <ele>783.694695521</ele>
        <time>2015-05-12T18:24:45Z</time>
      </trkpt>
      <trkpt lat="45.32119" lon="5.66941">
        <ele>783.694695521</ele>
        <time>2015-05-12T18:24:50Z</time>
      </trkpt>
      <trkpt lat="45.32119" lon="5.66941">
        <ele>783.694695521</ele>
        <time>2015-05-12T18:24:55Z</time>
      </trkpt>
      <trkpt lat="45.32116" lon="5.66941">
        <ele>783.694695521</ele>
        <time>2015-05-12T18:25:00Z</time>
      </trkpt>
      <trkpt lat="45.32118" lon="5.66942">
        <ele>783.694695521</ele>
        <time>2015-05-12T18:25:05Z</time>
      </trkpt>
      <trkpt lat="45.32131" lon="5.66942">
        <ele>783.906209321</ele>
        <time>2015-05-12T18:25:10Z</time>
      </trkpt>
      <trkpt lat="45.32135" lon="5.66944">
        <ele>783.906209321</ele>
        <time>2015-05-12T18:25:15Z</time>
      </trkpt>
      <trkpt lat="45.32139" lon="5.6695">
        <ele>783.815727922</ele>
        <time>2015-05-12T18:25:19Z</time>
      </trkpt>
      <trkpt lat="45.3215" lon="5.66961">
        <ele>783.589108093</ele>
        <time>2015-05-12T18:25:24Z</time>
      </trkpt>
      <trkpt lat="45.32164" lon="5.66971">
        <ele>783.236341111</ele>
        <time>2015-05-12T18:25:29Z</time>
      </trkpt>
      <trkpt lat="45.32175" lon="5.66981">
        <ele>782.911193784</ele>
        <time>2015-05-12T18:25:35Z</time>
      </trkpt>
      <trkpt lat="45.32184" lon="5.66988">
        <ele>782.467877845</ele>
        <time>2015-05-12T18:25:40Z</time>
      </trkpt>
      <trkpt lat="45.32194" lon="5.67001">
        <ele>781.915792956</ele>
        <time>2015-05-12T18:25:45Z</time>
      </trkpt>
      <trkpt lat="45.32202" lon="5.6701">
        <ele>781.696318357</ele>
        <time>2015-05-12T18:25:50Z</time>
      </trkpt>
      <trkpt lat="45.32214" lon="5.67021">
        <ele>781.496948361</ele>
        <time>2015-05-12T18:25:55Z</time>
      </trkpt>
      <trkpt lat="45.32222" lon="5.67029">
        <ele>781.028100884</ele>
        <time>2015-05-12T18:26:00Z</time>
      </trkpt>
      <trkpt lat="45.32236" lon="5.67038">
        <ele>780.454575668</ele>
        <time>2015-05-12T18:26:05Z</time>
      </trkpt>
      <trkpt lat="45.32245" lon="5.67027">
        <ele>779.929376279</ele>
        <time>2015-05-12T18:26:10Z</time>
      </trkpt>
      <trkpt lat="45.32254" lon="5.67033">
        <ele>779.594143737</ele>
        <time>2015-05-12T18:26:15Z</time>
      </trkpt>
      <trkpt lat="45.32261" lon="5.67044">
        <ele>779.435479337</ele>
        <time>2015-05-12T18:26:20Z</time>
      </trkpt>
      <trkpt lat="45.32268" lon="5.67057">
        <ele>779.58459169</ele>
        <time>2015-05-12T18:26:25Z</time>
      </trkpt>
      <trkpt lat="45.32273" lon="5.67067">
        <ele>779.58459169</ele>
        <time>2015-05-12T18:26:30Z</time>
      </trkpt>
      <trkpt lat="45.32282" lon="5.67074">
        <ele>779.153414873</ele>
        <time>2015-05-12T18:26:35Z</time>
      </trkpt>
      <trkpt lat="45.32288" lon="5.67083">
        <ele>779.153414873</ele>
        <time>2015-05-12T18:26:40Z</time>
      </trkpt>
      <trkpt lat="45.32298" lon="5.67093">
        <ele>778.761863836</ele>
        <time>2015-05-12T18:26:45Z</time>
      </trkpt>
      <trkpt lat="45.3231" lon="5.67099">
        <ele>778.119539619</ele>
        <time>2015-05-12T18:26:50Z</time>
      </trkpt>
      <trkpt lat="45.32323" lon="5.67103">
        <ele>777.67863576</ele>
        <time>2015-05-12T18:26:55Z</time>
      </trkpt>
      <trkpt lat="45.32336" lon="5.67106">
        <ele>776.704670266</ele>
        <time>2015-05-12T18:27:00Z</time>
      </trkpt>
      <trkpt lat="45.32345" lon="5.67107">
        <ele>775.383269905</ele>
        <time>2015-05-12T18:27:04Z</time>
      </trkpt>
      <trkpt lat="45.3235" lon="5.67108">
        <ele>775.383269905</ele>
        <time>2015-05-12T18:27:09Z</time>
      </trkpt>
      <trkpt lat="45.32357" lon="5.67112">
        <ele>774.031496871</ele>
        <time>2015-05-12T18:27:14Z</time>
      </trkpt>
      <trkpt lat="45.32359" lon="5.67112">
        <ele>774.031496871</ele>
        <time>2015-05-12T18:27:19Z</time>
      </trkpt>
      <trkpt lat="45.32358" lon="5.67112">
        <ele>774.031496871</ele>
        <time>2015-05-12T18:27:24Z</time>
      </trkpt>
      <trkpt lat="45.32359" lon="5.67112">
        <ele>774.031496871</ele>
        <time>2015-05-12T18:27:29Z</time>
      </trkpt>
      <trkpt lat="45.32359" lon="5.67112">
        <ele>774.031496871</ele>
        <time>2015-05-12T18:27:34Z</time>
      </trkpt>
      <trkpt lat="45.32359" lon="5.67112">
        <ele>774.031496871</ele>
        <time>2015-05-12T18:27:39Z</time>
      </trkpt>
      <trkpt lat="45.32359" lon="5.67113">
        <ele>774.031496871</ele>
        <time>2015-05-12T18:27:44Z</time>
      </trkpt>
      <trkpt lat="45.3236" lon="5.67113">
        <ele>774.031496871</ele>
        <time>2015-05-12T18:27:49Z</time>
      </trkpt>
      <trkpt lat="45.32361" lon="5.67113">
        <ele>774.031496871</ele>
        <time>2015-05-12T18:27:54Z</time>
      </trkpt>
      <trkpt lat="45.32361" lon="5.67113">
        <ele>774.031496871</ele>
        <time>2015-05-12T18:27:59Z</time>
      </trkpt>
      <trkpt lat="45.32361" lon="5.67113">
        <ele>774.031496871</ele>
        <time>2015-05-12T18:28:04Z</time>
      </trkpt>
      <trkpt lat="45.32361" lon="5.67113">
        <ele>774.031496871</ele>
        <time>2015-05-12T18:28:09Z</time>
      </trkpt>
      <trkpt lat="45.32362" lon="5.67113">
        <ele>774.031496871</ele>
        <time>2015-05-12T18:28:14Z</time>
      </trkpt>
      <trkpt lat="45.32364" lon="5.67114">
        <ele>774.031496871</ele>
        <time>2015-05-12T18:28:19Z</time>
      </trkpt>
      <trkpt lat="45.32369" lon="5.67115">
        <ele>773.231409143</ele>
        <time>2015-05-12T18:28:24Z</time>
      </trkpt>
      <trkpt lat="45.32375" lon="5.67118">
        <ele>773.231409143</ele>
        <time>2015-05-12T18:28:29Z</time>
      </trkpt>
      <trkpt lat="45.32379" lon="5.67119">
        <ele>772.223731615</ele>
        <time>2015-05-12T18:28:34Z</time>
      </trkpt>
      <trkpt lat="45.32388" lon="5.67119">
        <ele>770.305512708</ele>
        <time>2015-05-12T18:28:40Z</time>
      </trkpt>
      <trkpt lat="45.32398" lon="5.67125">
        <ele>768.557285825</ele>
        <time>2015-05-12T18:28:45Z</time>
      </trkpt>
      <trkpt lat="45.32406" lon="5.67131">
        <ele>766.394459133</ele>
        <time>2015-05-12T18:28:50Z</time>
      </trkpt>
      <trkpt lat="45.32412" lon="5.67133">
        <ele>766.394459133</ele>
        <time>2015-05-12T18:28:55Z</time>
      </trkpt>
      <trkpt lat="45.32411" lon="5.67134">
        <ele>766.394459133</ele>
        <time>2015-05-12T18:29:00Z</time>
      </trkpt>
      <trkpt lat="45.32412" lon="5.67134">
        <ele>766.394459133</ele>
        <time>2015-05-12T18:29:04Z</time>
      </trkpt>
      <trkpt lat="45.32415" lon="5.67137">
        <ele>764.573488649</ele>
        <time>2015-05-12T18:29:10Z</time>
      </trkpt>
      <trkpt lat="45.32418" lon="5.67136">
        <ele>764.573488649</ele>
        <time>2015-05-12T18:29:15Z</time>
      </trkpt>
      <trkpt lat="45.32417" lon="5.67139">
        <ele>764.573488649</ele>
        <time>2015-05-12T18:29:20Z</time>
      </trkpt>
      <trkpt lat="45.3241" lon="5.67152">
        <ele>762.785455235</ele>
        <time>2015-05-12T18:29:25Z</time>
      </trkpt>
      <trkpt lat="45.32406" lon="5.67167">
        <ele>761.176296445</ele>
        <time>2015-05-12T18:29:30Z</time>
      </trkpt>
      <trkpt lat="45.32401" lon="5.6718">
        <ele>759.736532285</ele>
        <time>2015-05-12T18:29:35Z</time>
      </trkpt>
      <trkpt lat="45.32401" lon="5.67187">
        <ele>759.736532285</ele>
        <time>2015-05-12T18:29:40Z</time>
      </trkpt>
      <trkpt lat="45.32397" lon="5.67199">
        <ele>758.456815347</ele>
        <time>2015-05-12T18:29:45Z</time>
      </trkpt>
      <trkpt lat="45.32399" lon="5.67209">
        <ele>758.456815347</ele>
        <time>2015-05-12T18:29:50Z</time>
      </trkpt>
      <trkpt lat="45.32398" lon="5.67224">
        <ele>757.472056039</ele>
        <time>2015-05-12T18:29:55Z</time>
      </trkpt>
      <trkpt lat="45.32402" lon="5.6724">
        <ele>756.474001685</ele>
        <time>2015-05-12T18:30:00Z</time>
      </trkpt>
      <trkpt lat="45.32404" lon="5.6725">
        <ele>756.474001685</ele>
        <time>2015-05-12T18:30:05Z</time>
      </trkpt>
      <trkpt lat="45.32407" lon="5.67265">
        <ele>756.041658041</ele>
        <time>2015-05-12T18:30:10Z</time>
      </trkpt>
      <trkpt lat="45.32408" lon="5.67277">
        <ele>756.041658041</ele>
        <time>2015-05-12T18:30:15Z</time>
      </trkpt>
      <trkpt lat="45.32407" lon="5.6729">
        <ele>755.989268806</ele>
        <time>2015-05-12T18:30:20Z</time>
      </trkpt>
      <trkpt lat="45.32411" lon="5.67307">
        <ele>756.143577987</ele>
        <time>2015-05-12T18:30:25Z</time>
      </trkpt>
      <trkpt lat="45.32417" lon="5.67324">
        <ele>756.199294716</ele>
        <time>2015-05-12T18:30:30Z</time>
      </trkpt>
      <trkpt lat="45.32414" lon="5.67336">
        <ele>756.594326082</ele>
        <time>2015-05-12T18:30:35Z</time>
      </trkpt>
      <trkpt lat="45.32427" lon="5.67349">
        <ele>757.156964379</ele>
        <time>2015-05-12T18:30:40Z</time>
      </trkpt>
      <trkpt lat="45.32433" lon="5.67361">
        <ele>758.159941063</ele>
        <time>2015-05-12T18:30:45Z</time>
      </trkpt>
      <trkpt lat="45.3243" lon="5.6738">
        <ele>758.845914038</ele>
        <time>2015-05-12T18:30:50Z</time>
      </trkpt>
      <trkpt lat="45.32421" lon="5.6739">
        <ele>759.666941239</ele>
        <time>2015-05-12T18:30:55Z</time>
      </trkpt>
      <trkpt lat="45.32424" lon="5.67404">
        <ele>760.032714991</ele>
        <time>2015-05-12T18:31:00Z</time>
      </trkpt>
      <trkpt lat="45.32433" lon="5.6742">
        <ele>760.694579293</ele>
        <time>2015-05-12T18:31:05Z</time>
      </trkpt>
      <trkpt lat="45.32435" lon="5.67435">
        <ele>761.627318769</ele>
        <time>2015-05-12T18:31:10Z</time>
      </trkpt>
      <trkpt lat="45.32435" lon="5.67453">
        <ele>762.950952068</ele>
        <time>2015-05-12T18:31:15Z</time>
      </trkpt>
      <trkpt lat="45.32443" lon="5.67465">
        <ele>764.631514926</ele>
        <time>2015-05-12T18:31:20Z</time>
      </trkpt>
      <trkpt lat="45.3244" lon="5.67481">
        <ele>766.348367991</ele>
        <time>2015-05-12T18:31:25Z</time>
      </trkpt>
      <trkpt lat="45.32439" lon="5.67499">
        <ele>767.948501647</ele>
        <time>2015-05-12T18:31:30Z</time>
      </trkpt>
      <trkpt lat="45.32429" lon="5.6751">
        <ele>769.722886737</ele>
        <time>2015-05-12T18:31:35Z</time>
      </trkpt>
      <trkpt lat="45.3243" lon="5.6752">
        <ele>769.722886737</ele>
        <time>2015-05-12T18:31:39Z</time>
      </trkpt>
      <trkpt lat="45.3243" lon="5.67534">
        <ele>771.076054975</ele>
        <time>2015-05-12T18:31:44Z</time>
      </trkpt>
      <trkpt lat="45.32428" lon="5.67552">
        <ele>772.322230666</ele>
        <time>2015-05-12T18:31:50Z</time>
      </trkpt>
      <trkpt lat="45.32427" lon="5.67558">
        <ele>772.322230666</ele>
        <time>2015-05-12T18:31:55Z</time>
      </trkpt>
      <trkpt lat="45.32418" lon="5.67562">
        <ele>773.752965139</ele>
        <time>2015-05-12T18:32:00Z</time>
      </trkpt>
      <trkpt lat="45.32416" lon="5.67572">
        <ele>773.752965139</ele>
        <time>2015-05-12T18:32:04Z</time>
      </trkpt>
      <trkpt lat="45.32424" lon="5.67579">
        <ele>774.917434953</ele>
        <time>2015-05-12T18:32:10Z</time>
      </trkpt>
      <trkpt lat="45.32427" lon="5.67593">
        <ele>775.975246109</ele>
        <time>2015-05-12T18:32:15Z</time>
      </trkpt>
      <trkpt lat="45.32432" lon="5.67603">
        <ele>775.975246109</ele>
        <time>2015-05-12T18:32:20Z</time>
      </trkpt>
      <trkpt lat="45.32431" lon="5.67613">
        <ele>776.642369092</ele>
        <time>2015-05-12T18:32:25Z</time>
      </trkpt>
      <trkpt lat="45.32426" lon="5.67622">
        <ele>776.642369092</ele>
        <time>2015-05-12T18:32:29Z</time>
      </trkpt>
      <trkpt lat="45.32431" lon="5.67631">
        <ele>777.233304026</ele>
        <time>2015-05-12T18:32:35Z</time>
      </trkpt>
      <trkpt lat="45.32433" lon="5.67641">
        <ele>777.233304026</ele>
        <time>2015-05-12T18:32:40Z</time>
      </trkpt>
      <trkpt lat="45.32432" lon="5.67652">
        <ele>777.463339884</ele>
        <time>2015-05-12T18:32:45Z</time>
      </trkpt>
      <trkpt lat="45.32429" lon="5.67661">
        <ele>777.463339884</ele>
        <time>2015-05-12T18:32:50Z</time>
      </trkpt>
      <trkpt lat="45.32427" lon="5.67672">
        <ele>777.934479591</ele>
        <time>2015-05-12T18:32:55Z</time>
      </trkpt>
      <trkpt lat="45.3243" lon="5.67678">
        <ele>777.934479591</ele>
        <time>2015-05-12T18:33:00Z</time>
      </trkpt>
      <trkpt lat="45.32434" lon="5.67695">
        <ele>778.9157211</ele>
        <time>2015-05-12T18:33:05Z</time>
      </trkpt>
      <trkpt lat="45.32431" lon="5.67706">
        <ele>778.9157211</ele>
        <time>2015-05-12T18:33:10Z</time>
      </trkpt>
      <trkpt lat="45.32426" lon="5.67715">
        <ele>779.646205806</ele>
        <time>2015-05-12T18:33:15Z</time>
      </trkpt>
      <trkpt lat="45.32426" lon="5.67727">
        <ele>779.646205806</ele>
        <time>2015-05-12T18:33:20Z</time>
      </trkpt>
      <trkpt lat="45.32422" lon="5.67735">
        <ele>781.295227696</ele>
        <time>2015-05-12T18:33:25Z</time>
      </trkpt>
      <trkpt lat="45.32425" lon="5.67746">
        <ele>781.295227696</ele>
        <time>2015-05-12T18:33:30Z</time>
      </trkpt>
      <trkpt lat="45.32428" lon="5.67756">
        <ele>783.21438713</ele>
        <time>2015-05-12T18:33:35Z</time>
      </trkpt>
      <trkpt lat="45.32427" lon="5.67762">
        <ele>783.21438713</ele>
        <time>2015-05-12T18:33:40Z</time>
      </trkpt>
      <trkpt lat="45.32423" lon="5.67771">
        <ele>785.234607214</ele>
        <time>2015-05-12T18:33:45Z</time>
      </trkpt>
      <trkpt lat="45.32424" lon="5.67781">
        <ele>785.234607214</ele>
        <time>2015-05-12T18:33:50Z</time>
      </trkpt>
      <trkpt lat="45.32419" lon="5.67792">
        <ele>787.487291397</ele>
        <time>2015-05-12T18:33:55Z</time>
      </trkpt>
      <trkpt lat="45.32416" lon="5.67796">
        <ele>787.487291397</ele>
        <time>2015-05-12T18:34:00Z</time>
      </trkpt>
      <trkpt lat="45.32418" lon="5.67808">
        <ele>789.517221107</ele>
        <time>2015-05-12T18:34:05Z</time>
      </trkpt>
      <trkpt lat="45.32419" lon="5.67818">
        <ele>789.517221107</ele>
        <time>2015-05-12T18:34:10Z</time>
      </trkpt>
      <trkpt lat="45.32429" lon="5.67835">
        <ele>792.056266806</ele>
        <time>2015-05-12T18:34:15Z</time>
      </trkpt>
      <trkpt lat="45.32429" lon="5.67848">
        <ele>794.196026167</ele>
        <time>2015-05-12T18:34:20Z</time>
      </trkpt>
      <trkpt lat="45.32431" lon="5.67864">
        <ele>795.960760845</ele>
        <time>2015-05-12T18:34:25Z</time>
      </trkpt>
      <trkpt lat="45.32437" lon="5.67882">
        <ele>797.230040129</ele>
        <time>2015-05-12T18:34:30Z</time>
      </trkpt>
      <trkpt lat="45.32439" lon="5.67897">
        <ele>798.182041375</ele>
        <time>2015-05-12T18:34:35Z</time>
      </trkpt>
      <trkpt lat="45.3244" lon="5.67915">
        <ele>798.838777446</ele>
        <time>2015-05-12T18:34:40Z</time>
      </trkpt>
      <trkpt lat="45.32443" lon="5.67936">
        <ele>799.365722482</ele>
        <time>2015-05-12T18:34:45Z</time>
      </trkpt>
      <trkpt lat="45.32448" lon="5.67949">
        <ele>800.060800825</ele>
        <time>2015-05-12T18:34:50Z</time>
      </trkpt>
      <trkpt lat="45.32453" lon="5.67961">
        <ele>800.479144951</ele>
        <time>2015-05-12T18:34:54Z</time>
      </trkpt>
      <trkpt lat="45.3246" lon="5.67972">
        <ele>800.353564652</ele>
        <time>2015-05-12T18:34:59Z</time>
      </trkpt>
      <trkpt lat="45.32472" lon="5.67984">
        <ele>799.582231885</ele>
        <time>2015-05-12T18:35:05Z</time>
      </trkpt>
      <trkpt lat="45.32482" lon="5.67991">
        <ele>798.649137978</ele>
        <time>2015-05-12T18:35:10Z</time>
      </trkpt>
      <trkpt lat="45.32491" lon="5.67999">
        <ele>797.859129663</ele>
        <time>2015-05-12T18:35:15Z</time>
      </trkpt>
      <trkpt lat="45.32503" lon="5.68006">
        <ele>796.773751013</ele>
        <time>2015-05-12T18:35:20Z</time>
      </trkpt>
      <trkpt lat="45.32511" lon="5.67996">
        <ele>796.284615236</ele>
        <time>2015-05-12T18:35:25Z</time>
      </trkpt>
      <trkpt lat="45.32524" lon="5.67991">
        <ele>795.775069508</ele>
        <time>2015-05-12T18:35:30Z</time>
      </trkpt>
      <trkpt lat="45.32531" lon="5.67989">
        <ele>795.775069508</ele>
        <time>2015-05-12T18:35:35Z</time>
      </trkpt>
      <trkpt lat="45.3254" lon="5.68">
        <ele>794.673818109</ele>
        <time>2015-05-12T18:35:40Z</time>
      </trkpt>
      <trkpt lat="45.32536" lon="5.67996">
        <ele>794.673818109</ele>
        <time>2015-05-12T18:35:45Z</time>
      </trkpt>
      <trkpt lat="45.32532" lon="5.67996">
        <ele>794.673818109</ele>
        <time>2015-05-12T18:35:50Z</time>
      </trkpt>
      <trkpt lat="45.3253" lon="5.67995">
        <ele>793.461957474</ele>
        <time>2015-05-12T18:35:54Z</time>
      </trkpt>
      <trkpt lat="45.32533" lon="5.67992">
        <ele>793.461957474</ele>
        <time>2015-05-12T18:35:59Z</time>
      </trkpt>
      <trkpt lat="45.32544" lon="5.67972">
        <ele>792.873750342</ele>
        <time>2015-05-12T18:36:04Z</time>
      </trkpt>
      <trkpt lat="45.32555" lon="5.67955">
        <ele>792.578956632</ele>
        <time>2015-05-12T18:36:10Z</time>
      </trkpt>
      <trkpt lat="45.32564" lon="5.67947">
        <ele>792.703060276</ele>
        <time>2015-05-12T18:36:15Z</time>
      </trkpt>
      <trkpt lat="45.32573" lon="5.67933">
        <ele>792.208210153</ele>
        <time>2015-05-12T18:36:20Z</time>
      </trkpt>
      <trkpt lat="45.32583" lon="5.67919">
        <ele>791.863808236</ele>
        <time>2015-05-12T18:36:25Z</time>
      </trkpt>
      <trkpt lat="45.32591" lon="5.67905">
        <ele>791.661697959</ele>
        <time>2015-05-12T18:36:30Z</time>
      </trkpt>
      <trkpt lat="45.32602" lon="5.67886">
        <ele>791.161524564</ele>
        <time>2015-05-12T18:36:35Z</time>
      </trkpt>
      <trkpt lat="45.32608" lon="5.67875">
        <ele>790.244270533</ele>
        <time>2015-05-12T18:36:40Z</time>
      </trkpt>
      <trkpt lat="45.32619" lon="5.67862">
        <ele>788.224310443</ele>
        <time>2015-05-12T18:36:45Z</time>
      </trkpt>
      <trkpt lat="45.32624" lon="5.67846">
        <ele>786.342838336</ele>
        <time>2015-05-12T18:36:50Z</time>
      </trkpt>
      <trkpt lat="45.32628" lon="5.67833">
        <ele>784.596497576</ele>
        <time>2015-05-12T18:36:55Z</time>
      </trkpt>
      <trkpt lat="45.32632" lon="5.67825">
        <ele>784.596497576</ele>
        <time>2015-05-12T18:37:00Z</time>
      </trkpt>
      <trkpt lat="45.32635" lon="5.67821">
        <ele>783.558137554</ele>
        <time>2015-05-12T18:37:04Z</time>
      </trkpt>
      <trkpt lat="45.32638" lon="5.67811">
        <ele>783.558137554</ele>
        <time>2015-05-12T18:37:09Z</time>
      </trkpt>
      <trkpt lat="45.32645" lon="5.67799">
        <ele>782.31531271</ele>
        <time>2015-05-12T18:37:14Z</time>
      </trkpt>
      <trkpt lat="45.32655" lon="5.67788">
        <ele>780.887722308</ele>
        <time>2015-05-12T18:37:19Z</time>
      </trkpt>
      <trkpt lat="45.32661" lon="5.67782">
        <ele>780.887722308</ele>
        <time>2015-05-12T18:37:24Z</time>
      </trkpt>
      <trkpt lat="45.32669" lon="5.67765">
        <ele>779.005784649</ele>
        <time>2015-05-12T18:37:29Z</time>
      </trkpt>
      <trkpt lat="45.32678" lon="5.67754">
        <ele>776.853193164</ele>
        <time>2015-05-12T18:37:34Z</time>
      </trkpt>
      <trkpt lat="45.32688" lon="5.67741">
        <ele>774.456651235</ele>
        <time>2015-05-12T18:37:39Z</time>
      </trkpt>
      <trkpt lat="45.32703" lon="5.67726">
        <ele>772.129654419</ele>
        <time>2015-05-12T18:37:45Z</time>
      </trkpt>
      <trkpt lat="45.32711" lon="5.67718">
        <ele>769.58586685</ele>
        <time>2015-05-12T18:37:49Z</time>
      </trkpt>
      <trkpt lat="45.32721" lon="5.67707">
        <ele>767.280979325</ele>
        <time>2015-05-12T18:37:54Z</time>
      </trkpt>
      <trkpt lat="45.3273" lon="5.67697">
        <ele>765.204025122</ele>
        <time>2015-05-12T18:37:59Z</time>
      </trkpt>
      <trkpt lat="45.32739" lon="5.67686">
        <ele>763.055796124</ele>
        <time>2015-05-12T18:38:04Z</time>
      </trkpt>
      <trkpt lat="45.32747" lon="5.67672">
        <ele>761.567853273</ele>
        <time>2015-05-12T18:38:10Z</time>
      </trkpt>
      <trkpt lat="45.32758" lon="5.67661">
        <ele>760.695420599</ele>
        <time>2015-05-12T18:38:14Z</time>
      </trkpt>
      <trkpt lat="45.32767" lon="5.67651">
        <ele>760.250988382</ele>
        <time>2015-05-12T18:38:20Z</time>
      </trkpt>
      <trkpt lat="45.32778" lon="5.67644">
        <ele>760.203554314</ele>
        <time>2015-05-12T18:38:25Z</time>
      </trkpt>
      <trkpt lat="45.32786" lon="5.67634">
        <ele>759.658445647</ele>
        <time>2015-05-12T18:38:30Z</time>
      </trkpt>
      <trkpt lat="45.32795" lon="5.67626">
        <ele>759.373175874</ele>
        <time>2015-05-12T18:38:35Z</time>
      </trkpt>
      <trkpt lat="45.32806" lon="5.67619">
        <ele>758.751739665</ele>
        <time>2015-05-12T18:38:40Z</time>
      </trkpt>
      <trkpt lat="45.32817" lon="5.67612">
        <ele>758.251503506</ele>
        <time>2015-05-12T18:38:45Z</time>
      </trkpt>
      <trkpt lat="45.3283" lon="5.67603">
        <ele>758.007552683</ele>
        <time>2015-05-12T18:38:50Z</time>
      </trkpt>
      <trkpt lat="45.32844" lon="5.67594">
        <ele>758.144220349</ele>
        <time>2015-05-12T18:38:55Z</time>
      </trkpt>
      <trkpt lat="45.32849" lon="5.67588">
        <ele>758.144220349</ele>
        <time>2015-05-12T18:39:00Z</time>
      </trkpt>
      <trkpt lat="45.3286" lon="5.67585">
        <ele>758.054983756</ele>
        <time>2015-05-12T18:39:05Z</time>
      </trkpt>
      <trkpt lat="45.32873" lon="5.67584">
        <ele>758.331311408</ele>
        <time>2015-05-12T18:39:10Z</time>
      </trkpt>
      <trkpt lat="45.32881" lon="5.67578">
        <ele>758.331311408</ele>
        <time>2015-05-12T18:39:15Z</time>
      </trkpt>
      <trkpt lat="45.32887" lon="5.67569">
        <ele>758.511345144</ele>
        <time>2015-05-12T18:39:20Z</time>
      </trkpt>
      <trkpt lat="45.32896" lon="5.67562">
        <ele>758.887919398</ele>
        <time>2015-05-12T18:39:25Z</time>
      </trkpt>
      <trkpt lat="45.329" lon="5.67556">
        <ele>758.887919398</ele>
        <time>2015-05-12T18:39:29Z</time>
      </trkpt>
      <trkpt lat="45.32906" lon="5.67544">
        <ele>759.29942371</ele>
        <time>2015-05-12T18:39:35Z</time>
      </trkpt>
      <trkpt lat="45.32915" lon="5.67529">
        <ele>759.451873785</ele>
        <time>2015-05-12T18:39:40Z</time>
      </trkpt>
      <trkpt lat="45.32922" lon="5.6751">
        <ele>759.794138903</ele>
        <time>2015-05-12T18:39:45Z</time>
      </trkpt>
      <trkpt lat="45.32929" lon="5.67499">
        <ele>759.876900698</ele>
        <time>2015-05-12T18:39:50Z</time>
      </trkpt>
      <trkpt lat="45.32935" lon="5.67489">
        <ele>759.861014675</ele>
        <time>2015-05-12T18:39:54Z</time>
      </trkpt>
      <trkpt lat="45.32947" lon="5.67477">
        <ele>759.751687701</ele>
        <time>2015-05-12T18:39:59Z</time>
      </trkpt>
      <trkpt lat="45.32959" lon="5.67471">
        <ele>759.698126086</ele>
        <time>2015-05-12T18:40:05Z</time>
      </trkpt>
      <trkpt lat="45.32967" lon="5.67456">
        <ele>759.838433384</ele>
        <time>2015-05-12T18:40:10Z</time>
      </trkpt>
      <trkpt lat="45.32972" lon="5.67441">
        <ele>759.867710115</ele>
        <time>2015-05-12T18:40:15Z</time>
      </trkpt>
      <trkpt lat="45.32982" lon="5.67432">
        <ele>760.080235152</ele>
        <time>2015-05-12T18:40:20Z</time>
      </trkpt>
      <trkpt lat="45.32988" lon="5.67414">
        <ele>760.459963346</ele>
        <time>2015-05-12T18:40:25Z</time>
      </trkpt>
      <trkpt lat="45.32996" lon="5.67402">
        <ele>760.55926069</ele>
        <time>2015-05-12T18:40:30Z</time>
      </trkpt>
      <trkpt lat="45.33003" lon="5.67395">
        <ele>760.684758496</ele>
        <time>2015-05-12T18:40:35Z</time>
      </trkpt>
      <trkpt lat="45.33007" lon="5.6738">
        <ele>761.264645825</ele>
        <time>2015-05-12T18:40:40Z</time>
      </trkpt>
      <trkpt lat="45.33014" lon="5.67366">
        <ele>761.6856541</ele>
        <time>2015-05-12T18:40:45Z</time>
      </trkpt>
      <trkpt lat="45.33022" lon="5.67354">
        <ele>762.244732353</ele>
        <time>2015-05-12T18:40:50Z</time>
      </trkpt>
      <trkpt lat="45.33025" lon="5.6734">
        <ele>762.78435471</ele>
        <time>2015-05-12T18:40:54Z</time>
      </trkpt>
      <trkpt lat="45.33037" lon="5.67334">
        <ele>763.446908849</ele>
        <time>2015-05-12T18:40:59Z</time>
      </trkpt>
      <trkpt lat="45.33046" lon="5.67332">
        <ele>763.446908849</ele>
        <time>2015-05-12T18:41:04Z</time>
      </trkpt>
      <trkpt lat="45.3306" lon="5.67325">
        <ele>764.07582521</ele>
        <time>2015-05-12T18:41:10Z</time>
      </trkpt>
      <trkpt lat="45.33068" lon="5.67321">
        <ele>764.07582521</ele>
        <time>2015-05-12T18:41:15Z</time>
      </trkpt>
      <trkpt lat="45.33081" lon="5.67318">
        <ele>764.382092624</ele>
        <time>2015-05-12T18:41:20Z</time>
      </trkpt>
      <trkpt lat="45.33091" lon="5.67316">
        <ele>764.675357163</ele>
        <time>2015-05-12T18:41:25Z</time>
      </trkpt>
      <trkpt lat="45.33101" lon="5.67311">
        <ele>764.81030016</ele>
        <time>2015-05-12T18:41:30Z</time>
      </trkpt>
      <trkpt lat="45.33114" lon="5.6731">
        <ele>765.085135093</ele>
        <time>2015-05-12T18:41:35Z</time>
      </trkpt>
      <trkpt lat="45.33124" lon="5.67309">
        <ele>765.055299416</ele>
        <time>2015-05-12T18:41:40Z</time>
      </trkpt>
      <trkpt lat="45.33139" lon="5.67314">
        <ele>765.174487374</ele>
        <time>2015-05-12T18:41:45Z</time>
      </trkpt>
      <trkpt lat="45.33147" lon="5.67308">
        <ele>765.430390023</ele>
        <time>2015-05-12T18:41:50Z</time>
      </trkpt>
      <trkpt lat="45.33157" lon="5.67305">
        <ele>765.811294425</ele>
        <time>2015-05-12T18:41:54Z</time>
      </trkpt>
      <trkpt lat="45.33167" lon="5.67302">
        <ele>766.306071953</ele>
        <time>2015-05-12T18:42:00Z</time>
      </trkpt>
      <trkpt lat="45.33178" lon="5.67297">
        <ele>766.760055304</ele>
        <time>2015-05-12T18:42:05Z</time>
      </trkpt>
      <trkpt lat="45.33185" lon="5.67285">
        <ele>767.174239192</ele>
        <time>2015-05-12T18:42:10Z</time>
      </trkpt>
      <trkpt lat="45.33196" lon="5.67285">
        <ele>767.40562029</ele>
        <time>2015-05-12T18:42:15Z</time>
      </trkpt>
      <trkpt lat="45.33206" lon="5.67282">
        <ele>767.754620721</ele>
        <time>2015-05-12T18:42:20Z</time>
      </trkpt>
      <trkpt lat="45.33214" lon="5.67277">
        <ele>767.754620721</ele>
        <time>2015-05-12T18:42:25Z</time>
      </trkpt>
      <trkpt lat="45.33225" lon="5.67266">
        <ele>767.922892118</ele>
        <time>2015-05-12T18:42:30Z</time>
      </trkpt>
      <trkpt lat="45.33235" lon="5.67254">
        <ele>767.922802843</ele>
        <time>2015-05-12T18:42:35Z</time>
      </trkpt>
      <trkpt lat="45.33248" lon="5.6725">
        <ele>767.622241473</ele>
        <time>2015-05-12T18:42:40Z</time>
      </trkpt>
      <trkpt lat="45.33254" lon="5.67239">
        <ele>767.76437558</ele>
        <time>2015-05-12T18:42:45Z</time>
      </trkpt>
      <trkpt lat="45.33266" lon="5.67241">
        <ele>768.171931981</ele>
        <time>2015-05-12T18:42:50Z</time>
      </trkpt>
      <trkpt lat="45.33275" lon="5.67235">
        <ele>768.6799733</ele>
        <time>2015-05-12T18:42:55Z</time>
      </trkpt>
      <trkpt lat="45.33285" lon="5.6723">
        <ele>769.13545281</ele>
        <time>2015-05-12T18:43:00Z</time>
      </trkpt>
      <trkpt lat="45.33289" lon="5.67224">
        <ele>769.13545281</ele>
        <time>2015-05-12T18:43:05Z</time>
      </trkpt>
      <trkpt lat="45.33298" lon="5.67223">
        <ele>769.540880919</ele>
        <time>2015-05-12T18:43:10Z</time>
      </trkpt>
      <trkpt lat="45.33305" lon="5.67217">
        <ele>769.540880919</ele>
        <time>2015-05-12T18:43:15Z</time>
      </trkpt>
      <trkpt lat="45.33314" lon="5.67213">
        <ele>770.475225131</ele>
        <time>2015-05-12T18:43:20Z</time>
      </trkpt>
      <trkpt lat="45.33323" lon="5.6721">
        <ele>771.464717993</ele>
        <time>2015-05-12T18:43:25Z</time>
      </trkpt>
      <trkpt lat="45.33335" lon="5.67208">
        <ele>772.358521657</ele>
        <time>2015-05-12T18:43:30Z</time>
      </trkpt>
      <trkpt lat="45.33343" lon="5.67207">
        <ele>772.358521657</ele>
        <time>2015-05-12T18:43:35Z</time>
      </trkpt>
      <trkpt lat="45.33353" lon="5.67209">
        <ele>772.873097023</ele>
        <time>2015-05-12T18:43:40Z</time>
      </trkpt>
      <trkpt lat="45.3336" lon="5.67213">
        <ele>772.873097023</ele>
        <time>2015-05-12T18:43:44Z</time>
      </trkpt>
      <trkpt lat="45.33373" lon="5.67214">
        <ele>773.899750222</ele>
        <time>2015-05-12T18:43:49Z</time>
      </trkpt>
      <trkpt lat="45.33379" lon="5.67217">
        <ele>773.899750222</ele>
        <time>2015-05-12T18:43:55Z</time>
      </trkpt>
      <trkpt lat="45.3339" lon="5.67217">
        <ele>774.965940863</ele>
        <time>2015-05-12T18:43:59Z</time>
      </trkpt>
      <trkpt lat="45.33397" lon="5.67224">
        <ele>776.498465099</ele>
        <time>2015-05-12T18:44:04Z</time>
      </trkpt>
      <trkpt lat="45.33406" lon="5.6723">
        <ele>777.882751577</ele>
        <time>2015-05-12T18:44:09Z</time>
      </trkpt>
      <trkpt lat="45.33415" lon="5.67233">
        <ele>779.702756214</ele>
        <time>2015-05-12T18:44:15Z</time>
      </trkpt>
      <trkpt lat="45.3342" lon="5.67237">
        <ele>779.702756214</ele>
        <time>2015-05-12T18:44:19Z</time>
      </trkpt>
      <trkpt lat="45.33434" lon="5.67252">
        <ele>781.489618994</ele>
        <time>2015-05-12T18:44:25Z</time>
      </trkpt>
      <trkpt lat="45.33448" lon="5.67255">
        <ele>782.809101943</ele>
        <time>2015-05-12T18:44:30Z</time>
      </trkpt>
      <trkpt lat="45.33457" lon="5.6726">
        <ele>784.413158387</ele>
        <time>2015-05-12T18:44:35Z</time>
      </trkpt>
      <trkpt lat="45.33464" lon="5.67266">
        <ele>784.413158387</ele>
        <time>2015-05-12T18:44:40Z</time>
      </trkpt>
      <trkpt lat="45.33476" lon="5.67269">
        <ele>786.421357659</ele>
        <time>2015-05-12T18:44:45Z</time>
      </trkpt>
      <trkpt lat="45.33479" lon="5.6728">
        <ele>786.421357659</ele>
        <time>2015-05-12T18:44:50Z</time>
      </trkpt>
      <trkpt lat="45.33485" lon="5.67291">
        <ele>787.790562974</ele>
        <time>2015-05-12T18:44:55Z</time>
      </trkpt>
      <trkpt lat="45.3349" lon="5.67301">
        <ele>787.790562974</ele>
        <time>2015-05-12T18:45:00Z</time>
      </trkpt>
      <trkpt lat="45.33493" lon="5.67312">
        <ele>788.853161516</ele>
        <time>2015-05-12T18:45:05Z</time>
      </trkpt>
      <trkpt lat="45.33497" lon="5.6732">
        <ele>788.853161516</ele>
        <time>2015-05-12T18:45:10Z</time>
      </trkpt>
      <trkpt lat="45.33502" lon="5.67329">
        <ele>789.485753275</ele>
        <time>2015-05-12T18:45:14Z</time>
      </trkpt>
      <trkpt lat="45.33512" lon="5.67351">
        <ele>789.719421245</ele>
        <time>2015-05-12T18:45:20Z</time>
      </trkpt>
      <trkpt lat="45.33519" lon="5.67364">
        <ele>789.872401505</ele>
        <time>2015-05-12T18:45:25Z</time>
      </trkpt>
      <trkpt lat="45.33525" lon="5.67375">
        <ele>789.951643861</ele>
        <time>2015-05-12T18:45:30Z</time>
      </trkpt>
      <trkpt lat="45.33527" lon="5.67388">
        <ele>790.540317995</ele>
        <time>2015-05-12T18:45:35Z</time>
      </trkpt>
      <trkpt lat="45.3353" lon="5.67396">
        <ele>790.540317995</ele>
        <time>2015-05-12T18:45:40Z</time>
      </trkpt>
      <trkpt lat="45.33527" lon="5.6741">
        <ele>791.16861791</ele>
        <time>2015-05-12T18:45:45Z</time>
      </trkpt>
      <trkpt lat="45.3353" lon="5.67428">
        <ele>791.401201591</ele>
        <time>2015-05-12T18:45:50Z</time>
      </trkpt>
      <trkpt lat="45.33531" lon="5.67443">
        <ele>791.412318255</ele>
        <time>2015-05-12T18:45:55Z</time>
      </trkpt>
      <trkpt lat="45.33533" lon="5.67456">
        <ele>791.364087594</ele>
        <time>2015-05-12T18:46:00Z</time>
      </trkpt>
      <trkpt lat="45.3353" lon="5.67474">
        <ele>790.830482564</ele>
        <time>2015-05-12T18:46:05Z</time>
      </trkpt>
      <trkpt lat="45.33533" lon="5.67495">
        <ele>789.994608248</ele>
        <time>2015-05-12T18:46:10Z</time>
      </trkpt>
      <trkpt lat="45.33539" lon="5.675">
        <ele>789.994608248</ele>
        <time>2015-05-12T18:46:15Z</time>
      </trkpt>
      <trkpt lat="45.33541" lon="5.675">
        <ele>789.994608248</ele>
        <time>2015-05-12T18:46:20Z</time>
      </trkpt>
      <trkpt lat="45.3354" lon="5.67499">
        <ele>789.603430853</ele>
        <time>2015-05-12T18:46:25Z</time>
      </trkpt>
      <trkpt lat="45.33551" lon="5.67497">
        <ele>789.483138989</ele>
        <time>2015-05-12T18:46:30Z</time>
      </trkpt>
      <trkpt lat="45.33564" lon="5.67492">
        <ele>789.616039769</ele>
        <time>2015-05-12T18:46:35Z</time>
      </trkpt>
      <trkpt lat="45.33578" lon="5.67492">
        <ele>789.408576305</ele>
        <time>2015-05-12T18:46:40Z</time>
      </trkpt>
      <trkpt lat="45.33588" lon="5.67496">
        <ele>789.320512372</ele>
        <time>2015-05-12T18:46:45Z</time>
      </trkpt>
      <trkpt lat="45.33594" lon="5.675">
        <ele>789.320512372</ele>
        <time>2015-05-12T18:46:49Z</time>
      </trkpt>
      <trkpt lat="45.336" lon="5.67504">
        <ele>789.489261217</ele>
        <time>2015-05-12T18:46:54Z</time>
      </trkpt>
      <trkpt lat="45.33606" lon="5.67508">
        <ele>789.489261217</ele>
        <time>2015-05-12T18:46:59Z</time>
      </trkpt>
      <trkpt lat="45.3361" lon="5.67514">
        <ele>789.753175957</ele>
        <time>2015-05-12T18:47:04Z</time>
      </trkpt>
      <trkpt lat="45.33614" lon="5.67515">
        <ele>789.753175957</ele>
        <time>2015-05-12T18:47:09Z</time>
      </trkpt>
      <trkpt lat="45.33625" lon="5.67516">
        <ele>789.529856826</ele>
        <time>2015-05-12T18:47:15Z</time>
      </trkpt>
      <trkpt lat="45.33636" lon="5.6752">
        <ele>789.43391304</ele>
        <time>2015-05-12T18:47:19Z</time>
      </trkpt>
      <trkpt lat="45.33644" lon="5.67524">
        <ele>789.43391304</ele>
        <time>2015-05-12T18:47:24Z</time>
      </trkpt>
      <trkpt lat="45.33653" lon="5.67526">
        <ele>788.449190343</ele>
        <time>2015-05-12T18:47:29Z</time>
      </trkpt>
      <trkpt lat="45.33667" lon="5.67526">
        <ele>787.077744509</ele>
        <time>2015-05-12T18:47:35Z</time>
      </trkpt>
      <trkpt lat="45.3368" lon="5.67528">
        <ele>785.497563075</ele>
        <time>2015-05-12T18:47:39Z</time>
      </trkpt>
      <trkpt lat="45.33696" lon="5.67537">
        <ele>784.306417534</ele>
        <time>2015-05-12T18:47:45Z</time>
      </trkpt>
      <trkpt lat="45.33704" lon="5.67539">
        <ele>784.306417534</ele>
        <time>2015-05-12T18:47:49Z</time>
      </trkpt>
      <trkpt lat="45.33719" lon="5.67547">
        <ele>782.471780757</ele>
        <time>2015-05-12T18:47:54Z</time>
      </trkpt>
      <trkpt lat="45.33729" lon="5.67546">
        <ele>781.344474954</ele>
        <time>2015-05-12T18:47:59Z</time>
      </trkpt>
      <trkpt lat="45.33738" lon="5.6756">
        <ele>780.012346596</ele>
        <time>2015-05-12T18:48:04Z</time>
      </trkpt>
      <trkpt lat="45.33745" lon="5.67565">
        <ele>780.012346596</ele>
        <time>2015-05-12T18:48:09Z</time>
      </trkpt>
      <trkpt lat="45.33749" lon="5.67571">
        <ele>779.215944852</ele>
        <time>2015-05-12T18:48:14Z</time>
      </trkpt>
      <trkpt lat="45.33754" lon="5.67572">
        <ele>779.215944852</ele>
        <time>2015-05-12T18:48:19Z</time>
      </trkpt>
      <trkpt lat="45.33756" lon="5.67575">
        <ele>779.215944852</ele>
        <time>2015-05-12T18:48:24Z</time>
      </trkpt>
      <trkpt lat="45.33758" lon="5.67576">
        <ele>778.342808211</ele>
        <time>2015-05-12T18:48:30Z</time>
      </trkpt>
      <trkpt lat="45.33764" lon="5.67587">
        <ele>777.113792499</ele>
        <time>2015-05-12T18:48:34Z</time>
      </trkpt>
      <trkpt lat="45.33758" lon="5.67603">
        <ele>775.559364611</ele>
        <time>2015-05-12T18:48:39Z</time>
      </trkpt>
      <trkpt lat="45.33752" lon="5.67615">
        <ele>773.996769186</ele>
        <time>2015-05-12T18:48:44Z</time>
      </trkpt>
      <trkpt lat="45.33747" lon="5.67622">
        <ele>773.996769186</ele>
        <time>2015-05-12T18:48:49Z</time>
      </trkpt>
      <trkpt lat="45.33759" lon="5.67632">
        <ele>772.719845447</ele>
        <time>2015-05-12T18:48:54Z</time>
      </trkpt>
      <trkpt lat="45.33764" lon="5.67637">
        <ele>772.719845447</ele>
        <time>2015-05-12T18:48:59Z</time>
      </trkpt>
      <trkpt lat="45.3377" lon="5.67638">
        <ele>771.855807397</ele>
        <time>2015-05-12T18:49:04Z</time>
      </trkpt>
      <trkpt lat="45.33776" lon="5.67639">
        <ele>771.855807397</ele>
        <time>2015-05-12T18:49:09Z</time>
      </trkpt>
      <trkpt lat="45.33785" lon="5.67641">
        <ele>771.521236894</ele>
        <time>2015-05-12T18:49:14Z</time>
      </trkpt>
      <trkpt lat="45.33794" lon="5.67647">
        <ele>771.101982859</ele>
        <time>2015-05-12T18:49:19Z</time>
      </trkpt>
      <trkpt lat="45.338" lon="5.67644">
        <ele>771.101982859</ele>
        <time>2015-05-12T18:49:24Z</time>
      </trkpt>
      <trkpt lat="45.33803" lon="5.67651">
        <ele>770.317344444</ele>
        <time>2015-05-12T18:49:29Z</time>
      </trkpt>
      <trkpt lat="45.338" lon="5.67651">
        <ele>770.317344444</ele>
        <time>2015-05-12T18:49:34Z</time>
      </trkpt>
      <trkpt lat="45.338" lon="5.6765">
        <ele>770.317344444</ele>
        <time>2015-05-12T18:49:39Z</time>
      </trkpt>
      <trkpt lat="45.338" lon="5.6765">
        <ele>770.317344444</ele>
        <time>2015-05-12T18:49:44Z</time>
      </trkpt>
      <trkpt lat="45.338" lon="5.6765">
        <ele>770.317344444</ele>
        <time>2015-05-12T18:49:49Z</time>
      </trkpt>
      <trkpt lat="45.338" lon="5.6765">
        <ele>770.317344444</ele>
        <time>2015-05-12T18:49:54Z</time>
      </trkpt>
      <trkpt lat="45.338" lon="5.6765">
        <ele>770.317344444</ele>
        <time>2015-05-12T18:49:59Z</time>
      </trkpt>
      <trkpt lat="45.338" lon="5.6765">
        <ele>770.317344444</ele>
        <time>2015-05-12T18:50:04Z</time>
      </trkpt>
      <trkpt lat="45.338" lon="5.6765">
        <ele>770.317344444</ele>
        <time>2015-05-12T18:50:10Z</time>
      </trkpt>
      <trkpt lat="45.338" lon="5.6765">
        <ele>770.317344444</ele>
        <time>2015-05-12T18:50:14Z</time>
      </trkpt>
      <trkpt lat="45.338" lon="5.6765">
        <ele>770.317344444</ele>
        <time>2015-05-12T18:50:20Z</time>
      </trkpt>
      <trkpt lat="45.33791" lon="5.6765">
        <ele>769.77281253</ele>
        <time>2015-05-12T18:50:25Z</time>
      </trkpt>
      <trkpt lat="45.33778" lon="5.67647">
        <ele>769.884499583</ele>
        <time>2015-05-12T18:50:30Z</time>
      </trkpt>
      <trkpt lat="45.33771" lon="5.67644">
        <ele>769.884499583</ele>
        <time>2015-05-12T18:50:34Z</time>
      </trkpt>
      <trkpt lat="45.33769" lon="5.67644">
        <ele>769.884499583</ele>
        <time>2015-05-12T18:50:39Z</time>
      </trkpt>
      <trkpt lat="45.33768" lon="5.67644">
        <ele>770.459557442</ele>
        <time>2015-05-12T18:50:44Z</time>
      </trkpt>
      <trkpt lat="45.33762" lon="5.67639">
        <ele>770.459557442</ele>
        <time>2015-05-12T18:50:49Z</time>
      </trkpt>
      <trkpt lat="45.33755" lon="5.67636">
        <ele>770.165014744</ele>
        <time>2015-05-12T18:50:54Z</time>
      </trkpt>
      <trkpt lat="45.33751" lon="5.67641">
        <ele>770.165014744</ele>
        <time>2015-05-12T18:51:00Z</time>
      </trkpt>
      <trkpt lat="45.33753" lon="5.6764">
        <ele>770.165014744</ele>
        <time>2015-05-12T18:51:05Z</time>
      </trkpt>
      <trkpt lat="45.33752" lon="5.67646">
        <ele>771.08272574</ele>
        <time>2015-05-12T18:51:10Z</time>
      </trkpt>
      <trkpt lat="45.33754" lon="5.6765">
        <ele>771.08272574</ele>
        <time>2015-05-12T18:51:15Z</time>
      </trkpt>
      <trkpt lat="45.33755" lon="5.6766">
        <ele>771.679465235</ele>
        <time>2015-05-12T18:51:20Z</time>
      </trkpt>
      <trkpt lat="45.33759" lon="5.67661">
        <ele>771.679465235</ele>
        <time>2015-05-12T18:51:24Z</time>
      </trkpt>
      <trkpt lat="45.33761" lon="5.67666">
        <ele>771.679465235</ele>
        <time>2015-05-12T18:51:30Z</time>
      </trkpt>
      <trkpt lat="45.33768" lon="5.6767">
        <ele>771.832470478</ele>
        <time>2015-05-12T18:51:35Z</time>
      </trkpt>
      <trkpt lat="45.33768" lon="5.67674">
        <ele>771.832470478</ele>
        <time>2015-05-12T18:51:40Z</time>
      </trkpt>
      <trkpt lat="45.33768" lon="5.67681">
        <ele>771.832470478</ele>
        <time>2015-05-12T18:51:45Z</time>
      </trkpt>
      <trkpt lat="45.33771" lon="5.67687">
        <ele>772.437962286</ele>
        <time>2015-05-12T18:51:50Z</time>
      </trkpt>
      <trkpt lat="45.33776" lon="5.67689">
        <ele>772.437962286</ele>
        <time>2015-05-12T18:51:55Z</time>
      </trkpt>
      <trkpt lat="45.33774" lon="5.67697">
        <ele>773.604454772</ele>
        <time>2015-05-12T18:52:00Z</time>
      </trkpt>
      <trkpt lat="45.33775" lon="5.67698">
        <ele>773.604454772</ele>
        <time>2015-05-12T18:52:05Z</time>
      </trkpt>
      <trkpt lat="45.33773" lon="5.67701">
        <ele>773.604454772</ele>
        <time>2015-05-12T18:52:10Z</time>
      </trkpt>
      <trkpt lat="45.33773" lon="5.67702">
        <ele>773.604454772</ele>
        <time>2015-05-12T18:52:15Z</time>
      </trkpt>
      <trkpt lat="45.33773" lon="5.67702">
        <ele>773.604454772</ele>
        <time>2015-05-12T18:52:19Z</time>
      </trkpt>
      <trkpt lat="45.33773" lon="5.67702">
        <ele>773.604454772</ele>
        <time>2015-05-12T18:52:24Z</time>
      </trkpt>
      <trkpt lat="45.33772" lon="5.67702">
        <ele>773.604454772</ele>
        <time>2015-05-12T18:52:29Z</time>
      </trkpt>
      <trkpt lat="45.33772" lon="5.67703">
        <ele>773.604454772</ele>
        <time>2015-05-12T18:52:34Z</time>
      </trkpt>
      <trkpt lat="45.33768" lon="5.67712">
        <ele>774.998549569</ele>
        <time>2015-05-12T18:52:39Z</time>
      </trkpt>
      <trkpt lat="45.33763" lon="5.67719">
        <ele>774.998549569</ele>
        <time>2015-05-12T18:52:45Z</time>
      </trkpt>
      <trkpt lat="45.3376" lon="5.67723">
        <ele>776.743014127</ele>
        <time>2015-05-12T18:52:50Z</time>
      </trkpt>
      <trkpt lat="45.33758" lon="5.67734">
        <ele>776.743014127</ele>
        <time>2015-05-12T18:52:54Z</time>
      </trkpt>
      <trkpt lat="45.33752" lon="5.67746">
        <ele>779.094721478</ele>
        <time>2015-05-12T18:53:00Z</time>
      </trkpt>
      <trkpt lat="45.3375" lon="5.67753">
        <ele>779.094721478</ele>
        <time>2015-05-12T18:53:05Z</time>
      </trkpt>
      <trkpt lat="45.33745" lon="5.67758">
        <ele>781.137094966</ele>
        <time>2015-05-12T18:53:10Z</time>
      </trkpt>
      <trkpt lat="45.33741" lon="5.67768">
        <ele>781.137094966</ele>
        <time>2015-05-12T18:53:14Z</time>
      </trkpt>
      <trkpt lat="45.33734" lon="5.67774">
        <ele>782.310008246</ele>
        <time>2015-05-12T18:53:20Z</time>
      </trkpt>
      <trkpt lat="45.33731" lon="5.67781">
        <ele>782.310008246</ele>
        <time>2015-05-12T18:53:25Z</time>
      </trkpt>
      <trkpt lat="45.33725" lon="5.67786">
        <ele>783.24985327</ele>
        <time>2015-05-12T18:53:30Z</time>
      </trkpt>
      <trkpt lat="45.33723" lon="5.67788">
        <ele>783.24985327</ele>
        <time>2015-05-12T18:53:35Z</time>
      </trkpt>
      <trkpt lat="45.3372" lon="5.67791">
        <ele>783.24985327</ele>
        <time>2015-05-12T18:53:40Z</time>
      </trkpt>
      <trkpt lat="45.33717" lon="5.67797">
        <ele>785.988096133</ele>
        <time>2015-05-12T18:53:45Z</time>
      </trkpt>
      <trkpt lat="45.33712" lon="5.67801">
        <ele>785.988096133</ele>
        <time>2015-05-12T18:53:50Z</time>
      </trkpt>
      <trkpt lat="45.33707" lon="5.67807">
        <ele>788.655107592</ele>
        <time>2015-05-12T18:53:54Z</time>
      </trkpt>
      <trkpt lat="45.33702" lon="5.67807">
        <ele>788.655107592</ele>
        <time>2015-05-12T18:53:59Z</time>
      </trkpt>
      <trkpt lat="45.33702" lon="5.67806">
        <ele>788.655107592</ele>
        <time>2015-05-12T18:54:04Z</time>
      </trkpt>
      <trkpt lat="45.337" lon="5.67813">
        <ele>791.53644061</ele>
        <time>2015-05-12T18:54:10Z</time>
      </trkpt>
      <trkpt lat="45.33699" lon="5.67818">
        <ele>791.53644061</ele>
        <time>2015-05-12T18:54:15Z</time>
      </trkpt>
      <trkpt lat="45.33694" lon="5.67823">
        <ele>794.752059911</ele>
        <time>2015-05-12T18:54:20Z</time>
      </trkpt>
      <trkpt lat="45.33695" lon="5.67826">
        <ele>794.752059911</ele>
        <time>2015-05-12T18:54:25Z</time>
      </trkpt>
      <trkpt lat="45.337" lon="5.67831">
        <ele>794.752059911</ele>
        <time>2015-05-12T18:54:30Z</time>
      </trkpt>
      <trkpt lat="45.33702" lon="5.67837">
        <ele>797.403519631</ele>
        <time>2015-05-12T18:54:34Z</time>
      </trkpt>
      <trkpt lat="45.337" lon="5.67843">
        <ele>797.403519631</ele>
        <time>2015-05-12T18:54:39Z</time>
      </trkpt>
      <trkpt lat="45.33701" lon="5.67848">
        <ele>797.403519631</ele>
        <time>2015-05-12T18:54:45Z</time>
      </trkpt>
      <trkpt lat="45.33701" lon="5.67849">
        <ele>797.403519631</ele>
        <time>2015-05-12T18:54:50Z</time>
      </trkpt>
      <trkpt lat="45.337" lon="5.6785">
        <ele>800.821758339</ele>
        <time>2015-05-12T18:54:55Z</time>
      </trkpt>
      <trkpt lat="45.337" lon="5.6785">
        <ele>800.821758339</ele>
        <time>2015-05-12T18:55:00Z</time>
      </trkpt>
      <trkpt lat="45.33697" lon="5.67853">
        <ele>800.821758339</ele>
        <time>2015-05-12T18:55:05Z</time>
      </trkpt>
      <trkpt lat="45.33691" lon="5.67861">
        <ele>803.932165605</ele>
        <time>2015-05-12T18:55:09Z</time>
      </trkpt>
      <trkpt lat="45.33684" lon="5.67865">
        <ele>803.932165605</ele>
        <time>2015-05-12T18:55:14Z</time>
      </trkpt>
      <trkpt lat="45.33681" lon="5.67873">
        <ele>807.181211909</ele>
        <time>2015-05-12T18:55:20Z</time>
      </trkpt>
      <trkpt lat="45.33682" lon="5.67879">
        <ele>807.181211909</ele>
        <time>2015-05-12T18:55:25Z</time>
      </trkpt>
      <trkpt lat="45.33678" lon="5.67884">
        <ele>811.126472618</ele>
        <time>2015-05-12T18:55:30Z</time>
      </trkpt>
      <trkpt lat="45.33679" lon="5.67891">
        <ele>811.126472618</ele>
        <time>2015-05-12T18:55:35Z</time>
      </trkpt>
      <trkpt lat="45.33683" lon="5.67896">
        <ele>816.138696287</ele>
        <time>2015-05-12T18:55:40Z</time>
      </trkpt>
      <trkpt lat="45.33684" lon="5.67898">
        <ele>816.138696287</ele>
        <time>2015-05-12T18:55:45Z</time>
      </trkpt>
      <trkpt lat="45.33686" lon="5.67903">
        <ele>816.138696287</ele>
        <time>2015-05-12T18:55:50Z</time>
      </trkpt>
      <trkpt lat="45.33688" lon="5.67903">
        <ele>816.138696287</ele>
        <time>2015-05-12T18:55:55Z</time>
      </trkpt>
      <trkpt lat="45.33691" lon="5.67902">
        <ele>821.261617023</ele>
        <time>2015-05-12T18:56:00Z</time>
      </trkpt>
      <trkpt lat="45.33695" lon="5.67903">
        <ele>821.261617023</ele>
        <time>2015-05-12T18:56:05Z</time>
      </trkpt>
      <trkpt lat="45.33698" lon="5.67903">
        <ele>821.261617023</ele>
        <time>2015-05-12T18:56:10Z</time>
      </trkpt>
      <trkpt lat="45.337" lon="5.67907">
        <ele>826.041471688</ele>
        <time>2015-05-12T18:56:14Z</time>
      </trkpt>
      <trkpt lat="45.33699" lon="5.67909">
        <ele>826.041471688</ele>
        <time>2015-05-12T18:56:19Z</time>
      </trkpt>
      <trkpt lat="45.337" lon="5.67912">
        <ele>826.041471688</ele>
        <time>2015-05-12T18:56:24Z</time>
      </trkpt>
      <trkpt lat="45.33697" lon="5.67912">
        <ele>826.041471688</ele>
        <time>2015-05-12T18:56:29Z</time>
      </trkpt>
      <trkpt lat="45.33696" lon="5.67912">
        <ele>826.041471688</ele>
        <time>2015-05-12T18:56:34Z</time>
      </trkpt>
      <trkpt lat="45.33696" lon="5.67911">
        <ele>826.041471688</ele>
        <time>2015-05-12T18:56:39Z</time>
      </trkpt>
      <trkpt lat="45.33696" lon="5.67911">
        <ele>826.041471688</ele>
        <time>2015-05-12T18:56:44Z</time>
      </trkpt>
      <trkpt lat="45.33696" lon="5.67911">
        <ele>826.041471688</ele>
        <time>2015-05-12T18:56:49Z</time>
      </trkpt>
      <trkpt lat="45.33696" lon="5.67911">
        <ele>826.041471688</ele>
        <time>2015-05-12T18:56:54Z</time>
      </trkpt>
      <trkpt lat="45.33701" lon="5.6792">
        <ele>830.203155469</ele>
        <time>2015-05-12T18:56:59Z</time>
      </trkpt>
      <trkpt lat="45.33708" lon="5.67931">
        <ele>834.934887461</ele>
        <time>2015-05-12T18:57:04Z</time>
      </trkpt>
      <trkpt lat="45.33714" lon="5.67937">
        <ele>834.934887461</ele>
        <time>2015-05-12T18:57:09Z</time>
      </trkpt>
      <trkpt lat="45.33719" lon="5.67943">
        <ele>839.462839547</ele>
        <time>2015-05-12T18:57:14Z</time>
      </trkpt>
      <trkpt lat="45.33727" lon="5.67947">
        <ele>843.359115661</ele>
        <time>2015-05-12T18:57:19Z</time>
      </trkpt>
      <trkpt lat="45.3373" lon="5.67953">
        <ele>843.359115661</ele>
        <time>2015-05-12T18:57:24Z</time>
      </trkpt>
      <trkpt lat="45.33739" lon="5.67959">
        <ele>847.093992065</ele>
        <time>2015-05-12T18:57:29Z</time>
      </trkpt>
      <trkpt lat="45.33739" lon="5.67966">
        <ele>847.093992065</ele>
        <time>2015-05-12T18:57:34Z</time>
      </trkpt>
      <trkpt lat="45.33742" lon="5.67973">
        <ele>851.392179794</ele>
        <time>2015-05-12T18:57:39Z</time>
      </trkpt>
      <trkpt lat="45.33744" lon="5.67979">
        <ele>851.392179794</ele>
        <time>2015-05-12T18:57:44Z</time>
      </trkpt>
      <trkpt lat="45.33745" lon="5.67982">
        <ele>851.392179794</ele>
        <time>2015-05-12T18:57:49Z</time>
      </trkpt>
      <trkpt lat="45.33748" lon="5.67988">
        <ele>856.059215414</ele>
        <time>2015-05-12T18:57:54Z</time>
      </trkpt>
      <trkpt lat="45.33758" lon="5.67991">
        <ele>859.905418984</ele>
        <time>2015-05-12T18:57:59Z</time>
      </trkpt>
      <trkpt lat="45.33762" lon="5.67997">
        <ele>859.905418984</ele>
        <time>2015-05-12T18:58:04Z</time>
      </trkpt>
      <trkpt lat="45.33761" lon="5.68003">
        <ele>863.128118136</ele>
        <time>2015-05-12T18:58:09Z</time>
      </trkpt>
      <trkpt lat="45.33761" lon="5.68007">
        <ele>863.128118136</ele>
        <time>2015-05-12T18:58:14Z</time>
      </trkpt>
      <trkpt lat="45.33766" lon="5.68009">
        <ele>863.128118136</ele>
        <time>2015-05-12T18:58:19Z</time>
      </trkpt>
      <trkpt lat="45.33771" lon="5.68009">
        <ele>866.488648188</ele>
        <time>2015-05-12T18:58:24Z</time>
      </trkpt>
      <trkpt lat="45.33775" lon="5.68006">
        <ele>866.488648188</ele>
        <time>2015-05-12T18:58:29Z</time>
      </trkpt>
      <trkpt lat="45.33777" lon="5.68006">
        <ele>866.488648188</ele>
        <time>2015-05-12T18:58:34Z</time>
      </trkpt>
      <trkpt lat="45.33779" lon="5.68">
        <ele>870.836448146</ele>
        <time>2015-05-12T18:58:39Z</time>
      </trkpt>
      <trkpt lat="45.33783" lon="5.68003">
        <ele>870.836448146</ele>
        <time>2015-05-12T18:58:44Z</time>
      </trkpt>
      <trkpt lat="45.33788" lon="5.68003">
        <ele>874.93853331</ele>
        <time>2015-05-12T18:58:49Z</time>
      </trkpt>
      <trkpt lat="45.33796" lon="5.67997">
        <ele>874.93853331</ele>
        <time>2015-05-12T18:58:54Z</time>
      </trkpt>
      <trkpt lat="45.33798" lon="5.67987">
        <ele>878.518145875</ele>
        <time>2015-05-12T18:58:59Z</time>
      </trkpt>
      <trkpt lat="45.33801" lon="5.67984">
        <ele>878.518145875</ele>
        <time>2015-05-12T18:59:04Z</time>
      </trkpt>
      <trkpt lat="45.33808" lon="5.67983">
        <ele>881.897059978</ele>
        <time>2015-05-12T18:59:09Z</time>
      </trkpt>
      <trkpt lat="45.33808" lon="5.67978">
        <ele>881.897059978</ele>
        <time>2015-05-12T18:59:15Z</time>
      </trkpt>
      <trkpt lat="45.33811" lon="5.67978">
        <ele>881.897059978</ele>
        <time>2015-05-12T18:59:19Z</time>
      </trkpt>
      <trkpt lat="45.33812" lon="5.67981">
        <ele>881.897059978</ele>
        <time>2015-05-12T18:59:24Z</time>
      </trkpt>
      <trkpt lat="45.33813" lon="5.6798">
        <ele>885.230149189</ele>
        <time>2015-05-12T18:59:29Z</time>
      </trkpt>
      <trkpt lat="45.33813" lon="5.6798">
        <ele>885.230149189</ele>
        <time>2015-05-12T18:59:34Z</time>
      </trkpt>
      <trkpt lat="45.33813" lon="5.6798">
        <ele>885.230149189</ele>
        <time>2015-05-12T18:59:39Z</time>
      </trkpt>
      <trkpt lat="45.33815" lon="5.67985">
        <ele>885.230149189</ele>
        <time>2015-05-12T18:59:44Z</time>
      </trkpt>
      <trkpt lat="45.33821" lon="5.67995">
        <ele>888.373092531</ele>
        <time>2015-05-12T18:59:49Z</time>
      </trkpt>
      <trkpt lat="45.33826" lon="5.68003">
        <ele>888.373092531</ele>
        <time>2015-05-12T18:59:54Z</time>
      </trkpt>
      <trkpt lat="45.33834" lon="5.68012">
        <ele>892.345860709</ele>
        <time>2015-05-12T18:59:59Z</time>
      </trkpt>
      <trkpt lat="45.33839" lon="5.68014">
        <ele>892.345860709</ele>
        <time>2015-05-12T19:00:04Z</time>
      </trkpt>
      <trkpt lat="45.33846" lon="5.6802">
        <ele>895.785648965</ele>
        <time>2015-05-12T19:00:10Z</time>
      </trkpt>
      <trkpt lat="45.3385" lon="5.68027">
        <ele>895.785648965</ele>
        <time>2015-05-12T19:00:14Z</time>
      </trkpt>
      <trkpt lat="45.33852" lon="5.68032">
        <ele>898.29617234</ele>
        <time>2015-05-12T19:00:19Z</time>
      </trkpt>
      <trkpt lat="45.33855" lon="5.68036">
        <ele>898.29617234</ele>
        <time>2015-05-12T19:00:24Z</time>
      </trkpt>
      <trkpt lat="45.33858" lon="5.68042">
        <ele>898.29617234</ele>
        <time>2015-05-12T19:00:29Z</time>
      </trkpt>
      <trkpt lat="45.33855" lon="5.68048">
        <ele>901.674767773</ele>
        <time>2015-05-12T19:00:34Z</time>
      </trkpt>
      <trkpt lat="45.3386" lon="5.6805">
        <ele>901.674767773</ele>
        <time>2015-05-12T19:00:39Z</time>
      </trkpt>
      <trkpt lat="45.33866" lon="5.68051">
        <ele>905.134641931</ele>
        <time>2015-05-12T19:00:44Z</time>
      </trkpt>
      <trkpt lat="45.33875" lon="5.68052">
        <ele>908.090896046</ele>
        <time>2015-05-12T19:00:49Z</time>
      </trkpt>
      <trkpt lat="45.33875" lon="5.68059">
        <ele>908.090896046</ele>
        <time>2015-05-12T19:00:54Z</time>
      </trkpt>
      <trkpt lat="45.33875" lon="5.68062">
        <ele>908.090896046</ele>
        <time>2015-05-12T19:00:59Z</time>
      </trkpt>
      <trkpt lat="45.33877" lon="5.68065">
        <ele>911.300213635</ele>
        <time>2015-05-12T19:01:04Z</time>
      </trkpt>
      <trkpt lat="45.33879" lon="5.68072">
        <ele>911.300213635</ele>
        <time>2015-05-12T19:01:09Z</time>
      </trkpt>
      <trkpt lat="45.33884" lon="5.68079">
        <ele>913.877951037</ele>
        <time>2015-05-12T19:01:14Z</time>
      </trkpt>
      <trkpt lat="45.33888" lon="5.68078">
        <ele>913.877951037</ele>
        <time>2015-05-12T19:01:19Z</time>
      </trkpt>
      <trkpt lat="45.33891" lon="5.68078">
        <ele>913.877951037</ele>
        <time>2015-05-12T19:01:24Z</time>
      </trkpt>
      <trkpt lat="45.33894" lon="5.68078">
        <ele>917.744514779</ele>
        <time>2015-05-12T19:01:29Z</time>
      </trkpt>
      <trkpt lat="45.33897" lon="5.68079">
        <ele>917.744514779</ele>
        <time>2015-05-12T19:01:34Z</time>
      </trkpt>
      <trkpt lat="45.339" lon="5.68079">
        <ele>917.744514779</ele>
        <time>2015-05-12T19:01:39Z</time>
      </trkpt>
      <trkpt lat="45.33902" lon="5.68079">
        <ele>917.744514779</ele>
        <time>2015-05-12T19:01:44Z</time>
      </trkpt>
      <trkpt lat="45.33907" lon="5.68084">
        <ele>920.640680659</ele>
        <time>2015-05-12T19:01:49Z</time>
      </trkpt>
      <trkpt lat="45.33913" lon="5.68089">
        <ele>920.640680659</ele>
        <time>2015-05-12T19:01:54Z</time>
      </trkpt>
      <trkpt lat="45.33921" lon="5.68091">
        <ele>923.070066946</ele>
        <time>2015-05-12T19:01:59Z</time>
      </trkpt>
      <trkpt lat="45.3392" lon="5.68096">
        <ele>923.070066946</ele>
        <time>2015-05-12T19:02:05Z</time>
      </trkpt>
      <trkpt lat="45.33922" lon="5.68099">
        <ele>923.070066946</ele>
        <time>2015-05-12T19:02:10Z</time>
      </trkpt>
      <trkpt lat="45.33926" lon="5.68099">
        <ele>925.068417576</ele>
        <time>2015-05-12T19:02:15Z</time>
      </trkpt>
      <trkpt lat="45.33929" lon="5.68098">
        <ele>925.068417576</ele>
        <time>2015-05-12T19:02:20Z</time>
      </trkpt>
      <trkpt lat="45.33934" lon="5.68098">
        <ele>925.068417576</ele>
        <time>2015-05-12T19:02:25Z</time>
      </trkpt>
      <trkpt lat="45.33938" lon="5.68102">
        <ele>927.678970461</ele>
        <time>2015-05-12T19:02:29Z</time>
      </trkpt>
      <trkpt lat="45.33943" lon="5.681">
        <ele>927.678970461</ele>
        <time>2015-05-12T19:02:35Z</time>
      </trkpt>
      <trkpt lat="45.33949" lon="5.68098">
        <ele>929.849171131</ele>
        <time>2015-05-12T19:02:39Z</time>
      </trkpt>
      <trkpt lat="45.33952" lon="5.68096">
        <ele>929.849171131</ele>
        <time>2015-05-12T19:02:45Z</time>
      </trkpt>
      <trkpt lat="45.33954" lon="5.68091">
        <ele>929.849171131</ele>
        <time>2015-05-12T19:02:50Z</time>
      </trkpt>
      <trkpt lat="45.33963" lon="5.68093">
        <ele>932.04623382</ele>
        <time>2015-05-12T19:02:55Z</time>
      </trkpt>
      <trkpt lat="45.33967" lon="5.6809">
        <ele>932.04623382</ele>
        <time>2015-05-12T19:02:59Z</time>
      </trkpt>
      <trkpt lat="45.33972" lon="5.68092">
        <ele>933.83839541</ele>
        <time>2015-05-12T19:03:04Z</time>
      </trkpt>
      <trkpt lat="45.33979" lon="5.68089">
        <ele>933.83839541</ele>
        <time>2015-05-12T19:03:10Z</time>
      </trkpt>
      <trkpt lat="45.33982" lon="5.68089">
        <ele>935.691484097</ele>
        <time>2015-05-12T19:03:15Z</time>
      </trkpt>
      <trkpt lat="45.33987" lon="5.6809">
        <ele>935.691484097</ele>
        <time>2015-05-12T19:03:20Z</time>
      </trkpt>
      <trkpt lat="45.33988" lon="5.68093">
        <ele>935.691484097</ele>
        <time>2015-05-12T19:03:24Z</time>
      </trkpt>
      <trkpt lat="45.3399" lon="5.68089">
        <ele>937.892883224</ele>
        <time>2015-05-12T19:03:30Z</time>
      </trkpt>
      <trkpt lat="45.33993" lon="5.68087">
        <ele>937.892883224</ele>
        <time>2015-05-12T19:03:35Z</time>
      </trkpt>
      <trkpt lat="45.33995" lon="5.68082">
        <ele>937.892883224</ele>
        <time>2015-05-12T19:03:40Z</time>
      </trkpt>
      <trkpt lat="45.34001" lon="5.68081">
        <ele>940.707931866</ele>
        <time>2015-05-12T19:03:45Z</time>
      </trkpt>
      <trkpt lat="45.34001" lon="5.68076">
        <ele>940.707931866</ele>
        <time>2015-05-12T19:03:50Z</time>
      </trkpt>
      <trkpt lat="45.34005" lon="5.68072">
        <ele>940.707931866</ele>
        <time>2015-05-12T19:03:55Z</time>
      </trkpt>
      <trkpt lat="45.34008" lon="5.68069">
        <ele>943.083787687</ele>
        <time>2015-05-12T19:04:00Z</time>
      </trkpt>
      <trkpt lat="45.34012" lon="5.68065">
        <ele>943.083787687</ele>
        <time>2015-05-12T19:04:05Z</time>
      </trkpt>
      <trkpt lat="45.34016" lon="5.68058">
        <ele>945.919650358</ele>
        <time>2015-05-12T19:04:10Z</time>
      </trkpt>
      <trkpt lat="45.34019" lon="5.68056">
        <ele>945.919650358</ele>
        <time>2015-05-12T19:04:15Z</time>
      </trkpt>
      <trkpt lat="45.34023" lon="5.6805">
        <ele>948.318056646</ele>
        <time>2015-05-12T19:04:20Z</time>
      </trkpt>
      <trkpt lat="45.34028" lon="5.68044">
        <ele>948.318056646</ele>
        <time>2015-05-12T19:04:25Z</time>
      </trkpt>
      <trkpt lat="45.34033" lon="5.68041">
        <ele>951.46626495</ele>
        <time>2015-05-12T19:04:30Z</time>
      </trkpt>
      <trkpt lat="45.34037" lon="5.6804">
        <ele>951.46626495</ele>
        <time>2015-05-12T19:04:34Z</time>
      </trkpt>
      <trkpt lat="45.34039" lon="5.68041">
        <ele>951.46626495</ele>
        <time>2015-05-12T19:04:39Z</time>
      </trkpt>
      <trkpt lat="45.34039" lon="5.68041">
        <ele>951.46626495</ele>
        <time>2015-05-12T19:04:44Z</time>
      </trkpt>
      <trkpt lat="45.34039" lon="5.68041">
        <ele>951.46626495</ele>
        <time>2015-05-12T19:04:50Z</time>
      </trkpt>
      <trkpt lat="45.34039" lon="5.68041">
        <ele>951.46626495</ele>
        <time>2015-05-12T19:04:54Z</time>
      </trkpt>
      <trkpt lat="45.3404" lon="5.6804">
        <ele>951.46626495</ele>
        <time>2015-05-12T19:05:00Z</time>
      </trkpt>
      <trkpt lat="45.3404" lon="5.6804">
        <ele>951.46626495</ele>
        <time>2015-05-12T19:05:05Z</time>
      </trkpt>
      <trkpt lat="45.3404" lon="5.6804">
        <ele>951.46626495</ele>
        <time>2015-05-12T19:05:10Z</time>
      </trkpt>
      <trkpt lat="45.34044" lon="5.6804">
        <ele>955.021110531</ele>
        <time>2015-05-12T19:05:14Z</time>
      </trkpt>
      <trkpt lat="45.34055" lon="5.68038">
        <ele>957.798833854</ele>
        <time>2015-05-12T19:05:20Z</time>
      </trkpt>
      <trkpt lat="45.34064" lon="5.68041">
        <ele>959.713592571</ele>
        <time>2015-05-12T19:05:25Z</time>
      </trkpt>
      <trkpt lat="45.34072" lon="5.68041">
        <ele>959.713592571</ele>
        <time>2015-05-12T19:05:30Z</time>
      </trkpt>
      <trkpt lat="45.34077" lon="5.68042">
        <ele>961.408823029</ele>
        <time>2015-05-12T19:05:35Z</time>
      </trkpt>
      <trkpt lat="45.34079" lon="5.68044">
        <ele>961.408823029</ele>
        <time>2015-05-12T19:05:40Z</time>
      </trkpt>
      <trkpt lat="45.34084" lon="5.68047">
        <ele>961.408823029</ele>
        <time>2015-05-12T19:05:45Z</time>
      </trkpt>
      <trkpt lat="45.34087" lon="5.68049">
        <ele>963.337188949</ele>
        <time>2015-05-12T19:05:50Z</time>
      </trkpt>
      <trkpt lat="45.34095" lon="5.68052">
        <ele>963.337188949</ele>
        <time>2015-05-12T19:05:55Z</time>
      </trkpt>
      <trkpt lat="45.34102" lon="5.68054">
        <ele>964.476314475</ele>
        <time>2015-05-12T19:05:59Z</time>
      </trkpt>
      <trkpt lat="45.34113" lon="5.68057">
        <ele>965.610441479</ele>
        <time>2015-05-12T19:06:05Z</time>
      </trkpt>
      <trkpt lat="45.34108" lon="5.68072">
        <ele>966.313279969</ele>
        <time>2015-05-12T19:06:10Z</time>
      </trkpt>
      <trkpt lat="45.34108" lon="5.6808">
        <ele>966.313279969</ele>
        <time>2015-05-12T19:06:15Z</time>
      </trkpt>
      <trkpt lat="45.34102" lon="5.68086">
        <ele>967.199782865</ele>
        <time>2015-05-12T19:06:20Z</time>
      </trkpt>
      <trkpt lat="45.34099" lon="5.68097">
        <ele>967.199782865</ele>
        <time>2015-05-12T19:06:24Z</time>
      </trkpt>
      <trkpt lat="45.34097" lon="5.68103">
        <ele>967.830360956</ele>
        <time>2015-05-12T19:06:29Z</time>
      </trkpt>
      <trkpt lat="45.34095" lon="5.68106">
        <ele>967.830360956</ele>
        <time>2015-05-12T19:06:34Z</time>
      </trkpt>
      <trkpt lat="45.34095" lon="5.68107">
        <ele>967.830360956</ele>
        <time>2015-05-12T19:06:39Z</time>
      </trkpt>
      <trkpt lat="45.34096" lon="5.68108">
        <ele>967.830360956</ele>
        <time>2015-05-12T19:06:44Z</time>
      </trkpt>
      <trkpt lat="45.34091" lon="5.68115">
        <ele>969.671793565</ele>
        <time>2015-05-12T19:06:50Z</time>
      </trkpt>
      <trkpt lat="45.34091" lon="5.68122">
        <ele>969.671793565</ele>
        <time>2015-05-12T19:06:54Z</time>
      </trkpt>
      <trkpt lat="45.34091" lon="5.68124">
        <ele>969.671793565</ele>
        <time>2015-05-12T19:06:59Z</time>
      </trkpt>
      <trkpt lat="45.34093" lon="5.68132">
        <ele>971.197394191</ele>
        <time>2015-05-12T19:07:04Z</time>
      </trkpt>
      <trkpt lat="45.34092" lon="5.68139">
        <ele>971.197394191</ele>
        <time>2015-05-12T19:07:09Z</time>
      </trkpt>
      <trkpt lat="45.3409" lon="5.68143">
        <ele>971.197394191</ele>
        <time>2015-05-12T19:07:14Z</time>
      </trkpt>
      <trkpt lat="45.34091" lon="5.68148">
        <ele>973.299187057</ele>
        <time>2015-05-12T19:07:19Z</time>
      </trkpt>
      <trkpt lat="45.34093" lon="5.68154">
        <ele>973.299187057</ele>
        <time>2015-05-12T19:07:24Z</time>
      </trkpt>
      <trkpt lat="45.34093" lon="5.68164">
        <ele>975.072610914</ele>
        <time>2015-05-12T19:07:29Z</time>
      </trkpt>
      <trkpt lat="45.34094" lon="5.68174">
        <ele>975.072610914</ele>
        <time>2015-05-12T19:07:34Z</time>
      </trkpt>
      <trkpt lat="45.34095" lon="5.68182">
        <ele>976.545031508</ele>
        <time>2015-05-12T19:07:39Z</time>
      </trkpt>
      <trkpt lat="45.3409" lon="5.68181">
        <ele>976.545031508</ele>
        <time>2015-05-12T19:07:44Z</time>
      </trkpt>
      <trkpt lat="45.3409" lon="5.68179">
        <ele>976.545031508</ele>
        <time>2015-05-12T19:07:49Z</time>
      </trkpt>
      <trkpt lat="45.34088" lon="5.68177">
        <ele>976.545031508</ele>
        <time>2015-05-12T19:07:54Z</time>
      </trkpt>
      <trkpt lat="45.34087" lon="5.68168">
        <ele>978.607204972</ele>
        <time>2015-05-12T19:08:00Z</time>
      </trkpt>
      <trkpt lat="45.34086" lon="5.68163">
        <ele>978.607204972</ele>
        <time>2015-05-12T19:08:04Z</time>
      </trkpt>
      <trkpt lat="45.34086" lon="5.68157">
        <ele>978.607204972</ele>
        <time>2015-05-12T19:08:10Z</time>
      </trkpt>
      <trkpt lat="45.34091" lon="5.68145">
        <ele>979.921018719</ele>
        <time>2015-05-12T19:08:15Z</time>
      </trkpt>
      <trkpt lat="45.34091" lon="5.68125">
        <ele>981.122087103</ele>
        <time>2015-05-12T19:08:19Z</time>
      </trkpt>
      <trkpt lat="45.34092" lon="5.68114">
        <ele>981.122087103</ele>
        <time>2015-05-12T19:08:24Z</time>
      </trkpt>
      <trkpt lat="45.34094" lon="5.68107">
        <ele>981.070195571</ele>
        <time>2015-05-12T19:08:30Z</time>
      </trkpt>
      <trkpt lat="45.34102" lon="5.68111">
        <ele>981.070195571</ele>
        <time>2015-05-12T19:08:35Z</time>
      </trkpt>
      <trkpt lat="45.34109" lon="5.68122">
        <ele>980.009276727</ele>
        <time>2015-05-12T19:08:40Z</time>
      </trkpt>
      <trkpt lat="45.34116" lon="5.68138">
        <ele>979.032701491</ele>
        <time>2015-05-12T19:08:45Z</time>
      </trkpt>
      <trkpt lat="45.34121" lon="5.68152">
        <ele>977.567906292</ele>
        <time>2015-05-12T19:08:50Z</time>
      </trkpt>
      <trkpt lat="45.34121" lon="5.68161">
        <ele>977.567906292</ele>
        <time>2015-05-12T19:08:55Z</time>
      </trkpt>
      <trkpt lat="45.34124" lon="5.68169">
        <ele>975.662025618</ele>
        <time>2015-05-12T19:08:59Z</time>
      </trkpt>
      <trkpt lat="45.34132" lon="5.6818">
        <ele>973.792105535</ele>
        <time>2015-05-12T19:09:05Z</time>
      </trkpt>
      <trkpt lat="45.34141" lon="5.68189">
        <ele>971.535163218</ele>
        <time>2015-05-12T19:09:09Z</time>
      </trkpt>
      <trkpt lat="45.34145" lon="5.68188">
        <ele>971.535163218</ele>
        <time>2015-05-12T19:09:15Z</time>
      </trkpt>
      <trkpt lat="45.34156" lon="5.68193">
        <ele>969.220691445</ele>
        <time>2015-05-12T19:09:20Z</time>
      </trkpt>
      <trkpt lat="45.34162" lon="5.68201">
        <ele>969.220691445</ele>
        <time>2015-05-12T19:09:25Z</time>
      </trkpt>
      <trkpt lat="45.34168" lon="5.68209">
        <ele>967.009771403</ele>
        <time>2015-05-12T19:09:29Z</time>
      </trkpt>
      <trkpt lat="45.34181" lon="5.68214">
        <ele>965.77164302</ele>
        <time>2015-05-12T19:09:35Z</time>
      </trkpt>
      <trkpt lat="45.34193" lon="5.68214">
        <ele>963.858785468</ele>
        <time>2015-05-12T19:09:40Z</time>
      </trkpt>
      <trkpt lat="45.34201" lon="5.68218">
        <ele>963.858785468</ele>
        <time>2015-05-12T19:09:45Z</time>
      </trkpt>
      <trkpt lat="45.3421" lon="5.68219">
        <ele>961.043296229</ele>
        <time>2015-05-12T19:09:50Z</time>
      </trkpt>
      <trkpt lat="45.34218" lon="5.68219">
        <ele>961.043296229</ele>
        <time>2015-05-12T19:09:55Z</time>
      </trkpt>
      <trkpt lat="45.34226" lon="5.68222">
        <ele>957.6926779</ele>
        <time>2015-05-12T19:10:00Z</time>
      </trkpt>
      <trkpt lat="45.34233" lon="5.6823">
        <ele>957.6926779</ele>
        <time>2015-05-12T19:10:05Z</time>
      </trkpt>
      <trkpt lat="45.34243" lon="5.68242">
        <ele>953.860388218</ele>
        <time>2015-05-12T19:10:10Z</time>
      </trkpt>
      <trkpt lat="45.34251" lon="5.68249">
        <ele>950.029299152</ele>
        <time>2015-05-12T19:10:15Z</time>
      </trkpt>
      <trkpt lat="45.34258" lon="5.68261">
        <ele>946.790559165</ele>
        <time>2015-05-12T19:10:20Z</time>
      </trkpt>
      <trkpt lat="45.34271" lon="5.68271">
        <ele>943.536965561</ele>
        <time>2015-05-12T19:10:25Z</time>
      </trkpt>
      <trkpt lat="45.34276" lon="5.68281">
        <ele>943.536965561</ele>
        <time>2015-05-12T19:10:30Z</time>
      </trkpt>
      <trkpt lat="45.34284" lon="5.68288">
        <ele>940.137908558</ele>
        <time>2015-05-12T19:10:35Z</time>
      </trkpt>
      <trkpt lat="45.34286" lon="5.68294">
        <ele>940.137908558</ele>
        <time>2015-05-12T19:10:40Z</time>
      </trkpt>
      <trkpt lat="45.34288" lon="5.68293">
        <ele>940.137908558</ele>
        <time>2015-05-12T19:10:45Z</time>
      </trkpt>
      <trkpt lat="45.34294" lon="5.68286">
        <ele>936.904718493</ele>
        <time>2015-05-12T19:10:50Z</time>
      </trkpt>
      <trkpt lat="45.34293" lon="5.68285">
        <ele>936.904718493</ele>
        <time>2015-05-12T19:10:55Z</time>
      </trkpt>
      <trkpt lat="45.34292" lon="5.68283">
        <ele>936.904718493</ele>
        <time>2015-05-12T19:11:00Z</time>
      </trkpt>
      <trkpt lat="45.34292" lon="5.68284">
        <ele>936.904718493</ele>
        <time>2015-05-12T19:11:05Z</time>
      </trkpt>
      <trkpt lat="45.34292" lon="5.68284">
        <ele>936.904718493</ele>
        <time>2015-05-12T19:11:10Z</time>
      </trkpt>
      <trkpt lat="45.34294" lon="5.68285">
        <ele>936.904718493</ele>
        <time>2015-05-12T19:11:15Z</time>
      </trkpt>
      <trkpt lat="45.343" lon="5.68294">
        <ele>933.260320193</ele>
        <time>2015-05-12T19:11:20Z</time>
      </trkpt>
      <trkpt lat="45.34297" lon="5.68312">
        <ele>929.391330175</ele>
        <time>2015-05-12T19:11:25Z</time>
      </trkpt>
      <trkpt lat="45.34299" lon="5.68325">
        <ele>926.767874075</ele>
        <time>2015-05-12T19:11:30Z</time>
      </trkpt>
      <trkpt lat="45.34303" lon="5.68334">
        <ele>926.767874075</ele>
        <time>2015-05-12T19:11:35Z</time>
      </trkpt>
      <trkpt lat="45.34307" lon="5.68344">
        <ele>923.865951116</ele>
        <time>2015-05-12T19:11:40Z</time>
      </trkpt>
      <trkpt lat="45.34315" lon="5.68352">
        <ele>920.714991538</ele>
        <time>2015-05-12T19:11:45Z</time>
      </trkpt>
      <trkpt lat="45.34315" lon="5.68361">
        <ele>920.714991538</ele>
        <time>2015-05-12T19:11:50Z</time>
      </trkpt>
      <trkpt lat="45.34322" lon="5.68371">
        <ele>917.198439324</ele>
        <time>2015-05-12T19:11:55Z</time>
      </trkpt>
      <trkpt lat="45.34328" lon="5.68373">
        <ele>917.198439324</ele>
        <time>2015-05-12T19:11:59Z</time>
      </trkpt>
      <trkpt lat="45.34331" lon="5.68376">
        <ele>913.78536272</ele>
        <time>2015-05-12T19:12:05Z</time>
      </trkpt>
      <trkpt lat="45.34333" lon="5.68377">
        <ele>913.78536272</ele>
        <time>2015-05-12T19:12:09Z</time>
      </trkpt>
      <trkpt lat="45.34344" lon="5.68389">
        <ele>910.621455282</ele>
        <time>2015-05-12T19:12:15Z</time>
      </trkpt>
      <trkpt lat="45.3435" lon="5.68395">
        <ele>910.621455282</ele>
        <time>2015-05-12T19:12:20Z</time>
      </trkpt>
      <trkpt lat="45.34356" lon="5.68403">
        <ele>907.84060906</ele>
        <time>2015-05-12T19:12:25Z</time>
      </trkpt>
      <trkpt lat="45.3436" lon="5.68416">
        <ele>905.421301618</ele>
        <time>2015-05-12T19:12:30Z</time>
      </trkpt>
      <trkpt lat="45.34363" lon="5.68427">
        <ele>905.421301618</ele>
        <time>2015-05-12T19:12:35Z</time>
      </trkpt>
      <trkpt lat="45.34364" lon="5.68442">
        <ele>903.630417104</ele>
        <time>2015-05-12T19:12:40Z</time>
      </trkpt>
      <trkpt lat="45.34364" lon="5.68453">
        <ele>903.630417104</ele>
        <time>2015-05-12T19:12:45Z</time>
      </trkpt>
      <trkpt lat="45.34365" lon="5.68466">
        <ele>901.704324223</ele>
        <time>2015-05-12T19:12:50Z</time>
      </trkpt>
      <trkpt lat="45.34362" lon="5.68478">
        <ele>900.520737594</ele>
        <time>2015-05-12T19:12:55Z</time>
      </trkpt>
      <trkpt lat="45.34363" lon="5.68487">
        <ele>900.520737594</ele>
        <time>2015-05-12T19:13:00Z</time>
      </trkpt>
      <trkpt lat="45.34364" lon="5.68499">
        <ele>899.737591033</ele>
        <time>2015-05-12T19:13:05Z</time>
      </trkpt>
      <trkpt lat="45.34362" lon="5.68516">
        <ele>898.892401728</ele>
        <time>2015-05-12T19:13:10Z</time>
      </trkpt>
      <trkpt lat="45.34371" lon="5.68533">
        <ele>898.421215508</ele>
        <time>2015-05-12T19:13:15Z</time>
      </trkpt>
      <trkpt lat="45.34376" lon="5.6855">
        <ele>898.150292099</ele>
        <time>2015-05-12T19:13:20Z</time>
      </trkpt>
      <trkpt lat="45.3437" lon="5.68568">
        <ele>897.341411946</ele>
        <time>2015-05-12T19:13:25Z</time>
      </trkpt>
      <trkpt lat="45.34371" lon="5.68575">
        <ele>897.341411946</ele>
        <time>2015-05-12T19:13:30Z</time>
      </trkpt>
      <trkpt lat="45.34373" lon="5.68589">
        <ele>896.897105658</ele>
        <time>2015-05-12T19:13:35Z</time>
      </trkpt>
      <trkpt lat="45.34378" lon="5.68603">
        <ele>896.787728095</ele>
        <time>2015-05-12T19:13:40Z</time>
      </trkpt>
      <trkpt lat="45.34387" lon="5.68615">
        <ele>896.840598173</ele>
        <time>2015-05-12T19:13:45Z</time>
      </trkpt>
      <trkpt lat="45.34393" lon="5.68628">
        <ele>896.751013678</ele>
        <time>2015-05-12T19:13:50Z</time>
      </trkpt>
      <trkpt lat="45.34397" lon="5.68641">
        <ele>896.669271952</ele>
        <time>2015-05-12T19:13:55Z</time>
      </trkpt>
      <trkpt lat="45.34398" lon="5.68658">
        <ele>896.734513156</ele>
        <time>2015-05-12T19:14:00Z</time>
      </trkpt>
      <trkpt lat="45.34406" lon="5.68675">
        <ele>896.786948308</ele>
        <time>2015-05-12T19:14:05Z</time>
      </trkpt>
      <trkpt lat="45.34409" lon="5.68694">
        <ele>896.966731399</ele>
        <time>2015-05-12T19:14:10Z</time>
      </trkpt>
      <trkpt lat="45.34416" lon="5.68706">
        <ele>896.538661322</ele>
        <time>2015-05-12T19:14:15Z</time>
      </trkpt>
      <trkpt lat="45.34421" lon="5.68719">
        <ele>895.976119903</ele>
        <time>2015-05-12T19:14:20Z</time>
      </trkpt>
      <trkpt lat="45.34427" lon="5.68726">
        <ele>895.976119903</ele>
        <time>2015-05-12T19:14:25Z</time>
      </trkpt>
      <trkpt lat="45.34435" lon="5.6874">
        <ele>895.429864315</ele>
        <time>2015-05-12T19:14:30Z</time>
      </trkpt>
      <trkpt lat="45.34434" lon="5.68755">
        <ele>894.174869574</ele>
        <time>2015-05-12T19:14:35Z</time>
      </trkpt>
      <trkpt lat="45.34438" lon="5.68768">
        <ele>893.414817386</ele>
        <time>2015-05-12T19:14:40Z</time>
      </trkpt>
      <trkpt lat="45.34444" lon="5.68779">
        <ele>892.390153713</ele>
        <time>2015-05-12T19:14:45Z</time>
      </trkpt>
      <trkpt lat="45.34454" lon="5.68791">
        <ele>891.406666077</ele>
        <time>2015-05-12T19:14:50Z</time>
      </trkpt>
      <trkpt lat="45.34457" lon="5.68806">
        <ele>890.459370058</ele>
        <time>2015-05-12T19:14:55Z</time>
      </trkpt>
      <trkpt lat="45.3446" lon="5.68815">
        <ele>890.459370058</ele>
        <time>2015-05-12T19:14:59Z</time>
      </trkpt>
      <trkpt lat="45.34468" lon="5.6883">
        <ele>889.975913106</ele>
        <time>2015-05-12T19:15:04Z</time>
      </trkpt>
      <trkpt lat="45.34475" lon="5.68847">
        <ele>889.774821116</ele>
        <time>2015-05-12T19:15:10Z</time>
      </trkpt>
      <trkpt lat="45.34478" lon="5.68862">
        <ele>889.54309292</ele>
        <time>2015-05-12T19:15:15Z</time>
      </trkpt>
      <trkpt lat="45.34476" lon="5.6888">
        <ele>888.990857952</ele>
        <time>2015-05-12T19:15:19Z</time>
      </trkpt>
      <trkpt lat="45.34475" lon="5.68884">
        <ele>888.990857952</ele>
        <time>2015-05-12T19:15:24Z</time>
      </trkpt>
      <trkpt lat="45.34486" lon="5.68897">
        <ele>888.138718651</ele>
        <time>2015-05-12T19:15:30Z</time>
      </trkpt>
      <trkpt lat="45.34492" lon="5.68909">
        <ele>886.862555951</ele>
        <time>2015-05-12T19:15:35Z</time>
      </trkpt>
      <trkpt lat="45.345" lon="5.68917">
        <ele>885.336843288</ele>
        <time>2015-05-12T19:15:40Z</time>
      </trkpt>
      <trkpt lat="45.34512" lon="5.68925">
        <ele>883.291664619</ele>
        <time>2015-05-12T19:15:45Z</time>
      </trkpt>
      <trkpt lat="45.3452" lon="5.68933">
        <ele>881.487223557</ele>
        <time>2015-05-12T19:15:50Z</time>
      </trkpt>
      <trkpt lat="45.34528" lon="5.68938">
        <ele>881.487223557</ele>
        <time>2015-05-12T19:15:54Z</time>
      </trkpt>
      <trkpt lat="45.3454" lon="5.6895">
        <ele>880.483144871</ele>
        <time>2015-05-12T19:16:00Z</time>
      </trkpt>
      <trkpt lat="45.34545" lon="5.68967">
        <ele>879.498745479</ele>
        <time>2015-05-12T19:16:05Z</time>
      </trkpt>
      <trkpt lat="45.34552" lon="5.68975">
        <ele>878.387125117</ele>
        <time>2015-05-12T19:16:10Z</time>
      </trkpt>
      <trkpt lat="45.3456" lon="5.68971">
        <ele>878.387125117</ele>
        <time>2015-05-12T19:16:15Z</time>
      </trkpt>
      <trkpt lat="45.34567" lon="5.68959">
        <ele>876.724352273</ele>
        <time>2015-05-12T19:16:20Z</time>
      </trkpt>
      <trkpt lat="45.34578" lon="5.68955">
        <ele>874.983891467</ele>
        <time>2015-05-12T19:16:25Z</time>
      </trkpt>
      <trkpt lat="45.34588" lon="5.68957">
        <ele>873.316460348</ele>
        <time>2015-05-12T19:16:30Z</time>
      </trkpt>
      <trkpt lat="45.34592" lon="5.68962">
        <ele>873.316460348</ele>
        <time>2015-05-12T19:16:34Z</time>
      </trkpt>
      <trkpt lat="45.34607" lon="5.6897">
        <ele>872.293868257</ele>
        <time>2015-05-12T19:16:40Z</time>
      </trkpt>
      <trkpt lat="45.3462" lon="5.68973">
        <ele>871.291253181</ele>
        <time>2015-05-12T19:16:44Z</time>
      </trkpt>
      <trkpt lat="45.34627" lon="5.68977">
        <ele>871.291253181</ele>
        <time>2015-05-12T19:16:50Z</time>
      </trkpt>
      <trkpt lat="45.34638" lon="5.68985">
        <ele>870.594296866</ele>
        <time>2015-05-12T19:16:55Z</time>
      </trkpt>
      <trkpt lat="45.34644" lon="5.68991">
        <ele>870.594296866</ele>
        <time>2015-05-12T19:16:59Z</time>
      </trkpt>
      <trkpt lat="45.34653" lon="5.68997">
        <ele>870.610981689</ele>
        <time>2015-05-12T19:17:05Z</time>
      </trkpt>
      <trkpt lat="45.34661" lon="5.68999">
        <ele>870.610981689</ele>
        <time>2015-05-12T19:17:09Z</time>
      </trkpt>
      <trkpt lat="45.34671" lon="5.69003">
        <ele>870.42035437</ele>
        <time>2015-05-12T19:17:14Z</time>
      </trkpt>
      <trkpt lat="45.34676" lon="5.69008">
        <ele>870.42035437</ele>
        <time>2015-05-12T19:17:19Z</time>
      </trkpt>
      <trkpt lat="45.34687" lon="5.69016">
        <ele>870.899073432</ele>
        <time>2015-05-12T19:17:24Z</time>
      </trkpt>
      <trkpt lat="45.34697" lon="5.69021">
        <ele>871.848795331</ele>
        <time>2015-05-12T19:17:29Z</time>
      </trkpt>
      <trkpt lat="45.34708" lon="5.69024">
        <ele>872.219820839</ele>
        <time>2015-05-12T19:17:34Z</time>
      </trkpt>
      <trkpt lat="45.34717" lon="5.69024">
        <ele>872.338257014</ele>
        <time>2015-05-12T19:17:39Z</time>
      </trkpt>
      <trkpt lat="45.34727" lon="5.69027">
        <ele>873.227602144</ele>
        <time>2015-05-12T19:17:44Z</time>
      </trkpt>
      <trkpt lat="45.34734" lon="5.69029">
        <ele>873.227602144</ele>
        <time>2015-05-12T19:17:49Z</time>
      </trkpt>
      <trkpt lat="45.34735" lon="5.69025">
        <ele>874.104764062</ele>
        <time>2015-05-12T19:17:54Z</time>
      </trkpt>
      <trkpt lat="45.34732" lon="5.69025">
        <ele>874.104764062</ele>
        <time>2015-05-12T19:17:59Z</time>
      </trkpt>
      <trkpt lat="45.3472" lon="5.69025">
        <ele>875.108977835</ele>
        <time>2015-05-12T19:18:04Z</time>
      </trkpt>
      <trkpt lat="45.34712" lon="5.69018">
        <ele>875.36022426</ele>
        <time>2015-05-12T19:18:10Z</time>
      </trkpt>
      <trkpt lat="45.34708" lon="5.69012">
        <ele>875.36022426</ele>
        <time>2015-05-12T19:18:14Z</time>
      </trkpt>
      <trkpt lat="45.347" lon="5.69">
        <ele>875.054134978</ele>
        <time>2015-05-12T19:18:19Z</time>
      </trkpt>
      <trkpt lat="45.34692" lon="5.68987">
        <ele>875.094208622</ele>
        <time>2015-05-12T19:18:24Z</time>
      </trkpt>
      <trkpt lat="45.34684" lon="5.68977">
        <ele>874.875610093</ele>
        <time>2015-05-12T19:18:30Z</time>
      </trkpt>
      <trkpt lat="45.34685" lon="5.68966">
        <ele>874.875610093</ele>
        <time>2015-05-12T19:18:34Z</time>
      </trkpt>
      <trkpt lat="45.34693" lon="5.68962">
        <ele>873.550554664</ele>
        <time>2015-05-12T19:18:39Z</time>
      </trkpt>
      <trkpt lat="45.34702" lon="5.68961">
        <ele>871.921972385</ele>
        <time>2015-05-12T19:18:44Z</time>
      </trkpt>
      <trkpt lat="45.34713" lon="5.68961">
        <ele>869.725984512</ele>
        <time>2015-05-12T19:18:49Z</time>
      </trkpt>
      <trkpt lat="45.34721" lon="5.6896">
        <ele>869.725984512</ele>
        <time>2015-05-12T19:18:54Z</time>
      </trkpt>
      <trkpt lat="45.34731" lon="5.68955">
        <ele>867.584443071</ele>
        <time>2015-05-12T19:18:59Z</time>
      </trkpt>
      <trkpt lat="45.3474" lon="5.68948">
        <ele>865.352882658</ele>
        <time>2015-05-12T19:19:04Z</time>
      </trkpt>
      <trkpt lat="45.34749" lon="5.68946">
        <ele>865.352882658</ele>
        <time>2015-05-12T19:19:09Z</time>
      </trkpt>
      <trkpt lat="45.34753" lon="5.68939">
        <ele>863.041869577</ele>
        <time>2015-05-12T19:19:14Z</time>
      </trkpt>
      <trkpt lat="45.34758" lon="5.68931">
        <ele>863.041869577</ele>
        <time>2015-05-12T19:19:19Z</time>
      </trkpt>
      <trkpt lat="45.34758" lon="5.68921">
        <ele>860.373233316</ele>
        <time>2015-05-12T19:19:24Z</time>
      </trkpt>
      <trkpt lat="45.34757" lon="5.68915">
        <ele>860.373233316</ele>
        <time>2015-05-12T19:19:29Z</time>
      </trkpt>
      <trkpt lat="45.34752" lon="5.68911">
        <ele>857.810819255</ele>
        <time>2015-05-12T19:19:34Z</time>
      </trkpt>
      <trkpt lat="45.3475" lon="5.68906">
        <ele>857.810819255</ele>
        <time>2015-05-12T19:19:39Z</time>
      </trkpt>
      <trkpt lat="45.34743" lon="5.68905">
        <ele>855.351774289</ele>
        <time>2015-05-12T19:19:44Z</time>
      </trkpt>
      <trkpt lat="45.34736" lon="5.68897">
        <ele>852.993156855</ele>
        <time>2015-05-12T19:19:49Z</time>
      </trkpt>
      <trkpt lat="45.34728" lon="5.68888">
        <ele>850.876049621</ele>
        <time>2015-05-12T19:19:54Z</time>
      </trkpt>
      <trkpt lat="45.34721" lon="5.6888">
        <ele>849.2745734</ele>
        <time>2015-05-12T19:19:59Z</time>
      </trkpt>
      <trkpt lat="45.34713" lon="5.68875">
        <ele>849.2745734</ele>
        <time>2015-05-12T19:20:04Z</time>
      </trkpt>
      <trkpt lat="45.34711" lon="5.68864">
        <ele>847.864781802</ele>
        <time>2015-05-12T19:20:09Z</time>
      </trkpt>
      <trkpt lat="45.34703" lon="5.68853">
        <ele>846.34594315</ele>
        <time>2015-05-12T19:20:14Z</time>
      </trkpt>
      <trkpt lat="45.34693" lon="5.68844">
        <ele>845.304343566</ele>
        <time>2015-05-12T19:20:19Z</time>
      </trkpt>
      <trkpt lat="45.34685" lon="5.68839">
        <ele>845.304343566</ele>
        <time>2015-05-12T19:20:24Z</time>
      </trkpt>
      <trkpt lat="45.34681" lon="5.68834">
        <ele>843.840702657</ele>
        <time>2015-05-12T19:20:29Z</time>
      </trkpt>
      <trkpt lat="45.34674" lon="5.68825">
        <ele>842.419936893</ele>
        <time>2015-05-12T19:20:34Z</time>
      </trkpt>
      <trkpt lat="45.34668" lon="5.68817">
        <ele>842.419936893</ele>
        <time>2015-05-12T19:20:39Z</time>
      </trkpt>
      <trkpt lat="45.34662" lon="5.68805">
        <ele>840.607973894</ele>
        <time>2015-05-12T19:20:44Z</time>
      </trkpt>
      <trkpt lat="45.34654" lon="5.68796">
        <ele>838.147785059</ele>
        <time>2015-05-12T19:20:49Z</time>
      </trkpt>
      <trkpt lat="45.34651" lon="5.68785">
        <ele>838.147785059</ele>
        <time>2015-05-12T19:20:54Z</time>
      </trkpt>
      <trkpt lat="45.34658" lon="5.68777">
        <ele>834.514761286</ele>
        <time>2015-05-12T19:20:59Z</time>
      </trkpt>
      <trkpt lat="45.34664" lon="5.68775">
        <ele>834.514761286</ele>
        <time>2015-05-12T19:21:04Z</time>
      </trkpt>
      <trkpt lat="45.3467" lon="5.68773">
        <ele>829.658385407</ele>
        <time>2015-05-12T19:21:09Z</time>
      </trkpt>
      <trkpt lat="45.34676" lon="5.68767">
        <ele>829.658385407</ele>
        <time>2015-05-12T19:21:14Z</time>
      </trkpt>
      <trkpt lat="45.34689" lon="5.68769">
        <ele>824.976309666</ele>
        <time>2015-05-12T19:21:19Z</time>
      </trkpt>
      <trkpt lat="45.34701" lon="5.68763">
        <ele>819.889475763</ele>
        <time>2015-05-12T19:21:24Z</time>
      </trkpt>
      <trkpt lat="45.34713" lon="5.68759">
        <ele>815.159370617</ele>
        <time>2015-05-12T19:21:29Z</time>
      </trkpt>
      <trkpt lat="45.34719" lon="5.6876">
        <ele>815.159370617</ele>
        <time>2015-05-12T19:21:34Z</time>
      </trkpt>
      <trkpt lat="45.34721" lon="5.6876">
        <ele>815.159370617</ele>
        <time>2015-05-12T19:21:39Z</time>
      </trkpt>
      <trkpt lat="45.34719" lon="5.68761">
        <ele>811.346282531</ele>
        <time>2015-05-12T19:21:44Z</time>
      </trkpt>
      <trkpt lat="45.34719" lon="5.68763">
        <ele>811.346282531</ele>
        <time>2015-05-12T19:21:49Z</time>
      </trkpt>
      <trkpt lat="45.34715" lon="5.68757">
        <ele>811.346282531</ele>
        <time>2015-05-12T19:21:54Z</time>
      </trkpt>
      <trkpt lat="45.34712" lon="5.68747">
        <ele>808.678383256</ele>
        <time>2015-05-12T19:21:59Z</time>
      </trkpt>
      <trkpt lat="45.34708" lon="5.68738">
        <ele>808.678383256</ele>
        <time>2015-05-12T19:22:04Z</time>
      </trkpt>
      <trkpt lat="45.34706" lon="5.68731">
        <ele>805.490251537</ele>
        <time>2015-05-12T19:22:09Z</time>
      </trkpt>
      <trkpt lat="45.34706" lon="5.68723">
        <ele>805.490251537</ele>
        <time>2015-05-12T19:22:14Z</time>
      </trkpt>
      <trkpt lat="45.34702" lon="5.68713">
        <ele>802.257643455</ele>
        <time>2015-05-12T19:22:20Z</time>
      </trkpt>
      <trkpt lat="45.347" lon="5.68707">
        <ele>802.257643455</ele>
        <time>2015-05-12T19:22:24Z</time>
      </trkpt>
      <trkpt lat="45.34701" lon="5.68693">
        <ele>799.709533316</ele>
        <time>2015-05-12T19:22:29Z</time>
      </trkpt>
      <trkpt lat="45.34703" lon="5.68684">
        <ele>799.709533316</ele>
        <time>2015-05-12T19:22:34Z</time>
      </trkpt>
      <trkpt lat="45.34701" lon="5.68674">
        <ele>797.222245784</ele>
        <time>2015-05-12T19:22:39Z</time>
      </trkpt>
      <trkpt lat="45.34704" lon="5.68663">
        <ele>797.222245784</ele>
        <time>2015-05-12T19:22:44Z</time>
      </trkpt>
      <trkpt lat="45.34704" lon="5.68656">
        <ele>795.226352202</ele>
        <time>2015-05-12T19:22:49Z</time>
      </trkpt>
      <trkpt lat="45.34704" lon="5.68651">
        <ele>795.226352202</ele>
        <time>2015-05-12T19:22:54Z</time>
      </trkpt>
      <trkpt lat="45.34701" lon="5.68645">
        <ele>795.226352202</ele>
        <time>2015-05-12T19:22:59Z</time>
      </trkpt>
      <trkpt lat="45.34697" lon="5.68642">
        <ele>792.822244584</ele>
        <time>2015-05-12T19:23:04Z</time>
      </trkpt>
      <trkpt lat="45.34695" lon="5.68634">
        <ele>792.822244584</ele>
        <time>2015-05-12T19:23:09Z</time>
      </trkpt>
      <trkpt lat="45.34696" lon="5.68628">
        <ele>790.330269689</ele>
        <time>2015-05-12T19:23:14Z</time>
      </trkpt>
      <trkpt lat="45.34694" lon="5.68617">
        <ele>790.330269689</ele>
        <time>2015-05-12T19:23:19Z</time>
      </trkpt>
      <trkpt lat="45.34696" lon="5.6861">
        <ele>787.470885057</ele>
        <time>2015-05-12T19:23:24Z</time>
      </trkpt>
      <trkpt lat="45.34697" lon="5.6861">
        <ele>787.470885057</ele>
        <time>2015-05-12T19:23:29Z</time>
      </trkpt>
      <trkpt lat="45.34696" lon="5.68607">
        <ele>787.470885057</ele>
        <time>2015-05-12T19:23:34Z</time>
      </trkpt>
      <trkpt lat="45.34695" lon="5.68604">
        <ele>787.470885057</ele>
        <time>2015-05-12T19:23:39Z</time>
      </trkpt>
      <trkpt lat="45.34695" lon="5.68604">
        <ele>787.470885057</ele>
        <time>2015-05-12T19:23:44Z</time>
      </trkpt>
      <trkpt lat="45.34696" lon="5.68604">
        <ele>787.470885057</ele>
        <time>2015-05-12T19:23:49Z</time>
      </trkpt>
      <trkpt lat="45.34695" lon="5.68594">
        <ele>782.688956616</ele>
        <time>2015-05-12T19:23:54Z</time>
      </trkpt>
      <trkpt lat="45.34695" lon="5.68586">
        <ele>782.688956616</ele>
        <time>2015-05-12T19:23:59Z</time>
      </trkpt>
      <trkpt lat="45.34694" lon="5.68565">
        <ele>778.29571502</ele>
        <time>2015-05-12T19:24:04Z</time>
      </trkpt>
      <trkpt lat="45.34693" lon="5.68551">
        <ele>773.981466034</ele>
        <time>2015-05-12T19:24:09Z</time>
      </trkpt>
      <trkpt lat="45.34695" lon="5.68539">
        <ele>773.981466034</ele>
        <time>2015-05-12T19:24:15Z</time>
      </trkpt>
      <trkpt lat="45.34698" lon="5.68533">
        <ele>769.602984364</ele>
        <time>2015-05-12T19:24:20Z</time>
      </trkpt>
      <trkpt lat="45.34702" lon="5.68528">
        <ele>769.602984364</ele>
        <time>2015-05-12T19:24:25Z</time>
      </trkpt>
      <trkpt lat="45.34705" lon="5.68523">
        <ele>766.180458342</ele>
        <time>2015-05-12T19:24:30Z</time>
      </trkpt>
      <trkpt lat="45.34707" lon="5.68518">
        <ele>766.180458342</ele>
        <time>2015-05-12T19:24:35Z</time>
      </trkpt>
      <trkpt lat="45.34707" lon="5.68513">
        <ele>766.180458342</ele>
        <time>2015-05-12T19:24:40Z</time>
      </trkpt>
      <trkpt lat="45.34717" lon="5.68502">
        <ele>762.494603335</ele>
        <time>2015-05-12T19:24:45Z</time>
      </trkpt>
      <trkpt lat="45.34723" lon="5.68493">
        <ele>762.494603335</ele>
        <time>2015-05-12T19:24:50Z</time>
      </trkpt>
      <trkpt lat="45.34727" lon="5.68479">
        <ele>758.857370121</ele>
        <time>2015-05-12T19:24:55Z</time>
      </trkpt>
      <trkpt lat="45.34726" lon="5.68466">
        <ele>758.857370121</ele>
        <time>2015-05-12T19:25:00Z</time>
      </trkpt>
      <trkpt lat="45.34729" lon="5.6845">
        <ele>753.828138459</ele>
        <time>2015-05-12T19:25:05Z</time>
      </trkpt>
      <trkpt lat="45.34735" lon="5.68434">
        <ele>748.813945179</ele>
        <time>2015-05-12T19:25:10Z</time>
      </trkpt>
      <trkpt lat="45.34739" lon="5.68426">
        <ele>748.813945179</ele>
        <time>2015-05-12T19:25:15Z</time>
      </trkpt>
      <trkpt lat="45.34741" lon="5.68415">
        <ele>744.253566821</ele>
        <time>2015-05-12T19:25:20Z</time>
      </trkpt>
      <trkpt lat="45.34746" lon="5.68399">
        <ele>739.831522935</ele>
        <time>2015-05-12T19:25:25Z</time>
      </trkpt>
      <trkpt lat="45.34752" lon="5.68387">
        <ele>735.110807936</ele>
        <time>2015-05-12T19:25:30Z</time>
      </trkpt>
      <trkpt lat="45.34752" lon="5.68375">
        <ele>735.110807936</ele>
        <time>2015-05-12T19:25:34Z</time>
      </trkpt>
      <trkpt lat="45.34755" lon="5.68374">
        <ele>731.560599276</ele>
        <time>2015-05-12T19:25:39Z</time>
      </trkpt>
      <trkpt lat="45.34752" lon="5.68374">
        <ele>731.560599276</ele>
        <time>2015-05-12T19:25:44Z</time>
      </trkpt>
      <trkpt lat="45.34755" lon="5.68374">
        <ele>731.560599276</ele>
        <time>2015-05-12T19:25:49Z</time>
      </trkpt>
      <trkpt lat="45.34757" lon="5.68373">
        <ele>731.560599276</ele>
        <time>2015-05-12T19:25:54Z</time>
      </trkpt>
      <trkpt lat="45.34758" lon="5.68372">
        <ele>729.097555238</ele>
        <time>2015-05-12T19:25:59Z</time>
      </trkpt>
      <trkpt lat="45.34759" lon="5.68369">
        <ele>729.097555238</ele>
        <time>2015-05-12T19:26:05Z</time>
      </trkpt>
      <trkpt lat="45.34761" lon="5.68377">
        <ele>729.097555238</ele>
        <time>2015-05-12T19:26:10Z</time>
      </trkpt>
      <trkpt lat="45.34762" lon="5.68374">
        <ele>726.488324962</ele>
        <time>2015-05-12T19:26:15Z</time>
      </trkpt>
      <trkpt lat="45.34762" lon="5.68374">
        <ele>726.488324962</ele>
        <time>2015-05-12T19:26:20Z</time>
      </trkpt>
      <trkpt lat="45.34762" lon="5.68373">
        <ele>726.488324962</ele>
        <time>2015-05-12T19:26:25Z</time>
      </trkpt>
      <trkpt lat="45.34762" lon="5.68373">
        <ele>726.488324962</ele>
        <time>2015-05-12T19:26:29Z</time>
      </trkpt>
      <trkpt lat="45.34766" lon="5.68367">
        <ele>726.488324962</ele>
        <time>2015-05-12T19:26:35Z</time>
      </trkpt>
      <trkpt lat="45.34772" lon="5.68361">
        <ele>722.302162401</ele>
        <time>2015-05-12T19:26:40Z</time>
      </trkpt>
      <trkpt lat="45.34779" lon="5.68358">
        <ele>722.302162401</ele>
        <time>2015-05-12T19:26:45Z</time>
      </trkpt>
      <trkpt lat="45.34786" lon="5.6835">
        <ele>717.235226981</ele>
        <time>2015-05-12T19:26:50Z</time>
      </trkpt>
      <trkpt lat="45.34789" lon="5.6834">
        <ele>717.235226981</ele>
        <time>2015-05-12T19:26:55Z</time>
      </trkpt>
      <trkpt lat="45.34798" lon="5.68336">
        <ele>712.799505704</ele>
        <time>2015-05-12T19:27:00Z</time>
      </trkpt>
      <trkpt lat="45.348" lon="5.6833">
        <ele>712.799505704</ele>
        <time>2015-05-12T19:27:04Z</time>
      </trkpt>
      <trkpt lat="45.34801" lon="5.68327">
        <ele>712.799505704</ele>
        <time>2015-05-12T19:27:09Z</time>
      </trkpt>
      <trkpt lat="45.34805" lon="5.68323">
        <ele>708.808753684</ele>
        <time>2015-05-12T19:27:15Z</time>
      </trkpt>
      <trkpt lat="45.34806" lon="5.68316">
        <ele>708.808753684</ele>
        <time>2015-05-12T19:27:20Z</time>
      </trkpt>
      <trkpt lat="45.34807" lon="5.68308">
        <ele>704.512545866</ele>
        <time>2015-05-12T19:27:25Z</time>
      </trkpt>
      <trkpt lat="45.34807" lon="5.68303">
        <ele>704.512545866</ele>
        <time>2015-05-12T19:27:29Z</time>
      </trkpt>
      <trkpt lat="45.34807" lon="5.68296">
        <ele>704.512545866</ele>
        <time>2015-05-12T19:27:35Z</time>
      </trkpt>
      <trkpt lat="45.34813" lon="5.68287">
        <ele>700.945607512</ele>
        <time>2015-05-12T19:27:40Z</time>
      </trkpt>
      <trkpt lat="45.34816" lon="5.68283">
        <ele>700.945607512</ele>
        <time>2015-05-12T19:27:45Z</time>
      </trkpt>
      <trkpt lat="45.34816" lon="5.68278">
        <ele>700.945607512</ele>
        <time>2015-05-12T19:27:50Z</time>
      </trkpt>
      <trkpt lat="45.34813" lon="5.68268">
        <ele>698.343891974</ele>
        <time>2015-05-12T19:27:55Z</time>
      </trkpt>
      <trkpt lat="45.3481" lon="5.6826">
        <ele>698.343891974</ele>
        <time>2015-05-12T19:28:00Z</time>
      </trkpt>
      <trkpt lat="45.34815" lon="5.68258">
        <ele>694.905603341</ele>
        <time>2015-05-12T19:28:05Z</time>
      </trkpt>
      <trkpt lat="45.34813" lon="5.68256">
        <ele>694.905603341</ele>
        <time>2015-05-12T19:28:09Z</time>
      </trkpt>
      <trkpt lat="45.34815" lon="5.68252">
        <ele>694.905603341</ele>
        <time>2015-05-12T19:28:14Z</time>
      </trkpt>
      <trkpt lat="45.34816" lon="5.68254">
        <ele>694.905603341</ele>
        <time>2015-05-12T19:28:20Z</time>
      </trkpt>
      <trkpt lat="45.34816" lon="5.68253">
        <ele>694.905603341</ele>
        <time>2015-05-12T19:28:25Z</time>
      </trkpt>
      <trkpt lat="45.34816" lon="5.68254">
        <ele>694.905603341</ele>
        <time>2015-05-12T19:28:30Z</time>
      </trkpt>
      <trkpt lat="45.34816" lon="5.68254">
        <ele>694.905603341</ele>
        <time>2015-05-12T19:28:35Z</time>
      </trkpt>
      <trkpt lat="45.34816" lon="5.68254">
        <ele>694.905603341</ele>
        <time>2015-05-12T19:28:40Z</time>
      </trkpt>
      <trkpt lat="45.34814" lon="5.68241">
        <ele>691.845732702</ele>
        <time>2015-05-12T19:28:44Z</time>
      </trkpt>
      <trkpt lat="45.34806" lon="5.68233">
        <ele>691.845732702</ele>
        <time>2015-05-12T19:28:50Z</time>
      </trkpt>
      <trkpt lat="45.34803" lon="5.6822">
        <ele>688.127157897</ele>
        <time>2015-05-12T19:28:55Z</time>
      </trkpt>
      <trkpt lat="45.34802" lon="5.68203">
        <ele>683.511223164</ele>
        <time>2015-05-12T19:29:00Z</time>
      </trkpt>
      <trkpt lat="45.34804" lon="5.68183">
        <ele>679.07620354</ele>
        <time>2015-05-12T19:29:05Z</time>
      </trkpt>
      <trkpt lat="45.34806" lon="5.68162">
        <ele>674.811763329</ele>
        <time>2015-05-12T19:29:10Z</time>
      </trkpt>
      <trkpt lat="45.34806" lon="5.68157">
        <ele>674.811763329</ele>
        <time>2015-05-12T19:29:15Z</time>
      </trkpt>
      <trkpt lat="45.34807" lon="5.68151">
        <ele>674.811763329</ele>
        <time>2015-05-12T19:29:20Z</time>
      </trkpt>
      <trkpt lat="45.34809" lon="5.68149">
        <ele>669.843064753</ele>
        <time>2015-05-12T19:29:25Z</time>
      </trkpt>
      <trkpt lat="45.34811" lon="5.68138">
        <ele>669.843064753</ele>
        <time>2015-05-12T19:29:30Z</time>
      </trkpt>
      <trkpt lat="45.34812" lon="5.68133">
        <ele>666.243619361</ele>
        <time>2015-05-12T19:29:35Z</time>
      </trkpt>
      <trkpt lat="45.34812" lon="5.68131">
        <ele>666.243619361</ele>
        <time>2015-05-12T19:29:40Z</time>
      </trkpt>
      <trkpt lat="45.34813" lon="5.68131">
        <ele>666.243619361</ele>
        <time>2015-05-12T19:29:45Z</time>
      </trkpt>
      <trkpt lat="45.34814" lon="5.68126">
        <ele>666.243619361</ele>
        <time>2015-05-12T19:29:50Z</time>
      </trkpt>
      <trkpt lat="45.34818" lon="5.68122">
        <ele>662.183775068</ele>
        <time>2015-05-12T19:29:55Z</time>
      </trkpt>
      <trkpt lat="45.34815" lon="5.68118">
        <ele>662.183775068</ele>
        <time>2015-05-12T19:30:00Z</time>
      </trkpt>
      <trkpt lat="45.34812" lon="5.6812">
        <ele>662.183775068</ele>
        <time>2015-05-12T19:30:04Z</time>
      </trkpt>
      <trkpt lat="45.348" lon="5.68116">
        <ele>658.275245009</ele>
        <time>2015-05-12T19:30:09Z</time>
      </trkpt>
      <trkpt lat="45.34793" lon="5.68113">
        <ele>658.275245009</ele>
        <time>2015-05-12T19:30:14Z</time>
      </trkpt>
      <trkpt lat="45.34792" lon="5.68111">
        <ele>656.237168336</ele>
        <time>2015-05-12T19:30:20Z</time>
      </trkpt>
      <trkpt lat="45.3479" lon="5.68109">
        <ele>656.237168336</ele>
        <time>2015-05-12T19:30:25Z</time>
      </trkpt>
      <trkpt lat="45.34791" lon="5.68106">
        <ele>656.237168336</ele>
        <time>2015-05-12T19:30:29Z</time>
      </trkpt>
      <trkpt lat="45.34795" lon="5.68103">
        <ele>656.237168336</ele>
        <time>2015-05-12T19:30:35Z</time>
      </trkpt>
      <trkpt lat="45.34801" lon="5.68096">
        <ele>654.342501678</ele>
        <time>2015-05-12T19:30:40Z</time>
      </trkpt>
      <trkpt lat="45.34805" lon="5.6809">
        <ele>654.342501678</ele>
        <time>2015-05-12T19:30:45Z</time>
      </trkpt>
      <trkpt lat="45.34811" lon="5.68083">
        <ele>652.143478501</ele>
        <time>2015-05-12T19:30:50Z</time>
      </trkpt>
      <trkpt lat="45.34819" lon="5.68082">
        <ele>652.143478501</ele>
        <time>2015-05-12T19:30:55Z</time>
      </trkpt>
      <trkpt lat="45.34823" lon="5.68088">
        <ele>648.937793682</ele>
        <time>2015-05-12T19:31:00Z</time>
      </trkpt>
      <trkpt lat="45.3483" lon="5.6809">
        <ele>648.937793682</ele>
        <time>2015-05-12T19:31:05Z</time>
      </trkpt>
      <trkpt lat="45.34838" lon="5.68096">
        <ele>645.230397663</ele>
        <time>2015-05-12T19:31:10Z</time>
      </trkpt>
      <trkpt lat="45.3484" lon="5.68098">
        <ele>645.230397663</ele>
        <time>2015-05-12T19:31:15Z</time>
      </trkpt>
      <trkpt lat="45.34842" lon="5.68101">
        <ele>645.230397663</ele>
        <time>2015-05-12T19:31:20Z</time>
      </trkpt>
      <trkpt lat="45.34842" lon="5.68104">
        <ele>645.230397663</ele>
        <time>2015-05-12T19:31:25Z</time>
      </trkpt>
      <trkpt lat="45.34845" lon="5.68108">
        <ele>640.914070564</ele>
        <time>2015-05-12T19:31:30Z</time>
      </trkpt>
      <trkpt lat="45.34846" lon="5.68109">
        <ele>640.914070564</ele>
        <time>2015-05-12T19:31:35Z</time>
      </trkpt>
      <trkpt lat="45.34846" lon="5.68107">
        <ele>640.914070564</ele>
        <time>2015-05-12T19:31:40Z</time>
      </trkpt>
      <trkpt lat="45.34847" lon="5.68105">
        <ele>640.914070564</ele>
        <time>2015-05-12T19:31:45Z</time>
      </trkpt>
      <trkpt lat="45.34849" lon="5.68106">
        <ele>640.914070564</ele>
        <time>2015-05-12T19:31:50Z</time>
      </trkpt>
      <trkpt lat="45.3485" lon="5.68107">
        <ele>640.914070564</ele>
        <time>2015-05-12T19:31:55Z</time>
      </trkpt>
      <trkpt lat="45.34857" lon="5.68114">
        <ele>637.332254339</ele>
        <time>2015-05-12T19:32:00Z</time>
      </trkpt>
      <trkpt lat="45.3487" lon="5.68119">
        <ele>633.277719373</ele>
        <time>2015-05-12T19:32:05Z</time>
      </trkpt>
      <trkpt lat="45.34871" lon="5.68118">
        <ele>633.277719373</ele>
        <time>2015-05-12T19:32:10Z</time>
      </trkpt>
      <trkpt lat="45.34869" lon="5.6812">
        <ele>633.277719373</ele>
        <time>2015-05-12T19:32:15Z</time>
      </trkpt>
      <trkpt lat="45.34871" lon="5.6812">
        <ele>633.277719373</ele>
        <time>2015-05-12T19:32:20Z</time>
      </trkpt>
      <trkpt lat="45.34871" lon="5.6812">
        <ele>633.277719373</ele>
        <time>2015-05-12T19:32:24Z</time>
      </trkpt>
      <trkpt lat="45.34871" lon="5.68118">
        <ele>633.277719373</ele>
        <time>2015-05-12T19:32:29Z</time>
      </trkpt>
      <trkpt lat="45.34873" lon="5.68117">
        <ele>633.277719373</ele>
        <time>2015-05-12T19:32:35Z</time>
      </trkpt>
      <trkpt lat="45.34877" lon="5.68117">
        <ele>629.07432376</ele>
        <time>2015-05-12T19:32:40Z</time>
      </trkpt>
      <trkpt lat="45.34881" lon="5.68118">
        <ele>629.07432376</ele>
        <time>2015-05-12T19:32:45Z</time>
      </trkpt>
      <trkpt lat="45.34888" lon="5.68124">
        <ele>625.16663184</ele>
        <time>2015-05-12T19:32:50Z</time>
      </trkpt>
      <trkpt lat="45.34891" lon="5.68122">
        <ele>625.16663184</ele>
        <time>2015-05-12T19:32:55Z</time>
      </trkpt>
      <trkpt lat="45.34896" lon="5.68123">
        <ele>625.16663184</ele>
        <time>2015-05-12T19:33:00Z</time>
      </trkpt>
      <trkpt lat="45.34898" lon="5.68124">
        <ele>620.092242282</ele>
        <time>2015-05-12T19:33:05Z</time>
      </trkpt>
      <trkpt lat="45.34894" lon="5.68117">
        <ele>620.092242282</ele>
        <time>2015-05-12T19:33:09Z</time>
      </trkpt>
      <trkpt lat="45.3489" lon="5.68115">
        <ele>615.237529696</ele>
        <time>2015-05-12T19:33:15Z</time>
      </trkpt>
      <trkpt lat="45.34886" lon="5.6811">
        <ele>615.237529696</ele>
        <time>2015-05-12T19:33:20Z</time>
      </trkpt>
      <trkpt lat="45.34885" lon="5.6811">
        <ele>615.237529696</ele>
        <time>2015-05-12T19:33:25Z</time>
      </trkpt>
      <trkpt lat="45.34883" lon="5.68111">
        <ele>615.237529696</ele>
        <time>2015-05-12T19:33:30Z</time>
      </trkpt>
      <trkpt lat="45.34881" lon="5.68111">
        <ele>611.598149508</ele>
        <time>2015-05-12T19:33:35Z</time>
      </trkpt>
      <trkpt lat="45.34881" lon="5.6811">
        <ele>611.598149508</ele>
        <time>2015-05-12T19:33:40Z</time>
      </trkpt>
      <trkpt lat="45.34881" lon="5.68109">
        <ele>611.598149508</ele>
        <time>2015-05-12T19:33:45Z</time>
      </trkpt>
      <trkpt lat="45.34882" lon="5.6811">
        <ele>611.598149508</ele>
        <time>2015-05-12T19:33:50Z</time>
      </trkpt>
      <trkpt lat="45.34882" lon="5.6811">
        <ele>611.598149508</ele>
        <time>2015-05-12T19:33:55Z</time>
      </trkpt>
      <trkpt lat="45.34882" lon="5.6811">
        <ele>611.598149508</ele>
        <time>2015-05-12T19:34:00Z</time>
      </trkpt>
      <trkpt lat="45.34882" lon="5.6811">
        <ele>611.598149508</ele>
        <time>2015-05-12T19:34:05Z</time>
      </trkpt>
      <trkpt lat="45.34882" lon="5.68109">
        <ele>611.598149508</ele>
        <time>2015-05-12T19:34:10Z</time>
      </trkpt>
      <trkpt lat="45.34885" lon="5.68104">
        <ele>611.598149508</ele>
        <time>2015-05-12T19:34:15Z</time>
      </trkpt>
      <trkpt lat="45.34898" lon="5.68087">
        <ele>607.210942949</ele>
        <time>2015-05-12T19:34:20Z</time>
      </trkpt>
      <trkpt lat="45.34901" lon="5.6807">
        <ele>603.285353462</ele>
        <time>2015-05-12T19:34:25Z</time>
      </trkpt>
      <trkpt lat="45.34901" lon="5.6806">
        <ele>603.285353462</ele>
        <time>2015-05-12T19:34:30Z</time>
      </trkpt>
      <trkpt lat="45.34906" lon="5.68052">
        <ele>599.499531073</ele>
        <time>2015-05-12T19:34:35Z</time>
      </trkpt>
      <trkpt lat="45.34908" lon="5.6804">
        <ele>599.499531073</ele>
        <time>2015-05-12T19:34:40Z</time>
      </trkpt>
      <trkpt lat="45.34912" lon="5.68035">
        <ele>595.987171062</ele>
        <time>2015-05-12T19:34:45Z</time>
      </trkpt>
      <trkpt lat="45.34914" lon="5.68028">
        <ele>595.987171062</ele>
        <time>2015-05-12T19:34:49Z</time>
      </trkpt>
      <trkpt lat="45.34918" lon="5.68018">
        <ele>592.294899518</ele>
        <time>2015-05-12T19:34:55Z</time>
      </trkpt>
      <trkpt lat="45.34919" lon="5.68008">
        <ele>592.294899518</ele>
        <time>2015-05-12T19:35:00Z</time>
      </trkpt>
      <trkpt lat="45.34923" lon="5.67998">
        <ele>588.291341382</ele>
        <time>2015-05-12T19:35:05Z</time>
      </trkpt>
      <trkpt lat="45.34924" lon="5.67991">
        <ele>588.291341382</ele>
        <time>2015-05-12T19:35:10Z</time>
      </trkpt>
      <trkpt lat="45.34927" lon="5.67981">
        <ele>584.576172373</ele>
        <time>2015-05-12T19:35:15Z</time>
      </trkpt>
      <trkpt lat="45.34924" lon="5.67977">
        <ele>584.576172373</ele>
        <time>2015-05-12T19:35:20Z</time>
      </trkpt>
      <trkpt lat="45.34921" lon="5.67971">
        <ele>584.576172373</ele>
        <time>2015-05-12T19:35:25Z</time>
      </trkpt>
      <trkpt lat="45.34915" lon="5.67971">
        <ele>581.127737413</ele>
        <time>2015-05-12T19:35:30Z</time>
      </trkpt>
      <trkpt lat="45.34917" lon="5.67963">
        <ele>581.127737413</ele>
        <time>2015-05-12T19:35:35Z</time>
      </trkpt>
      <trkpt lat="45.34919" lon="5.67962">
        <ele>581.127737413</ele>
        <time>2015-05-12T19:35:40Z</time>
      </trkpt>
      <trkpt lat="45.34922" lon="5.67953">
        <ele>577.204645609</ele>
        <time>2015-05-12T19:35:45Z</time>
      </trkpt>
      <trkpt lat="45.34925" lon="5.67947">
        <ele>577.204645609</ele>
        <time>2015-05-12T19:35:50Z</time>
      </trkpt>
      <trkpt lat="45.34932" lon="5.67937">
        <ele>573.706503568</ele>
        <time>2015-05-12T19:35:55Z</time>
      </trkpt>
      <trkpt lat="45.34936" lon="5.67931">
        <ele>573.706503568</ele>
        <time>2015-05-12T19:36:00Z</time>
      </trkpt>
      <trkpt lat="45.34937" lon="5.67929">
        <ele>573.706503568</ele>
        <time>2015-05-12T19:36:04Z</time>
      </trkpt>
      <trkpt lat="45.34937" lon="5.67929">
        <ele>573.706503568</ele>
        <time>2015-05-12T19:36:10Z</time>
      </trkpt>
      <trkpt lat="45.34937" lon="5.67929">
        <ele>573.706503568</ele>
        <time>2015-05-12T19:36:14Z</time>
      </trkpt>
      <trkpt lat="45.34942" lon="5.67926">
        <ele>570.312736813</ele>
        <time>2015-05-12T19:36:20Z</time>
      </trkpt>
      <trkpt lat="45.34948" lon="5.6792">
        <ele>570.312736813</ele>
        <time>2015-05-12T19:36:24Z</time>
      </trkpt>
      <trkpt lat="45.3495" lon="5.67921">
        <ele>565.717236076</ele>
        <time>2015-05-12T19:36:30Z</time>
      </trkpt>
      <trkpt lat="45.34951" lon="5.6792">
        <ele>565.717236076</ele>
        <time>2015-05-12T19:36:35Z</time>
      </trkpt>
      <trkpt lat="45.34952" lon="5.6792">
        <ele>565.717236076</ele>
        <time>2015-05-12T19:36:40Z</time>
      </trkpt>
      <trkpt lat="45.34953" lon="5.67919">
        <ele>565.717236076</ele>
        <time>2015-05-12T19:36:45Z</time>
      </trkpt>
      <trkpt lat="45.34964" lon="5.67913">
        <ele>561.307198343</ele>
        <time>2015-05-12T19:36:50Z</time>
      </trkpt>
      <trkpt lat="45.34973" lon="5.67918">
        <ele>556.782162199</ele>
        <time>2015-05-12T19:36:55Z</time>
      </trkpt>
      <trkpt lat="45.34977" lon="5.67924">
        <ele>556.782162199</ele>
        <time>2015-05-12T19:37:00Z</time>
      </trkpt>
      <trkpt lat="45.34984" lon="5.67928">
        <ele>552.584601765</ele>
        <time>2015-05-12T19:37:05Z</time>
      </trkpt>
      <trkpt lat="45.34989" lon="5.67933">
        <ele>552.584601765</ele>
        <time>2015-05-12T19:37:10Z</time>
      </trkpt>
      <trkpt lat="45.34996" lon="5.67936">
        <ele>548.258883904</ele>
        <time>2015-05-12T19:37:15Z</time>
      </trkpt>
      <trkpt lat="45.34998" lon="5.67937">
        <ele>548.258883904</ele>
        <time>2015-05-12T19:37:20Z</time>
      </trkpt>
      <trkpt lat="45.35" lon="5.67938">
        <ele>548.258883904</ele>
        <time>2015-05-12T19:37:25Z</time>
      </trkpt>
      <trkpt lat="45.35007" lon="5.67941">
        <ele>544.680187351</ele>
        <time>2015-05-12T19:37:30Z</time>
      </trkpt>
      <trkpt lat="45.35015" lon="5.67942">
        <ele>544.680187351</ele>
        <time>2015-05-12T19:37:35Z</time>
      </trkpt>
      <trkpt lat="45.35027" lon="5.67952">
        <ele>540.927952521</ele>
        <time>2015-05-12T19:37:40Z</time>
      </trkpt>
      <trkpt lat="45.35033" lon="5.67956">
        <ele>540.927952521</ele>
        <time>2015-05-12T19:37:45Z</time>
      </trkpt>
      <trkpt lat="45.35041" lon="5.67956">
        <ele>536.005600252</ele>
        <time>2015-05-12T19:37:50Z</time>
      </trkpt>
      <trkpt lat="45.3505" lon="5.67955">
        <ele>536.005600252</ele>
        <time>2015-05-12T19:37:54Z</time>
      </trkpt>
      <trkpt lat="45.35055" lon="5.67946">
        <ele>531.587023973</ele>
        <time>2015-05-12T19:38:00Z</time>
      </trkpt>
      <trkpt lat="45.35061" lon="5.67939">
        <ele>531.587023973</ele>
        <time>2015-05-12T19:38:05Z</time>
      </trkpt>
      <trkpt lat="45.35069" lon="5.67935">
        <ele>527.924721358</ele>
        <time>2015-05-12T19:38:10Z</time>
      </trkpt>
      <trkpt lat="45.35074" lon="5.67933">
        <ele>527.924721358</ele>
        <time>2015-05-12T19:38:15Z</time>
      </trkpt>
      <trkpt lat="45.3508" lon="5.67923">
        <ele>524.385834392</ele>
        <time>2015-05-12T19:38:20Z</time>
      </trkpt>
      <trkpt lat="45.35086" lon="5.67908">
        <ele>521.104186895</ele>
        <time>2015-05-12T19:38:25Z</time>
      </trkpt>
      <trkpt lat="45.35098" lon="5.67901">
        <ele>518.058926885</ele>
        <time>2015-05-12T19:38:30Z</time>
      </trkpt>
      <trkpt lat="45.35101" lon="5.6789">
        <ele>518.058926885</ele>
        <time>2015-05-12T19:38:35Z</time>
      </trkpt>
      <trkpt lat="45.35106" lon="5.67889">
        <ele>515.085954147</ele>
        <time>2015-05-12T19:38:40Z</time>
      </trkpt>
      <trkpt lat="45.35113" lon="5.67882">
        <ele>515.085954147</ele>
        <time>2015-05-12T19:38:45Z</time>
      </trkpt>
      <trkpt lat="45.35113" lon="5.67875">
        <ele>512.321244834</ele>
        <time>2015-05-12T19:38:50Z</time>
      </trkpt>
      <trkpt lat="45.35115" lon="5.67865">
        <ele>512.321244834</ele>
        <time>2015-05-12T19:38:55Z</time>
      </trkpt>
      <trkpt lat="45.35113" lon="5.67849">
        <ele>510.322547546</ele>
        <time>2015-05-12T19:39:00Z</time>
      </trkpt>
      <trkpt lat="45.35113" lon="5.67837">
        <ele>510.322547546</ele>
        <time>2015-05-12T19:39:05Z</time>
      </trkpt>
      <trkpt lat="45.35114" lon="5.67827">
        <ele>509.028069516</ele>
        <time>2015-05-12T19:39:09Z</time>
      </trkpt>
    </trkseg>
  </trk>
</gpx>